<?xml version="1.0" encoding="UTF-8" standalone="no" ?>
<gpx xmlns="http://www.topografix.com/GPX/1/1" xmlns:xsi="http://www.w3.org/2001/XMLSchema-instance" xsi:schemaLocation="http://www.topografix.com/GPX/1/1 http://www.topografix.com/GPX/1/1/gpx.xsd" version="1.1" creator="VisuGPX - https://www.visugpx.com">
  <metadata>
    <name>Mas de la Barque-Pic Cassini-L'Aubaret-Pierre Froide</name>
    <desc><![CDATA[Pic Cassini depuis Mas de la Barque, puis retour par l'Aubaret, Vialasse et ruisseau de la Pudissine]]></desc>
  </metadata>
  <trk>
    <name><![CDATA[Nouveau tracé]]></name>
    <trkseg>
      <trkpt lat="44.3858" lon="3.87505">
        <ele>1429</ele>
        <time>1970-01-01T00:00:01.000Z</time>
      </trkpt>
      <trkpt lat="44.38588" lon="3.87511">
        <ele>1432</ele>
        <time>1970-01-01T00:00:02.000Z</time>
      </trkpt>
      <trkpt lat="44.38588" lon="3.87511">
        <ele>1432</ele>
        <time>1970-01-01T00:00:03.000Z</time>
      </trkpt>
      <trkpt lat="44.38596" lon="3.87516">
        <ele>1432</ele>
        <time>1970-01-01T00:00:04.000Z</time>
      </trkpt>
      <trkpt lat="44.38596" lon="3.87517">
        <ele>1432</ele>
        <time>1970-01-01T00:00:05.000Z</time>
      </trkpt>
      <trkpt lat="44.38603" lon="3.87509">
        <ele>1432</ele>
        <time>1970-01-01T00:00:06.000Z</time>
      </trkpt>
      <trkpt lat="44.3861" lon="3.87501">
        <ele>1432</ele>
        <time>1970-01-01T00:00:07.000Z</time>
      </trkpt>
      <trkpt lat="44.3861" lon="3.87501">
        <ele>1432</ele>
        <time>1970-01-01T00:00:08.000Z</time>
      </trkpt>
      <trkpt lat="44.38617" lon="3.87493">
        <ele>1433</ele>
        <time>1970-01-01T00:00:09.000Z</time>
      </trkpt>
      <trkpt lat="44.38624" lon="3.87485">
        <ele>1433</ele>
        <time>1970-01-01T00:00:10.000Z</time>
      </trkpt>
      <trkpt lat="44.38631" lon="3.87477">
        <ele>1434</ele>
        <time>1970-01-01T00:00:11.000Z</time>
      </trkpt>
      <trkpt lat="44.38631" lon="3.87477">
        <ele>1434</ele>
        <time>1970-01-01T00:00:12.000Z</time>
      </trkpt>
      <trkpt lat="44.38638" lon="3.87471">
        <ele>1434</ele>
        <time>1970-01-01T00:00:13.000Z</time>
      </trkpt>
      <trkpt lat="44.38644" lon="3.87461">
        <ele>1434</ele>
        <time>1970-01-01T00:00:14.000Z</time>
      </trkpt>
      <trkpt lat="44.38644" lon="3.87461">
        <ele>1434</ele>
        <time>1970-01-01T00:00:15.000Z</time>
      </trkpt>
      <trkpt lat="44.38649" lon="3.87452">
        <ele>1434</ele>
        <time>1970-01-01T00:00:16.000Z</time>
      </trkpt>
      <trkpt lat="44.38655" lon="3.87442">
        <ele>1434</ele>
        <time>1970-01-01T00:00:17.000Z</time>
      </trkpt>
      <trkpt lat="44.38655" lon="3.87442">
        <ele>1434</ele>
        <time>1970-01-01T00:00:18.000Z</time>
      </trkpt>
      <trkpt lat="44.38661" lon="3.87433">
        <ele>1435</ele>
        <time>1970-01-01T00:00:19.000Z</time>
      </trkpt>
      <trkpt lat="44.38667" lon="3.87423">
        <ele>1435</ele>
        <time>1970-01-01T00:00:20.000Z</time>
      </trkpt>
      <trkpt lat="44.38667" lon="3.87423">
        <ele>1438</ele>
        <time>1970-01-01T00:00:21.000Z</time>
      </trkpt>
      <trkpt lat="44.38673" lon="3.87414">
        <ele>1438</ele>
        <time>1970-01-01T00:00:22.000Z</time>
      </trkpt>
      <trkpt lat="44.38679" lon="3.87405">
        <ele>1440</ele>
        <time>1970-01-01T00:00:23.000Z</time>
      </trkpt>
      <trkpt lat="44.38685" lon="3.87395">
        <ele>1442</ele>
        <time>1970-01-01T00:00:24.000Z</time>
      </trkpt>
      <trkpt lat="44.38685" lon="3.87395">
        <ele>1442</ele>
        <time>1970-01-01T00:00:25.000Z</time>
      </trkpt>
      <trkpt lat="44.38691" lon="3.87386">
        <ele>1442</ele>
        <time>1970-01-01T00:00:26.000Z</time>
      </trkpt>
      <trkpt lat="44.38697" lon="3.87376">
        <ele>1443</ele>
        <time>1970-01-01T00:00:27.000Z</time>
      </trkpt>
      <trkpt lat="44.38697" lon="3.87376">
        <ele>1443</ele>
        <time>1970-01-01T00:00:28.000Z</time>
      </trkpt>
      <trkpt lat="44.38703" lon="3.87367">
        <ele>1443</ele>
        <time>1970-01-01T00:00:29.000Z</time>
      </trkpt>
      <trkpt lat="44.38704" lon="3.87365">
        <ele>1443</ele>
        <time>1970-01-01T00:00:30.000Z</time>
      </trkpt>
      <trkpt lat="44.3871" lon="3.87356">
        <ele>1444</ele>
        <time>1970-01-01T00:00:31.000Z</time>
      </trkpt>
      <trkpt lat="44.38717" lon="3.87347">
        <ele>1445</ele>
        <time>1970-01-01T00:00:32.000Z</time>
      </trkpt>
      <trkpt lat="44.38717" lon="3.87347">
        <ele>1445</ele>
        <time>1970-01-01T00:00:33.000Z</time>
      </trkpt>
      <trkpt lat="44.38723" lon="3.87338">
        <ele>1446</ele>
        <time>1970-01-01T00:00:34.000Z</time>
      </trkpt>
      <trkpt lat="44.38729" lon="3.87329">
        <ele>1445</ele>
        <time>1970-01-01T00:00:35.000Z</time>
      </trkpt>
      <trkpt lat="44.38736" lon="3.8732">
        <ele>1445</ele>
        <time>1970-01-01T00:00:36.000Z</time>
      </trkpt>
      <trkpt lat="44.38736" lon="3.8732">
        <ele>1445</ele>
        <time>1970-01-01T00:00:37.000Z</time>
      </trkpt>
      <trkpt lat="44.38737" lon="3.87319">
        <ele>1445</ele>
        <time>1970-01-01T00:00:38.000Z</time>
      </trkpt>
      <trkpt lat="44.38744" lon="3.87311">
        <ele>1445</ele>
        <time>1970-01-01T00:00:39.000Z</time>
      </trkpt>
      <trkpt lat="44.3875" lon="3.87303">
        <ele>1452</ele>
        <time>1970-01-01T00:00:40.000Z</time>
      </trkpt>
      <trkpt lat="44.38757" lon="3.87295">
        <ele>1452</ele>
        <time>1970-01-01T00:00:41.000Z</time>
      </trkpt>
      <trkpt lat="44.38762" lon="3.8729">
        <ele>1452</ele>
        <time>1970-01-01T00:00:42.000Z</time>
      </trkpt>
      <trkpt lat="44.3877" lon="3.87286">
        <ele>1453</ele>
        <time>1970-01-01T00:00:43.000Z</time>
      </trkpt>
      <trkpt lat="44.38778" lon="3.87282">
        <ele>1453</ele>
        <time>1970-01-01T00:00:44.000Z</time>
      </trkpt>
      <trkpt lat="44.38787" lon="3.87279">
        <ele>1453</ele>
        <time>1970-01-01T00:00:45.000Z</time>
      </trkpt>
      <trkpt lat="44.38787" lon="3.87279">
        <ele>1453</ele>
        <time>1970-01-01T00:00:46.000Z</time>
      </trkpt>
      <trkpt lat="44.38795" lon="3.87276">
        <ele>1454</ele>
        <time>1970-01-01T00:00:47.000Z</time>
      </trkpt>
      <trkpt lat="44.38804" lon="3.87273">
        <ele>1455</ele>
        <time>1970-01-01T00:00:48.000Z</time>
      </trkpt>
      <trkpt lat="44.38804" lon="3.87273">
        <ele>1455</ele>
        <time>1970-01-01T00:00:49.000Z</time>
      </trkpt>
      <trkpt lat="44.38813" lon="3.8727">
        <ele>1455</ele>
        <time>1970-01-01T00:00:50.000Z</time>
      </trkpt>
      <trkpt lat="44.38813" lon="3.8727">
        <ele>1455</ele>
        <time>1970-01-01T00:00:51.000Z</time>
      </trkpt>
      <trkpt lat="44.38822" lon="3.87268">
        <ele>1456</ele>
        <time>1970-01-01T00:00:52.000Z</time>
      </trkpt>
      <trkpt lat="44.38822" lon="3.87268">
        <ele>1456</ele>
        <time>1970-01-01T00:00:53.000Z</time>
      </trkpt>
      <trkpt lat="44.38823" lon="3.87267">
        <ele>1456</ele>
        <time>1970-01-01T00:00:54.000Z</time>
      </trkpt>
      <trkpt lat="44.38832" lon="3.87264">
        <ele>1456</ele>
        <time>1970-01-01T00:00:55.000Z</time>
      </trkpt>
      <trkpt lat="44.38832" lon="3.87264">
        <ele>1456</ele>
        <time>1970-01-01T00:00:56.000Z</time>
      </trkpt>
      <trkpt lat="44.3884" lon="3.87261">
        <ele>1461</ele>
        <time>1970-01-01T00:00:57.000Z</time>
      </trkpt>
      <trkpt lat="44.38848" lon="3.87257">
        <ele>1461</ele>
        <time>1970-01-01T00:00:58.000Z</time>
      </trkpt>
      <trkpt lat="44.38849" lon="3.87257">
        <ele>1461</ele>
        <time>1970-01-01T00:00:59.000Z</time>
      </trkpt>
      <trkpt lat="44.38856" lon="3.87254">
        <ele>1462</ele>
        <time>1970-01-01T00:01:00.000Z</time>
      </trkpt>
      <trkpt lat="44.38865" lon="3.87252">
        <ele>1463</ele>
        <time>1970-01-01T00:01:01.000Z</time>
      </trkpt>
      <trkpt lat="44.38874" lon="3.87249">
        <ele>1461</ele>
        <time>1970-01-01T00:01:02.000Z</time>
      </trkpt>
      <trkpt lat="44.38874" lon="3.87249">
        <ele>1461</ele>
        <time>1970-01-01T00:01:03.000Z</time>
      </trkpt>
      <trkpt lat="44.38881" lon="3.87247">
        <ele>1462</ele>
        <time>1970-01-01T00:01:04.000Z</time>
      </trkpt>
      <trkpt lat="44.3889" lon="3.87245">
        <ele>1463</ele>
        <time>1970-01-01T00:01:05.000Z</time>
      </trkpt>
      <trkpt lat="44.3889" lon="3.87245">
        <ele>1463</ele>
        <time>1970-01-01T00:01:06.000Z</time>
      </trkpt>
      <trkpt lat="44.38899" lon="3.87242">
        <ele>1463</ele>
        <time>1970-01-01T00:01:07.000Z</time>
      </trkpt>
      <trkpt lat="44.38899" lon="3.87242">
        <ele>1463</ele>
        <time>1970-01-01T00:01:08.000Z</time>
      </trkpt>
      <trkpt lat="44.38908" lon="3.8724">
        <ele>1464</ele>
        <time>1970-01-01T00:01:09.000Z</time>
      </trkpt>
      <trkpt lat="44.38908" lon="3.8724">
        <ele>1464</ele>
        <time>1970-01-01T00:01:10.000Z</time>
      </trkpt>
      <trkpt lat="44.38917" lon="3.87238">
        <ele>1468</ele>
        <time>1970-01-01T00:01:11.000Z</time>
      </trkpt>
      <trkpt lat="44.38917" lon="3.87238">
        <ele>1468</ele>
        <time>1970-01-01T00:01:12.000Z</time>
      </trkpt>
      <trkpt lat="44.38918" lon="3.87237">
        <ele>1468</ele>
        <time>1970-01-01T00:01:13.000Z</time>
      </trkpt>
      <trkpt lat="44.38927" lon="3.87235">
        <ele>1468</ele>
        <time>1970-01-01T00:01:14.000Z</time>
      </trkpt>
      <trkpt lat="44.38927" lon="3.87235">
        <ele>1468</ele>
        <time>1970-01-01T00:01:15.000Z</time>
      </trkpt>
      <trkpt lat="44.38936" lon="3.87233">
        <ele>1469</ele>
        <time>1970-01-01T00:01:16.000Z</time>
      </trkpt>
      <trkpt lat="44.38945" lon="3.87231">
        <ele>1470</ele>
        <time>1970-01-01T00:01:17.000Z</time>
      </trkpt>
      <trkpt lat="44.38945" lon="3.87231">
        <ele>1470</ele>
        <time>1970-01-01T00:01:18.000Z</time>
      </trkpt>
      <trkpt lat="44.38951" lon="3.8723">
        <ele>1470</ele>
        <time>1970-01-01T00:01:19.000Z</time>
      </trkpt>
      <trkpt lat="44.3896" lon="3.87226">
        <ele>1471</ele>
        <time>1970-01-01T00:01:20.000Z</time>
      </trkpt>
      <trkpt lat="44.3896" lon="3.87226">
        <ele>1471</ele>
        <time>1970-01-01T00:01:21.000Z</time>
      </trkpt>
      <trkpt lat="44.38968" lon="3.87222">
        <ele>1471</ele>
        <time>1970-01-01T00:01:22.000Z</time>
      </trkpt>
      <trkpt lat="44.38969" lon="3.87222">
        <ele>1471</ele>
        <time>1970-01-01T00:01:23.000Z</time>
      </trkpt>
      <trkpt lat="44.38977" lon="3.87218">
        <ele>1472</ele>
        <time>1970-01-01T00:01:24.000Z</time>
      </trkpt>
      <trkpt lat="44.38983" lon="3.87216">
        <ele>1472</ele>
        <time>1970-01-01T00:01:25.000Z</time>
      </trkpt>
      <trkpt lat="44.38992" lon="3.87211">
        <ele>1472</ele>
        <time>1970-01-01T00:01:26.000Z</time>
      </trkpt>
      <trkpt lat="44.38992" lon="3.87211">
        <ele>1472</ele>
        <time>1970-01-01T00:01:27.000Z</time>
      </trkpt>
      <trkpt lat="44.39" lon="3.87207">
        <ele>1472</ele>
        <time>1970-01-01T00:01:28.000Z</time>
      </trkpt>
      <trkpt lat="44.39008" lon="3.87203">
        <ele>1480</ele>
        <time>1970-01-01T00:01:29.000Z</time>
      </trkpt>
      <trkpt lat="44.39014" lon="3.872">
        <ele>1480</ele>
        <time>1970-01-01T00:01:30.000Z</time>
      </trkpt>
      <trkpt lat="44.39021" lon="3.87193">
        <ele>1480</ele>
        <time>1970-01-01T00:01:31.000Z</time>
      </trkpt>
      <trkpt lat="44.39029" lon="3.87186">
        <ele>1481</ele>
        <time>1970-01-01T00:01:32.000Z</time>
      </trkpt>
      <trkpt lat="44.39029" lon="3.87186">
        <ele>1481</ele>
        <time>1970-01-01T00:01:33.000Z</time>
      </trkpt>
      <trkpt lat="44.39036" lon="3.87179">
        <ele>1481</ele>
        <time>1970-01-01T00:01:34.000Z</time>
      </trkpt>
      <trkpt lat="44.39043" lon="3.87172">
        <ele>1482</ele>
        <time>1970-01-01T00:01:35.000Z</time>
      </trkpt>
      <trkpt lat="44.39051" lon="3.87165">
        <ele>1478</ele>
        <time>1970-01-01T00:01:36.000Z</time>
      </trkpt>
      <trkpt lat="44.39051" lon="3.87165">
        <ele>1478</ele>
        <time>1970-01-01T00:01:37.000Z</time>
      </trkpt>
      <trkpt lat="44.39051" lon="3.87164">
        <ele>1478</ele>
        <time>1970-01-01T00:01:38.000Z</time>
      </trkpt>
      <trkpt lat="44.39059" lon="3.87157">
        <ele>1479</ele>
        <time>1970-01-01T00:01:39.000Z</time>
      </trkpt>
      <trkpt lat="44.39059" lon="3.87157">
        <ele>1479</ele>
        <time>1970-01-01T00:01:40.000Z</time>
      </trkpt>
      <trkpt lat="44.39066" lon="3.8715">
        <ele>1479</ele>
        <time>1970-01-01T00:01:41.000Z</time>
      </trkpt>
      <trkpt lat="44.39074" lon="3.87143">
        <ele>1479</ele>
        <time>1970-01-01T00:01:42.000Z</time>
      </trkpt>
      <trkpt lat="44.39074" lon="3.87143">
        <ele>1479</ele>
        <time>1970-01-01T00:01:43.000Z</time>
      </trkpt>
      <trkpt lat="44.39081" lon="3.87136">
        <ele>1479</ele>
        <time>1970-01-01T00:01:44.000Z</time>
      </trkpt>
      <trkpt lat="44.39088" lon="3.87129">
        <ele>1488</ele>
        <time>1970-01-01T00:01:45.000Z</time>
      </trkpt>
      <trkpt lat="44.39094" lon="3.87124">
        <ele>1488</ele>
        <time>1970-01-01T00:01:46.000Z</time>
      </trkpt>
      <trkpt lat="44.39101" lon="3.87117">
        <ele>1488</ele>
        <time>1970-01-01T00:01:47.000Z</time>
      </trkpt>
      <trkpt lat="44.39109" lon="3.8711">
        <ele>1489</ele>
        <time>1970-01-01T00:01:48.000Z</time>
      </trkpt>
      <trkpt lat="44.39109" lon="3.8711">
        <ele>1489</ele>
        <time>1970-01-01T00:01:49.000Z</time>
      </trkpt>
      <trkpt lat="44.39115" lon="3.87104">
        <ele>1489</ele>
        <time>1970-01-01T00:01:50.000Z</time>
      </trkpt>
      <trkpt lat="44.39122" lon="3.87095">
        <ele>1490</ele>
        <time>1970-01-01T00:01:51.000Z</time>
      </trkpt>
      <trkpt lat="44.39122" lon="3.87095">
        <ele>1490</ele>
        <time>1970-01-01T00:01:52.000Z</time>
      </trkpt>
      <trkpt lat="44.39128" lon="3.87086">
        <ele>1491</ele>
        <time>1970-01-01T00:01:53.000Z</time>
      </trkpt>
      <trkpt lat="44.39134" lon="3.87077">
        <ele>1488</ele>
        <time>1970-01-01T00:01:54.000Z</time>
      </trkpt>
      <trkpt lat="44.39136" lon="3.87074">
        <ele>1489</ele>
        <time>1970-01-01T00:01:55.000Z</time>
      </trkpt>
      <trkpt lat="44.39141" lon="3.87064">
        <ele>1489</ele>
        <time>1970-01-01T00:01:56.000Z</time>
      </trkpt>
      <trkpt lat="44.39146" lon="3.87053">
        <ele>1489</ele>
        <time>1970-01-01T00:01:57.000Z</time>
      </trkpt>
      <trkpt lat="44.39146" lon="3.87053">
        <ele>1489</ele>
        <time>1970-01-01T00:01:58.000Z</time>
      </trkpt>
      <trkpt lat="44.39147" lon="3.87052">
        <ele>1489</ele>
        <time>1970-01-01T00:01:59.000Z</time>
      </trkpt>
      <trkpt lat="44.39148" lon="3.8704">
        <ele>1489</ele>
        <time>1970-01-01T00:02:00.000Z</time>
      </trkpt>
      <trkpt lat="44.39149" lon="3.87028">
        <ele>1489</ele>
        <time>1970-01-01T00:02:01.000Z</time>
      </trkpt>
      <trkpt lat="44.39149" lon="3.87027">
        <ele>1489</ele>
        <time>1970-01-01T00:02:02.000Z</time>
      </trkpt>
      <trkpt lat="44.39151" lon="3.87015">
        <ele>1490</ele>
        <time>1970-01-01T00:02:03.000Z</time>
      </trkpt>
      <trkpt lat="44.39152" lon="3.87004">
        <ele>1491</ele>
        <time>1970-01-01T00:02:04.000Z</time>
      </trkpt>
      <trkpt lat="44.39155" lon="3.86992">
        <ele>1491</ele>
        <time>1970-01-01T00:02:05.000Z</time>
      </trkpt>
      <trkpt lat="44.39155" lon="3.86992">
        <ele>1491</ele>
        <time>1970-01-01T00:02:06.000Z</time>
      </trkpt>
      <trkpt lat="44.39158" lon="3.8698">
        <ele>1491</ele>
        <time>1970-01-01T00:02:07.000Z</time>
      </trkpt>
      <trkpt lat="44.39158" lon="3.8698">
        <ele>1491</ele>
        <time>1970-01-01T00:02:08.000Z</time>
      </trkpt>
      <trkpt lat="44.39161" lon="3.86969">
        <ele>1490</ele>
        <time>1970-01-01T00:02:09.000Z</time>
      </trkpt>
      <trkpt lat="44.39166" lon="3.86958">
        <ele>1490</ele>
        <time>1970-01-01T00:02:10.000Z</time>
      </trkpt>
      <trkpt lat="44.39166" lon="3.86958">
        <ele>1490</ele>
        <time>1970-01-01T00:02:11.000Z</time>
      </trkpt>
      <trkpt lat="44.39167" lon="3.86956">
        <ele>1500</ele>
        <time>1970-01-01T00:02:12.000Z</time>
      </trkpt>
      <trkpt lat="44.39169" lon="3.86944">
        <ele>1499</ele>
        <time>1970-01-01T00:02:13.000Z</time>
      </trkpt>
      <trkpt lat="44.39172" lon="3.86932">
        <ele>1499</ele>
        <time>1970-01-01T00:02:14.000Z</time>
      </trkpt>
      <trkpt lat="44.39172" lon="3.86932">
        <ele>1499</ele>
        <time>1970-01-01T00:02:15.000Z</time>
      </trkpt>
      <trkpt lat="44.39174" lon="3.8692">
        <ele>1497</ele>
        <time>1970-01-01T00:02:16.000Z</time>
      </trkpt>
      <trkpt lat="44.39175" lon="3.86915">
        <ele>1497</ele>
        <time>1970-01-01T00:02:17.000Z</time>
      </trkpt>
      <trkpt lat="44.3918" lon="3.86925">
        <ele>1499</ele>
        <time>1970-01-01T00:02:18.000Z</time>
      </trkpt>
      <trkpt lat="44.39185" lon="3.86936">
        <ele>1500</ele>
        <time>1970-01-01T00:02:19.000Z</time>
      </trkpt>
      <trkpt lat="44.39185" lon="3.86936">
        <ele>1500</ele>
        <time>1970-01-01T00:02:20.000Z</time>
      </trkpt>
      <trkpt lat="44.3919" lon="3.86947">
        <ele>1501</ele>
        <time>1970-01-01T00:02:21.000Z</time>
      </trkpt>
      <trkpt lat="44.3919" lon="3.86947">
        <ele>1501</ele>
        <time>1970-01-01T00:02:22.000Z</time>
      </trkpt>
      <trkpt lat="44.39195" lon="3.86957">
        <ele>1502</ele>
        <time>1970-01-01T00:02:23.000Z</time>
      </trkpt>
      <trkpt lat="44.39199" lon="3.86968">
        <ele>1502</ele>
        <time>1970-01-01T00:02:24.000Z</time>
      </trkpt>
      <trkpt lat="44.39204" lon="3.86978">
        <ele>1503</ele>
        <time>1970-01-01T00:02:25.000Z</time>
      </trkpt>
      <trkpt lat="44.39209" lon="3.86989">
        <ele>1503</ele>
        <time>1970-01-01T00:02:26.000Z</time>
      </trkpt>
      <trkpt lat="44.39209" lon="3.86989">
        <ele>1503</ele>
        <time>1970-01-01T00:02:27.000Z</time>
      </trkpt>
      <trkpt lat="44.39211" lon="3.86992">
        <ele>1504</ele>
        <time>1970-01-01T00:02:28.000Z</time>
      </trkpt>
      <trkpt lat="44.39212" lon="3.87004">
        <ele>1505</ele>
        <time>1970-01-01T00:02:29.000Z</time>
      </trkpt>
      <trkpt lat="44.39212" lon="3.87005">
        <ele>1505</ele>
        <time>1970-01-01T00:02:30.000Z</time>
      </trkpt>
      <trkpt lat="44.39212" lon="3.87017">
        <ele>1505</ele>
        <time>1970-01-01T00:02:31.000Z</time>
      </trkpt>
      <trkpt lat="44.39213" lon="3.87029">
        <ele>1506</ele>
        <time>1970-01-01T00:02:32.000Z</time>
      </trkpt>
      <trkpt lat="44.39213" lon="3.8703">
        <ele>1506</ele>
        <time>1970-01-01T00:02:33.000Z</time>
      </trkpt>
      <trkpt lat="44.39214" lon="3.87042">
        <ele>1506</ele>
        <time>1970-01-01T00:02:34.000Z</time>
      </trkpt>
      <trkpt lat="44.39214" lon="3.87042">
        <ele>1506</ele>
        <time>1970-01-01T00:02:35.000Z</time>
      </trkpt>
      <trkpt lat="44.39215" lon="3.87054">
        <ele>1506</ele>
        <time>1970-01-01T00:02:36.000Z</time>
      </trkpt>
      <trkpt lat="44.39215" lon="3.87055">
        <ele>1506</ele>
        <time>1970-01-01T00:02:37.000Z</time>
      </trkpt>
      <trkpt lat="44.39215" lon="3.87067">
        <ele>1507</ele>
        <time>1970-01-01T00:02:38.000Z</time>
      </trkpt>
      <trkpt lat="44.39215" lon="3.8708">
        <ele>1507</ele>
        <time>1970-01-01T00:02:39.000Z</time>
      </trkpt>
      <trkpt lat="44.39215" lon="3.8708">
        <ele>1507</ele>
        <time>1970-01-01T00:02:40.000Z</time>
      </trkpt>
      <trkpt lat="44.39216" lon="3.87092">
        <ele>1511</ele>
        <time>1970-01-01T00:02:41.000Z</time>
      </trkpt>
      <trkpt lat="44.39216" lon="3.87092">
        <ele>1511</ele>
        <time>1970-01-01T00:02:42.000Z</time>
      </trkpt>
      <trkpt lat="44.39224" lon="3.87087">
        <ele>1512</ele>
        <time>1970-01-01T00:02:43.000Z</time>
      </trkpt>
      <trkpt lat="44.39232" lon="3.87082">
        <ele>1511</ele>
        <time>1970-01-01T00:02:44.000Z</time>
      </trkpt>
      <trkpt lat="44.39234" lon="3.8707">
        <ele>1510</ele>
        <time>1970-01-01T00:02:45.000Z</time>
      </trkpt>
      <trkpt lat="44.39235" lon="3.87058">
        <ele>1509</ele>
        <time>1970-01-01T00:02:46.000Z</time>
      </trkpt>
      <trkpt lat="44.3924" lon="3.87047">
        <ele>1509</ele>
        <time>1970-01-01T00:02:47.000Z</time>
      </trkpt>
      <trkpt lat="44.3924" lon="3.87047">
        <ele>1509</ele>
        <time>1970-01-01T00:02:48.000Z</time>
      </trkpt>
      <trkpt lat="44.39244" lon="3.87036">
        <ele>1509</ele>
        <time>1970-01-01T00:02:49.000Z</time>
      </trkpt>
      <trkpt lat="44.39249" lon="3.87026">
        <ele>1509</ele>
        <time>1970-01-01T00:02:50.000Z</time>
      </trkpt>
      <trkpt lat="44.39253" lon="3.87015">
        <ele>1518</ele>
        <time>1970-01-01T00:02:51.000Z</time>
      </trkpt>
      <trkpt lat="44.39258" lon="3.87004">
        <ele>1517</ele>
        <time>1970-01-01T00:02:52.000Z</time>
      </trkpt>
      <trkpt lat="44.39258" lon="3.87004">
        <ele>1517</ele>
        <time>1970-01-01T00:02:53.000Z</time>
      </trkpt>
      <trkpt lat="44.39262" lon="3.86993">
        <ele>1516</ele>
        <time>1970-01-01T00:02:54.000Z</time>
      </trkpt>
      <trkpt lat="44.39264" lon="3.86991">
        <ele>1517</ele>
        <time>1970-01-01T00:02:55.000Z</time>
      </trkpt>
      <trkpt lat="44.39268" lon="3.8698">
        <ele>1518</ele>
        <time>1970-01-01T00:02:56.000Z</time>
      </trkpt>
      <trkpt lat="44.39273" lon="3.8697">
        <ele>1518</ele>
        <time>1970-01-01T00:02:57.000Z</time>
      </trkpt>
      <trkpt lat="44.39277" lon="3.86963">
        <ele>1519</ele>
        <time>1970-01-01T00:02:58.000Z</time>
      </trkpt>
      <trkpt lat="44.39283" lon="3.86954">
        <ele>1519</ele>
        <time>1970-01-01T00:02:59.000Z</time>
      </trkpt>
      <trkpt lat="44.39289" lon="3.86945">
        <ele>1519</ele>
        <time>1970-01-01T00:03:00.000Z</time>
      </trkpt>
      <trkpt lat="44.3929" lon="3.86943">
        <ele>1519</ele>
        <time>1970-01-01T00:03:01.000Z</time>
      </trkpt>
      <trkpt lat="44.39295" lon="3.86933">
        <ele>1520</ele>
        <time>1970-01-01T00:03:02.000Z</time>
      </trkpt>
      <trkpt lat="44.39301" lon="3.86923">
        <ele>1520</ele>
        <time>1970-01-01T00:03:03.000Z</time>
      </trkpt>
      <trkpt lat="44.39301" lon="3.86923">
        <ele>1520</ele>
        <time>1970-01-01T00:03:04.000Z</time>
      </trkpt>
      <trkpt lat="44.39302" lon="3.8692">
        <ele>1520</ele>
        <time>1970-01-01T00:03:05.000Z</time>
      </trkpt>
      <trkpt lat="44.3931" lon="3.86914">
        <ele>1518</ele>
        <time>1970-01-01T00:03:06.000Z</time>
      </trkpt>
      <trkpt lat="44.3931" lon="3.86914">
        <ele>1518</ele>
        <time>1970-01-01T00:03:07.000Z</time>
      </trkpt>
      <trkpt lat="44.39318" lon="3.86908">
        <ele>1519</ele>
        <time>1970-01-01T00:03:08.000Z</time>
      </trkpt>
      <trkpt lat="44.39318" lon="3.86908">
        <ele>1519</ele>
        <time>1970-01-01T00:03:09.000Z</time>
      </trkpt>
      <trkpt lat="44.39326" lon="3.86902">
        <ele>1519</ele>
        <time>1970-01-01T00:03:10.000Z</time>
      </trkpt>
      <trkpt lat="44.39326" lon="3.86902">
        <ele>1519</ele>
        <time>1970-01-01T00:03:11.000Z</time>
      </trkpt>
      <trkpt lat="44.39334" lon="3.86899">
        <ele>1526</ele>
        <time>1970-01-01T00:03:12.000Z</time>
      </trkpt>
      <trkpt lat="44.39342" lon="3.86895">
        <ele>1527</ele>
        <time>1970-01-01T00:03:13.000Z</time>
      </trkpt>
      <trkpt lat="44.39343" lon="3.86895">
        <ele>1527</ele>
        <time>1970-01-01T00:03:14.000Z</time>
      </trkpt>
      <trkpt lat="44.39352" lon="3.86892">
        <ele>1528</ele>
        <time>1970-01-01T00:03:15.000Z</time>
      </trkpt>
      <trkpt lat="44.39352" lon="3.86892">
        <ele>1528</ele>
        <time>1970-01-01T00:03:16.000Z</time>
      </trkpt>
      <trkpt lat="44.39357" lon="3.8689">
        <ele>1528</ele>
        <time>1970-01-01T00:03:17.000Z</time>
      </trkpt>
      <trkpt lat="44.39365" lon="3.86883">
        <ele>1529</ele>
        <time>1970-01-01T00:03:18.000Z</time>
      </trkpt>
      <trkpt lat="44.39365" lon="3.86883">
        <ele>1529</ele>
        <time>1970-01-01T00:03:19.000Z</time>
      </trkpt>
      <trkpt lat="44.39372" lon="3.86876">
        <ele>1529</ele>
        <time>1970-01-01T00:03:20.000Z</time>
      </trkpt>
      <trkpt lat="44.3938" lon="3.86869">
        <ele>1530</ele>
        <time>1970-01-01T00:03:21.000Z</time>
      </trkpt>
      <trkpt lat="44.3938" lon="3.86869">
        <ele>1530</ele>
        <time>1970-01-01T00:03:22.000Z</time>
      </trkpt>
      <trkpt lat="44.39381" lon="3.86867">
        <ele>1530</ele>
        <time>1970-01-01T00:03:23.000Z</time>
      </trkpt>
      <trkpt lat="44.39386" lon="3.86857">
        <ele>1530</ele>
        <time>1970-01-01T00:03:24.000Z</time>
      </trkpt>
      <trkpt lat="44.39391" lon="3.86847">
        <ele>1531</ele>
        <time>1970-01-01T00:03:25.000Z</time>
      </trkpt>
      <trkpt lat="44.39396" lon="3.86836">
        <ele>1532</ele>
        <time>1970-01-01T00:03:26.000Z</time>
      </trkpt>
      <trkpt lat="44.39396" lon="3.86836">
        <ele>1532</ele>
        <time>1970-01-01T00:03:27.000Z</time>
      </trkpt>
      <trkpt lat="44.394" lon="3.86827">
        <ele>1530</ele>
        <time>1970-01-01T00:03:28.000Z</time>
      </trkpt>
      <trkpt lat="44.39405" lon="3.86817">
        <ele>1529</ele>
        <time>1970-01-01T00:03:29.000Z</time>
      </trkpt>
      <trkpt lat="44.3941" lon="3.86806">
        <ele>1528</ele>
        <time>1970-01-01T00:03:30.000Z</time>
      </trkpt>
      <trkpt lat="44.3941" lon="3.86806">
        <ele>1528</ele>
        <time>1970-01-01T00:03:31.000Z</time>
      </trkpt>
      <trkpt lat="44.39415" lon="3.86796">
        <ele>1527</ele>
        <time>1970-01-01T00:03:32.000Z</time>
      </trkpt>
      <trkpt lat="44.3942" lon="3.86785">
        <ele>1540</ele>
        <time>1970-01-01T00:03:33.000Z</time>
      </trkpt>
      <trkpt lat="44.3942" lon="3.86785">
        <ele>1540</ele>
        <time>1970-01-01T00:03:34.000Z</time>
      </trkpt>
      <trkpt lat="44.39425" lon="3.86775">
        <ele>1539</ele>
        <time>1970-01-01T00:03:35.000Z</time>
      </trkpt>
      <trkpt lat="44.39428" lon="3.8677">
        <ele>1539</ele>
        <time>1970-01-01T00:03:36.000Z</time>
      </trkpt>
      <trkpt lat="44.39432" lon="3.86759">
        <ele>1538</ele>
        <time>1970-01-01T00:03:37.000Z</time>
      </trkpt>
      <trkpt lat="44.39437" lon="3.86749">
        <ele>1535</ele>
        <time>1970-01-01T00:03:38.000Z</time>
      </trkpt>
      <trkpt lat="44.39442" lon="3.86738">
        <ele>1536</ele>
        <time>1970-01-01T00:03:39.000Z</time>
      </trkpt>
      <trkpt lat="44.39442" lon="3.86738">
        <ele>1536</ele>
        <time>1970-01-01T00:03:40.000Z</time>
      </trkpt>
      <trkpt lat="44.39442" lon="3.86737">
        <ele>1536</ele>
        <time>1970-01-01T00:03:41.000Z</time>
      </trkpt>
      <trkpt lat="44.39448" lon="3.86728">
        <ele>1537</ele>
        <time>1970-01-01T00:03:42.000Z</time>
      </trkpt>
      <trkpt lat="44.39455" lon="3.86719">
        <ele>1538</ele>
        <time>1970-01-01T00:03:43.000Z</time>
      </trkpt>
      <trkpt lat="44.39455" lon="3.86719">
        <ele>1538</ele>
        <time>1970-01-01T00:03:44.000Z</time>
      </trkpt>
      <trkpt lat="44.39461" lon="3.8671">
        <ele>1538</ele>
        <time>1970-01-01T00:03:45.000Z</time>
      </trkpt>
      <trkpt lat="44.39467" lon="3.86701">
        <ele>1539</ele>
        <time>1970-01-01T00:03:46.000Z</time>
      </trkpt>
      <trkpt lat="44.39474" lon="3.86693">
        <ele>1539</ele>
        <time>1970-01-01T00:03:47.000Z</time>
      </trkpt>
      <trkpt lat="44.39474" lon="3.86693">
        <ele>1539</ele>
        <time>1970-01-01T00:03:48.000Z</time>
      </trkpt>
      <trkpt lat="44.3948" lon="3.86684">
        <ele>1540</ele>
        <time>1970-01-01T00:03:49.000Z</time>
      </trkpt>
      <trkpt lat="44.39486" lon="3.86675">
        <ele>1541</ele>
        <time>1970-01-01T00:03:50.000Z</time>
      </trkpt>
      <trkpt lat="44.39492" lon="3.86666">
        <ele>1540</ele>
        <time>1970-01-01T00:03:51.000Z</time>
      </trkpt>
      <trkpt lat="44.39499" lon="3.86657">
        <ele>1539</ele>
        <time>1970-01-01T00:03:52.000Z</time>
      </trkpt>
      <trkpt lat="44.39499" lon="3.86657">
        <ele>1539</ele>
        <time>1970-01-01T00:03:53.000Z</time>
      </trkpt>
      <trkpt lat="44.39505" lon="3.86648">
        <ele>1547</ele>
        <time>1970-01-01T00:03:54.000Z</time>
      </trkpt>
      <trkpt lat="44.39509" lon="3.86642">
        <ele>1547</ele>
        <time>1970-01-01T00:03:55.000Z</time>
      </trkpt>
      <trkpt lat="44.39516" lon="3.86634">
        <ele>1548</ele>
        <time>1970-01-01T00:03:56.000Z</time>
      </trkpt>
      <trkpt lat="44.39516" lon="3.86634">
        <ele>1548</ele>
        <time>1970-01-01T00:03:57.000Z</time>
      </trkpt>
      <trkpt lat="44.39523" lon="3.86626">
        <ele>1548</ele>
        <time>1970-01-01T00:03:58.000Z</time>
      </trkpt>
      <trkpt lat="44.39529" lon="3.86617">
        <ele>1548</ele>
        <time>1970-01-01T00:03:59.000Z</time>
      </trkpt>
      <trkpt lat="44.39536" lon="3.86609">
        <ele>1549</ele>
        <time>1970-01-01T00:04:00.000Z</time>
      </trkpt>
      <trkpt lat="44.39543" lon="3.86601">
        <ele>1550</ele>
        <time>1970-01-01T00:04:01.000Z</time>
      </trkpt>
      <trkpt lat="44.39543" lon="3.866">
        <ele>1550</ele>
        <time>1970-01-01T00:04:02.000Z</time>
      </trkpt>
      <trkpt lat="44.39544" lon="3.86598">
        <ele>1550</ele>
        <time>1970-01-01T00:04:03.000Z</time>
      </trkpt>
      <trkpt lat="44.3955" lon="3.86589">
        <ele>1551</ele>
        <time>1970-01-01T00:04:04.000Z</time>
      </trkpt>
      <trkpt lat="44.39556" lon="3.8658">
        <ele>1549</ele>
        <time>1970-01-01T00:04:05.000Z</time>
      </trkpt>
      <trkpt lat="44.39557" lon="3.86579">
        <ele>1549</ele>
        <time>1970-01-01T00:04:06.000Z</time>
      </trkpt>
      <trkpt lat="44.39563" lon="3.8657">
        <ele>1550</ele>
        <time>1970-01-01T00:04:07.000Z</time>
      </trkpt>
      <trkpt lat="44.39569" lon="3.86561">
        <ele>1550</ele>
        <time>1970-01-01T00:04:08.000Z</time>
      </trkpt>
      <trkpt lat="44.39569" lon="3.86559">
        <ele>1549</ele>
        <time>1970-01-01T00:04:09.000Z</time>
      </trkpt>
      <trkpt lat="44.39573" lon="3.86548">
        <ele>1549</ele>
        <time>1970-01-01T00:04:10.000Z</time>
      </trkpt>
      <trkpt lat="44.39576" lon="3.86536">
        <ele>1549</ele>
        <time>1970-01-01T00:04:11.000Z</time>
      </trkpt>
      <trkpt lat="44.39576" lon="3.86536">
        <ele>1549</ele>
        <time>1970-01-01T00:04:12.000Z</time>
      </trkpt>
      <trkpt lat="44.39578" lon="3.86528">
        <ele>1549</ele>
        <time>1970-01-01T00:04:13.000Z</time>
      </trkpt>
      <trkpt lat="44.39579" lon="3.86516">
        <ele>1550</ele>
        <time>1970-01-01T00:04:14.000Z</time>
      </trkpt>
      <trkpt lat="44.39579" lon="3.86515">
        <ele>1550</ele>
        <time>1970-01-01T00:04:15.000Z</time>
      </trkpt>
      <trkpt lat="44.39581" lon="3.86503">
        <ele>1553</ele>
        <time>1970-01-01T00:04:16.000Z</time>
      </trkpt>
      <trkpt lat="44.39582" lon="3.86491">
        <ele>1552</ele>
        <time>1970-01-01T00:04:17.000Z</time>
      </trkpt>
      <trkpt lat="44.39583" lon="3.86479">
        <ele>1550</ele>
        <time>1970-01-01T00:04:18.000Z</time>
      </trkpt>
      <trkpt lat="44.39581" lon="3.86467">
        <ele>1549</ele>
        <time>1970-01-01T00:04:19.000Z</time>
      </trkpt>
      <trkpt lat="44.39579" lon="3.86455">
        <ele>1550</ele>
        <time>1970-01-01T00:04:20.000Z</time>
      </trkpt>
      <trkpt lat="44.39576" lon="3.86443">
        <ele>1550</ele>
        <time>1970-01-01T00:04:21.000Z</time>
      </trkpt>
      <trkpt lat="44.39576" lon="3.86443">
        <ele>1550</ele>
        <time>1970-01-01T00:04:22.000Z</time>
      </trkpt>
      <trkpt lat="44.39574" lon="3.86431">
        <ele>1552</ele>
        <time>1970-01-01T00:04:23.000Z</time>
      </trkpt>
      <trkpt lat="44.39574" lon="3.8643">
        <ele>1552</ele>
        <time>1970-01-01T00:04:24.000Z</time>
      </trkpt>
      <trkpt lat="44.39572" lon="3.86418">
        <ele>1554</ele>
        <time>1970-01-01T00:04:25.000Z</time>
      </trkpt>
      <trkpt lat="44.3957" lon="3.86406">
        <ele>1556</ele>
        <time>1970-01-01T00:04:26.000Z</time>
      </trkpt>
      <trkpt lat="44.39568" lon="3.86394">
        <ele>1555</ele>
        <time>1970-01-01T00:04:27.000Z</time>
      </trkpt>
      <trkpt lat="44.39565" lon="3.86382">
        <ele>1555</ele>
        <time>1970-01-01T00:04:28.000Z</time>
      </trkpt>
      <trkpt lat="44.39565" lon="3.86382">
        <ele>1555</ele>
        <time>1970-01-01T00:04:29.000Z</time>
      </trkpt>
      <trkpt lat="44.39563" lon="3.8637">
        <ele>1556</ele>
        <time>1970-01-01T00:04:30.000Z</time>
      </trkpt>
      <trkpt lat="44.39561" lon="3.86358">
        <ele>1556</ele>
        <time>1970-01-01T00:04:31.000Z</time>
      </trkpt>
      <trkpt lat="44.39561" lon="3.86357">
        <ele>1557</ele>
        <time>1970-01-01T00:04:32.000Z</time>
      </trkpt>
      <trkpt lat="44.39559" lon="3.86347">
        <ele>1557</ele>
        <time>1970-01-01T00:04:33.000Z</time>
      </trkpt>
      <trkpt lat="44.39559" lon="3.86335">
        <ele>1558</ele>
        <time>1970-01-01T00:04:34.000Z</time>
      </trkpt>
      <trkpt lat="44.39558" lon="3.86323">
        <ele>1561</ele>
        <time>1970-01-01T00:04:35.000Z</time>
      </trkpt>
      <trkpt lat="44.39558" lon="3.86322">
        <ele>1561</ele>
        <time>1970-01-01T00:04:36.000Z</time>
      </trkpt>
      <trkpt lat="44.39558" lon="3.8631">
        <ele>1560</ele>
        <time>1970-01-01T00:04:37.000Z</time>
      </trkpt>
      <trkpt lat="44.39558" lon="3.86297">
        <ele>1560</ele>
        <time>1970-01-01T00:04:38.000Z</time>
      </trkpt>
      <trkpt lat="44.39558" lon="3.86297">
        <ele>1560</ele>
        <time>1970-01-01T00:04:39.000Z</time>
      </trkpt>
      <trkpt lat="44.39558" lon="3.86284">
        <ele>1561</ele>
        <time>1970-01-01T00:04:40.000Z</time>
      </trkpt>
      <trkpt lat="44.39558" lon="3.86284">
        <ele>1561</ele>
        <time>1970-01-01T00:04:41.000Z</time>
      </trkpt>
      <trkpt lat="44.39558" lon="3.86284">
        <ele>1561</ele>
        <time>1970-01-01T00:04:42.000Z</time>
      </trkpt>
      <trkpt lat="44.3956" lon="3.86272">
        <ele>1562</ele>
        <time>1970-01-01T00:04:43.000Z</time>
      </trkpt>
      <trkpt lat="44.39561" lon="3.8626">
        <ele>1563</ele>
        <time>1970-01-01T00:04:44.000Z</time>
      </trkpt>
      <trkpt lat="44.39563" lon="3.86248">
        <ele>1564</ele>
        <time>1970-01-01T00:04:45.000Z</time>
      </trkpt>
      <trkpt lat="44.39563" lon="3.86247">
        <ele>1564</ele>
        <time>1970-01-01T00:04:46.000Z</time>
      </trkpt>
      <trkpt lat="44.39565" lon="3.86235">
        <ele>1564</ele>
        <time>1970-01-01T00:04:47.000Z</time>
      </trkpt>
      <trkpt lat="44.39566" lon="3.86223">
        <ele>1563</ele>
        <time>1970-01-01T00:04:48.000Z</time>
      </trkpt>
      <trkpt lat="44.39566" lon="3.86222">
        <ele>1563</ele>
        <time>1970-01-01T00:04:49.000Z</time>
      </trkpt>
      <trkpt lat="44.39567" lon="3.86217">
        <ele>1563</ele>
        <time>1970-01-01T00:04:50.000Z</time>
      </trkpt>
      <trkpt lat="44.39569" lon="3.86205">
        <ele>1563</ele>
        <time>1970-01-01T00:04:51.000Z</time>
      </trkpt>
      <trkpt lat="44.39571" lon="3.86193">
        <ele>1564</ele>
        <time>1970-01-01T00:04:52.000Z</time>
      </trkpt>
      <trkpt lat="44.39571" lon="3.86192">
        <ele>1564</ele>
        <time>1970-01-01T00:04:53.000Z</time>
      </trkpt>
      <trkpt lat="44.39573" lon="3.8618">
        <ele>1565</ele>
        <time>1970-01-01T00:04:54.000Z</time>
      </trkpt>
      <trkpt lat="44.39574" lon="3.86168">
        <ele>1567</ele>
        <time>1970-01-01T00:04:55.000Z</time>
      </trkpt>
      <trkpt lat="44.39576" lon="3.86156">
        <ele>1566</ele>
        <time>1970-01-01T00:04:56.000Z</time>
      </trkpt>
      <trkpt lat="44.39576" lon="3.86155">
        <ele>1566</ele>
        <time>1970-01-01T00:04:57.000Z</time>
      </trkpt>
      <trkpt lat="44.39578" lon="3.86143">
        <ele>1564</ele>
        <time>1970-01-01T00:04:58.000Z</time>
      </trkpt>
      <trkpt lat="44.3958" lon="3.86131">
        <ele>1564</ele>
        <time>1970-01-01T00:04:59.000Z</time>
      </trkpt>
      <trkpt lat="44.39582" lon="3.86119">
        <ele>1564</ele>
        <time>1970-01-01T00:05:00.000Z</time>
      </trkpt>
      <trkpt lat="44.39584" lon="3.86107">
        <ele>1578</ele>
        <time>1970-01-01T00:05:01.000Z</time>
      </trkpt>
      <trkpt lat="44.39584" lon="3.86106">
        <ele>1578</ele>
        <time>1970-01-01T00:05:02.000Z</time>
      </trkpt>
      <trkpt lat="44.39586" lon="3.86094">
        <ele>1577</ele>
        <time>1970-01-01T00:05:03.000Z</time>
      </trkpt>
      <trkpt lat="44.39587" lon="3.86082">
        <ele>1575</ele>
        <time>1970-01-01T00:05:04.000Z</time>
      </trkpt>
      <trkpt lat="44.39589" lon="3.8607">
        <ele>1579</ele>
        <time>1970-01-01T00:05:05.000Z</time>
      </trkpt>
      <trkpt lat="44.39589" lon="3.86069">
        <ele>1580</ele>
        <time>1970-01-01T00:05:06.000Z</time>
      </trkpt>
      <trkpt lat="44.39591" lon="3.86057">
        <ele>1582</ele>
        <time>1970-01-01T00:05:07.000Z</time>
      </trkpt>
      <trkpt lat="44.39593" lon="3.86045">
        <ele>1584</ele>
        <time>1970-01-01T00:05:08.000Z</time>
      </trkpt>
      <trkpt lat="44.39595" lon="3.86035">
        <ele>1584</ele>
        <time>1970-01-01T00:05:09.000Z</time>
      </trkpt>
      <trkpt lat="44.39595" lon="3.86022">
        <ele>1584</ele>
        <time>1970-01-01T00:05:10.000Z</time>
      </trkpt>
      <trkpt lat="44.39595" lon="3.86022">
        <ele>1584</ele>
        <time>1970-01-01T00:05:11.000Z</time>
      </trkpt>
      <trkpt lat="44.39595" lon="3.86019">
        <ele>1584</ele>
        <time>1970-01-01T00:05:12.000Z</time>
      </trkpt>
      <trkpt lat="44.3959" lon="3.86008">
        <ele>1583</ele>
        <time>1970-01-01T00:05:13.000Z</time>
      </trkpt>
      <trkpt lat="44.3959" lon="3.86008">
        <ele>1582</ele>
        <time>1970-01-01T00:05:14.000Z</time>
      </trkpt>
      <trkpt lat="44.39586" lon="3.85997">
        <ele>1582</ele>
        <time>1970-01-01T00:05:15.000Z</time>
      </trkpt>
      <trkpt lat="44.39582" lon="3.85986">
        <ele>1579</ele>
        <time>1970-01-01T00:05:16.000Z</time>
      </trkpt>
      <trkpt lat="44.39578" lon="3.85975">
        <ele>1579</ele>
        <time>1970-01-01T00:05:17.000Z</time>
      </trkpt>
      <trkpt lat="44.39574" lon="3.85964">
        <ele>1579</ele>
        <time>1970-01-01T00:05:18.000Z</time>
      </trkpt>
      <trkpt lat="44.39569" lon="3.85953">
        <ele>1580</ele>
        <time>1970-01-01T00:05:19.000Z</time>
      </trkpt>
      <trkpt lat="44.39569" lon="3.85953">
        <ele>1580</ele>
        <time>1970-01-01T00:05:20.000Z</time>
      </trkpt>
      <trkpt lat="44.39565" lon="3.85942">
        <ele>1581</ele>
        <time>1970-01-01T00:05:21.000Z</time>
      </trkpt>
      <trkpt lat="44.39561" lon="3.85931">
        <ele>1582</ele>
        <time>1970-01-01T00:05:22.000Z</time>
      </trkpt>
      <trkpt lat="44.39557" lon="3.8592">
        <ele>1582</ele>
        <time>1970-01-01T00:05:23.000Z</time>
      </trkpt>
      <trkpt lat="44.39557" lon="3.85919">
        <ele>1582</ele>
        <time>1970-01-01T00:05:24.000Z</time>
      </trkpt>
      <trkpt lat="44.39556" lon="3.85919">
        <ele>1582</ele>
        <time>1970-01-01T00:05:25.000Z</time>
      </trkpt>
      <trkpt lat="44.39551" lon="3.85908">
        <ele>1588</ele>
        <time>1970-01-01T00:05:26.000Z</time>
      </trkpt>
      <trkpt lat="44.39551" lon="3.85908">
        <ele>1588</ele>
        <time>1970-01-01T00:05:27.000Z</time>
      </trkpt>
      <trkpt lat="44.39546" lon="3.85898">
        <ele>1587</ele>
        <time>1970-01-01T00:05:28.000Z</time>
      </trkpt>
      <trkpt lat="44.39541" lon="3.85888">
        <ele>1587</ele>
        <time>1970-01-01T00:05:29.000Z</time>
      </trkpt>
      <trkpt lat="44.39536" lon="3.85877">
        <ele>1587</ele>
        <time>1970-01-01T00:05:30.000Z</time>
      </trkpt>
      <trkpt lat="44.39536" lon="3.85877">
        <ele>1587</ele>
        <time>1970-01-01T00:05:31.000Z</time>
      </trkpt>
      <trkpt lat="44.39531" lon="3.85867">
        <ele>1588</ele>
        <time>1970-01-01T00:05:32.000Z</time>
      </trkpt>
      <trkpt lat="44.39526" lon="3.85857">
        <ele>1588</ele>
        <time>1970-01-01T00:05:33.000Z</time>
      </trkpt>
      <trkpt lat="44.39521" lon="3.85846">
        <ele>1588</ele>
        <time>1970-01-01T00:05:34.000Z</time>
      </trkpt>
      <trkpt lat="44.39521" lon="3.85846">
        <ele>1588</ele>
        <time>1970-01-01T00:05:35.000Z</time>
      </trkpt>
      <trkpt lat="44.39515" lon="3.85836">
        <ele>1588</ele>
        <time>1970-01-01T00:05:36.000Z</time>
      </trkpt>
      <trkpt lat="44.39515" lon="3.85836">
        <ele>1588</ele>
        <time>1970-01-01T00:05:37.000Z</time>
      </trkpt>
      <trkpt lat="44.3951" lon="3.85826">
        <ele>1590</ele>
        <time>1970-01-01T00:05:38.000Z</time>
      </trkpt>
      <trkpt lat="44.39507" lon="3.85819">
        <ele>1590</ele>
        <time>1970-01-01T00:05:39.000Z</time>
      </trkpt>
      <trkpt lat="44.39503" lon="3.85808">
        <ele>1592</ele>
        <time>1970-01-01T00:05:40.000Z</time>
      </trkpt>
      <trkpt lat="44.39503" lon="3.85807">
        <ele>1592</ele>
        <time>1970-01-01T00:05:41.000Z</time>
      </trkpt>
      <trkpt lat="44.39499" lon="3.85796">
        <ele>1588</ele>
        <time>1970-01-01T00:05:42.000Z</time>
      </trkpt>
      <trkpt lat="44.39495" lon="3.85785">
        <ele>1589</ele>
        <time>1970-01-01T00:05:43.000Z</time>
      </trkpt>
      <trkpt lat="44.39491" lon="3.85774">
        <ele>1590</ele>
        <time>1970-01-01T00:05:44.000Z</time>
      </trkpt>
      <trkpt lat="44.39491" lon="3.85773">
        <ele>1590</ele>
        <time>1970-01-01T00:05:45.000Z</time>
      </trkpt>
      <trkpt lat="44.39491" lon="3.85771">
        <ele>1590</ele>
        <time>1970-01-01T00:05:46.000Z</time>
      </trkpt>
      <trkpt lat="44.39488" lon="3.85759">
        <ele>1591</ele>
        <time>1970-01-01T00:05:47.000Z</time>
      </trkpt>
      <trkpt lat="44.39488" lon="3.85759">
        <ele>1591</ele>
        <time>1970-01-01T00:05:48.000Z</time>
      </trkpt>
      <trkpt lat="44.39486" lon="3.85747">
        <ele>1591</ele>
        <time>1970-01-01T00:05:49.000Z</time>
      </trkpt>
      <trkpt lat="44.39484" lon="3.85741">
        <ele>1591</ele>
        <time>1970-01-01T00:05:50.000Z</time>
      </trkpt>
      <trkpt lat="44.39484" lon="3.85729">
        <ele>1591</ele>
        <time>1970-01-01T00:05:51.000Z</time>
      </trkpt>
      <trkpt lat="44.39485" lon="3.85717">
        <ele>1590</ele>
        <time>1970-01-01T00:05:52.000Z</time>
      </trkpt>
      <trkpt lat="44.39485" lon="3.85716">
        <ele>1590</ele>
        <time>1970-01-01T00:05:53.000Z</time>
      </trkpt>
      <trkpt lat="44.39485" lon="3.85708">
        <ele>1590</ele>
        <time>1970-01-01T00:05:54.000Z</time>
      </trkpt>
      <trkpt lat="44.39494" lon="3.85706">
        <ele>1590</ele>
        <time>1970-01-01T00:05:55.000Z</time>
      </trkpt>
      <trkpt lat="44.39503" lon="3.85703">
        <ele>1593</ele>
        <time>1970-01-01T00:05:56.000Z</time>
      </trkpt>
      <trkpt lat="44.39503" lon="3.85703">
        <ele>1593</ele>
        <time>1970-01-01T00:05:57.000Z</time>
      </trkpt>
      <trkpt lat="44.39511" lon="3.85701">
        <ele>1593</ele>
        <time>1970-01-01T00:05:58.000Z</time>
      </trkpt>
      <trkpt lat="44.3952" lon="3.85698">
        <ele>1593</ele>
        <time>1970-01-01T00:05:59.000Z</time>
      </trkpt>
      <trkpt lat="44.3952" lon="3.85698">
        <ele>1593</ele>
        <time>1970-01-01T00:06:00.000Z</time>
      </trkpt>
      <trkpt lat="44.39526" lon="3.85697">
        <ele>1593</ele>
        <time>1970-01-01T00:06:01.000Z</time>
      </trkpt>
      <trkpt lat="44.39535" lon="3.85696">
        <ele>1593</ele>
        <time>1970-01-01T00:06:02.000Z</time>
      </trkpt>
      <trkpt lat="44.39536" lon="3.85696">
        <ele>1593</ele>
        <time>1970-01-01T00:06:03.000Z</time>
      </trkpt>
      <trkpt lat="44.39544" lon="3.85696">
        <ele>1593</ele>
        <time>1970-01-01T00:06:04.000Z</time>
      </trkpt>
      <trkpt lat="44.39553" lon="3.85696">
        <ele>1594</ele>
        <time>1970-01-01T00:06:05.000Z</time>
      </trkpt>
      <trkpt lat="44.39553" lon="3.85696">
        <ele>1594</ele>
        <time>1970-01-01T00:06:06.000Z</time>
      </trkpt>
      <trkpt lat="44.39561" lon="3.85695">
        <ele>1594</ele>
        <time>1970-01-01T00:06:07.000Z</time>
      </trkpt>
      <trkpt lat="44.3957" lon="3.85695">
        <ele>1594</ele>
        <time>1970-01-01T00:06:08.000Z</time>
      </trkpt>
      <trkpt lat="44.39571" lon="3.85695">
        <ele>1594</ele>
        <time>1970-01-01T00:06:09.000Z</time>
      </trkpt>
      <trkpt lat="44.39579" lon="3.85694">
        <ele>1594</ele>
        <time>1970-01-01T00:06:10.000Z</time>
      </trkpt>
      <trkpt lat="44.39588" lon="3.85693">
        <ele>1597</ele>
        <time>1970-01-01T00:06:11.000Z</time>
      </trkpt>
      <trkpt lat="44.39589" lon="3.85693">
        <ele>1597</ele>
        <time>1970-01-01T00:06:12.000Z</time>
      </trkpt>
      <trkpt lat="44.39597" lon="3.85693">
        <ele>1597</ele>
        <time>1970-01-01T00:06:13.000Z</time>
      </trkpt>
      <trkpt lat="44.39598" lon="3.85692">
        <ele>1597</ele>
        <time>1970-01-01T00:06:14.000Z</time>
      </trkpt>
      <trkpt lat="44.39607" lon="3.8569">
        <ele>1597</ele>
        <time>1970-01-01T00:06:15.000Z</time>
      </trkpt>
      <trkpt lat="44.39616" lon="3.85687">
        <ele>1597</ele>
        <time>1970-01-01T00:06:16.000Z</time>
      </trkpt>
      <trkpt lat="44.39616" lon="3.85687">
        <ele>1597</ele>
        <time>1970-01-01T00:06:17.000Z</time>
      </trkpt>
      <trkpt lat="44.39625" lon="3.85684">
        <ele>1598</ele>
        <time>1970-01-01T00:06:18.000Z</time>
      </trkpt>
      <trkpt lat="44.39625" lon="3.85684">
        <ele>1598</ele>
        <time>1970-01-01T00:06:19.000Z</time>
      </trkpt>
      <trkpt lat="44.39634" lon="3.85682">
        <ele>1598</ele>
        <time>1970-01-01T00:06:20.000Z</time>
      </trkpt>
      <trkpt lat="44.39641" lon="3.8568">
        <ele>1598</ele>
        <time>1970-01-01T00:06:21.000Z</time>
      </trkpt>
      <trkpt lat="44.3965" lon="3.85681">
        <ele>1598</ele>
        <time>1970-01-01T00:06:22.000Z</time>
      </trkpt>
      <trkpt lat="44.39658" lon="3.85683">
        <ele>1598</ele>
        <time>1970-01-01T00:06:23.000Z</time>
      </trkpt>
      <trkpt lat="44.39667" lon="3.85685">
        <ele>1599</ele>
        <time>1970-01-01T00:06:24.000Z</time>
      </trkpt>
      <trkpt lat="44.39668" lon="3.85685">
        <ele>1599</ele>
        <time>1970-01-01T00:06:25.000Z</time>
      </trkpt>
      <trkpt lat="44.39676" lon="3.85687">
        <ele>1599</ele>
        <time>1970-01-01T00:06:26.000Z</time>
      </trkpt>
      <trkpt lat="44.39684" lon="3.85688">
        <ele>1599</ele>
        <time>1970-01-01T00:06:27.000Z</time>
      </trkpt>
      <trkpt lat="44.39692" lon="3.85692">
        <ele>1600</ele>
        <time>1970-01-01T00:06:28.000Z</time>
      </trkpt>
      <trkpt lat="44.397" lon="3.85696">
        <ele>1600</ele>
        <time>1970-01-01T00:06:29.000Z</time>
      </trkpt>
      <trkpt lat="44.39701" lon="3.85696">
        <ele>1600</ele>
        <time>1970-01-01T00:06:30.000Z</time>
      </trkpt>
      <trkpt lat="44.39709" lon="3.857">
        <ele>1600</ele>
        <time>1970-01-01T00:06:31.000Z</time>
      </trkpt>
      <trkpt lat="44.39717" lon="3.85704">
        <ele>1600</ele>
        <time>1970-01-01T00:06:32.000Z</time>
      </trkpt>
      <trkpt lat="44.39718" lon="3.85704">
        <ele>1600</ele>
        <time>1970-01-01T00:06:33.000Z</time>
      </trkpt>
      <trkpt lat="44.39726" lon="3.85708">
        <ele>1601</ele>
        <time>1970-01-01T00:06:34.000Z</time>
      </trkpt>
      <trkpt lat="44.39727" lon="3.85708">
        <ele>1601</ele>
        <time>1970-01-01T00:06:35.000Z</time>
      </trkpt>
      <trkpt lat="44.39735" lon="3.85712">
        <ele>1601</ele>
        <time>1970-01-01T00:06:36.000Z</time>
      </trkpt>
      <trkpt lat="44.39743" lon="3.85716">
        <ele>1601</ele>
        <time>1970-01-01T00:06:37.000Z</time>
      </trkpt>
      <trkpt lat="44.39744" lon="3.85716">
        <ele>1601</ele>
        <time>1970-01-01T00:06:38.000Z</time>
      </trkpt>
      <trkpt lat="44.39752" lon="3.8572">
        <ele>1602</ele>
        <time>1970-01-01T00:06:39.000Z</time>
      </trkpt>
      <trkpt lat="44.39761" lon="3.85723">
        <ele>1602</ele>
        <time>1970-01-01T00:06:40.000Z</time>
      </trkpt>
      <trkpt lat="44.39761" lon="3.85723">
        <ele>1602</ele>
        <time>1970-01-01T00:06:41.000Z</time>
      </trkpt>
      <trkpt lat="44.39762" lon="3.85724">
        <ele>1602</ele>
        <time>1970-01-01T00:06:42.000Z</time>
      </trkpt>
      <trkpt lat="44.39771" lon="3.85725">
        <ele>1602</ele>
        <time>1970-01-01T00:06:43.000Z</time>
      </trkpt>
      <trkpt lat="44.3978" lon="3.85727">
        <ele>1602</ele>
        <time>1970-01-01T00:06:44.000Z</time>
      </trkpt>
      <trkpt lat="44.3978" lon="3.85727">
        <ele>1602</ele>
        <time>1970-01-01T00:06:45.000Z</time>
      </trkpt>
      <trkpt lat="44.39789" lon="3.85728">
        <ele>1602</ele>
        <time>1970-01-01T00:06:46.000Z</time>
      </trkpt>
      <trkpt lat="44.39793" lon="3.85728">
        <ele>1602</ele>
        <time>1970-01-01T00:06:47.000Z</time>
      </trkpt>
      <trkpt lat="44.39801" lon="3.85726">
        <ele>1602</ele>
        <time>1970-01-01T00:06:48.000Z</time>
      </trkpt>
      <trkpt lat="44.3981" lon="3.85723">
        <ele>1602</ele>
        <time>1970-01-01T00:06:49.000Z</time>
      </trkpt>
      <trkpt lat="44.3981" lon="3.85723">
        <ele>1602</ele>
        <time>1970-01-01T00:06:50.000Z</time>
      </trkpt>
      <trkpt lat="44.39819" lon="3.8572">
        <ele>1602</ele>
        <time>1970-01-01T00:06:51.000Z</time>
      </trkpt>
      <trkpt lat="44.39819" lon="3.8572">
        <ele>1602</ele>
        <time>1970-01-01T00:06:52.000Z</time>
      </trkpt>
      <trkpt lat="44.39828" lon="3.85718">
        <ele>1602</ele>
        <time>1970-01-01T00:06:53.000Z</time>
      </trkpt>
      <trkpt lat="44.39828" lon="3.85718">
        <ele>1602</ele>
        <time>1970-01-01T00:06:54.000Z</time>
      </trkpt>
      <trkpt lat="44.39835" lon="3.85715">
        <ele>1603</ele>
        <time>1970-01-01T00:06:55.000Z</time>
      </trkpt>
      <trkpt lat="44.39843" lon="3.8571">
        <ele>1603</ele>
        <time>1970-01-01T00:06:56.000Z</time>
      </trkpt>
      <trkpt lat="44.39851" lon="3.85704">
        <ele>1603</ele>
        <time>1970-01-01T00:06:57.000Z</time>
      </trkpt>
      <trkpt lat="44.39851" lon="3.85704">
        <ele>1603</ele>
        <time>1970-01-01T00:06:58.000Z</time>
      </trkpt>
      <trkpt lat="44.39859" lon="3.85698">
        <ele>1603</ele>
        <time>1970-01-01T00:06:59.000Z</time>
      </trkpt>
      <trkpt lat="44.39859" lon="3.85698">
        <ele>1603</ele>
        <time>1970-01-01T00:07:00.000Z</time>
      </trkpt>
      <trkpt lat="44.39867" lon="3.85693">
        <ele>1603</ele>
        <time>1970-01-01T00:07:01.000Z</time>
      </trkpt>
      <trkpt lat="44.39874" lon="3.85688">
        <ele>1603</ele>
        <time>1970-01-01T00:07:02.000Z</time>
      </trkpt>
      <trkpt lat="44.39881" lon="3.85681">
        <ele>1603</ele>
        <time>1970-01-01T00:07:03.000Z</time>
      </trkpt>
      <trkpt lat="44.39888" lon="3.85673">
        <ele>1603</ele>
        <time>1970-01-01T00:07:04.000Z</time>
      </trkpt>
      <trkpt lat="44.39896" lon="3.85666">
        <ele>1600</ele>
        <time>1970-01-01T00:07:05.000Z</time>
      </trkpt>
      <trkpt lat="44.39896" lon="3.85666">
        <ele>1600</ele>
        <time>1970-01-01T00:07:06.000Z</time>
      </trkpt>
      <trkpt lat="44.39903" lon="3.85659">
        <ele>1600</ele>
        <time>1970-01-01T00:07:07.000Z</time>
      </trkpt>
      <trkpt lat="44.3991" lon="3.85651">
        <ele>1600</ele>
        <time>1970-01-01T00:07:08.000Z</time>
      </trkpt>
      <trkpt lat="44.3991" lon="3.85651">
        <ele>1600</ele>
        <time>1970-01-01T00:07:09.000Z</time>
      </trkpt>
      <trkpt lat="44.39917" lon="3.85644">
        <ele>1601</ele>
        <time>1970-01-01T00:07:10.000Z</time>
      </trkpt>
      <trkpt lat="44.3992" lon="3.85641">
        <ele>1601</ele>
        <time>1970-01-01T00:07:11.000Z</time>
      </trkpt>
      <trkpt lat="44.39927" lon="3.85634">
        <ele>1600</ele>
        <time>1970-01-01T00:07:12.000Z</time>
      </trkpt>
      <trkpt lat="44.39928" lon="3.85633">
        <ele>1600</ele>
        <time>1970-01-01T00:07:13.000Z</time>
      </trkpt>
      <trkpt lat="44.39935" lon="3.85626">
        <ele>1599</ele>
        <time>1970-01-01T00:07:14.000Z</time>
      </trkpt>
      <trkpt lat="44.39942" lon="3.85618">
        <ele>1599</ele>
        <time>1970-01-01T00:07:15.000Z</time>
      </trkpt>
      <trkpt lat="44.39942" lon="3.85618">
        <ele>1599</ele>
        <time>1970-01-01T00:07:16.000Z</time>
      </trkpt>
      <trkpt lat="44.39949" lon="3.8561">
        <ele>1599</ele>
        <time>1970-01-01T00:07:17.000Z</time>
      </trkpt>
      <trkpt lat="44.39956" lon="3.85603">
        <ele>1598</ele>
        <time>1970-01-01T00:07:18.000Z</time>
      </trkpt>
      <trkpt lat="44.39958" lon="3.85601">
        <ele>1598</ele>
        <time>1970-01-01T00:07:19.000Z</time>
      </trkpt>
      <trkpt lat="44.39962" lon="3.8559">
        <ele>1598</ele>
        <time>1970-01-01T00:07:20.000Z</time>
      </trkpt>
      <trkpt lat="44.39964" lon="3.85586">
        <ele>1598</ele>
        <time>1970-01-01T00:07:21.000Z</time>
      </trkpt>
      <trkpt lat="44.39969" lon="3.85576">
        <ele>1596</ele>
        <time>1970-01-01T00:07:22.000Z</time>
      </trkpt>
      <trkpt lat="44.39974" lon="3.85566">
        <ele>1597</ele>
        <time>1970-01-01T00:07:23.000Z</time>
      </trkpt>
      <trkpt lat="44.39979" lon="3.85556">
        <ele>1597</ele>
        <time>1970-01-01T00:07:24.000Z</time>
      </trkpt>
      <trkpt lat="44.39979" lon="3.85555">
        <ele>1597</ele>
        <time>1970-01-01T00:07:25.000Z</time>
      </trkpt>
      <trkpt lat="44.39984" lon="3.85545">
        <ele>1597</ele>
        <time>1970-01-01T00:07:26.000Z</time>
      </trkpt>
      <trkpt lat="44.39989" lon="3.85534">
        <ele>1598</ele>
        <time>1970-01-01T00:07:27.000Z</time>
      </trkpt>
      <trkpt lat="44.39989" lon="3.85534">
        <ele>1598</ele>
        <time>1970-01-01T00:07:28.000Z</time>
      </trkpt>
      <trkpt lat="44.39992" lon="3.85529">
        <ele>1598</ele>
        <time>1970-01-01T00:07:29.000Z</time>
      </trkpt>
      <trkpt lat="44.39995" lon="3.85517">
        <ele>1599</ele>
        <time>1970-01-01T00:07:30.000Z</time>
      </trkpt>
      <trkpt lat="44.39995" lon="3.85517">
        <ele>1599</ele>
        <time>1970-01-01T00:07:31.000Z</time>
      </trkpt>
      <trkpt lat="44.39998" lon="3.85506">
        <ele>1601</ele>
        <time>1970-01-01T00:07:32.000Z</time>
      </trkpt>
      <trkpt lat="44.40002" lon="3.85495">
        <ele>1601</ele>
        <time>1970-01-01T00:07:33.000Z</time>
      </trkpt>
      <trkpt lat="44.40002" lon="3.85494">
        <ele>1600</ele>
        <time>1970-01-01T00:07:34.000Z</time>
      </trkpt>
      <trkpt lat="44.40005" lon="3.85482">
        <ele>1599</ele>
        <time>1970-01-01T00:07:35.000Z</time>
      </trkpt>
      <trkpt lat="44.40005" lon="3.85482">
        <ele>1599</ele>
        <time>1970-01-01T00:07:36.000Z</time>
      </trkpt>
      <trkpt lat="44.40009" lon="3.85471">
        <ele>1598</ele>
        <time>1970-01-01T00:07:37.000Z</time>
      </trkpt>
      <trkpt lat="44.40009" lon="3.8547">
        <ele>1598</ele>
        <time>1970-01-01T00:07:38.000Z</time>
      </trkpt>
      <trkpt lat="44.4001" lon="3.85458">
        <ele>1598</ele>
        <time>1970-01-01T00:07:39.000Z</time>
      </trkpt>
      <trkpt lat="44.40011" lon="3.85445">
        <ele>1599</ele>
        <time>1970-01-01T00:07:40.000Z</time>
      </trkpt>
      <trkpt lat="44.40011" lon="3.85445">
        <ele>1599</ele>
        <time>1970-01-01T00:07:41.000Z</time>
      </trkpt>
      <trkpt lat="44.40013" lon="3.85433">
        <ele>1600</ele>
        <time>1970-01-01T00:07:42.000Z</time>
      </trkpt>
      <trkpt lat="44.40014" lon="3.85421">
        <ele>1602</ele>
        <time>1970-01-01T00:07:43.000Z</time>
      </trkpt>
      <trkpt lat="44.40015" lon="3.85409">
        <ele>1607</ele>
        <time>1970-01-01T00:07:44.000Z</time>
      </trkpt>
      <trkpt lat="44.40015" lon="3.85408">
        <ele>1607</ele>
        <time>1970-01-01T00:07:45.000Z</time>
      </trkpt>
      <trkpt lat="44.40016" lon="3.85403">
        <ele>1607</ele>
        <time>1970-01-01T00:07:46.000Z</time>
      </trkpt>
      <trkpt lat="44.40016" lon="3.8539">
        <ele>1607</ele>
        <time>1970-01-01T00:07:47.000Z</time>
      </trkpt>
      <trkpt lat="44.40016" lon="3.8539">
        <ele>1607</ele>
        <time>1970-01-01T00:07:48.000Z</time>
      </trkpt>
      <trkpt lat="44.40016" lon="3.85378">
        <ele>1608</ele>
        <time>1970-01-01T00:07:49.000Z</time>
      </trkpt>
      <trkpt lat="44.40016" lon="3.85365">
        <ele>1608</ele>
        <time>1970-01-01T00:07:50.000Z</time>
      </trkpt>
      <trkpt lat="44.40016" lon="3.85365">
        <ele>1608</ele>
        <time>1970-01-01T00:07:51.000Z</time>
      </trkpt>
      <trkpt lat="44.40016" lon="3.85353">
        <ele>1609</ele>
        <time>1970-01-01T00:07:52.000Z</time>
      </trkpt>
      <trkpt lat="44.40016" lon="3.8534">
        <ele>1609</ele>
        <time>1970-01-01T00:07:53.000Z</time>
      </trkpt>
      <trkpt lat="44.40016" lon="3.8534">
        <ele>1609</ele>
        <time>1970-01-01T00:07:54.000Z</time>
      </trkpt>
      <trkpt lat="44.40016" lon="3.85328">
        <ele>1613</ele>
        <time>1970-01-01T00:07:55.000Z</time>
      </trkpt>
      <trkpt lat="44.40016" lon="3.85321">
        <ele>1614</ele>
        <time>1970-01-01T00:07:56.000Z</time>
      </trkpt>
      <trkpt lat="44.40014" lon="3.85309">
        <ele>1615</ele>
        <time>1970-01-01T00:07:57.000Z</time>
      </trkpt>
      <trkpt lat="44.40013" lon="3.85298">
        <ele>1616</ele>
        <time>1970-01-01T00:07:58.000Z</time>
      </trkpt>
      <trkpt lat="44.40016" lon="3.85286">
        <ele>1616</ele>
        <time>1970-01-01T00:07:59.000Z</time>
      </trkpt>
      <trkpt lat="44.40016" lon="3.85286">
        <ele>1616</ele>
        <time>1970-01-01T00:08:00.000Z</time>
      </trkpt>
      <trkpt lat="44.40018" lon="3.85274">
        <ele>1616</ele>
        <time>1970-01-01T00:08:01.000Z</time>
      </trkpt>
      <trkpt lat="44.40021" lon="3.85262">
        <ele>1616</ele>
        <time>1970-01-01T00:08:02.000Z</time>
      </trkpt>
      <trkpt lat="44.40021" lon="3.85262">
        <ele>1616</ele>
        <time>1970-01-01T00:08:03.000Z</time>
      </trkpt>
      <trkpt lat="44.40022" lon="3.85258">
        <ele>1616</ele>
        <time>1970-01-01T00:08:04.000Z</time>
      </trkpt>
      <trkpt lat="44.40021" lon="3.85246">
        <ele>1619</ele>
        <time>1970-01-01T00:08:05.000Z</time>
      </trkpt>
      <trkpt lat="44.4002" lon="3.85234">
        <ele>1620</ele>
        <time>1970-01-01T00:08:06.000Z</time>
      </trkpt>
      <trkpt lat="44.4002" lon="3.85233">
        <ele>1620</ele>
        <time>1970-01-01T00:08:07.000Z</time>
      </trkpt>
      <trkpt lat="44.40018" lon="3.85221">
        <ele>1621</ele>
        <time>1970-01-01T00:08:08.000Z</time>
      </trkpt>
      <trkpt lat="44.40021" lon="3.85209">
        <ele>1622</ele>
        <time>1970-01-01T00:08:09.000Z</time>
      </trkpt>
      <trkpt lat="44.40021" lon="3.85209">
        <ele>1622</ele>
        <time>1970-01-01T00:08:10.000Z</time>
      </trkpt>
      <trkpt lat="44.40023" lon="3.85197">
        <ele>1622</ele>
        <time>1970-01-01T00:08:11.000Z</time>
      </trkpt>
      <trkpt lat="44.40026" lon="3.85185">
        <ele>1623</ele>
        <time>1970-01-01T00:08:12.000Z</time>
      </trkpt>
      <trkpt lat="44.40026" lon="3.85185">
        <ele>1623</ele>
        <time>1970-01-01T00:08:13.000Z</time>
      </trkpt>
      <trkpt lat="44.40028" lon="3.85173">
        <ele>1623</ele>
        <time>1970-01-01T00:08:14.000Z</time>
      </trkpt>
      <trkpt lat="44.40028" lon="3.85172">
        <ele>1623</ele>
        <time>1970-01-01T00:08:15.000Z</time>
      </trkpt>
      <trkpt lat="44.40029" lon="3.8516">
        <ele>1628</ele>
        <time>1970-01-01T00:08:16.000Z</time>
      </trkpt>
      <trkpt lat="44.4003" lon="3.85151">
        <ele>1629</ele>
        <time>1970-01-01T00:08:17.000Z</time>
      </trkpt>
      <trkpt lat="44.40026" lon="3.8514">
        <ele>1630</ele>
        <time>1970-01-01T00:08:18.000Z</time>
      </trkpt>
      <trkpt lat="44.40026" lon="3.85139">
        <ele>1630</ele>
        <time>1970-01-01T00:08:19.000Z</time>
      </trkpt>
      <trkpt lat="44.40023" lon="3.85132">
        <ele>1630</ele>
        <time>1970-01-01T00:08:20.000Z</time>
      </trkpt>
      <trkpt lat="44.40016" lon="3.85125">
        <ele>1630</ele>
        <time>1970-01-01T00:08:21.000Z</time>
      </trkpt>
      <trkpt lat="44.40009" lon="3.85117">
        <ele>1631</ele>
        <time>1970-01-01T00:08:22.000Z</time>
      </trkpt>
      <trkpt lat="44.40009" lon="3.85117">
        <ele>1631</ele>
        <time>1970-01-01T00:08:23.000Z</time>
      </trkpt>
      <trkpt lat="44.40001" lon="3.8511">
        <ele>1632</ele>
        <time>1970-01-01T00:08:24.000Z</time>
      </trkpt>
      <trkpt lat="44.40001" lon="3.8511">
        <ele>1632</ele>
        <time>1970-01-01T00:08:25.000Z</time>
      </trkpt>
      <trkpt lat="44.39996" lon="3.85105">
        <ele>1628</ele>
        <time>1970-01-01T00:08:26.000Z</time>
      </trkpt>
      <trkpt lat="44.39989" lon="3.85096">
        <ele>1629</ele>
        <time>1970-01-01T00:08:27.000Z</time>
      </trkpt>
      <trkpt lat="44.39989" lon="3.85096">
        <ele>1629</ele>
        <time>1970-01-01T00:08:28.000Z</time>
      </trkpt>
      <trkpt lat="44.39983" lon="3.85088">
        <ele>1629</ele>
        <time>1970-01-01T00:08:29.000Z</time>
      </trkpt>
      <trkpt lat="44.39977" lon="3.85079">
        <ele>1636</ele>
        <time>1970-01-01T00:08:30.000Z</time>
      </trkpt>
      <trkpt lat="44.39976" lon="3.85079">
        <ele>1636</ele>
        <time>1970-01-01T00:08:31.000Z</time>
      </trkpt>
      <trkpt lat="44.3997" lon="3.85071">
        <ele>1636</ele>
        <time>1970-01-01T00:08:32.000Z</time>
      </trkpt>
      <trkpt lat="44.39968" lon="3.85069">
        <ele>1636</ele>
        <time>1970-01-01T00:08:33.000Z</time>
      </trkpt>
      <trkpt lat="44.3996" lon="3.85063">
        <ele>1636</ele>
        <time>1970-01-01T00:08:34.000Z</time>
      </trkpt>
      <trkpt lat="44.3996" lon="3.85063">
        <ele>1636</ele>
        <time>1970-01-01T00:08:35.000Z</time>
      </trkpt>
      <trkpt lat="44.39952" lon="3.85057">
        <ele>1636</ele>
        <time>1970-01-01T00:08:36.000Z</time>
      </trkpt>
      <trkpt lat="44.39952" lon="3.85057">
        <ele>1636</ele>
        <time>1970-01-01T00:08:37.000Z</time>
      </trkpt>
      <trkpt lat="44.39944" lon="3.85051">
        <ele>1637</ele>
        <time>1970-01-01T00:08:38.000Z</time>
      </trkpt>
      <trkpt lat="44.39944" lon="3.85051">
        <ele>1637</ele>
        <time>1970-01-01T00:08:39.000Z</time>
      </trkpt>
      <trkpt lat="44.39937" lon="3.85045">
        <ele>1637</ele>
        <time>1970-01-01T00:08:40.000Z</time>
      </trkpt>
      <trkpt lat="44.39929" lon="3.85039">
        <ele>1637</ele>
        <time>1970-01-01T00:08:41.000Z</time>
      </trkpt>
      <trkpt lat="44.39929" lon="3.85039">
        <ele>1637</ele>
        <time>1970-01-01T00:08:42.000Z</time>
      </trkpt>
      <trkpt lat="44.39921" lon="3.85032">
        <ele>1638</ele>
        <time>1970-01-01T00:08:43.000Z</time>
      </trkpt>
      <trkpt lat="44.39921" lon="3.85032">
        <ele>1638</ele>
        <time>1970-01-01T00:08:44.000Z</time>
      </trkpt>
      <trkpt lat="44.39913" lon="3.85026">
        <ele>1634</ele>
        <time>1970-01-01T00:08:45.000Z</time>
      </trkpt>
      <trkpt lat="44.39913" lon="3.85026">
        <ele>1634</ele>
        <time>1970-01-01T00:08:46.000Z</time>
      </trkpt>
      <trkpt lat="44.39906" lon="3.8502">
        <ele>1635</ele>
        <time>1970-01-01T00:08:47.000Z</time>
      </trkpt>
      <trkpt lat="44.39898" lon="3.85014">
        <ele>1635</ele>
        <time>1970-01-01T00:08:48.000Z</time>
      </trkpt>
      <trkpt lat="44.39898" lon="3.85014">
        <ele>1635</ele>
        <time>1970-01-01T00:08:49.000Z</time>
      </trkpt>
      <trkpt lat="44.39896" lon="3.85013">
        <ele>1634</ele>
        <time>1970-01-01T00:08:50.000Z</time>
      </trkpt>
      <trkpt lat="44.39896" lon="3.85001">
        <ele>1635</ele>
        <time>1970-01-01T00:08:51.000Z</time>
      </trkpt>
      <trkpt lat="44.39895" lon="3.84989">
        <ele>1638</ele>
        <time>1970-01-01T00:08:52.000Z</time>
      </trkpt>
      <trkpt lat="44.39895" lon="3.84988">
        <ele>1638</ele>
        <time>1970-01-01T00:08:53.000Z</time>
      </trkpt>
      <trkpt lat="44.39894" lon="3.8498">
        <ele>1638</ele>
        <time>1970-01-01T00:08:54.000Z</time>
      </trkpt>
      <trkpt lat="44.39899" lon="3.84969">
        <ele>1638</ele>
        <time>1970-01-01T00:08:55.000Z</time>
      </trkpt>
      <trkpt lat="44.39899" lon="3.84969">
        <ele>1638</ele>
        <time>1970-01-01T00:08:56.000Z</time>
      </trkpt>
      <trkpt lat="44.39903" lon="3.84958">
        <ele>1638</ele>
        <time>1970-01-01T00:08:57.000Z</time>
      </trkpt>
      <trkpt lat="44.39907" lon="3.84947">
        <ele>1639</ele>
        <time>1970-01-01T00:08:58.000Z</time>
      </trkpt>
      <trkpt lat="44.39912" lon="3.84936">
        <ele>1640</ele>
        <time>1970-01-01T00:08:59.000Z</time>
      </trkpt>
      <trkpt lat="44.39912" lon="3.84936">
        <ele>1640</ele>
        <time>1970-01-01T00:09:00.000Z</time>
      </trkpt>
      <trkpt lat="44.39916" lon="3.84925">
        <ele>1642</ele>
        <time>1970-01-01T00:09:01.000Z</time>
      </trkpt>
      <trkpt lat="44.3992" lon="3.84914">
        <ele>1645</ele>
        <time>1970-01-01T00:09:02.000Z</time>
      </trkpt>
      <trkpt lat="44.39925" lon="3.84903">
        <ele>1646</ele>
        <time>1970-01-01T00:09:03.000Z</time>
      </trkpt>
      <trkpt lat="44.39925" lon="3.84903">
        <ele>1646</ele>
        <time>1970-01-01T00:09:04.000Z</time>
      </trkpt>
      <trkpt lat="44.39929" lon="3.84892">
        <ele>1647</ele>
        <time>1970-01-01T00:09:05.000Z</time>
      </trkpt>
      <trkpt lat="44.3993" lon="3.84889">
        <ele>1647</ele>
        <time>1970-01-01T00:09:06.000Z</time>
      </trkpt>
      <trkpt lat="44.39936" lon="3.8488">
        <ele>1647</ele>
        <time>1970-01-01T00:09:07.000Z</time>
      </trkpt>
      <trkpt lat="44.39937" lon="3.8488">
        <ele>1647</ele>
        <time>1970-01-01T00:09:08.000Z</time>
      </trkpt>
      <trkpt lat="44.39944" lon="3.84872">
        <ele>1648</ele>
        <time>1970-01-01T00:09:09.000Z</time>
      </trkpt>
      <trkpt lat="44.39944" lon="3.84872">
        <ele>1648</ele>
        <time>1970-01-01T00:09:10.000Z</time>
      </trkpt>
      <trkpt lat="44.39951" lon="3.84864">
        <ele>1648</ele>
        <time>1970-01-01T00:09:11.000Z</time>
      </trkpt>
      <trkpt lat="44.39957" lon="3.84855">
        <ele>1648</ele>
        <time>1970-01-01T00:09:12.000Z</time>
      </trkpt>
      <trkpt lat="44.39964" lon="3.84847">
        <ele>1649</ele>
        <time>1970-01-01T00:09:13.000Z</time>
      </trkpt>
      <trkpt lat="44.3997" lon="3.8484">
        <ele>1650</ele>
        <time>1970-01-01T00:09:14.000Z</time>
      </trkpt>
      <trkpt lat="44.39975" lon="3.84829">
        <ele>1650</ele>
        <time>1970-01-01T00:09:15.000Z</time>
      </trkpt>
      <trkpt lat="44.39975" lon="3.84829">
        <ele>1650</ele>
        <time>1970-01-01T00:09:16.000Z</time>
      </trkpt>
      <trkpt lat="44.39979" lon="3.84818">
        <ele>1650</ele>
        <time>1970-01-01T00:09:17.000Z</time>
      </trkpt>
      <trkpt lat="44.39984" lon="3.84807">
        <ele>1650</ele>
        <time>1970-01-01T00:09:18.000Z</time>
      </trkpt>
      <trkpt lat="44.39984" lon="3.84807">
        <ele>1650</ele>
        <time>1970-01-01T00:09:19.000Z</time>
      </trkpt>
      <trkpt lat="44.39988" lon="3.84797">
        <ele>1650</ele>
        <time>1970-01-01T00:09:20.000Z</time>
      </trkpt>
      <trkpt lat="44.39993" lon="3.84786">
        <ele>1650</ele>
        <time>1970-01-01T00:09:21.000Z</time>
      </trkpt>
      <trkpt lat="44.39993" lon="3.84786">
        <ele>1650</ele>
        <time>1970-01-01T00:09:22.000Z</time>
      </trkpt>
      <trkpt lat="44.39997" lon="3.84777">
        <ele>1651</ele>
        <time>1970-01-01T00:09:23.000Z</time>
      </trkpt>
      <trkpt lat="44.40003" lon="3.84767">
        <ele>1657</ele>
        <time>1970-01-01T00:09:24.000Z</time>
      </trkpt>
      <trkpt lat="44.40003" lon="3.84767">
        <ele>1657</ele>
        <time>1970-01-01T00:09:25.000Z</time>
      </trkpt>
      <trkpt lat="44.40009" lon="3.84758">
        <ele>1657</ele>
        <time>1970-01-01T00:09:26.000Z</time>
      </trkpt>
      <trkpt lat="44.40015" lon="3.84749">
        <ele>1658</ele>
        <time>1970-01-01T00:09:27.000Z</time>
      </trkpt>
      <trkpt lat="44.40021" lon="3.84739">
        <ele>1660</ele>
        <time>1970-01-01T00:09:28.000Z</time>
      </trkpt>
      <trkpt lat="44.40021" lon="3.84739">
        <ele>1660</ele>
        <time>1970-01-01T00:09:29.000Z</time>
      </trkpt>
      <trkpt lat="44.40027" lon="3.8473">
        <ele>1661</ele>
        <time>1970-01-01T00:09:30.000Z</time>
      </trkpt>
      <trkpt lat="44.40033" lon="3.8472">
        <ele>1662</ele>
        <time>1970-01-01T00:09:31.000Z</time>
      </trkpt>
      <trkpt lat="44.40033" lon="3.8472">
        <ele>1662</ele>
        <time>1970-01-01T00:09:32.000Z</time>
      </trkpt>
      <trkpt lat="44.40039" lon="3.84711">
        <ele>1662</ele>
        <time>1970-01-01T00:09:33.000Z</time>
      </trkpt>
      <trkpt lat="44.40045" lon="3.84702">
        <ele>1663</ele>
        <time>1970-01-01T00:09:34.000Z</time>
      </trkpt>
      <trkpt lat="44.40051" lon="3.84692">
        <ele>1664</ele>
        <time>1970-01-01T00:09:35.000Z</time>
      </trkpt>
      <trkpt lat="44.40051" lon="3.84692">
        <ele>1664</ele>
        <time>1970-01-01T00:09:36.000Z</time>
      </trkpt>
      <trkpt lat="44.40055" lon="3.84685">
        <ele>1664</ele>
        <time>1970-01-01T00:09:37.000Z</time>
      </trkpt>
      <trkpt lat="44.40061" lon="3.84676">
        <ele>1666</ele>
        <time>1970-01-01T00:09:38.000Z</time>
      </trkpt>
      <trkpt lat="44.40067" lon="3.84666">
        <ele>1667</ele>
        <time>1970-01-01T00:09:39.000Z</time>
      </trkpt>
      <trkpt lat="44.40067" lon="3.84666">
        <ele>1667</ele>
        <time>1970-01-01T00:09:40.000Z</time>
      </trkpt>
      <trkpt lat="44.40073" lon="3.84657">
        <ele>1667</ele>
        <time>1970-01-01T00:09:41.000Z</time>
      </trkpt>
      <trkpt lat="44.40079" lon="3.84648">
        <ele>1667</ele>
        <time>1970-01-01T00:09:42.000Z</time>
      </trkpt>
      <trkpt lat="44.40086" lon="3.84641">
        <ele>1670</ele>
        <time>1970-01-01T00:09:43.000Z</time>
      </trkpt>
      <trkpt lat="44.40091" lon="3.84636">
        <ele>1670</ele>
        <time>1970-01-01T00:09:44.000Z</time>
      </trkpt>
      <trkpt lat="44.40093" lon="3.84624">
        <ele>1670</ele>
        <time>1970-01-01T00:09:45.000Z</time>
      </trkpt>
      <trkpt lat="44.40095" lon="3.84612">
        <ele>1669</ele>
        <time>1970-01-01T00:09:46.000Z</time>
      </trkpt>
      <trkpt lat="44.40095" lon="3.84611">
        <ele>1669</ele>
        <time>1970-01-01T00:09:47.000Z</time>
      </trkpt>
      <trkpt lat="44.40104" lon="3.84614">
        <ele>1669</ele>
        <time>1970-01-01T00:09:48.000Z</time>
      </trkpt>
      <trkpt lat="44.40104" lon="3.84614">
        <ele>1669</ele>
        <time>1970-01-01T00:09:49.000Z</time>
      </trkpt>
      <trkpt lat="44.4011" lon="3.84616">
        <ele>1669</ele>
        <time>1970-01-01T00:09:50.000Z</time>
      </trkpt>
      <trkpt lat="44.40116" lon="3.84607">
        <ele>1669</ele>
        <time>1970-01-01T00:09:51.000Z</time>
      </trkpt>
      <trkpt lat="44.40122" lon="3.84597">
        <ele>1669</ele>
        <time>1970-01-01T00:09:52.000Z</time>
      </trkpt>
      <trkpt lat="44.40122" lon="3.84597">
        <ele>1669</ele>
        <time>1970-01-01T00:09:53.000Z</time>
      </trkpt>
      <trkpt lat="44.40125" lon="3.84585">
        <ele>1669</ele>
        <time>1970-01-01T00:09:54.000Z</time>
      </trkpt>
      <trkpt lat="44.40128" lon="3.84573">
        <ele>1666</ele>
        <time>1970-01-01T00:09:55.000Z</time>
      </trkpt>
      <trkpt lat="44.4013" lon="3.84561">
        <ele>1666</ele>
        <time>1970-01-01T00:09:56.000Z</time>
      </trkpt>
      <trkpt lat="44.40133" lon="3.84549">
        <ele>1665</ele>
        <time>1970-01-01T00:09:57.000Z</time>
      </trkpt>
      <trkpt lat="44.40134" lon="3.84545">
        <ele>1665</ele>
        <time>1970-01-01T00:09:58.000Z</time>
      </trkpt>
      <trkpt lat="44.40136" lon="3.84533">
        <ele>1665</ele>
        <time>1970-01-01T00:09:59.000Z</time>
      </trkpt>
      <trkpt lat="44.40139" lon="3.84521">
        <ele>1664</ele>
        <time>1970-01-01T00:10:00.000Z</time>
      </trkpt>
      <trkpt lat="44.40141" lon="3.84509">
        <ele>1664</ele>
        <time>1970-01-01T00:10:01.000Z</time>
      </trkpt>
      <trkpt lat="44.40143" lon="3.84496">
        <ele>1661</ele>
        <time>1970-01-01T00:10:02.000Z</time>
      </trkpt>
      <trkpt lat="44.40144" lon="3.8449">
        <ele>1661</ele>
        <time>1970-01-01T00:10:03.000Z</time>
      </trkpt>
      <trkpt lat="44.4015" lon="3.8448">
        <ele>1661</ele>
        <time>1970-01-01T00:10:04.000Z</time>
      </trkpt>
      <trkpt lat="44.40155" lon="3.8447">
        <ele>1661</ele>
        <time>1970-01-01T00:10:05.000Z</time>
      </trkpt>
      <trkpt lat="44.40161" lon="3.8446">
        <ele>1661</ele>
        <time>1970-01-01T00:10:06.000Z</time>
      </trkpt>
      <trkpt lat="44.40166" lon="3.84451">
        <ele>1661</ele>
        <time>1970-01-01T00:10:07.000Z</time>
      </trkpt>
      <trkpt lat="44.40172" lon="3.84441">
        <ele>1661</ele>
        <time>1970-01-01T00:10:08.000Z</time>
      </trkpt>
      <trkpt lat="44.40175" lon="3.84435">
        <ele>1661</ele>
        <time>1970-01-01T00:10:09.000Z</time>
      </trkpt>
      <trkpt lat="44.40181" lon="3.84426">
        <ele>1661</ele>
        <time>1970-01-01T00:10:10.000Z</time>
      </trkpt>
      <trkpt lat="44.40187" lon="3.84416">
        <ele>1660</ele>
        <time>1970-01-01T00:10:11.000Z</time>
      </trkpt>
      <trkpt lat="44.40193" lon="3.84407">
        <ele>1659</ele>
        <time>1970-01-01T00:10:12.000Z</time>
      </trkpt>
      <trkpt lat="44.40199" lon="3.84397">
        <ele>1659</ele>
        <time>1970-01-01T00:10:13.000Z</time>
      </trkpt>
      <trkpt lat="44.40202" lon="3.84392">
        <ele>1659</ele>
        <time>1970-01-01T00:10:14.000Z</time>
      </trkpt>
      <trkpt lat="44.40209" lon="3.84385">
        <ele>1658</ele>
        <time>1970-01-01T00:10:15.000Z</time>
      </trkpt>
      <trkpt lat="44.40216" lon="3.84378">
        <ele>1658</ele>
        <time>1970-01-01T00:10:16.000Z</time>
      </trkpt>
      <trkpt lat="44.40224" lon="3.8437">
        <ele>1658</ele>
        <time>1970-01-01T00:10:17.000Z</time>
      </trkpt>
      <trkpt lat="44.40231" lon="3.84363">
        <ele>1657</ele>
        <time>1970-01-01T00:10:18.000Z</time>
      </trkpt>
      <trkpt lat="44.40239" lon="3.84356">
        <ele>1657</ele>
        <time>1970-01-01T00:10:19.000Z</time>
      </trkpt>
      <trkpt lat="44.40246" lon="3.84348">
        <ele>1656</ele>
        <time>1970-01-01T00:10:20.000Z</time>
      </trkpt>
      <trkpt lat="44.40251" lon="3.84344">
        <ele>1653</ele>
        <time>1970-01-01T00:10:21.000Z</time>
      </trkpt>
      <trkpt lat="44.4026" lon="3.84342">
        <ele>1653</ele>
        <time>1970-01-01T00:10:22.000Z</time>
      </trkpt>
      <trkpt lat="44.40269" lon="3.84341">
        <ele>1652</ele>
        <time>1970-01-01T00:10:23.000Z</time>
      </trkpt>
      <trkpt lat="44.40276" lon="3.84341">
        <ele>1652</ele>
        <time>1970-01-01T00:10:24.000Z</time>
      </trkpt>
      <trkpt lat="44.40284" lon="3.84346">
        <ele>1651</ele>
        <time>1970-01-01T00:10:25.000Z</time>
      </trkpt>
      <trkpt lat="44.40292" lon="3.84351">
        <ele>1651</ele>
        <time>1970-01-01T00:10:26.000Z</time>
      </trkpt>
      <trkpt lat="44.40299" lon="3.84355">
        <ele>1650</ele>
        <time>1970-01-01T00:10:27.000Z</time>
      </trkpt>
      <trkpt lat="44.40306" lon="3.84347">
        <ele>1649</ele>
        <time>1970-01-01T00:10:28.000Z</time>
      </trkpt>
      <trkpt lat="44.40313" lon="3.84339">
        <ele>1648</ele>
        <time>1970-01-01T00:10:29.000Z</time>
      </trkpt>
      <trkpt lat="44.4032" lon="3.8433">
        <ele>1645</ele>
        <time>1970-01-01T00:10:30.000Z</time>
      </trkpt>
      <trkpt lat="44.40321" lon="3.84329">
        <ele>1645</ele>
        <time>1970-01-01T00:10:31.000Z</time>
      </trkpt>
      <trkpt lat="44.4032" lon="3.84317">
        <ele>1646</ele>
        <time>1970-01-01T00:10:32.000Z</time>
      </trkpt>
      <trkpt lat="44.40319" lon="3.84304">
        <ele>1646</ele>
        <time>1970-01-01T00:10:33.000Z</time>
      </trkpt>
      <trkpt lat="44.40318" lon="3.84292">
        <ele>1645</ele>
        <time>1970-01-01T00:10:34.000Z</time>
      </trkpt>
      <trkpt lat="44.40317" lon="3.84279">
        <ele>1645</ele>
        <time>1970-01-01T00:10:35.000Z</time>
      </trkpt>
      <trkpt lat="44.40316" lon="3.84267">
        <ele>1644</ele>
        <time>1970-01-01T00:10:36.000Z</time>
      </trkpt>
      <trkpt lat="44.40315" lon="3.8426">
        <ele>1644</ele>
        <time>1970-01-01T00:10:37.000Z</time>
      </trkpt>
      <trkpt lat="44.40314" lon="3.84248">
        <ele>1641</ele>
        <time>1970-01-01T00:10:38.000Z</time>
      </trkpt>
      <trkpt lat="44.40312" lon="3.84236">
        <ele>1641</ele>
        <time>1970-01-01T00:10:39.000Z</time>
      </trkpt>
      <trkpt lat="44.40311" lon="3.84223">
        <ele>1641</ele>
        <time>1970-01-01T00:10:40.000Z</time>
      </trkpt>
      <trkpt lat="44.40309" lon="3.84211">
        <ele>1641</ele>
        <time>1970-01-01T00:10:41.000Z</time>
      </trkpt>
      <trkpt lat="44.40308" lon="3.84198">
        <ele>1641</ele>
        <time>1970-01-01T00:10:42.000Z</time>
      </trkpt>
      <trkpt lat="44.40306" lon="3.84186">
        <ele>1640</ele>
        <time>1970-01-01T00:10:43.000Z</time>
      </trkpt>
      <trkpt lat="44.40305" lon="3.84174">
        <ele>1640</ele>
        <time>1970-01-01T00:10:44.000Z</time>
      </trkpt>
      <trkpt lat="44.40303" lon="3.84161">
        <ele>1636</ele>
        <time>1970-01-01T00:10:45.000Z</time>
      </trkpt>
      <trkpt lat="44.40303" lon="3.8416">
        <ele>1636</ele>
        <time>1970-01-01T00:10:46.000Z</time>
      </trkpt>
      <trkpt lat="44.40301" lon="3.84148">
        <ele>1636</ele>
        <time>1970-01-01T00:10:47.000Z</time>
      </trkpt>
      <trkpt lat="44.403" lon="3.84135">
        <ele>1635</ele>
        <time>1970-01-01T00:10:48.000Z</time>
      </trkpt>
      <trkpt lat="44.40298" lon="3.84123">
        <ele>1635</ele>
        <time>1970-01-01T00:10:49.000Z</time>
      </trkpt>
      <trkpt lat="44.40297" lon="3.8411">
        <ele>1634</ele>
        <time>1970-01-01T00:10:50.000Z</time>
      </trkpt>
      <trkpt lat="44.40295" lon="3.84098">
        <ele>1634</ele>
        <time>1970-01-01T00:10:51.000Z</time>
      </trkpt>
      <trkpt lat="44.40294" lon="3.84086">
        <ele>1634</ele>
        <time>1970-01-01T00:10:52.000Z</time>
      </trkpt>
      <trkpt lat="44.40294" lon="3.84086">
        <ele>1634</ele>
        <time>1970-01-01T00:10:53.000Z</time>
      </trkpt>
      <trkpt lat="44.40295" lon="3.84073">
        <ele>1627</ele>
        <time>1970-01-01T00:10:54.000Z</time>
      </trkpt>
      <trkpt lat="44.40296" lon="3.84061">
        <ele>1627</ele>
        <time>1970-01-01T00:10:55.000Z</time>
      </trkpt>
      <trkpt lat="44.40297" lon="3.84048">
        <ele>1626</ele>
        <time>1970-01-01T00:10:56.000Z</time>
      </trkpt>
      <trkpt lat="44.40298" lon="3.84036">
        <ele>1625</ele>
        <time>1970-01-01T00:10:57.000Z</time>
      </trkpt>
      <trkpt lat="44.40299" lon="3.84023">
        <ele>1624</ele>
        <time>1970-01-01T00:10:58.000Z</time>
      </trkpt>
      <trkpt lat="44.403" lon="3.84011">
        <ele>1624</ele>
        <time>1970-01-01T00:10:59.000Z</time>
      </trkpt>
      <trkpt lat="44.40301" lon="3.83998">
        <ele>1617</ele>
        <time>1970-01-01T00:11:00.000Z</time>
      </trkpt>
      <trkpt lat="44.40302" lon="3.83986">
        <ele>1616</ele>
        <time>1970-01-01T00:11:01.000Z</time>
      </trkpt>
      <trkpt lat="44.40303" lon="3.8398">
        <ele>1616</ele>
        <time>1970-01-01T00:11:02.000Z</time>
      </trkpt>
      <trkpt lat="44.40302" lon="3.83967">
        <ele>1615</ele>
        <time>1970-01-01T00:11:03.000Z</time>
      </trkpt>
      <trkpt lat="44.403" lon="3.83955">
        <ele>1615</ele>
        <time>1970-01-01T00:11:04.000Z</time>
      </trkpt>
      <trkpt lat="44.40299" lon="3.83942">
        <ele>1614</ele>
        <time>1970-01-01T00:11:05.000Z</time>
      </trkpt>
      <trkpt lat="44.40298" lon="3.8393">
        <ele>1613</ele>
        <time>1970-01-01T00:11:06.000Z</time>
      </trkpt>
      <trkpt lat="44.40296" lon="3.83917">
        <ele>1613</ele>
        <time>1970-01-01T00:11:07.000Z</time>
      </trkpt>
      <trkpt lat="44.40296" lon="3.83911">
        <ele>1606</ele>
        <time>1970-01-01T00:11:08.000Z</time>
      </trkpt>
      <trkpt lat="44.40291" lon="3.839">
        <ele>1606</ele>
        <time>1970-01-01T00:11:09.000Z</time>
      </trkpt>
      <trkpt lat="44.40287" lon="3.83889">
        <ele>1605</ele>
        <time>1970-01-01T00:11:10.000Z</time>
      </trkpt>
      <trkpt lat="44.40283" lon="3.83877">
        <ele>1604</ele>
        <time>1970-01-01T00:11:11.000Z</time>
      </trkpt>
      <trkpt lat="44.40279" lon="3.83866">
        <ele>1603</ele>
        <time>1970-01-01T00:11:12.000Z</time>
      </trkpt>
      <trkpt lat="44.40276" lon="3.83859">
        <ele>1603</ele>
        <time>1970-01-01T00:11:13.000Z</time>
      </trkpt>
      <trkpt lat="44.40269" lon="3.83851">
        <ele>1601</ele>
        <time>1970-01-01T00:11:14.000Z</time>
      </trkpt>
      <trkpt lat="44.40262" lon="3.83844">
        <ele>1599</ele>
        <time>1970-01-01T00:11:15.000Z</time>
      </trkpt>
      <trkpt lat="44.40255" lon="3.83836">
        <ele>1596</ele>
        <time>1970-01-01T00:11:16.000Z</time>
      </trkpt>
      <trkpt lat="44.40252" lon="3.83833">
        <ele>1595</ele>
        <time>1970-01-01T00:11:17.000Z</time>
      </trkpt>
      <trkpt lat="44.40252" lon="3.83821">
        <ele>1594</ele>
        <time>1970-01-01T00:11:18.000Z</time>
      </trkpt>
      <trkpt lat="44.40251" lon="3.83808">
        <ele>1594</ele>
        <time>1970-01-01T00:11:19.000Z</time>
      </trkpt>
      <trkpt lat="44.40251" lon="3.83802">
        <ele>1594</ele>
        <time>1970-01-01T00:11:20.000Z</time>
      </trkpt>
      <trkpt lat="44.40248" lon="3.8379">
        <ele>1592</ele>
        <time>1970-01-01T00:11:21.000Z</time>
      </trkpt>
      <trkpt lat="44.40246" lon="3.83778">
        <ele>1592</ele>
        <time>1970-01-01T00:11:22.000Z</time>
      </trkpt>
      <trkpt lat="44.40244" lon="3.83765">
        <ele>1591</ele>
        <time>1970-01-01T00:11:23.000Z</time>
      </trkpt>
      <trkpt lat="44.40244" lon="3.83765">
        <ele>1590</ele>
        <time>1970-01-01T00:11:24.000Z</time>
      </trkpt>
      <trkpt lat="44.4024" lon="3.83753">
        <ele>1590</ele>
        <time>1970-01-01T00:11:25.000Z</time>
      </trkpt>
      <trkpt lat="44.40238" lon="3.83741">
        <ele>1586</ele>
        <time>1970-01-01T00:11:26.000Z</time>
      </trkpt>
      <trkpt lat="44.40235" lon="3.83729">
        <ele>1585</ele>
        <time>1970-01-01T00:11:27.000Z</time>
      </trkpt>
      <trkpt lat="44.40232" lon="3.83717">
        <ele>1584</ele>
        <time>1970-01-01T00:11:28.000Z</time>
      </trkpt>
      <trkpt lat="44.40229" lon="3.83705">
        <ele>1583</ele>
        <time>1970-01-01T00:11:29.000Z</time>
      </trkpt>
      <trkpt lat="44.40229" lon="3.83703">
        <ele>1583</ele>
        <time>1970-01-01T00:11:30.000Z</time>
      </trkpt>
      <trkpt lat="44.40228" lon="3.8369">
        <ele>1582</ele>
        <time>1970-01-01T00:11:31.000Z</time>
      </trkpt>
      <trkpt lat="44.40227" lon="3.83678">
        <ele>1581</ele>
        <time>1970-01-01T00:11:32.000Z</time>
      </trkpt>
      <trkpt lat="44.40226" lon="3.83665">
        <ele>1574</ele>
        <time>1970-01-01T00:11:33.000Z</time>
      </trkpt>
      <trkpt lat="44.40226" lon="3.83653">
        <ele>1574</ele>
        <time>1970-01-01T00:11:34.000Z</time>
      </trkpt>
      <trkpt lat="44.40224" lon="3.8364">
        <ele>1573</ele>
        <time>1970-01-01T00:11:35.000Z</time>
      </trkpt>
      <trkpt lat="44.40224" lon="3.83628">
        <ele>1572</ele>
        <time>1970-01-01T00:11:36.000Z</time>
      </trkpt>
      <trkpt lat="44.40224" lon="3.83627">
        <ele>1572</ele>
        <time>1970-01-01T00:11:37.000Z</time>
      </trkpt>
      <trkpt lat="44.40216" lon="3.83622">
        <ele>1571</ele>
        <time>1970-01-01T00:11:38.000Z</time>
      </trkpt>
      <trkpt lat="44.40207" lon="3.83616">
        <ele>1571</ele>
        <time>1970-01-01T00:11:39.000Z</time>
      </trkpt>
      <trkpt lat="44.40199" lon="3.83611">
        <ele>1570</ele>
        <time>1970-01-01T00:11:40.000Z</time>
      </trkpt>
      <trkpt lat="44.40191" lon="3.83605">
        <ele>1570</ele>
        <time>1970-01-01T00:11:41.000Z</time>
      </trkpt>
      <trkpt lat="44.40183" lon="3.836">
        <ele>1569</ele>
        <time>1970-01-01T00:11:42.000Z</time>
      </trkpt>
      <trkpt lat="44.40174" lon="3.836">
        <ele>1568</ele>
        <time>1970-01-01T00:11:43.000Z</time>
      </trkpt>
      <trkpt lat="44.40165" lon="3.836">
        <ele>1566</ele>
        <time>1970-01-01T00:11:44.000Z</time>
      </trkpt>
      <trkpt lat="44.40156" lon="3.836">
        <ele>1566</ele>
        <time>1970-01-01T00:11:45.000Z</time>
      </trkpt>
      <trkpt lat="44.40147" lon="3.836">
        <ele>1566</ele>
        <time>1970-01-01T00:11:46.000Z</time>
      </trkpt>
      <trkpt lat="44.4014" lon="3.836">
        <ele>1566</ele>
        <time>1970-01-01T00:11:47.000Z</time>
      </trkpt>
      <trkpt lat="44.40131" lon="3.83604">
        <ele>1566</ele>
        <time>1970-01-01T00:11:48.000Z</time>
      </trkpt>
      <trkpt lat="44.40123" lon="3.83608">
        <ele>1566</ele>
        <time>1970-01-01T00:11:49.000Z</time>
      </trkpt>
      <trkpt lat="44.40115" lon="3.83612">
        <ele>1566</ele>
        <time>1970-01-01T00:11:50.000Z</time>
      </trkpt>
      <trkpt lat="44.40106" lon="3.83616">
        <ele>1566</ele>
        <time>1970-01-01T00:11:51.000Z</time>
      </trkpt>
      <trkpt lat="44.40098" lon="3.8362">
        <ele>1566</ele>
        <time>1970-01-01T00:11:52.000Z</time>
      </trkpt>
      <trkpt lat="44.40089" lon="3.83621">
        <ele>1566</ele>
        <time>1970-01-01T00:11:53.000Z</time>
      </trkpt>
      <trkpt lat="44.4008" lon="3.83622">
        <ele>1560</ele>
        <time>1970-01-01T00:11:54.000Z</time>
      </trkpt>
      <trkpt lat="44.40071" lon="3.83623">
        <ele>1560</ele>
        <time>1970-01-01T00:11:55.000Z</time>
      </trkpt>
      <trkpt lat="44.40062" lon="3.83624">
        <ele>1560</ele>
        <time>1970-01-01T00:11:56.000Z</time>
      </trkpt>
      <trkpt lat="44.40053" lon="3.83625">
        <ele>1560</ele>
        <time>1970-01-01T00:11:57.000Z</time>
      </trkpt>
      <trkpt lat="44.40044" lon="3.83626">
        <ele>1559</ele>
        <time>1970-01-01T00:11:58.000Z</time>
      </trkpt>
      <trkpt lat="44.40035" lon="3.83628">
        <ele>1559</ele>
        <time>1970-01-01T00:11:59.000Z</time>
      </trkpt>
      <trkpt lat="44.40028" lon="3.83628">
        <ele>1558</ele>
        <time>1970-01-01T00:12:00.000Z</time>
      </trkpt>
      <trkpt lat="44.40018" lon="3.8363">
        <ele>1558</ele>
        <time>1970-01-01T00:12:01.000Z</time>
      </trkpt>
      <trkpt lat="44.4001" lon="3.83632">
        <ele>1558</ele>
        <time>1970-01-01T00:12:02.000Z</time>
      </trkpt>
      <trkpt lat="44.40001" lon="3.83634">
        <ele>1558</ele>
        <time>1970-01-01T00:12:03.000Z</time>
      </trkpt>
      <trkpt lat="44.39992" lon="3.83635">
        <ele>1551</ele>
        <time>1970-01-01T00:12:04.000Z</time>
      </trkpt>
      <trkpt lat="44.3999" lon="3.83636">
        <ele>1551</ele>
        <time>1970-01-01T00:12:05.000Z</time>
      </trkpt>
      <trkpt lat="44.39981" lon="3.83638">
        <ele>1551</ele>
        <time>1970-01-01T00:12:06.000Z</time>
      </trkpt>
      <trkpt lat="44.39972" lon="3.83641">
        <ele>1551</ele>
        <time>1970-01-01T00:12:07.000Z</time>
      </trkpt>
      <trkpt lat="44.39963" lon="3.83643">
        <ele>1550</ele>
        <time>1970-01-01T00:12:08.000Z</time>
      </trkpt>
      <trkpt lat="44.39954" lon="3.83646">
        <ele>1550</ele>
        <time>1970-01-01T00:12:09.000Z</time>
      </trkpt>
      <trkpt lat="44.39946" lon="3.83648">
        <ele>1550</ele>
        <time>1970-01-01T00:12:10.000Z</time>
      </trkpt>
      <trkpt lat="44.3994" lon="3.8365">
        <ele>1550</ele>
        <time>1970-01-01T00:12:11.000Z</time>
      </trkpt>
      <trkpt lat="44.39932" lon="3.83655">
        <ele>1550</ele>
        <time>1970-01-01T00:12:12.000Z</time>
      </trkpt>
      <trkpt lat="44.39924" lon="3.83661">
        <ele>1551</ele>
        <time>1970-01-01T00:12:13.000Z</time>
      </trkpt>
      <trkpt lat="44.39916" lon="3.83666">
        <ele>1551</ele>
        <time>1970-01-01T00:12:14.000Z</time>
      </trkpt>
      <trkpt lat="44.39907" lon="3.83666">
        <ele>1549</ele>
        <time>1970-01-01T00:12:15.000Z</time>
      </trkpt>
      <trkpt lat="44.39898" lon="3.83666">
        <ele>1547</ele>
        <time>1970-01-01T00:12:16.000Z</time>
      </trkpt>
      <trkpt lat="44.39889" lon="3.83666">
        <ele>1546</ele>
        <time>1970-01-01T00:12:17.000Z</time>
      </trkpt>
      <trkpt lat="44.3988" lon="3.83666">
        <ele>1545</ele>
        <time>1970-01-01T00:12:18.000Z</time>
      </trkpt>
      <trkpt lat="44.39871" lon="3.83666">
        <ele>1545</ele>
        <time>1970-01-01T00:12:19.000Z</time>
      </trkpt>
      <trkpt lat="44.39865" lon="3.83666">
        <ele>1545</ele>
        <time>1970-01-01T00:12:20.000Z</time>
      </trkpt>
      <trkpt lat="44.39856" lon="3.83661">
        <ele>1545</ele>
        <time>1970-01-01T00:12:21.000Z</time>
      </trkpt>
      <trkpt lat="44.39848" lon="3.83657">
        <ele>1545</ele>
        <time>1970-01-01T00:12:22.000Z</time>
      </trkpt>
      <trkpt lat="44.3984" lon="3.83652">
        <ele>1545</ele>
        <time>1970-01-01T00:12:23.000Z</time>
      </trkpt>
      <trkpt lat="44.39831" lon="3.83648">
        <ele>1543</ele>
        <time>1970-01-01T00:12:24.000Z</time>
      </trkpt>
      <trkpt lat="44.3983" lon="3.83647">
        <ele>1543</ele>
        <time>1970-01-01T00:12:25.000Z</time>
      </trkpt>
      <trkpt lat="44.3982" lon="3.83647">
        <ele>1542</ele>
        <time>1970-01-01T00:12:26.000Z</time>
      </trkpt>
      <trkpt lat="44.39812" lon="3.83646">
        <ele>1542</ele>
        <time>1970-01-01T00:12:27.000Z</time>
      </trkpt>
      <trkpt lat="44.39803" lon="3.83646">
        <ele>1541</ele>
        <time>1970-01-01T00:12:28.000Z</time>
      </trkpt>
      <trkpt lat="44.39799" lon="3.83635">
        <ele>1540</ele>
        <time>1970-01-01T00:12:29.000Z</time>
      </trkpt>
      <trkpt lat="44.39794" lon="3.83625">
        <ele>1539</ele>
        <time>1970-01-01T00:12:30.000Z</time>
      </trkpt>
      <trkpt lat="44.3979" lon="3.83617">
        <ele>1538</ele>
        <time>1970-01-01T00:12:31.000Z</time>
      </trkpt>
      <trkpt lat="44.39787" lon="3.83605">
        <ele>1537</ele>
        <time>1970-01-01T00:12:32.000Z</time>
      </trkpt>
      <trkpt lat="44.39785" lon="3.83593">
        <ele>1536</ele>
        <time>1970-01-01T00:12:33.000Z</time>
      </trkpt>
      <trkpt lat="44.39782" lon="3.83581">
        <ele>1528</ele>
        <time>1970-01-01T00:12:34.000Z</time>
      </trkpt>
      <trkpt lat="44.39782" lon="3.8358">
        <ele>1528</ele>
        <time>1970-01-01T00:12:35.000Z</time>
      </trkpt>
      <trkpt lat="44.39777" lon="3.83569">
        <ele>1528</ele>
        <time>1970-01-01T00:12:36.000Z</time>
      </trkpt>
      <trkpt lat="44.39772" lon="3.83559">
        <ele>1527</ele>
        <time>1970-01-01T00:12:37.000Z</time>
      </trkpt>
      <trkpt lat="44.39771" lon="3.83557">
        <ele>1527</ele>
        <time>1970-01-01T00:12:38.000Z</time>
      </trkpt>
      <trkpt lat="44.39764" lon="3.83549">
        <ele>1526</ele>
        <time>1970-01-01T00:12:39.000Z</time>
      </trkpt>
      <trkpt lat="44.39756" lon="3.83542">
        <ele>1525</ele>
        <time>1970-01-01T00:12:40.000Z</time>
      </trkpt>
      <trkpt lat="44.39749" lon="3.83535">
        <ele>1521</ele>
        <time>1970-01-01T00:12:41.000Z</time>
      </trkpt>
      <trkpt lat="44.39742" lon="3.83527">
        <ele>1520</ele>
        <time>1970-01-01T00:12:42.000Z</time>
      </trkpt>
      <trkpt lat="44.39735" lon="3.8352">
        <ele>1519</ele>
        <time>1970-01-01T00:12:43.000Z</time>
      </trkpt>
      <trkpt lat="44.39727" lon="3.83513">
        <ele>1519</ele>
        <time>1970-01-01T00:12:44.000Z</time>
      </trkpt>
      <trkpt lat="44.3972" lon="3.83505">
        <ele>1519</ele>
        <time>1970-01-01T00:12:45.000Z</time>
      </trkpt>
      <trkpt lat="44.39717" lon="3.83502">
        <ele>1518</ele>
        <time>1970-01-01T00:12:46.000Z</time>
      </trkpt>
      <trkpt lat="44.39709" lon="3.83496">
        <ele>1511</ele>
        <time>1970-01-01T00:12:47.000Z</time>
      </trkpt>
      <trkpt lat="44.39702" lon="3.83489">
        <ele>1510</ele>
        <time>1970-01-01T00:12:48.000Z</time>
      </trkpt>
      <trkpt lat="44.39694" lon="3.83483">
        <ele>1510</ele>
        <time>1970-01-01T00:12:49.000Z</time>
      </trkpt>
      <trkpt lat="44.39687" lon="3.83477">
        <ele>1509</ele>
        <time>1970-01-01T00:12:50.000Z</time>
      </trkpt>
      <trkpt lat="44.39678" lon="3.83472">
        <ele>1509</ele>
        <time>1970-01-01T00:12:51.000Z</time>
      </trkpt>
      <trkpt lat="44.3967" lon="3.83467">
        <ele>1508</ele>
        <time>1970-01-01T00:12:52.000Z</time>
      </trkpt>
      <trkpt lat="44.39661" lon="3.83463">
        <ele>1502</ele>
        <time>1970-01-01T00:12:53.000Z</time>
      </trkpt>
      <trkpt lat="44.39653" lon="3.83458">
        <ele>1502</ele>
        <time>1970-01-01T00:12:54.000Z</time>
      </trkpt>
      <trkpt lat="44.39645" lon="3.83453">
        <ele>1501</ele>
        <time>1970-01-01T00:12:55.000Z</time>
      </trkpt>
      <trkpt lat="44.39638" lon="3.83449">
        <ele>1500</ele>
        <time>1970-01-01T00:12:56.000Z</time>
      </trkpt>
      <trkpt lat="44.3963" lon="3.83444">
        <ele>1500</ele>
        <time>1970-01-01T00:12:57.000Z</time>
      </trkpt>
      <trkpt lat="44.39622" lon="3.83439">
        <ele>1499</ele>
        <time>1970-01-01T00:12:58.000Z</time>
      </trkpt>
      <trkpt lat="44.39613" lon="3.83434">
        <ele>1498</ele>
        <time>1970-01-01T00:12:59.000Z</time>
      </trkpt>
      <trkpt lat="44.39605" lon="3.83428">
        <ele>1497</ele>
        <time>1970-01-01T00:13:00.000Z</time>
      </trkpt>
      <trkpt lat="44.39597" lon="3.83423">
        <ele>1495</ele>
        <time>1970-01-01T00:13:01.000Z</time>
      </trkpt>
      <trkpt lat="44.39589" lon="3.83418">
        <ele>1493</ele>
        <time>1970-01-01T00:13:02.000Z</time>
      </trkpt>
      <trkpt lat="44.39581" lon="3.83413">
        <ele>1490</ele>
        <time>1970-01-01T00:13:03.000Z</time>
      </trkpt>
      <trkpt lat="44.39573" lon="3.83407">
        <ele>1488</ele>
        <time>1970-01-01T00:13:04.000Z</time>
      </trkpt>
      <trkpt lat="44.39569" lon="3.83405">
        <ele>1487</ele>
        <time>1970-01-01T00:13:05.000Z</time>
      </trkpt>
      <trkpt lat="44.39561" lon="3.83397">
        <ele>1486</ele>
        <time>1970-01-01T00:13:06.000Z</time>
      </trkpt>
      <trkpt lat="44.39554" lon="3.8339">
        <ele>1485</ele>
        <time>1970-01-01T00:13:07.000Z</time>
      </trkpt>
      <trkpt lat="44.39547" lon="3.83383">
        <ele>1484</ele>
        <time>1970-01-01T00:13:08.000Z</time>
      </trkpt>
      <trkpt lat="44.3954" lon="3.83375">
        <ele>1483</ele>
        <time>1970-01-01T00:13:09.000Z</time>
      </trkpt>
      <trkpt lat="44.39532" lon="3.83368">
        <ele>1483</ele>
        <time>1970-01-01T00:13:10.000Z</time>
      </trkpt>
      <trkpt lat="44.39531" lon="3.83366">
        <ele>1483</ele>
        <time>1970-01-01T00:13:11.000Z</time>
      </trkpt>
      <trkpt lat="44.39523" lon="3.83361">
        <ele>1482</ele>
        <time>1970-01-01T00:13:12.000Z</time>
      </trkpt>
      <trkpt lat="44.39515" lon="3.83355">
        <ele>1481</ele>
        <time>1970-01-01T00:13:13.000Z</time>
      </trkpt>
      <trkpt lat="44.39507" lon="3.8335">
        <ele>1480</ele>
        <time>1970-01-01T00:13:14.000Z</time>
      </trkpt>
      <trkpt lat="44.39499" lon="3.83344">
        <ele>1475</ele>
        <time>1970-01-01T00:13:15.000Z</time>
      </trkpt>
      <trkpt lat="44.39491" lon="3.83339">
        <ele>1475</ele>
        <time>1970-01-01T00:13:16.000Z</time>
      </trkpt>
      <trkpt lat="44.39482" lon="3.83333">
        <ele>1477</ele>
        <time>1970-01-01T00:13:17.000Z</time>
      </trkpt>
      <trkpt lat="44.39474" lon="3.83328">
        <ele>1477</ele>
        <time>1970-01-01T00:13:18.000Z</time>
      </trkpt>
      <trkpt lat="44.39466" lon="3.83322">
        <ele>1476</ele>
        <time>1970-01-01T00:13:19.000Z</time>
      </trkpt>
      <trkpt lat="44.39458" lon="3.83316">
        <ele>1476</ele>
        <time>1970-01-01T00:13:20.000Z</time>
      </trkpt>
      <trkpt lat="44.3945" lon="3.8331">
        <ele>1476</ele>
        <time>1970-01-01T00:13:21.000Z</time>
      </trkpt>
      <trkpt lat="44.39442" lon="3.83305">
        <ele>1476</ele>
        <time>1970-01-01T00:13:22.000Z</time>
      </trkpt>
      <trkpt lat="44.39436" lon="3.833">
        <ele>1476</ele>
        <time>1970-01-01T00:13:23.000Z</time>
      </trkpt>
      <trkpt lat="44.39428" lon="3.83295">
        <ele>1476</ele>
        <time>1970-01-01T00:13:24.000Z</time>
      </trkpt>
      <trkpt lat="44.3942" lon="3.8329">
        <ele>1476</ele>
        <time>1970-01-01T00:13:25.000Z</time>
      </trkpt>
      <trkpt lat="44.39412" lon="3.83285">
        <ele>1473</ele>
        <time>1970-01-01T00:13:26.000Z</time>
      </trkpt>
      <trkpt lat="44.39404" lon="3.8328">
        <ele>1473</ele>
        <time>1970-01-01T00:13:27.000Z</time>
      </trkpt>
      <trkpt lat="44.39396" lon="3.83275">
        <ele>1473</ele>
        <time>1970-01-01T00:13:28.000Z</time>
      </trkpt>
      <trkpt lat="44.39387" lon="3.8327">
        <ele>1473</ele>
        <time>1970-01-01T00:13:29.000Z</time>
      </trkpt>
      <trkpt lat="44.39379" lon="3.83264">
        <ele>1473</ele>
        <time>1970-01-01T00:13:30.000Z</time>
      </trkpt>
      <trkpt lat="44.39371" lon="3.83259">
        <ele>1473</ele>
        <time>1970-01-01T00:13:31.000Z</time>
      </trkpt>
      <trkpt lat="44.39363" lon="3.83254">
        <ele>1473</ele>
        <time>1970-01-01T00:13:32.000Z</time>
      </trkpt>
      <trkpt lat="44.39354" lon="3.83249">
        <ele>1476</ele>
        <time>1970-01-01T00:13:33.000Z</time>
      </trkpt>
      <trkpt lat="44.39354" lon="3.83249">
        <ele>1476</ele>
        <time>1970-01-01T00:13:34.000Z</time>
      </trkpt>
      <trkpt lat="44.39346" lon="3.83243">
        <ele>1475</ele>
        <time>1970-01-01T00:13:35.000Z</time>
      </trkpt>
      <trkpt lat="44.39338" lon="3.83238">
        <ele>1475</ele>
        <time>1970-01-01T00:13:36.000Z</time>
      </trkpt>
      <trkpt lat="44.3933" lon="3.83232">
        <ele>1473</ele>
        <time>1970-01-01T00:13:37.000Z</time>
      </trkpt>
      <trkpt lat="44.39322" lon="3.83226">
        <ele>1473</ele>
        <time>1970-01-01T00:13:38.000Z</time>
      </trkpt>
      <trkpt lat="44.39314" lon="3.83221">
        <ele>1473</ele>
        <time>1970-01-01T00:13:39.000Z</time>
      </trkpt>
      <trkpt lat="44.39305" lon="3.83215">
        <ele>1473</ele>
        <time>1970-01-01T00:13:40.000Z</time>
      </trkpt>
      <trkpt lat="44.39297" lon="3.8321">
        <ele>1472</ele>
        <time>1970-01-01T00:13:41.000Z</time>
      </trkpt>
      <trkpt lat="44.39289" lon="3.83204">
        <ele>1472</ele>
        <time>1970-01-01T00:13:42.000Z</time>
      </trkpt>
      <trkpt lat="44.39281" lon="3.83199">
        <ele>1472</ele>
        <time>1970-01-01T00:13:43.000Z</time>
      </trkpt>
      <trkpt lat="44.39281" lon="3.83199">
        <ele>1472</ele>
        <time>1970-01-01T00:13:44.000Z</time>
      </trkpt>
      <trkpt lat="44.39272" lon="3.83194">
        <ele>1472</ele>
        <time>1970-01-01T00:13:45.000Z</time>
      </trkpt>
      <trkpt lat="44.39264" lon="3.8319">
        <ele>1472</ele>
        <time>1970-01-01T00:13:46.000Z</time>
      </trkpt>
      <trkpt lat="44.39255" lon="3.83186">
        <ele>1472</ele>
        <time>1970-01-01T00:13:47.000Z</time>
      </trkpt>
      <trkpt lat="44.39251" lon="3.83184">
        <ele>1472</ele>
        <time>1970-01-01T00:13:48.000Z</time>
      </trkpt>
      <trkpt lat="44.39242" lon="3.83181">
        <ele>1469</ele>
        <time>1970-01-01T00:13:49.000Z</time>
      </trkpt>
      <trkpt lat="44.39233" lon="3.83179">
        <ele>1468</ele>
        <time>1970-01-01T00:13:50.000Z</time>
      </trkpt>
      <trkpt lat="44.39225" lon="3.83176">
        <ele>1467</ele>
        <time>1970-01-01T00:13:51.000Z</time>
      </trkpt>
      <trkpt lat="44.39216" lon="3.83173">
        <ele>1467</ele>
        <time>1970-01-01T00:13:52.000Z</time>
      </trkpt>
      <trkpt lat="44.39207" lon="3.8317">
        <ele>1466</ele>
        <time>1970-01-01T00:13:53.000Z</time>
      </trkpt>
      <trkpt lat="44.39199" lon="3.83167">
        <ele>1466</ele>
        <time>1970-01-01T00:13:54.000Z</time>
      </trkpt>
      <trkpt lat="44.3919" lon="3.83165">
        <ele>1467</ele>
        <time>1970-01-01T00:13:55.000Z</time>
      </trkpt>
      <trkpt lat="44.39181" lon="3.83162">
        <ele>1466</ele>
        <time>1970-01-01T00:13:56.000Z</time>
      </trkpt>
      <trkpt lat="44.39172" lon="3.83159">
        <ele>1466</ele>
        <time>1970-01-01T00:13:57.000Z</time>
      </trkpt>
      <trkpt lat="44.39164" lon="3.83156">
        <ele>1463</ele>
        <time>1970-01-01T00:13:58.000Z</time>
      </trkpt>
      <trkpt lat="44.39155" lon="3.83153">
        <ele>1463</ele>
        <time>1970-01-01T00:13:59.000Z</time>
      </trkpt>
      <trkpt lat="44.39146" lon="3.8315">
        <ele>1462</ele>
        <time>1970-01-01T00:14:00.000Z</time>
      </trkpt>
      <trkpt lat="44.39137" lon="3.83148">
        <ele>1462</ele>
        <time>1970-01-01T00:14:01.000Z</time>
      </trkpt>
      <trkpt lat="44.39128" lon="3.83145">
        <ele>1462</ele>
        <time>1970-01-01T00:14:02.000Z</time>
      </trkpt>
      <trkpt lat="44.3912" lon="3.83142">
        <ele>1461</ele>
        <time>1970-01-01T00:14:03.000Z</time>
      </trkpt>
      <trkpt lat="44.39111" lon="3.83139">
        <ele>1461</ele>
        <time>1970-01-01T00:14:04.000Z</time>
      </trkpt>
      <trkpt lat="44.39102" lon="3.83136">
        <ele>1461</ele>
        <time>1970-01-01T00:14:05.000Z</time>
      </trkpt>
      <trkpt lat="44.39099" lon="3.83136">
        <ele>1461</ele>
        <time>1970-01-01T00:14:06.000Z</time>
      </trkpt>
      <trkpt lat="44.3909" lon="3.83135">
        <ele>1460</ele>
        <time>1970-01-01T00:14:07.000Z</time>
      </trkpt>
      <trkpt lat="44.39081" lon="3.83134">
        <ele>1457</ele>
        <time>1970-01-01T00:14:08.000Z</time>
      </trkpt>
      <trkpt lat="44.39072" lon="3.83133">
        <ele>1457</ele>
        <time>1970-01-01T00:14:09.000Z</time>
      </trkpt>
      <trkpt lat="44.39063" lon="3.83132">
        <ele>1457</ele>
        <time>1970-01-01T00:14:10.000Z</time>
      </trkpt>
      <trkpt lat="44.39054" lon="3.83131">
        <ele>1457</ele>
        <time>1970-01-01T00:14:11.000Z</time>
      </trkpt>
      <trkpt lat="44.39045" lon="3.8313">
        <ele>1457</ele>
        <time>1970-01-01T00:14:12.000Z</time>
      </trkpt>
      <trkpt lat="44.39036" lon="3.83129">
        <ele>1457</ele>
        <time>1970-01-01T00:14:13.000Z</time>
      </trkpt>
      <trkpt lat="44.39027" lon="3.83128">
        <ele>1457</ele>
        <time>1970-01-01T00:14:14.000Z</time>
      </trkpt>
      <trkpt lat="44.39021" lon="3.83127">
        <ele>1457</ele>
        <time>1970-01-01T00:14:15.000Z</time>
      </trkpt>
      <trkpt lat="44.39012" lon="3.8313">
        <ele>1457</ele>
        <time>1970-01-01T00:14:16.000Z</time>
      </trkpt>
      <trkpt lat="44.39003" lon="3.83133">
        <ele>1457</ele>
        <time>1970-01-01T00:14:17.000Z</time>
      </trkpt>
      <trkpt lat="44.38995" lon="3.83135">
        <ele>1456</ele>
        <time>1970-01-01T00:14:18.000Z</time>
      </trkpt>
      <trkpt lat="44.38986" lon="3.83138">
        <ele>1456</ele>
        <time>1970-01-01T00:14:19.000Z</time>
      </trkpt>
      <trkpt lat="44.38985" lon="3.83138">
        <ele>1456</ele>
        <time>1970-01-01T00:14:20.000Z</time>
      </trkpt>
      <trkpt lat="44.38976" lon="3.83142">
        <ele>1455</ele>
        <time>1970-01-01T00:14:21.000Z</time>
      </trkpt>
      <trkpt lat="44.38968" lon="3.83146">
        <ele>1455</ele>
        <time>1970-01-01T00:14:22.000Z</time>
      </trkpt>
      <trkpt lat="44.38959" lon="3.8315">
        <ele>1455</ele>
        <time>1970-01-01T00:14:23.000Z</time>
      </trkpt>
      <trkpt lat="44.38951" lon="3.83154">
        <ele>1455</ele>
        <time>1970-01-01T00:14:24.000Z</time>
      </trkpt>
      <trkpt lat="44.38942" lon="3.83158">
        <ele>1455</ele>
        <time>1970-01-01T00:14:25.000Z</time>
      </trkpt>
      <trkpt lat="44.38934" lon="3.83162">
        <ele>1454</ele>
        <time>1970-01-01T00:14:26.000Z</time>
      </trkpt>
      <trkpt lat="44.38932" lon="3.83163">
        <ele>1454</ele>
        <time>1970-01-01T00:14:27.000Z</time>
      </trkpt>
      <trkpt lat="44.38923" lon="3.83167">
        <ele>1452</ele>
        <time>1970-01-01T00:14:28.000Z</time>
      </trkpt>
      <trkpt lat="44.38914" lon="3.83171">
        <ele>1452</ele>
        <time>1970-01-01T00:14:29.000Z</time>
      </trkpt>
      <trkpt lat="44.38906" lon="3.83175">
        <ele>1452</ele>
        <time>1970-01-01T00:14:30.000Z</time>
      </trkpt>
      <trkpt lat="44.38898" lon="3.83179">
        <ele>1451</ele>
        <time>1970-01-01T00:14:31.000Z</time>
      </trkpt>
      <trkpt lat="44.38895" lon="3.8318">
        <ele>1451</ele>
        <time>1970-01-01T00:14:32.000Z</time>
      </trkpt>
      <trkpt lat="44.38887" lon="3.83185">
        <ele>1451</ele>
        <time>1970-01-01T00:14:33.000Z</time>
      </trkpt>
      <trkpt lat="44.38879" lon="3.8319">
        <ele>1451</ele>
        <time>1970-01-01T00:14:34.000Z</time>
      </trkpt>
      <trkpt lat="44.3887" lon="3.83195">
        <ele>1450</ele>
        <time>1970-01-01T00:14:35.000Z</time>
      </trkpt>
      <trkpt lat="44.38862" lon="3.83201">
        <ele>1450</ele>
        <time>1970-01-01T00:14:36.000Z</time>
      </trkpt>
      <trkpt lat="44.38854" lon="3.83206">
        <ele>1450</ele>
        <time>1970-01-01T00:14:37.000Z</time>
      </trkpt>
      <trkpt lat="44.38846" lon="3.83211">
        <ele>1450</ele>
        <time>1970-01-01T00:14:38.000Z</time>
      </trkpt>
      <trkpt lat="44.38837" lon="3.83216">
        <ele>1450</ele>
        <time>1970-01-01T00:14:39.000Z</time>
      </trkpt>
      <trkpt lat="44.38829" lon="3.83221">
        <ele>1447</ele>
        <time>1970-01-01T00:14:40.000Z</time>
      </trkpt>
      <trkpt lat="44.38821" lon="3.83227">
        <ele>1447</ele>
        <time>1970-01-01T00:14:41.000Z</time>
      </trkpt>
      <trkpt lat="44.38818" lon="3.83229">
        <ele>1447</ele>
        <time>1970-01-01T00:14:42.000Z</time>
      </trkpt>
      <trkpt lat="44.38809" lon="3.83234">
        <ele>1447</ele>
        <time>1970-01-01T00:14:43.000Z</time>
      </trkpt>
      <trkpt lat="44.38801" lon="3.8324">
        <ele>1447</ele>
        <time>1970-01-01T00:14:44.000Z</time>
      </trkpt>
      <trkpt lat="44.38793" lon="3.83245">
        <ele>1446</ele>
        <time>1970-01-01T00:14:45.000Z</time>
      </trkpt>
      <trkpt lat="44.38785" lon="3.83251">
        <ele>1445</ele>
        <time>1970-01-01T00:14:46.000Z</time>
      </trkpt>
      <trkpt lat="44.38777" lon="3.83256">
        <ele>1445</ele>
        <time>1970-01-01T00:14:47.000Z</time>
      </trkpt>
      <trkpt lat="44.38769" lon="3.83262">
        <ele>1445</ele>
        <time>1970-01-01T00:14:48.000Z</time>
      </trkpt>
      <trkpt lat="44.38761" lon="3.83267">
        <ele>1445</ele>
        <time>1970-01-01T00:14:49.000Z</time>
      </trkpt>
      <trkpt lat="44.38753" lon="3.83273">
        <ele>1445</ele>
        <time>1970-01-01T00:14:50.000Z</time>
      </trkpt>
      <trkpt lat="44.38745" lon="3.83278">
        <ele>1441</ele>
        <time>1970-01-01T00:14:51.000Z</time>
      </trkpt>
      <trkpt lat="44.38737" lon="3.83283">
        <ele>1441</ele>
        <time>1970-01-01T00:14:52.000Z</time>
      </trkpt>
      <trkpt lat="44.38728" lon="3.83289">
        <ele>1440</ele>
        <time>1970-01-01T00:14:53.000Z</time>
      </trkpt>
      <trkpt lat="44.38721" lon="3.83295">
        <ele>1440</ele>
        <time>1970-01-01T00:14:54.000Z</time>
      </trkpt>
      <trkpt lat="44.38713" lon="3.83302">
        <ele>1440</ele>
        <time>1970-01-01T00:14:55.000Z</time>
      </trkpt>
      <trkpt lat="44.38705" lon="3.83309">
        <ele>1439</ele>
        <time>1970-01-01T00:14:56.000Z</time>
      </trkpt>
      <trkpt lat="44.38698" lon="3.83315">
        <ele>1439</ele>
        <time>1970-01-01T00:14:57.000Z</time>
      </trkpt>
      <trkpt lat="44.3869" lon="3.83322">
        <ele>1438</ele>
        <time>1970-01-01T00:14:58.000Z</time>
      </trkpt>
      <trkpt lat="44.38683" lon="3.83328">
        <ele>1438</ele>
        <time>1970-01-01T00:14:59.000Z</time>
      </trkpt>
      <trkpt lat="44.38675" lon="3.83335">
        <ele>1436</ele>
        <time>1970-01-01T00:15:00.000Z</time>
      </trkpt>
      <trkpt lat="44.38673" lon="3.83336">
        <ele>1436</ele>
        <time>1970-01-01T00:15:01.000Z</time>
      </trkpt>
      <trkpt lat="44.38666" lon="3.83343">
        <ele>1435</ele>
        <time>1970-01-01T00:15:02.000Z</time>
      </trkpt>
      <trkpt lat="44.38659" lon="3.83351">
        <ele>1434</ele>
        <time>1970-01-01T00:15:03.000Z</time>
      </trkpt>
      <trkpt lat="44.38652" lon="3.83358">
        <ele>1433</ele>
        <time>1970-01-01T00:15:04.000Z</time>
      </trkpt>
      <trkpt lat="44.38645" lon="3.83365">
        <ele>1433</ele>
        <time>1970-01-01T00:15:05.000Z</time>
      </trkpt>
      <trkpt lat="44.38636" lon="3.83363">
        <ele>1432</ele>
        <time>1970-01-01T00:15:06.000Z</time>
      </trkpt>
      <trkpt lat="44.3863" lon="3.83362">
        <ele>1432</ele>
        <time>1970-01-01T00:15:07.000Z</time>
      </trkpt>
      <trkpt lat="44.38633" lon="3.8335">
        <ele>1432</ele>
        <time>1970-01-01T00:15:08.000Z</time>
      </trkpt>
      <trkpt lat="44.38635" lon="3.83338">
        <ele>1433</ele>
        <time>1970-01-01T00:15:09.000Z</time>
      </trkpt>
      <trkpt lat="44.38638" lon="3.83326">
        <ele>1431</ele>
        <time>1970-01-01T00:15:10.000Z</time>
      </trkpt>
      <trkpt lat="44.3864" lon="3.83313">
        <ele>1431</ele>
        <time>1970-01-01T00:15:11.000Z</time>
      </trkpt>
      <trkpt lat="44.38642" lon="3.83301">
        <ele>1430</ele>
        <time>1970-01-01T00:15:12.000Z</time>
      </trkpt>
      <trkpt lat="44.38644" lon="3.83289">
        <ele>1430</ele>
        <time>1970-01-01T00:15:13.000Z</time>
      </trkpt>
      <trkpt lat="44.38647" lon="3.83277">
        <ele>1430</ele>
        <time>1970-01-01T00:15:14.000Z</time>
      </trkpt>
      <trkpt lat="44.38649" lon="3.83265">
        <ele>1430</ele>
        <time>1970-01-01T00:15:15.000Z</time>
      </trkpt>
      <trkpt lat="44.38652" lon="3.83253">
        <ele>1431</ele>
        <time>1970-01-01T00:15:16.000Z</time>
      </trkpt>
      <trkpt lat="44.38654" lon="3.83241">
        <ele>1427</ele>
        <time>1970-01-01T00:15:17.000Z</time>
      </trkpt>
      <trkpt lat="44.38656" lon="3.83229">
        <ele>1425</ele>
        <time>1970-01-01T00:15:18.000Z</time>
      </trkpt>
      <trkpt lat="44.38659" lon="3.83216">
        <ele>1424</ele>
        <time>1970-01-01T00:15:19.000Z</time>
      </trkpt>
      <trkpt lat="44.38661" lon="3.83204">
        <ele>1422</ele>
        <time>1970-01-01T00:15:20.000Z</time>
      </trkpt>
      <trkpt lat="44.38663" lon="3.83192">
        <ele>1421</ele>
        <time>1970-01-01T00:15:21.000Z</time>
      </trkpt>
      <trkpt lat="44.38665" lon="3.83183">
        <ele>1421</ele>
        <time>1970-01-01T00:15:22.000Z</time>
      </trkpt>
      <trkpt lat="44.38659" lon="3.83174">
        <ele>1421</ele>
        <time>1970-01-01T00:15:23.000Z</time>
      </trkpt>
      <trkpt lat="44.38653" lon="3.83165">
        <ele>1419</ele>
        <time>1970-01-01T00:15:24.000Z</time>
      </trkpt>
      <trkpt lat="44.38646" lon="3.83156">
        <ele>1418</ele>
        <time>1970-01-01T00:15:25.000Z</time>
      </trkpt>
      <trkpt lat="44.3864" lon="3.83147">
        <ele>1417</ele>
        <time>1970-01-01T00:15:26.000Z</time>
      </trkpt>
      <trkpt lat="44.38634" lon="3.83138">
        <ele>1416</ele>
        <time>1970-01-01T00:15:27.000Z</time>
      </trkpt>
      <trkpt lat="44.38627" lon="3.8313">
        <ele>1416</ele>
        <time>1970-01-01T00:15:28.000Z</time>
      </trkpt>
      <trkpt lat="44.38621" lon="3.83121">
        <ele>1415</ele>
        <time>1970-01-01T00:15:29.000Z</time>
      </trkpt>
      <trkpt lat="44.38616" lon="3.83114">
        <ele>1415</ele>
        <time>1970-01-01T00:15:30.000Z</time>
      </trkpt>
      <trkpt lat="44.38607" lon="3.83117">
        <ele>1415</ele>
        <time>1970-01-01T00:15:31.000Z</time>
      </trkpt>
      <trkpt lat="44.38598" lon="3.83119">
        <ele>1414</ele>
        <time>1970-01-01T00:15:32.000Z</time>
      </trkpt>
      <trkpt lat="44.38589" lon="3.83121">
        <ele>1414</ele>
        <time>1970-01-01T00:15:33.000Z</time>
      </trkpt>
      <trkpt lat="44.38581" lon="3.83124">
        <ele>1406</ele>
        <time>1970-01-01T00:15:34.000Z</time>
      </trkpt>
      <trkpt lat="44.38572" lon="3.83126">
        <ele>1406</ele>
        <time>1970-01-01T00:15:35.000Z</time>
      </trkpt>
      <trkpt lat="44.3857" lon="3.83127">
        <ele>1405</ele>
        <time>1970-01-01T00:15:36.000Z</time>
      </trkpt>
      <trkpt lat="44.38562" lon="3.83133">
        <ele>1405</ele>
        <time>1970-01-01T00:15:37.000Z</time>
      </trkpt>
      <trkpt lat="44.38554" lon="3.83139">
        <ele>1404</ele>
        <time>1970-01-01T00:15:38.000Z</time>
      </trkpt>
      <trkpt lat="44.38546" lon="3.83145">
        <ele>1404</ele>
        <time>1970-01-01T00:15:39.000Z</time>
      </trkpt>
      <trkpt lat="44.38539" lon="3.83152">
        <ele>1403</ele>
        <time>1970-01-01T00:15:40.000Z</time>
      </trkpt>
      <trkpt lat="44.38531" lon="3.83158">
        <ele>1402</ele>
        <time>1970-01-01T00:15:41.000Z</time>
      </trkpt>
      <trkpt lat="44.38523" lon="3.83164">
        <ele>1401</ele>
        <time>1970-01-01T00:15:42.000Z</time>
      </trkpt>
      <trkpt lat="44.38515" lon="3.8317">
        <ele>1402</ele>
        <time>1970-01-01T00:15:43.000Z</time>
      </trkpt>
      <trkpt lat="44.38507" lon="3.83176">
        <ele>1401</ele>
        <time>1970-01-01T00:15:44.000Z</time>
      </trkpt>
      <trkpt lat="44.38503" lon="3.8318">
        <ele>1402</ele>
        <time>1970-01-01T00:15:45.000Z</time>
      </trkpt>
      <trkpt lat="44.38494" lon="3.83182">
        <ele>1398</ele>
        <time>1970-01-01T00:15:46.000Z</time>
      </trkpt>
      <trkpt lat="44.38485" lon="3.83185">
        <ele>1398</ele>
        <time>1970-01-01T00:15:47.000Z</time>
      </trkpt>
      <trkpt lat="44.38476" lon="3.83187">
        <ele>1397</ele>
        <time>1970-01-01T00:15:48.000Z</time>
      </trkpt>
      <trkpt lat="44.38467" lon="3.83189">
        <ele>1397</ele>
        <time>1970-01-01T00:15:49.000Z</time>
      </trkpt>
      <trkpt lat="44.38464" lon="3.8319">
        <ele>1397</ele>
        <time>1970-01-01T00:15:50.000Z</time>
      </trkpt>
      <trkpt lat="44.38456" lon="3.83194">
        <ele>1397</ele>
        <time>1970-01-01T00:15:51.000Z</time>
      </trkpt>
      <trkpt lat="44.38447" lon="3.83198">
        <ele>1396</ele>
        <time>1970-01-01T00:15:52.000Z</time>
      </trkpt>
      <trkpt lat="44.38438" lon="3.83203">
        <ele>1396</ele>
        <time>1970-01-01T00:15:53.000Z</time>
      </trkpt>
      <trkpt lat="44.3843" lon="3.83207">
        <ele>1396</ele>
        <time>1970-01-01T00:15:54.000Z</time>
      </trkpt>
      <trkpt lat="44.38422" lon="3.83211">
        <ele>1396</ele>
        <time>1970-01-01T00:15:55.000Z</time>
      </trkpt>
      <trkpt lat="44.38413" lon="3.83215">
        <ele>1389</ele>
        <time>1970-01-01T00:15:56.000Z</time>
      </trkpt>
      <trkpt lat="44.38405" lon="3.8322">
        <ele>1389</ele>
        <time>1970-01-01T00:15:57.000Z</time>
      </trkpt>
      <trkpt lat="44.38396" lon="3.83224">
        <ele>1389</ele>
        <time>1970-01-01T00:15:58.000Z</time>
      </trkpt>
      <trkpt lat="44.38388" lon="3.83228">
        <ele>1389</ele>
        <time>1970-01-01T00:15:59.000Z</time>
      </trkpt>
      <trkpt lat="44.38379" lon="3.83232">
        <ele>1388</ele>
        <time>1970-01-01T00:16:00.000Z</time>
      </trkpt>
      <trkpt lat="44.38372" lon="3.83236">
        <ele>1388</ele>
        <time>1970-01-01T00:16:01.000Z</time>
      </trkpt>
      <trkpt lat="44.38365" lon="3.83244">
        <ele>1387</ele>
        <time>1970-01-01T00:16:02.000Z</time>
      </trkpt>
      <trkpt lat="44.38358" lon="3.83252">
        <ele>1390</ele>
        <time>1970-01-01T00:16:03.000Z</time>
      </trkpt>
      <trkpt lat="44.38351" lon="3.8326">
        <ele>1389</ele>
        <time>1970-01-01T00:16:04.000Z</time>
      </trkpt>
      <trkpt lat="44.38345" lon="3.83268">
        <ele>1389</ele>
        <time>1970-01-01T00:16:05.000Z</time>
      </trkpt>
      <trkpt lat="44.38338" lon="3.83277">
        <ele>1390</ele>
        <time>1970-01-01T00:16:06.000Z</time>
      </trkpt>
      <trkpt lat="44.38331" lon="3.83285">
        <ele>1383</ele>
        <time>1970-01-01T00:16:07.000Z</time>
      </trkpt>
      <trkpt lat="44.38324" lon="3.83293">
        <ele>1383</ele>
        <time>1970-01-01T00:16:08.000Z</time>
      </trkpt>
      <trkpt lat="44.38322" lon="3.83295">
        <ele>1383</ele>
        <time>1970-01-01T00:16:09.000Z</time>
      </trkpt>
      <trkpt lat="44.38316" lon="3.83304">
        <ele>1384</ele>
        <time>1970-01-01T00:16:10.000Z</time>
      </trkpt>
      <trkpt lat="44.3831" lon="3.83312">
        <ele>1384</ele>
        <time>1970-01-01T00:16:11.000Z</time>
      </trkpt>
      <trkpt lat="44.38304" lon="3.83321">
        <ele>1384</ele>
        <time>1970-01-01T00:16:12.000Z</time>
      </trkpt>
      <trkpt lat="44.38297" lon="3.8333">
        <ele>1383</ele>
        <time>1970-01-01T00:16:13.000Z</time>
      </trkpt>
      <trkpt lat="44.38291" lon="3.83339">
        <ele>1385</ele>
        <time>1970-01-01T00:16:14.000Z</time>
      </trkpt>
      <trkpt lat="44.3829" lon="3.8334">
        <ele>1385</ele>
        <time>1970-01-01T00:16:15.000Z</time>
      </trkpt>
      <trkpt lat="44.38285" lon="3.83351">
        <ele>1385</ele>
        <time>1970-01-01T00:16:16.000Z</time>
      </trkpt>
      <trkpt lat="44.3828" lon="3.83362">
        <ele>1384</ele>
        <time>1970-01-01T00:16:17.000Z</time>
      </trkpt>
      <trkpt lat="44.38276" lon="3.83372">
        <ele>1384</ele>
        <time>1970-01-01T00:16:18.000Z</time>
      </trkpt>
      <trkpt lat="44.38271" lon="3.83383">
        <ele>1384</ele>
        <time>1970-01-01T00:16:19.000Z</time>
      </trkpt>
      <trkpt lat="44.38266" lon="3.83394">
        <ele>1383</ele>
        <time>1970-01-01T00:16:20.000Z</time>
      </trkpt>
      <trkpt lat="44.38262" lon="3.83402">
        <ele>1382</ele>
        <time>1970-01-01T00:16:21.000Z</time>
      </trkpt>
      <trkpt lat="44.38258" lon="3.83413">
        <ele>1380</ele>
        <time>1970-01-01T00:16:22.000Z</time>
      </trkpt>
      <trkpt lat="44.38254" lon="3.83424">
        <ele>1380</ele>
        <time>1970-01-01T00:16:23.000Z</time>
      </trkpt>
      <trkpt lat="44.3825" lon="3.83435">
        <ele>1375</ele>
        <time>1970-01-01T00:16:24.000Z</time>
      </trkpt>
      <trkpt lat="44.38245" lon="3.83446">
        <ele>1375</ele>
        <time>1970-01-01T00:16:25.000Z</time>
      </trkpt>
      <trkpt lat="44.38241" lon="3.83457">
        <ele>1374</ele>
        <time>1970-01-01T00:16:26.000Z</time>
      </trkpt>
      <trkpt lat="44.38239" lon="3.83462">
        <ele>1374</ele>
        <time>1970-01-01T00:16:27.000Z</time>
      </trkpt>
      <trkpt lat="44.38232" lon="3.8347">
        <ele>1374</ele>
        <time>1970-01-01T00:16:28.000Z</time>
      </trkpt>
      <trkpt lat="44.38225" lon="3.83478">
        <ele>1374</ele>
        <time>1970-01-01T00:16:29.000Z</time>
      </trkpt>
      <trkpt lat="44.38218" lon="3.83486">
        <ele>1373</ele>
        <time>1970-01-01T00:16:30.000Z</time>
      </trkpt>
      <trkpt lat="44.38211" lon="3.83494">
        <ele>1373</ele>
        <time>1970-01-01T00:16:31.000Z</time>
      </trkpt>
      <trkpt lat="44.38208" lon="3.83498">
        <ele>1372</ele>
        <time>1970-01-01T00:16:32.000Z</time>
      </trkpt>
      <trkpt lat="44.38201" lon="3.8349">
        <ele>1372</ele>
        <time>1970-01-01T00:16:33.000Z</time>
      </trkpt>
      <trkpt lat="44.38194" lon="3.83482">
        <ele>1371</ele>
        <time>1970-01-01T00:16:34.000Z</time>
      </trkpt>
      <trkpt lat="44.38187" lon="3.83474">
        <ele>1371</ele>
        <time>1970-01-01T00:16:35.000Z</time>
      </trkpt>
      <trkpt lat="44.3818" lon="3.83465">
        <ele>1371</ele>
        <time>1970-01-01T00:16:36.000Z</time>
      </trkpt>
      <trkpt lat="44.38173" lon="3.83457">
        <ele>1371</ele>
        <time>1970-01-01T00:16:37.000Z</time>
      </trkpt>
      <trkpt lat="44.38168" lon="3.83451">
        <ele>1371</ele>
        <time>1970-01-01T00:16:38.000Z</time>
      </trkpt>
      <trkpt lat="44.38164" lon="3.8344">
        <ele>1366</ele>
        <time>1970-01-01T00:16:39.000Z</time>
      </trkpt>
      <trkpt lat="44.38159" lon="3.83429">
        <ele>1366</ele>
        <time>1970-01-01T00:16:40.000Z</time>
      </trkpt>
      <trkpt lat="44.38156" lon="3.83421">
        <ele>1367</ele>
        <time>1970-01-01T00:16:41.000Z</time>
      </trkpt>
      <trkpt lat="44.38153" lon="3.83409">
        <ele>1366</ele>
        <time>1970-01-01T00:16:42.000Z</time>
      </trkpt>
      <trkpt lat="44.38149" lon="3.83398">
        <ele>1366</ele>
        <time>1970-01-01T00:16:43.000Z</time>
      </trkpt>
      <trkpt lat="44.38145" lon="3.83386">
        <ele>1365</ele>
        <time>1970-01-01T00:16:44.000Z</time>
      </trkpt>
      <trkpt lat="44.38142" lon="3.83375">
        <ele>1365</ele>
        <time>1970-01-01T00:16:45.000Z</time>
      </trkpt>
      <trkpt lat="44.38142" lon="3.83375">
        <ele>1365</ele>
        <time>1970-01-01T00:16:46.000Z</time>
      </trkpt>
      <trkpt lat="44.38139" lon="3.83363">
        <ele>1365</ele>
        <time>1970-01-01T00:16:47.000Z</time>
      </trkpt>
      <trkpt lat="44.38137" lon="3.83356">
        <ele>1365</ele>
        <time>1970-01-01T00:16:48.000Z</time>
      </trkpt>
      <trkpt lat="44.38132" lon="3.83351">
        <ele>1365</ele>
        <time>1970-01-01T00:16:49.000Z</time>
      </trkpt>
      <trkpt lat="44.38123" lon="3.83354">
        <ele>1364</ele>
        <time>1970-01-01T00:16:50.000Z</time>
      </trkpt>
      <trkpt lat="44.38123" lon="3.83354">
        <ele>1364</ele>
        <time>1970-01-01T00:16:51.000Z</time>
      </trkpt>
      <trkpt lat="44.38115" lon="3.83358">
        <ele>1364</ele>
        <time>1970-01-01T00:16:52.000Z</time>
      </trkpt>
      <trkpt lat="44.38106" lon="3.83361">
        <ele>1363</ele>
        <time>1970-01-01T00:16:53.000Z</time>
      </trkpt>
      <trkpt lat="44.38106" lon="3.83361">
        <ele>1363</ele>
        <time>1970-01-01T00:16:54.000Z</time>
      </trkpt>
      <trkpt lat="44.38097" lon="3.83364">
        <ele>1363</ele>
        <time>1970-01-01T00:16:55.000Z</time>
      </trkpt>
      <trkpt lat="44.38097" lon="3.83364">
        <ele>1363</ele>
        <time>1970-01-01T00:16:56.000Z</time>
      </trkpt>
      <trkpt lat="44.38089" lon="3.83367">
        <ele>1363</ele>
        <time>1970-01-01T00:16:57.000Z</time>
      </trkpt>
      <trkpt lat="44.3808" lon="3.8337">
        <ele>1360</ele>
        <time>1970-01-01T00:16:58.000Z</time>
      </trkpt>
      <trkpt lat="44.3808" lon="3.8337">
        <ele>1360</ele>
        <time>1970-01-01T00:16:59.000Z</time>
      </trkpt>
      <trkpt lat="44.38071" lon="3.83374">
        <ele>1360</ele>
        <time>1970-01-01T00:17:00.000Z</time>
      </trkpt>
      <trkpt lat="44.38071" lon="3.83374">
        <ele>1360</ele>
        <time>1970-01-01T00:17:01.000Z</time>
      </trkpt>
      <trkpt lat="44.38067" lon="3.83375">
        <ele>1360</ele>
        <time>1970-01-01T00:17:02.000Z</time>
      </trkpt>
      <trkpt lat="44.38061" lon="3.83384">
        <ele>1360</ele>
        <time>1970-01-01T00:17:03.000Z</time>
      </trkpt>
      <trkpt lat="44.38055" lon="3.83393">
        <ele>1360</ele>
        <time>1970-01-01T00:17:04.000Z</time>
      </trkpt>
      <trkpt lat="44.38049" lon="3.83402">
        <ele>1360</ele>
        <time>1970-01-01T00:17:05.000Z</time>
      </trkpt>
      <trkpt lat="44.38043" lon="3.83411">
        <ele>1360</ele>
        <time>1970-01-01T00:17:06.000Z</time>
      </trkpt>
      <trkpt lat="44.38042" lon="3.83412">
        <ele>1360</ele>
        <time>1970-01-01T00:17:07.000Z</time>
      </trkpt>
      <trkpt lat="44.38036" lon="3.83421">
        <ele>1360</ele>
        <time>1970-01-01T00:17:08.000Z</time>
      </trkpt>
      <trkpt lat="44.3803" lon="3.8343">
        <ele>1360</ele>
        <time>1970-01-01T00:17:09.000Z</time>
      </trkpt>
      <trkpt lat="44.38024" lon="3.83439">
        <ele>1360</ele>
        <time>1970-01-01T00:17:10.000Z</time>
      </trkpt>
      <trkpt lat="44.38018" lon="3.83448">
        <ele>1360</ele>
        <time>1970-01-01T00:17:11.000Z</time>
      </trkpt>
      <trkpt lat="44.38012" lon="3.83457">
        <ele>1360</ele>
        <time>1970-01-01T00:17:12.000Z</time>
      </trkpt>
      <trkpt lat="44.38005" lon="3.83466">
        <ele>1360</ele>
        <time>1970-01-01T00:17:13.000Z</time>
      </trkpt>
      <trkpt lat="44.38005" lon="3.83466">
        <ele>1360</ele>
        <time>1970-01-01T00:17:14.000Z</time>
      </trkpt>
      <trkpt lat="44.37999" lon="3.83475">
        <ele>1357</ele>
        <time>1970-01-01T00:17:15.000Z</time>
      </trkpt>
      <trkpt lat="44.37993" lon="3.83484">
        <ele>1358</ele>
        <time>1970-01-01T00:17:16.000Z</time>
      </trkpt>
      <trkpt lat="44.37984" lon="3.8348">
        <ele>1357</ele>
        <time>1970-01-01T00:17:17.000Z</time>
      </trkpt>
      <trkpt lat="44.37984" lon="3.8348">
        <ele>1357</ele>
        <time>1970-01-01T00:17:18.000Z</time>
      </trkpt>
      <trkpt lat="44.37976" lon="3.83475">
        <ele>1357</ele>
        <time>1970-01-01T00:17:19.000Z</time>
      </trkpt>
      <trkpt lat="44.37968" lon="3.83471">
        <ele>1356</ele>
        <time>1970-01-01T00:17:20.000Z</time>
      </trkpt>
      <trkpt lat="44.3796" lon="3.83466">
        <ele>1356</ele>
        <time>1970-01-01T00:17:21.000Z</time>
      </trkpt>
      <trkpt lat="44.37959" lon="3.83466">
        <ele>1356</ele>
        <time>1970-01-01T00:17:22.000Z</time>
      </trkpt>
      <trkpt lat="44.37951" lon="3.83462">
        <ele>1356</ele>
        <time>1970-01-01T00:17:23.000Z</time>
      </trkpt>
      <trkpt lat="44.37943" lon="3.83457">
        <ele>1355</ele>
        <time>1970-01-01T00:17:24.000Z</time>
      </trkpt>
      <trkpt lat="44.37934" lon="3.83453">
        <ele>1355</ele>
        <time>1970-01-01T00:17:25.000Z</time>
      </trkpt>
      <trkpt lat="44.37934" lon="3.83453">
        <ele>1355</ele>
        <time>1970-01-01T00:17:26.000Z</time>
      </trkpt>
      <trkpt lat="44.37926" lon="3.83448">
        <ele>1355</ele>
        <time>1970-01-01T00:17:27.000Z</time>
      </trkpt>
      <trkpt lat="44.37918" lon="3.83444">
        <ele>1354</ele>
        <time>1970-01-01T00:17:28.000Z</time>
      </trkpt>
      <trkpt lat="44.37917" lon="3.83444">
        <ele>1354</ele>
        <time>1970-01-01T00:17:29.000Z</time>
      </trkpt>
      <trkpt lat="44.37909" lon="3.83439">
        <ele>1352</ele>
        <time>1970-01-01T00:17:30.000Z</time>
      </trkpt>
      <trkpt lat="44.37901" lon="3.83435">
        <ele>1352</ele>
        <time>1970-01-01T00:17:31.000Z</time>
      </trkpt>
      <trkpt lat="44.37893" lon="3.83431">
        <ele>1352</ele>
        <time>1970-01-01T00:17:32.000Z</time>
      </trkpt>
      <trkpt lat="44.37892" lon="3.83431">
        <ele>1352</ele>
        <time>1970-01-01T00:17:33.000Z</time>
      </trkpt>
      <trkpt lat="44.37891" lon="3.8343">
        <ele>1352</ele>
        <time>1970-01-01T00:17:34.000Z</time>
      </trkpt>
      <trkpt lat="44.37883" lon="3.83427">
        <ele>1352</ele>
        <time>1970-01-01T00:17:35.000Z</time>
      </trkpt>
      <trkpt lat="44.37875" lon="3.83422">
        <ele>1352</ele>
        <time>1970-01-01T00:17:36.000Z</time>
      </trkpt>
      <trkpt lat="44.37867" lon="3.83417">
        <ele>1351</ele>
        <time>1970-01-01T00:17:37.000Z</time>
      </trkpt>
      <trkpt lat="44.37866" lon="3.83417">
        <ele>1351</ele>
        <time>1970-01-01T00:17:38.000Z</time>
      </trkpt>
      <trkpt lat="44.37858" lon="3.83412">
        <ele>1351</ele>
        <time>1970-01-01T00:17:39.000Z</time>
      </trkpt>
      <trkpt lat="44.37849" lon="3.83408">
        <ele>1350</ele>
        <time>1970-01-01T00:17:40.000Z</time>
      </trkpt>
      <trkpt lat="44.37849" lon="3.83408">
        <ele>1350</ele>
        <time>1970-01-01T00:17:41.000Z</time>
      </trkpt>
      <trkpt lat="44.37848" lon="3.83407">
        <ele>1350</ele>
        <time>1970-01-01T00:17:42.000Z</time>
      </trkpt>
      <trkpt lat="44.37839" lon="3.83404">
        <ele>1350</ele>
        <time>1970-01-01T00:17:43.000Z</time>
      </trkpt>
      <trkpt lat="44.37839" lon="3.83404">
        <ele>1350</ele>
        <time>1970-01-01T00:17:44.000Z</time>
      </trkpt>
      <trkpt lat="44.37837" lon="3.83403">
        <ele>1350</ele>
        <time>1970-01-01T00:17:45.000Z</time>
      </trkpt>
      <trkpt lat="44.37829" lon="3.83408">
        <ele>1350</ele>
        <time>1970-01-01T00:17:46.000Z</time>
      </trkpt>
      <trkpt lat="44.37821" lon="3.83413">
        <ele>1350</ele>
        <time>1970-01-01T00:17:47.000Z</time>
      </trkpt>
      <trkpt lat="44.37813" lon="3.83418">
        <ele>1351</ele>
        <time>1970-01-01T00:17:48.000Z</time>
      </trkpt>
      <trkpt lat="44.37805" lon="3.83423">
        <ele>1351</ele>
        <time>1970-01-01T00:17:49.000Z</time>
      </trkpt>
      <trkpt lat="44.37804" lon="3.83423">
        <ele>1351</ele>
        <time>1970-01-01T00:17:50.000Z</time>
      </trkpt>
      <trkpt lat="44.37797" lon="3.83427">
        <ele>1351</ele>
        <time>1970-01-01T00:17:51.000Z</time>
      </trkpt>
      <trkpt lat="44.37789" lon="3.83433">
        <ele>1351</ele>
        <time>1970-01-01T00:17:52.000Z</time>
      </trkpt>
      <trkpt lat="44.37789" lon="3.83433">
        <ele>1351</ele>
        <time>1970-01-01T00:17:53.000Z</time>
      </trkpt>
      <trkpt lat="44.37781" lon="3.83438">
        <ele>1351</ele>
        <time>1970-01-01T00:17:54.000Z</time>
      </trkpt>
      <trkpt lat="44.37773" lon="3.83444">
        <ele>1351</ele>
        <time>1970-01-01T00:17:55.000Z</time>
      </trkpt>
      <trkpt lat="44.37773" lon="3.83444">
        <ele>1351</ele>
        <time>1970-01-01T00:17:56.000Z</time>
      </trkpt>
      <trkpt lat="44.37765" lon="3.83449">
        <ele>1351</ele>
        <time>1970-01-01T00:17:57.000Z</time>
      </trkpt>
      <trkpt lat="44.37757" lon="3.83455">
        <ele>1352</ele>
        <time>1970-01-01T00:17:58.000Z</time>
      </trkpt>
      <trkpt lat="44.37757" lon="3.83455">
        <ele>1352</ele>
        <time>1970-01-01T00:17:59.000Z</time>
      </trkpt>
      <trkpt lat="44.37749" lon="3.8346">
        <ele>1353</ele>
        <time>1970-01-01T00:18:00.000Z</time>
      </trkpt>
      <trkpt lat="44.37741" lon="3.83466">
        <ele>1353</ele>
        <time>1970-01-01T00:18:01.000Z</time>
      </trkpt>
      <trkpt lat="44.37741" lon="3.83466">
        <ele>1353</ele>
        <time>1970-01-01T00:18:02.000Z</time>
      </trkpt>
      <trkpt lat="44.37733" lon="3.83471">
        <ele>1354</ele>
        <time>1970-01-01T00:18:03.000Z</time>
      </trkpt>
      <trkpt lat="44.37731" lon="3.83473">
        <ele>1354</ele>
        <time>1970-01-01T00:18:04.000Z</time>
      </trkpt>
      <trkpt lat="44.37723" lon="3.83478">
        <ele>1354</ele>
        <time>1970-01-01T00:18:05.000Z</time>
      </trkpt>
      <trkpt lat="44.37722" lon="3.83478">
        <ele>1354</ele>
        <time>1970-01-01T00:18:06.000Z</time>
      </trkpt>
      <trkpt lat="44.37714" lon="3.83483">
        <ele>1354</ele>
        <time>1970-01-01T00:18:07.000Z</time>
      </trkpt>
      <trkpt lat="44.37708" lon="3.83486">
        <ele>1355</ele>
        <time>1970-01-01T00:18:08.000Z</time>
      </trkpt>
      <trkpt lat="44.377" lon="3.83482">
        <ele>1355</ele>
        <time>1970-01-01T00:18:09.000Z</time>
      </trkpt>
      <trkpt lat="44.37691" lon="3.83479">
        <ele>1355</ele>
        <time>1970-01-01T00:18:10.000Z</time>
      </trkpt>
      <trkpt lat="44.37691" lon="3.83479">
        <ele>1355</ele>
        <time>1970-01-01T00:18:11.000Z</time>
      </trkpt>
      <trkpt lat="44.37683" lon="3.83475">
        <ele>1355</ele>
        <time>1970-01-01T00:18:12.000Z</time>
      </trkpt>
      <trkpt lat="44.37681" lon="3.83474">
        <ele>1355</ele>
        <time>1970-01-01T00:18:13.000Z</time>
      </trkpt>
      <trkpt lat="44.37673" lon="3.83468">
        <ele>1355</ele>
        <time>1970-01-01T00:18:14.000Z</time>
      </trkpt>
      <trkpt lat="44.37665" lon="3.83463">
        <ele>1356</ele>
        <time>1970-01-01T00:18:15.000Z</time>
      </trkpt>
      <trkpt lat="44.37657" lon="3.83457">
        <ele>1356</ele>
        <time>1970-01-01T00:18:16.000Z</time>
      </trkpt>
      <trkpt lat="44.37657" lon="3.83457">
        <ele>1356</ele>
        <time>1970-01-01T00:18:17.000Z</time>
      </trkpt>
      <trkpt lat="44.37651" lon="3.83453">
        <ele>1356</ele>
        <time>1970-01-01T00:18:18.000Z</time>
      </trkpt>
      <trkpt lat="44.37642" lon="3.83455">
        <ele>1356</ele>
        <time>1970-01-01T00:18:19.000Z</time>
      </trkpt>
      <trkpt lat="44.37642" lon="3.83455">
        <ele>1356</ele>
        <time>1970-01-01T00:18:20.000Z</time>
      </trkpt>
      <trkpt lat="44.37633" lon="3.83456">
        <ele>1356</ele>
        <time>1970-01-01T00:18:21.000Z</time>
      </trkpt>
      <trkpt lat="44.37624" lon="3.83457">
        <ele>1356</ele>
        <time>1970-01-01T00:18:22.000Z</time>
      </trkpt>
      <trkpt lat="44.37624" lon="3.83457">
        <ele>1356</ele>
        <time>1970-01-01T00:18:23.000Z</time>
      </trkpt>
      <trkpt lat="44.37615" lon="3.83458">
        <ele>1356</ele>
        <time>1970-01-01T00:18:24.000Z</time>
      </trkpt>
      <trkpt lat="44.37615" lon="3.83458">
        <ele>1356</ele>
        <time>1970-01-01T00:18:25.000Z</time>
      </trkpt>
      <trkpt lat="44.37606" lon="3.8346">
        <ele>1357</ele>
        <time>1970-01-01T00:18:26.000Z</time>
      </trkpt>
      <trkpt lat="44.37597" lon="3.83461">
        <ele>1357</ele>
        <time>1970-01-01T00:18:27.000Z</time>
      </trkpt>
      <trkpt lat="44.37597" lon="3.83461">
        <ele>1357</ele>
        <time>1970-01-01T00:18:28.000Z</time>
      </trkpt>
      <trkpt lat="44.37588" lon="3.83462">
        <ele>1357</ele>
        <time>1970-01-01T00:18:29.000Z</time>
      </trkpt>
      <trkpt lat="44.37579" lon="3.83464">
        <ele>1357</ele>
        <time>1970-01-01T00:18:30.000Z</time>
      </trkpt>
      <trkpt lat="44.37579" lon="3.83464">
        <ele>1357</ele>
        <time>1970-01-01T00:18:31.000Z</time>
      </trkpt>
      <trkpt lat="44.37578" lon="3.83464">
        <ele>1357</ele>
        <time>1970-01-01T00:18:32.000Z</time>
      </trkpt>
      <trkpt lat="44.37569" lon="3.83465">
        <ele>1357</ele>
        <time>1970-01-01T00:18:33.000Z</time>
      </trkpt>
      <trkpt lat="44.3756" lon="3.83466">
        <ele>1357</ele>
        <time>1970-01-01T00:18:34.000Z</time>
      </trkpt>
      <trkpt lat="44.3756" lon="3.83466">
        <ele>1357</ele>
        <time>1970-01-01T00:18:35.000Z</time>
      </trkpt>
      <trkpt lat="44.37557" lon="3.83466">
        <ele>1357</ele>
        <time>1970-01-01T00:18:36.000Z</time>
      </trkpt>
      <trkpt lat="44.37548" lon="3.83467">
        <ele>1357</ele>
        <time>1970-01-01T00:18:37.000Z</time>
      </trkpt>
      <trkpt lat="44.37539" lon="3.83468">
        <ele>1357</ele>
        <time>1970-01-01T00:18:38.000Z</time>
      </trkpt>
      <trkpt lat="44.37539" lon="3.83468">
        <ele>1357</ele>
        <time>1970-01-01T00:18:39.000Z</time>
      </trkpt>
      <trkpt lat="44.3753" lon="3.83469">
        <ele>1357</ele>
        <time>1970-01-01T00:18:40.000Z</time>
      </trkpt>
      <trkpt lat="44.37521" lon="3.8347">
        <ele>1358</ele>
        <time>1970-01-01T00:18:41.000Z</time>
      </trkpt>
      <trkpt lat="44.37521" lon="3.8347">
        <ele>1358</ele>
        <time>1970-01-01T00:18:42.000Z</time>
      </trkpt>
      <trkpt lat="44.37512" lon="3.83471">
        <ele>1358</ele>
        <time>1970-01-01T00:18:43.000Z</time>
      </trkpt>
      <trkpt lat="44.37512" lon="3.83471">
        <ele>1358</ele>
        <time>1970-01-01T00:18:44.000Z</time>
      </trkpt>
      <trkpt lat="44.37503" lon="3.83472">
        <ele>1358</ele>
        <time>1970-01-01T00:18:45.000Z</time>
      </trkpt>
      <trkpt lat="44.37494" lon="3.83473">
        <ele>1359</ele>
        <time>1970-01-01T00:18:46.000Z</time>
      </trkpt>
      <trkpt lat="44.37494" lon="3.83473">
        <ele>1359</ele>
        <time>1970-01-01T00:18:47.000Z</time>
      </trkpt>
      <trkpt lat="44.37486" lon="3.83474">
        <ele>1359</ele>
        <time>1970-01-01T00:18:48.000Z</time>
      </trkpt>
      <trkpt lat="44.37481" lon="3.83474">
        <ele>1359</ele>
        <time>1970-01-01T00:18:49.000Z</time>
      </trkpt>
      <trkpt lat="44.37472" lon="3.83474">
        <ele>1359</ele>
        <time>1970-01-01T00:18:50.000Z</time>
      </trkpt>
      <trkpt lat="44.37463" lon="3.83475">
        <ele>1359</ele>
        <time>1970-01-01T00:18:51.000Z</time>
      </trkpt>
      <trkpt lat="44.37463" lon="3.83475">
        <ele>1359</ele>
        <time>1970-01-01T00:18:52.000Z</time>
      </trkpt>
      <trkpt lat="44.37463" lon="3.83475">
        <ele>1359</ele>
        <time>1970-01-01T00:18:53.000Z</time>
      </trkpt>
      <trkpt lat="44.37454" lon="3.83476">
        <ele>1359</ele>
        <time>1970-01-01T00:18:54.000Z</time>
      </trkpt>
      <trkpt lat="44.37454" lon="3.83476">
        <ele>1359</ele>
        <time>1970-01-01T00:18:55.000Z</time>
      </trkpt>
      <trkpt lat="44.37445" lon="3.83477">
        <ele>1359</ele>
        <time>1970-01-01T00:18:56.000Z</time>
      </trkpt>
      <trkpt lat="44.37436" lon="3.83478">
        <ele>1359</ele>
        <time>1970-01-01T00:18:57.000Z</time>
      </trkpt>
      <trkpt lat="44.37436" lon="3.83478">
        <ele>1359</ele>
        <time>1970-01-01T00:18:58.000Z</time>
      </trkpt>
      <trkpt lat="44.37427" lon="3.8348">
        <ele>1360</ele>
        <time>1970-01-01T00:18:59.000Z</time>
      </trkpt>
      <trkpt lat="44.3742" lon="3.8348">
        <ele>1360</ele>
        <time>1970-01-01T00:19:00.000Z</time>
      </trkpt>
      <trkpt lat="44.37411" lon="3.83481">
        <ele>1361</ele>
        <time>1970-01-01T00:19:01.000Z</time>
      </trkpt>
      <trkpt lat="44.37402" lon="3.83482">
        <ele>1361</ele>
        <time>1970-01-01T00:19:02.000Z</time>
      </trkpt>
      <trkpt lat="44.37402" lon="3.83482">
        <ele>1361</ele>
        <time>1970-01-01T00:19:03.000Z</time>
      </trkpt>
      <trkpt lat="44.37393" lon="3.83483">
        <ele>1360</ele>
        <time>1970-01-01T00:19:04.000Z</time>
      </trkpt>
      <trkpt lat="44.3739" lon="3.83483">
        <ele>1360</ele>
        <time>1970-01-01T00:19:05.000Z</time>
      </trkpt>
      <trkpt lat="44.37381" lon="3.83484">
        <ele>1360</ele>
        <time>1970-01-01T00:19:06.000Z</time>
      </trkpt>
      <trkpt lat="44.37381" lon="3.83484">
        <ele>1360</ele>
        <time>1970-01-01T00:19:07.000Z</time>
      </trkpt>
      <trkpt lat="44.37372" lon="3.83484">
        <ele>1360</ele>
        <time>1970-01-01T00:19:08.000Z</time>
      </trkpt>
      <trkpt lat="44.37372" lon="3.83484">
        <ele>1360</ele>
        <time>1970-01-01T00:19:09.000Z</time>
      </trkpt>
      <trkpt lat="44.37363" lon="3.83484">
        <ele>1360</ele>
        <time>1970-01-01T00:19:10.000Z</time>
      </trkpt>
      <trkpt lat="44.37361" lon="3.83484">
        <ele>1360</ele>
        <time>1970-01-01T00:19:11.000Z</time>
      </trkpt>
      <trkpt lat="44.37353" lon="3.83488">
        <ele>1360</ele>
        <time>1970-01-01T00:19:12.000Z</time>
      </trkpt>
      <trkpt lat="44.37352" lon="3.83488">
        <ele>1360</ele>
        <time>1970-01-01T00:19:13.000Z</time>
      </trkpt>
      <trkpt lat="44.37351" lon="3.83488">
        <ele>1360</ele>
        <time>1970-01-01T00:19:14.000Z</time>
      </trkpt>
      <trkpt lat="44.37343" lon="3.83484">
        <ele>1360</ele>
        <time>1970-01-01T00:19:15.000Z</time>
      </trkpt>
      <trkpt lat="44.37341" lon="3.83483">
        <ele>1360</ele>
        <time>1970-01-01T00:19:16.000Z</time>
      </trkpt>
      <trkpt lat="44.37347" lon="3.83474">
        <ele>1360</ele>
        <time>1970-01-01T00:19:17.000Z</time>
      </trkpt>
      <trkpt lat="44.37353" lon="3.83465">
        <ele>1360</ele>
        <time>1970-01-01T00:19:18.000Z</time>
      </trkpt>
      <trkpt lat="44.37356" lon="3.8346">
        <ele>1360</ele>
        <time>1970-01-01T00:19:19.000Z</time>
      </trkpt>
      <trkpt lat="44.37361" lon="3.8345">
        <ele>1359</ele>
        <time>1970-01-01T00:19:20.000Z</time>
      </trkpt>
      <trkpt lat="44.37365" lon="3.83443">
        <ele>1359</ele>
        <time>1970-01-01T00:19:21.000Z</time>
      </trkpt>
      <trkpt lat="44.3737" lon="3.83433">
        <ele>1359</ele>
        <time>1970-01-01T00:19:22.000Z</time>
      </trkpt>
      <trkpt lat="44.37376" lon="3.83423">
        <ele>1359</ele>
        <time>1970-01-01T00:19:23.000Z</time>
      </trkpt>
      <trkpt lat="44.37376" lon="3.83423">
        <ele>1359</ele>
        <time>1970-01-01T00:19:24.000Z</time>
      </trkpt>
      <trkpt lat="44.37381" lon="3.83414">
        <ele>1357</ele>
        <time>1970-01-01T00:19:25.000Z</time>
      </trkpt>
      <trkpt lat="44.37387" lon="3.83404">
        <ele>1357</ele>
        <time>1970-01-01T00:19:26.000Z</time>
      </trkpt>
      <trkpt lat="44.37387" lon="3.83404">
        <ele>1357</ele>
        <time>1970-01-01T00:19:27.000Z</time>
      </trkpt>
      <trkpt lat="44.37392" lon="3.83394">
        <ele>1357</ele>
        <time>1970-01-01T00:19:28.000Z</time>
      </trkpt>
      <trkpt lat="44.37398" lon="3.83384">
        <ele>1357</ele>
        <time>1970-01-01T00:19:29.000Z</time>
      </trkpt>
      <trkpt lat="44.37398" lon="3.83384">
        <ele>1357</ele>
        <time>1970-01-01T00:19:30.000Z</time>
      </trkpt>
      <trkpt lat="44.37404" lon="3.83374">
        <ele>1357</ele>
        <time>1970-01-01T00:19:31.000Z</time>
      </trkpt>
      <trkpt lat="44.37404" lon="3.83374">
        <ele>1357</ele>
        <time>1970-01-01T00:19:32.000Z</time>
      </trkpt>
      <trkpt lat="44.37404" lon="3.83374">
        <ele>1357</ele>
        <time>1970-01-01T00:19:33.000Z</time>
      </trkpt>
      <trkpt lat="44.3741" lon="3.83364">
        <ele>1356</ele>
        <time>1970-01-01T00:19:34.000Z</time>
      </trkpt>
      <trkpt lat="44.3741" lon="3.83364">
        <ele>1356</ele>
        <time>1970-01-01T00:19:35.000Z</time>
      </trkpt>
      <trkpt lat="44.37416" lon="3.83354">
        <ele>1355</ele>
        <time>1970-01-01T00:19:36.000Z</time>
      </trkpt>
      <trkpt lat="44.37416" lon="3.83354">
        <ele>1355</ele>
        <time>1970-01-01T00:19:37.000Z</time>
      </trkpt>
      <trkpt lat="44.37421" lon="3.83344">
        <ele>1352</ele>
        <time>1970-01-01T00:19:38.000Z</time>
      </trkpt>
      <trkpt lat="44.37427" lon="3.83335">
        <ele>1352</ele>
        <time>1970-01-01T00:19:39.000Z</time>
      </trkpt>
      <trkpt lat="44.37432" lon="3.83325">
        <ele>1351</ele>
        <time>1970-01-01T00:19:40.000Z</time>
      </trkpt>
      <trkpt lat="44.37438" lon="3.83315">
        <ele>1351</ele>
        <time>1970-01-01T00:19:41.000Z</time>
      </trkpt>
      <trkpt lat="44.37438" lon="3.83315">
        <ele>1351</ele>
        <time>1970-01-01T00:19:42.000Z</time>
      </trkpt>
      <trkpt lat="44.37442" lon="3.8331">
        <ele>1351</ele>
        <time>1970-01-01T00:19:43.000Z</time>
      </trkpt>
      <trkpt lat="44.37444" lon="3.83298">
        <ele>1351</ele>
        <time>1970-01-01T00:19:44.000Z</time>
      </trkpt>
      <trkpt lat="44.37446" lon="3.83286">
        <ele>1352</ele>
        <time>1970-01-01T00:19:45.000Z</time>
      </trkpt>
      <trkpt lat="44.37446" lon="3.83285">
        <ele>1352</ele>
        <time>1970-01-01T00:19:46.000Z</time>
      </trkpt>
      <trkpt lat="44.37448" lon="3.83273">
        <ele>1352</ele>
        <time>1970-01-01T00:19:47.000Z</time>
      </trkpt>
      <trkpt lat="44.3745" lon="3.83261">
        <ele>1352</ele>
        <time>1970-01-01T00:19:48.000Z</time>
      </trkpt>
      <trkpt lat="44.37452" lon="3.83249">
        <ele>1354</ele>
        <time>1970-01-01T00:19:49.000Z</time>
      </trkpt>
      <trkpt lat="44.37454" lon="3.83237">
        <ele>1354</ele>
        <time>1970-01-01T00:19:50.000Z</time>
      </trkpt>
      <trkpt lat="44.37456" lon="3.83225">
        <ele>1354</ele>
        <time>1970-01-01T00:19:51.000Z</time>
      </trkpt>
      <trkpt lat="44.37456" lon="3.83224">
        <ele>1354</ele>
        <time>1970-01-01T00:19:52.000Z</time>
      </trkpt>
      <trkpt lat="44.37457" lon="3.83224">
        <ele>1354</ele>
        <time>1970-01-01T00:19:53.000Z</time>
      </trkpt>
      <trkpt lat="44.3746" lon="3.83212">
        <ele>1354</ele>
        <time>1970-01-01T00:19:54.000Z</time>
      </trkpt>
      <trkpt lat="44.3746" lon="3.83212">
        <ele>1354</ele>
        <time>1970-01-01T00:19:55.000Z</time>
      </trkpt>
      <trkpt lat="44.3746" lon="3.83212">
        <ele>1354</ele>
        <time>1970-01-01T00:19:56.000Z</time>
      </trkpt>
      <trkpt lat="44.3746" lon="3.83199">
        <ele>1355</ele>
        <time>1970-01-01T00:19:57.000Z</time>
      </trkpt>
      <trkpt lat="44.3746" lon="3.83199">
        <ele>1355</ele>
        <time>1970-01-01T00:19:58.000Z</time>
      </trkpt>
      <trkpt lat="44.3746" lon="3.83197">
        <ele>1355</ele>
        <time>1970-01-01T00:19:59.000Z</time>
      </trkpt>
      <trkpt lat="44.37463" lon="3.83185">
        <ele>1354</ele>
        <time>1970-01-01T00:20:00.000Z</time>
      </trkpt>
      <trkpt lat="44.37463" lon="3.83185">
        <ele>1354</ele>
        <time>1970-01-01T00:20:01.000Z</time>
      </trkpt>
      <trkpt lat="44.37465" lon="3.83173">
        <ele>1354</ele>
        <time>1970-01-01T00:20:02.000Z</time>
      </trkpt>
      <trkpt lat="44.37467" lon="3.83161">
        <ele>1355</ele>
        <time>1970-01-01T00:20:03.000Z</time>
      </trkpt>
      <trkpt lat="44.37469" lon="3.83149">
        <ele>1355</ele>
        <time>1970-01-01T00:20:04.000Z</time>
      </trkpt>
      <trkpt lat="44.37472" lon="3.83137">
        <ele>1355</ele>
        <time>1970-01-01T00:20:05.000Z</time>
      </trkpt>
      <trkpt lat="44.37472" lon="3.83137">
        <ele>1355</ele>
        <time>1970-01-01T00:20:06.000Z</time>
      </trkpt>
      <trkpt lat="44.37474" lon="3.83125">
        <ele>1355</ele>
        <time>1970-01-01T00:20:07.000Z</time>
      </trkpt>
      <trkpt lat="44.37476" lon="3.83113">
        <ele>1355</ele>
        <time>1970-01-01T00:20:08.000Z</time>
      </trkpt>
      <trkpt lat="44.37478" lon="3.83101">
        <ele>1354</ele>
        <time>1970-01-01T00:20:09.000Z</time>
      </trkpt>
      <trkpt lat="44.37481" lon="3.83089">
        <ele>1352</ele>
        <time>1970-01-01T00:20:10.000Z</time>
      </trkpt>
      <trkpt lat="44.37481" lon="3.83089">
        <ele>1352</ele>
        <time>1970-01-01T00:20:11.000Z</time>
      </trkpt>
      <trkpt lat="44.37483" lon="3.83077">
        <ele>1351</ele>
        <time>1970-01-01T00:20:12.000Z</time>
      </trkpt>
      <trkpt lat="44.37483" lon="3.83076">
        <ele>1351</ele>
        <time>1970-01-01T00:20:13.000Z</time>
      </trkpt>
      <trkpt lat="44.37485" lon="3.83067">
        <ele>1351</ele>
        <time>1970-01-01T00:20:14.000Z</time>
      </trkpt>
      <trkpt lat="44.37481" lon="3.83056">
        <ele>1352</ele>
        <time>1970-01-01T00:20:15.000Z</time>
      </trkpt>
      <trkpt lat="44.37481" lon="3.83055">
        <ele>1352</ele>
        <time>1970-01-01T00:20:16.000Z</time>
      </trkpt>
      <trkpt lat="44.37478" lon="3.83044">
        <ele>1352</ele>
        <time>1970-01-01T00:20:17.000Z</time>
      </trkpt>
      <trkpt lat="44.37475" lon="3.83032">
        <ele>1352</ele>
        <time>1970-01-01T00:20:18.000Z</time>
      </trkpt>
      <trkpt lat="44.37475" lon="3.83032">
        <ele>1352</ele>
        <time>1970-01-01T00:20:19.000Z</time>
      </trkpt>
      <trkpt lat="44.37472" lon="3.8302">
        <ele>1351</ele>
        <time>1970-01-01T00:20:20.000Z</time>
      </trkpt>
      <trkpt lat="44.37472" lon="3.8302">
        <ele>1351</ele>
        <time>1970-01-01T00:20:21.000Z</time>
      </trkpt>
      <trkpt lat="44.37468" lon="3.83009">
        <ele>1351</ele>
        <time>1970-01-01T00:20:22.000Z</time>
      </trkpt>
      <trkpt lat="44.37468" lon="3.83008">
        <ele>1352</ele>
        <time>1970-01-01T00:20:23.000Z</time>
      </trkpt>
      <trkpt lat="44.37465" lon="3.82997">
        <ele>1348</ele>
        <time>1970-01-01T00:20:24.000Z</time>
      </trkpt>
      <trkpt lat="44.37462" lon="3.82985">
        <ele>1348</ele>
        <time>1970-01-01T00:20:25.000Z</time>
      </trkpt>
      <trkpt lat="44.37462" lon="3.82985">
        <ele>1348</ele>
        <time>1970-01-01T00:20:26.000Z</time>
      </trkpt>
      <trkpt lat="44.37459" lon="3.82973">
        <ele>1348</ele>
        <time>1970-01-01T00:20:27.000Z</time>
      </trkpt>
      <trkpt lat="44.37459" lon="3.82973">
        <ele>1348</ele>
        <time>1970-01-01T00:20:28.000Z</time>
      </trkpt>
      <trkpt lat="44.37455" lon="3.82962">
        <ele>1347</ele>
        <time>1970-01-01T00:20:29.000Z</time>
      </trkpt>
      <trkpt lat="44.37452" lon="3.8295">
        <ele>1347</ele>
        <time>1970-01-01T00:20:30.000Z</time>
      </trkpt>
      <trkpt lat="44.37452" lon="3.8295">
        <ele>1347</ele>
        <time>1970-01-01T00:20:31.000Z</time>
      </trkpt>
      <trkpt lat="44.37449" lon="3.82938">
        <ele>1347</ele>
        <time>1970-01-01T00:20:32.000Z</time>
      </trkpt>
      <trkpt lat="44.37449" lon="3.82938">
        <ele>1347</ele>
        <time>1970-01-01T00:20:33.000Z</time>
      </trkpt>
      <trkpt lat="44.37446" lon="3.82926">
        <ele>1347</ele>
        <time>1970-01-01T00:20:34.000Z</time>
      </trkpt>
      <trkpt lat="44.37446" lon="3.82926">
        <ele>1347</ele>
        <time>1970-01-01T00:20:35.000Z</time>
      </trkpt>
      <trkpt lat="44.37442" lon="3.82915">
        <ele>1344</ele>
        <time>1970-01-01T00:20:36.000Z</time>
      </trkpt>
      <trkpt lat="44.3744" lon="3.82907">
        <ele>1344</ele>
        <time>1970-01-01T00:20:37.000Z</time>
      </trkpt>
      <trkpt lat="44.37439" lon="3.82895">
        <ele>1343</ele>
        <time>1970-01-01T00:20:38.000Z</time>
      </trkpt>
      <trkpt lat="44.37438" lon="3.82892">
        <ele>1343</ele>
        <time>1970-01-01T00:20:39.000Z</time>
      </trkpt>
      <trkpt lat="44.37446" lon="3.82886">
        <ele>1342</ele>
        <time>1970-01-01T00:20:40.000Z</time>
      </trkpt>
      <trkpt lat="44.37446" lon="3.82886">
        <ele>1342</ele>
        <time>1970-01-01T00:20:41.000Z</time>
      </trkpt>
      <trkpt lat="44.37453" lon="3.82879">
        <ele>1342</ele>
        <time>1970-01-01T00:20:42.000Z</time>
      </trkpt>
      <trkpt lat="44.37454" lon="3.82879">
        <ele>1342</ele>
        <time>1970-01-01T00:20:43.000Z</time>
      </trkpt>
      <trkpt lat="44.37461" lon="3.82873">
        <ele>1341</ele>
        <time>1970-01-01T00:20:44.000Z</time>
      </trkpt>
      <trkpt lat="44.37469" lon="3.82866">
        <ele>1341</ele>
        <time>1970-01-01T00:20:45.000Z</time>
      </trkpt>
      <trkpt lat="44.37469" lon="3.82866">
        <ele>1341</ele>
        <time>1970-01-01T00:20:46.000Z</time>
      </trkpt>
      <trkpt lat="44.37477" lon="3.8286">
        <ele>1340</ele>
        <time>1970-01-01T00:20:47.000Z</time>
      </trkpt>
      <trkpt lat="44.37477" lon="3.8286">
        <ele>1340</ele>
        <time>1970-01-01T00:20:48.000Z</time>
      </trkpt>
      <trkpt lat="44.37484" lon="3.82853">
        <ele>1340</ele>
        <time>1970-01-01T00:20:49.000Z</time>
      </trkpt>
      <trkpt lat="44.37492" lon="3.82847">
        <ele>1339</ele>
        <time>1970-01-01T00:20:50.000Z</time>
      </trkpt>
      <trkpt lat="44.37492" lon="3.82847">
        <ele>1339</ele>
        <time>1970-01-01T00:20:51.000Z</time>
      </trkpt>
      <trkpt lat="44.375" lon="3.8284">
        <ele>1338</ele>
        <time>1970-01-01T00:20:52.000Z</time>
      </trkpt>
      <trkpt lat="44.375" lon="3.8284">
        <ele>1338</ele>
        <time>1970-01-01T00:20:53.000Z</time>
      </trkpt>
      <trkpt lat="44.37508" lon="3.82834">
        <ele>1337</ele>
        <time>1970-01-01T00:20:54.000Z</time>
      </trkpt>
      <trkpt lat="44.37508" lon="3.82834">
        <ele>1337</ele>
        <time>1970-01-01T00:20:55.000Z</time>
      </trkpt>
      <trkpt lat="44.37509" lon="3.82833">
        <ele>1337</ele>
        <time>1970-01-01T00:20:56.000Z</time>
      </trkpt>
      <trkpt lat="44.37514" lon="3.82823">
        <ele>1337</ele>
        <time>1970-01-01T00:20:57.000Z</time>
      </trkpt>
      <trkpt lat="44.3752" lon="3.82813">
        <ele>1337</ele>
        <time>1970-01-01T00:20:58.000Z</time>
      </trkpt>
      <trkpt lat="44.3752" lon="3.82813">
        <ele>1337</ele>
        <time>1970-01-01T00:20:59.000Z</time>
      </trkpt>
      <trkpt lat="44.37526" lon="3.82803">
        <ele>1337</ele>
        <time>1970-01-01T00:21:00.000Z</time>
      </trkpt>
      <trkpt lat="44.37526" lon="3.82803">
        <ele>1337</ele>
        <time>1970-01-01T00:21:01.000Z</time>
      </trkpt>
      <trkpt lat="44.37531" lon="3.82793">
        <ele>1337</ele>
        <time>1970-01-01T00:21:02.000Z</time>
      </trkpt>
      <trkpt lat="44.37537" lon="3.82783">
        <ele>1337</ele>
        <time>1970-01-01T00:21:03.000Z</time>
      </trkpt>
      <trkpt lat="44.37537" lon="3.82783">
        <ele>1337</ele>
        <time>1970-01-01T00:21:04.000Z</time>
      </trkpt>
      <trkpt lat="44.37539" lon="3.82778">
        <ele>1337</ele>
        <time>1970-01-01T00:21:05.000Z</time>
      </trkpt>
      <trkpt lat="44.37544" lon="3.82768">
        <ele>1336</ele>
        <time>1970-01-01T00:21:06.000Z</time>
      </trkpt>
      <trkpt lat="44.37548" lon="3.82762">
        <ele>1336</ele>
        <time>1970-01-01T00:21:07.000Z</time>
      </trkpt>
      <trkpt lat="44.37554" lon="3.82752">
        <ele>1336</ele>
        <time>1970-01-01T00:21:08.000Z</time>
      </trkpt>
      <trkpt lat="44.37554" lon="3.82752">
        <ele>1336</ele>
        <time>1970-01-01T00:21:09.000Z</time>
      </trkpt>
      <trkpt lat="44.3756" lon="3.82743">
        <ele>1337</ele>
        <time>1970-01-01T00:21:10.000Z</time>
      </trkpt>
      <trkpt lat="44.37566" lon="3.82734">
        <ele>1337</ele>
        <time>1970-01-01T00:21:11.000Z</time>
      </trkpt>
      <trkpt lat="44.37568" lon="3.8273">
        <ele>1337</ele>
        <time>1970-01-01T00:21:12.000Z</time>
      </trkpt>
      <trkpt lat="44.37573" lon="3.8272">
        <ele>1337</ele>
        <time>1970-01-01T00:21:13.000Z</time>
      </trkpt>
      <trkpt lat="44.37576" lon="3.82715">
        <ele>1337</ele>
        <time>1970-01-01T00:21:14.000Z</time>
      </trkpt>
      <trkpt lat="44.37581" lon="3.82704">
        <ele>1337</ele>
        <time>1970-01-01T00:21:15.000Z</time>
      </trkpt>
      <trkpt lat="44.37581" lon="3.82704">
        <ele>1337</ele>
        <time>1970-01-01T00:21:16.000Z</time>
      </trkpt>
      <trkpt lat="44.37582" lon="3.82701">
        <ele>1337</ele>
        <time>1970-01-01T00:21:17.000Z</time>
      </trkpt>
      <trkpt lat="44.37583" lon="3.82689">
        <ele>1337</ele>
        <time>1970-01-01T00:21:18.000Z</time>
      </trkpt>
      <trkpt lat="44.37583" lon="3.82688">
        <ele>1337</ele>
        <time>1970-01-01T00:21:19.000Z</time>
      </trkpt>
      <trkpt lat="44.37584" lon="3.82676">
        <ele>1336</ele>
        <time>1970-01-01T00:21:20.000Z</time>
      </trkpt>
      <trkpt lat="44.37584" lon="3.82671">
        <ele>1337</ele>
        <time>1970-01-01T00:21:21.000Z</time>
      </trkpt>
      <trkpt lat="44.37584" lon="3.82658">
        <ele>1336</ele>
        <time>1970-01-01T00:21:22.000Z</time>
      </trkpt>
      <trkpt lat="44.37584" lon="3.82658">
        <ele>1336</ele>
        <time>1970-01-01T00:21:23.000Z</time>
      </trkpt>
      <trkpt lat="44.37585" lon="3.82646">
        <ele>1335</ele>
        <time>1970-01-01T00:21:24.000Z</time>
      </trkpt>
      <trkpt lat="44.37585" lon="3.82633">
        <ele>1335</ele>
        <time>1970-01-01T00:21:25.000Z</time>
      </trkpt>
      <trkpt lat="44.37585" lon="3.82633">
        <ele>1335</ele>
        <time>1970-01-01T00:21:26.000Z</time>
      </trkpt>
      <trkpt lat="44.37585" lon="3.82621">
        <ele>1335</ele>
        <time>1970-01-01T00:21:27.000Z</time>
      </trkpt>
      <trkpt lat="44.37586" lon="3.82608">
        <ele>1335</ele>
        <time>1970-01-01T00:21:28.000Z</time>
      </trkpt>
      <trkpt lat="44.37586" lon="3.82608">
        <ele>1335</ele>
        <time>1970-01-01T00:21:29.000Z</time>
      </trkpt>
      <trkpt lat="44.37586" lon="3.82604">
        <ele>1335</ele>
        <time>1970-01-01T00:21:30.000Z</time>
      </trkpt>
      <trkpt lat="44.37585" lon="3.82592">
        <ele>1335</ele>
        <time>1970-01-01T00:21:31.000Z</time>
      </trkpt>
      <trkpt lat="44.37585" lon="3.82588">
        <ele>1336</ele>
        <time>1970-01-01T00:21:32.000Z</time>
      </trkpt>
      <trkpt lat="44.37587" lon="3.82576">
        <ele>1335</ele>
        <time>1970-01-01T00:21:33.000Z</time>
      </trkpt>
      <trkpt lat="44.37587" lon="3.82575">
        <ele>1335</ele>
        <time>1970-01-01T00:21:34.000Z</time>
      </trkpt>
      <trkpt lat="44.37587" lon="3.82574">
        <ele>1335</ele>
        <time>1970-01-01T00:21:35.000Z</time>
      </trkpt>
      <trkpt lat="44.37586" lon="3.82562">
        <ele>1335</ele>
        <time>1970-01-01T00:21:36.000Z</time>
      </trkpt>
      <trkpt lat="44.37585" lon="3.82551">
        <ele>1334</ele>
        <time>1970-01-01T00:21:37.000Z</time>
      </trkpt>
      <trkpt lat="44.37588" lon="3.82539">
        <ele>1334</ele>
        <time>1970-01-01T00:21:38.000Z</time>
      </trkpt>
      <trkpt lat="44.37588" lon="3.82539">
        <ele>1334</ele>
        <time>1970-01-01T00:21:39.000Z</time>
      </trkpt>
      <trkpt lat="44.37588" lon="3.82539">
        <ele>1334</ele>
        <time>1970-01-01T00:21:40.000Z</time>
      </trkpt>
      <trkpt lat="44.37587" lon="3.82527">
        <ele>1335</ele>
        <time>1970-01-01T00:21:41.000Z</time>
      </trkpt>
      <trkpt lat="44.37586" lon="3.8252">
        <ele>1335</ele>
        <time>1970-01-01T00:21:42.000Z</time>
      </trkpt>
      <trkpt lat="44.37581" lon="3.8251">
        <ele>1337</ele>
        <time>1970-01-01T00:21:43.000Z</time>
      </trkpt>
      <trkpt lat="44.37576" lon="3.825">
        <ele>1337</ele>
        <time>1970-01-01T00:21:44.000Z</time>
      </trkpt>
      <trkpt lat="44.37571" lon="3.8249">
        <ele>1336</ele>
        <time>1970-01-01T00:21:45.000Z</time>
      </trkpt>
      <trkpt lat="44.37566" lon="3.82479">
        <ele>1336</ele>
        <time>1970-01-01T00:21:46.000Z</time>
      </trkpt>
      <trkpt lat="44.37566" lon="3.82479">
        <ele>1336</ele>
        <time>1970-01-01T00:21:47.000Z</time>
      </trkpt>
      <trkpt lat="44.3756" lon="3.82469">
        <ele>1336</ele>
        <time>1970-01-01T00:21:48.000Z</time>
      </trkpt>
      <trkpt lat="44.3756" lon="3.82469">
        <ele>1336</ele>
        <time>1970-01-01T00:21:49.000Z</time>
      </trkpt>
      <trkpt lat="44.37555" lon="3.82459">
        <ele>1336</ele>
        <time>1970-01-01T00:21:50.000Z</time>
      </trkpt>
      <trkpt lat="44.3755" lon="3.82449">
        <ele>1336</ele>
        <time>1970-01-01T00:21:51.000Z</time>
      </trkpt>
      <trkpt lat="44.37545" lon="3.8244">
        <ele>1336</ele>
        <time>1970-01-01T00:21:52.000Z</time>
      </trkpt>
      <trkpt lat="44.37539" lon="3.82431">
        <ele>1336</ele>
        <time>1970-01-01T00:21:53.000Z</time>
      </trkpt>
      <trkpt lat="44.37534" lon="3.82424">
        <ele>1336</ele>
        <time>1970-01-01T00:21:54.000Z</time>
      </trkpt>
      <trkpt lat="44.37527" lon="3.82416">
        <ele>1334</ele>
        <time>1970-01-01T00:21:55.000Z</time>
      </trkpt>
      <trkpt lat="44.3752" lon="3.82408">
        <ele>1334</ele>
        <time>1970-01-01T00:21:56.000Z</time>
      </trkpt>
      <trkpt lat="44.3752" lon="3.82408">
        <ele>1334</ele>
        <time>1970-01-01T00:21:57.000Z</time>
      </trkpt>
      <trkpt lat="44.37513" lon="3.82401">
        <ele>1334</ele>
        <time>1970-01-01T00:21:58.000Z</time>
      </trkpt>
      <trkpt lat="44.37506" lon="3.82393">
        <ele>1334</ele>
        <time>1970-01-01T00:21:59.000Z</time>
      </trkpt>
      <trkpt lat="44.37499" lon="3.82386">
        <ele>1334</ele>
        <time>1970-01-01T00:22:00.000Z</time>
      </trkpt>
      <trkpt lat="44.37498" lon="3.82385">
        <ele>1334</ele>
        <time>1970-01-01T00:22:01.000Z</time>
      </trkpt>
      <trkpt lat="44.37493" lon="3.8238">
        <ele>1334</ele>
        <time>1970-01-01T00:22:02.000Z</time>
      </trkpt>
      <trkpt lat="44.37486" lon="3.82373">
        <ele>1334</ele>
        <time>1970-01-01T00:22:03.000Z</time>
      </trkpt>
      <trkpt lat="44.37479" lon="3.82366">
        <ele>1333</ele>
        <time>1970-01-01T00:22:04.000Z</time>
      </trkpt>
      <trkpt lat="44.37478" lon="3.82366">
        <ele>1333</ele>
        <time>1970-01-01T00:22:05.000Z</time>
      </trkpt>
      <trkpt lat="44.37472" lon="3.82357">
        <ele>1333</ele>
        <time>1970-01-01T00:22:06.000Z</time>
      </trkpt>
      <trkpt lat="44.37465" lon="3.82349">
        <ele>1333</ele>
        <time>1970-01-01T00:22:07.000Z</time>
      </trkpt>
      <trkpt lat="44.37465" lon="3.82348">
        <ele>1333</ele>
        <time>1970-01-01T00:22:08.000Z</time>
      </trkpt>
      <trkpt lat="44.37465" lon="3.82348">
        <ele>1333</ele>
        <time>1970-01-01T00:22:09.000Z</time>
      </trkpt>
      <trkpt lat="44.37457" lon="3.82342">
        <ele>1333</ele>
        <time>1970-01-01T00:22:10.000Z</time>
      </trkpt>
      <trkpt lat="44.37457" lon="3.82342">
        <ele>1333</ele>
        <time>1970-01-01T00:22:11.000Z</time>
      </trkpt>
      <trkpt lat="44.37451" lon="3.82337">
        <ele>1333</ele>
        <time>1970-01-01T00:22:12.000Z</time>
      </trkpt>
      <trkpt lat="44.37445" lon="3.82328">
        <ele>1331</ele>
        <time>1970-01-01T00:22:13.000Z</time>
      </trkpt>
      <trkpt lat="44.37438" lon="3.8232">
        <ele>1331</ele>
        <time>1970-01-01T00:22:14.000Z</time>
      </trkpt>
      <trkpt lat="44.37438" lon="3.82319">
        <ele>1331</ele>
        <time>1970-01-01T00:22:15.000Z</time>
      </trkpt>
      <trkpt lat="44.37438" lon="3.82319">
        <ele>1331</ele>
        <time>1970-01-01T00:22:16.000Z</time>
      </trkpt>
      <trkpt lat="44.37429" lon="3.82321">
        <ele>1331</ele>
        <time>1970-01-01T00:22:17.000Z</time>
      </trkpt>
      <trkpt lat="44.3742" lon="3.82323">
        <ele>1331</ele>
        <time>1970-01-01T00:22:18.000Z</time>
      </trkpt>
      <trkpt lat="44.3742" lon="3.82323">
        <ele>1331</ele>
        <time>1970-01-01T00:22:19.000Z</time>
      </trkpt>
      <trkpt lat="44.37411" lon="3.82325">
        <ele>1331</ele>
        <time>1970-01-01T00:22:20.000Z</time>
      </trkpt>
      <trkpt lat="44.37402" lon="3.82326">
        <ele>1331</ele>
        <time>1970-01-01T00:22:21.000Z</time>
      </trkpt>
      <trkpt lat="44.37402" lon="3.82326">
        <ele>1331</ele>
        <time>1970-01-01T00:22:22.000Z</time>
      </trkpt>
      <trkpt lat="44.37394" lon="3.82328">
        <ele>1331</ele>
        <time>1970-01-01T00:22:23.000Z</time>
      </trkpt>
      <trkpt lat="44.37387" lon="3.8233">
        <ele>1331</ele>
        <time>1970-01-01T00:22:24.000Z</time>
      </trkpt>
      <trkpt lat="44.37378" lon="3.82331">
        <ele>1331</ele>
        <time>1970-01-01T00:22:25.000Z</time>
      </trkpt>
      <trkpt lat="44.37378" lon="3.82331">
        <ele>1331</ele>
        <time>1970-01-01T00:22:26.000Z</time>
      </trkpt>
      <trkpt lat="44.37369" lon="3.82332">
        <ele>1331</ele>
        <time>1970-01-01T00:22:27.000Z</time>
      </trkpt>
      <trkpt lat="44.3736" lon="3.82333">
        <ele>1331</ele>
        <time>1970-01-01T00:22:28.000Z</time>
      </trkpt>
      <trkpt lat="44.3736" lon="3.82333">
        <ele>1331</ele>
        <time>1970-01-01T00:22:29.000Z</time>
      </trkpt>
      <trkpt lat="44.37354" lon="3.82334">
        <ele>1332</ele>
        <time>1970-01-01T00:22:30.000Z</time>
      </trkpt>
      <trkpt lat="44.37345" lon="3.82332">
        <ele>1331</ele>
        <time>1970-01-01T00:22:31.000Z</time>
      </trkpt>
      <trkpt lat="44.37344" lon="3.82332">
        <ele>1331</ele>
        <time>1970-01-01T00:22:32.000Z</time>
      </trkpt>
      <trkpt lat="44.37336" lon="3.8233">
        <ele>1331</ele>
        <time>1970-01-01T00:22:33.000Z</time>
      </trkpt>
      <trkpt lat="44.37327" lon="3.82328">
        <ele>1331</ele>
        <time>1970-01-01T00:22:34.000Z</time>
      </trkpt>
      <trkpt lat="44.37327" lon="3.82328">
        <ele>1330</ele>
        <time>1970-01-01T00:22:35.000Z</time>
      </trkpt>
      <trkpt lat="44.37318" lon="3.82326">
        <ele>1330</ele>
        <time>1970-01-01T00:22:36.000Z</time>
      </trkpt>
      <trkpt lat="44.37309" lon="3.82324">
        <ele>1330</ele>
        <time>1970-01-01T00:22:37.000Z</time>
      </trkpt>
      <trkpt lat="44.37309" lon="3.82324">
        <ele>1330</ele>
        <time>1970-01-01T00:22:38.000Z</time>
      </trkpt>
      <trkpt lat="44.37305" lon="3.82323">
        <ele>1330</ele>
        <time>1970-01-01T00:22:39.000Z</time>
      </trkpt>
      <trkpt lat="44.37296" lon="3.8232">
        <ele>1330</ele>
        <time>1970-01-01T00:22:40.000Z</time>
      </trkpt>
      <trkpt lat="44.37296" lon="3.8232">
        <ele>1330</ele>
        <time>1970-01-01T00:22:41.000Z</time>
      </trkpt>
      <trkpt lat="44.37288" lon="3.82318">
        <ele>1329</ele>
        <time>1970-01-01T00:22:42.000Z</time>
      </trkpt>
      <trkpt lat="44.37279" lon="3.82315">
        <ele>1329</ele>
        <time>1970-01-01T00:22:43.000Z</time>
      </trkpt>
      <trkpt lat="44.37279" lon="3.82315">
        <ele>1329</ele>
        <time>1970-01-01T00:22:44.000Z</time>
      </trkpt>
      <trkpt lat="44.3727" lon="3.82312">
        <ele>1329</ele>
        <time>1970-01-01T00:22:45.000Z</time>
      </trkpt>
      <trkpt lat="44.3727" lon="3.82312">
        <ele>1329</ele>
        <time>1970-01-01T00:22:46.000Z</time>
      </trkpt>
      <trkpt lat="44.37262" lon="3.82309">
        <ele>1329</ele>
        <time>1970-01-01T00:22:47.000Z</time>
      </trkpt>
      <trkpt lat="44.37253" lon="3.82309">
        <ele>1329</ele>
        <time>1970-01-01T00:22:48.000Z</time>
      </trkpt>
      <trkpt lat="44.37252" lon="3.82309">
        <ele>1329</ele>
        <time>1970-01-01T00:22:49.000Z</time>
      </trkpt>
      <trkpt lat="44.37244" lon="3.82309">
        <ele>1329</ele>
        <time>1970-01-01T00:22:50.000Z</time>
      </trkpt>
      <trkpt lat="44.37235" lon="3.82309">
        <ele>1329</ele>
        <time>1970-01-01T00:22:51.000Z</time>
      </trkpt>
      <trkpt lat="44.37234" lon="3.82309">
        <ele>1329</ele>
        <time>1970-01-01T00:22:52.000Z</time>
      </trkpt>
      <trkpt lat="44.37226" lon="3.8231">
        <ele>1329</ele>
        <time>1970-01-01T00:22:53.000Z</time>
      </trkpt>
      <trkpt lat="44.37217" lon="3.8231">
        <ele>1329</ele>
        <time>1970-01-01T00:22:54.000Z</time>
      </trkpt>
      <trkpt lat="44.37217" lon="3.8231">
        <ele>1329</ele>
        <time>1970-01-01T00:22:55.000Z</time>
      </trkpt>
      <trkpt lat="44.37209" lon="3.82315">
        <ele>1329</ele>
        <time>1970-01-01T00:22:56.000Z</time>
      </trkpt>
      <trkpt lat="44.37201" lon="3.82321">
        <ele>1330</ele>
        <time>1970-01-01T00:22:57.000Z</time>
      </trkpt>
      <trkpt lat="44.37201" lon="3.82321">
        <ele>1330</ele>
        <time>1970-01-01T00:22:58.000Z</time>
      </trkpt>
      <trkpt lat="44.37196" lon="3.82324">
        <ele>1330</ele>
        <time>1970-01-01T00:22:59.000Z</time>
      </trkpt>
      <trkpt lat="44.37189" lon="3.8233">
        <ele>1330</ele>
        <time>1970-01-01T00:23:00.000Z</time>
      </trkpt>
      <trkpt lat="44.37181" lon="3.82337">
        <ele>1331</ele>
        <time>1970-01-01T00:23:01.000Z</time>
      </trkpt>
      <trkpt lat="44.37181" lon="3.82337">
        <ele>1331</ele>
        <time>1970-01-01T00:23:02.000Z</time>
      </trkpt>
      <trkpt lat="44.37173" lon="3.82343">
        <ele>1331</ele>
        <time>1970-01-01T00:23:03.000Z</time>
      </trkpt>
      <trkpt lat="44.37173" lon="3.82343">
        <ele>1331</ele>
        <time>1970-01-01T00:23:04.000Z</time>
      </trkpt>
      <trkpt lat="44.37165" lon="3.82349">
        <ele>1331</ele>
        <time>1970-01-01T00:23:05.000Z</time>
      </trkpt>
      <trkpt lat="44.37165" lon="3.82349">
        <ele>1331</ele>
        <time>1970-01-01T00:23:06.000Z</time>
      </trkpt>
      <trkpt lat="44.37157" lon="3.82355">
        <ele>1331</ele>
        <time>1970-01-01T00:23:07.000Z</time>
      </trkpt>
      <trkpt lat="44.37157" lon="3.82355">
        <ele>1331</ele>
        <time>1970-01-01T00:23:08.000Z</time>
      </trkpt>
      <trkpt lat="44.37155" lon="3.82357">
        <ele>1331</ele>
        <time>1970-01-01T00:23:09.000Z</time>
      </trkpt>
      <trkpt lat="44.37148" lon="3.82363">
        <ele>1331</ele>
        <time>1970-01-01T00:23:10.000Z</time>
      </trkpt>
      <trkpt lat="44.3714" lon="3.82369">
        <ele>1331</ele>
        <time>1970-01-01T00:23:11.000Z</time>
      </trkpt>
      <trkpt lat="44.3714" lon="3.82369">
        <ele>1331</ele>
        <time>1970-01-01T00:23:12.000Z</time>
      </trkpt>
      <trkpt lat="44.37132" lon="3.82375">
        <ele>1331</ele>
        <time>1970-01-01T00:23:13.000Z</time>
      </trkpt>
      <trkpt lat="44.37132" lon="3.82375">
        <ele>1331</ele>
        <time>1970-01-01T00:23:14.000Z</time>
      </trkpt>
      <trkpt lat="44.37124" lon="3.82381">
        <ele>1331</ele>
        <time>1970-01-01T00:23:15.000Z</time>
      </trkpt>
      <trkpt lat="44.37124" lon="3.82381">
        <ele>1331</ele>
        <time>1970-01-01T00:23:16.000Z</time>
      </trkpt>
      <trkpt lat="44.37116" lon="3.82387">
        <ele>1331</ele>
        <time>1970-01-01T00:23:17.000Z</time>
      </trkpt>
      <trkpt lat="44.37116" lon="3.82387">
        <ele>1331</ele>
        <time>1970-01-01T00:23:18.000Z</time>
      </trkpt>
      <trkpt lat="44.37113" lon="3.82389">
        <ele>1331</ele>
        <time>1970-01-01T00:23:19.000Z</time>
      </trkpt>
      <trkpt lat="44.37107" lon="3.82396">
        <ele>1331</ele>
        <time>1970-01-01T00:23:20.000Z</time>
      </trkpt>
      <trkpt lat="44.37101" lon="3.82406">
        <ele>1332</ele>
        <time>1970-01-01T00:23:21.000Z</time>
      </trkpt>
      <trkpt lat="44.37101" lon="3.82406">
        <ele>1332</ele>
        <time>1970-01-01T00:23:22.000Z</time>
      </trkpt>
      <trkpt lat="44.37095" lon="3.82415">
        <ele>1332</ele>
        <time>1970-01-01T00:23:23.000Z</time>
      </trkpt>
      <trkpt lat="44.37089" lon="3.82425">
        <ele>1332</ele>
        <time>1970-01-01T00:23:24.000Z</time>
      </trkpt>
      <trkpt lat="44.37089" lon="3.82425">
        <ele>1332</ele>
        <time>1970-01-01T00:23:25.000Z</time>
      </trkpt>
      <trkpt lat="44.37083" lon="3.82434">
        <ele>1333</ele>
        <time>1970-01-01T00:23:26.000Z</time>
      </trkpt>
      <trkpt lat="44.37077" lon="3.82443">
        <ele>1333</ele>
        <time>1970-01-01T00:23:27.000Z</time>
      </trkpt>
      <trkpt lat="44.37076" lon="3.82445">
        <ele>1333</ele>
        <time>1970-01-01T00:23:28.000Z</time>
      </trkpt>
      <trkpt lat="44.3707" lon="3.82455">
        <ele>1333</ele>
        <time>1970-01-01T00:23:29.000Z</time>
      </trkpt>
      <trkpt lat="44.3707" lon="3.82455">
        <ele>1333</ele>
        <time>1970-01-01T00:23:30.000Z</time>
      </trkpt>
      <trkpt lat="44.37067" lon="3.8246">
        <ele>1333</ele>
        <time>1970-01-01T00:23:31.000Z</time>
      </trkpt>
      <trkpt lat="44.37061" lon="3.82469">
        <ele>1333</ele>
        <time>1970-01-01T00:23:32.000Z</time>
      </trkpt>
      <trkpt lat="44.37055" lon="3.82478">
        <ele>1333</ele>
        <time>1970-01-01T00:23:33.000Z</time>
      </trkpt>
      <trkpt lat="44.37049" lon="3.82488">
        <ele>1333</ele>
        <time>1970-01-01T00:23:34.000Z</time>
      </trkpt>
      <trkpt lat="44.37049" lon="3.82488">
        <ele>1333</ele>
        <time>1970-01-01T00:23:35.000Z</time>
      </trkpt>
      <trkpt lat="44.37043" lon="3.82497">
        <ele>1333</ele>
        <time>1970-01-01T00:23:36.000Z</time>
      </trkpt>
      <trkpt lat="44.37043" lon="3.82497">
        <ele>1333</ele>
        <time>1970-01-01T00:23:37.000Z</time>
      </trkpt>
      <trkpt lat="44.37034" lon="3.82499">
        <ele>1333</ele>
        <time>1970-01-01T00:23:38.000Z</time>
      </trkpt>
      <trkpt lat="44.37033" lon="3.82499">
        <ele>1333</ele>
        <time>1970-01-01T00:23:39.000Z</time>
      </trkpt>
      <trkpt lat="44.37025" lon="3.825">
        <ele>1333</ele>
        <time>1970-01-01T00:23:40.000Z</time>
      </trkpt>
      <trkpt lat="44.37016" lon="3.82502">
        <ele>1333</ele>
        <time>1970-01-01T00:23:41.000Z</time>
      </trkpt>
      <trkpt lat="44.37016" lon="3.82502">
        <ele>1333</ele>
        <time>1970-01-01T00:23:42.000Z</time>
      </trkpt>
      <trkpt lat="44.37007" lon="3.82503">
        <ele>1332</ele>
        <time>1970-01-01T00:23:43.000Z</time>
      </trkpt>
      <trkpt lat="44.36998" lon="3.82505">
        <ele>1333</ele>
        <time>1970-01-01T00:23:44.000Z</time>
      </trkpt>
      <trkpt lat="44.36998" lon="3.82505">
        <ele>1333</ele>
        <time>1970-01-01T00:23:45.000Z</time>
      </trkpt>
      <trkpt lat="44.36989" lon="3.82506">
        <ele>1333</ele>
        <time>1970-01-01T00:23:46.000Z</time>
      </trkpt>
      <trkpt lat="44.36989" lon="3.82506">
        <ele>1333</ele>
        <time>1970-01-01T00:23:47.000Z</time>
      </trkpt>
      <trkpt lat="44.3698" lon="3.82508">
        <ele>1334</ele>
        <time>1970-01-01T00:23:48.000Z</time>
      </trkpt>
      <trkpt lat="44.36971" lon="3.82509">
        <ele>1335</ele>
        <time>1970-01-01T00:23:49.000Z</time>
      </trkpt>
      <trkpt lat="44.36971" lon="3.82509">
        <ele>1335</ele>
        <time>1970-01-01T00:23:50.000Z</time>
      </trkpt>
      <trkpt lat="44.36967" lon="3.8251">
        <ele>1335</ele>
        <time>1970-01-01T00:23:51.000Z</time>
      </trkpt>
      <trkpt lat="44.36958" lon="3.82512">
        <ele>1335</ele>
        <time>1970-01-01T00:23:52.000Z</time>
      </trkpt>
      <trkpt lat="44.36958" lon="3.82512">
        <ele>1335</ele>
        <time>1970-01-01T00:23:53.000Z</time>
      </trkpt>
      <trkpt lat="44.36958" lon="3.82512">
        <ele>1335</ele>
        <time>1970-01-01T00:23:54.000Z</time>
      </trkpt>
      <trkpt lat="44.36949" lon="3.82514">
        <ele>1336</ele>
        <time>1970-01-01T00:23:55.000Z</time>
      </trkpt>
      <trkpt lat="44.3694" lon="3.82515">
        <ele>1336</ele>
        <time>1970-01-01T00:23:56.000Z</time>
      </trkpt>
      <trkpt lat="44.3694" lon="3.82515">
        <ele>1336</ele>
        <time>1970-01-01T00:23:57.000Z</time>
      </trkpt>
      <trkpt lat="44.36931" lon="3.82517">
        <ele>1337</ele>
        <time>1970-01-01T00:23:58.000Z</time>
      </trkpt>
      <trkpt lat="44.36931" lon="3.82517">
        <ele>1337</ele>
        <time>1970-01-01T00:23:59.000Z</time>
      </trkpt>
      <trkpt lat="44.36929" lon="3.82517">
        <ele>1337</ele>
        <time>1970-01-01T00:24:00.000Z</time>
      </trkpt>
      <trkpt lat="44.3692" lon="3.82519">
        <ele>1337</ele>
        <time>1970-01-01T00:24:01.000Z</time>
      </trkpt>
      <trkpt lat="44.36911" lon="3.8252">
        <ele>1340</ele>
        <time>1970-01-01T00:24:02.000Z</time>
      </trkpt>
      <trkpt lat="44.36911" lon="3.8252">
        <ele>1340</ele>
        <time>1970-01-01T00:24:03.000Z</time>
      </trkpt>
      <trkpt lat="44.36902" lon="3.82521">
        <ele>1340</ele>
        <time>1970-01-01T00:24:04.000Z</time>
      </trkpt>
      <trkpt lat="44.36902" lon="3.82521">
        <ele>1340</ele>
        <time>1970-01-01T00:24:05.000Z</time>
      </trkpt>
      <trkpt lat="44.36893" lon="3.82523">
        <ele>1340</ele>
        <time>1970-01-01T00:24:06.000Z</time>
      </trkpt>
      <trkpt lat="44.36886" lon="3.82524">
        <ele>1341</ele>
        <time>1970-01-01T00:24:07.000Z</time>
      </trkpt>
      <trkpt lat="44.36877" lon="3.82527">
        <ele>1341</ele>
        <time>1970-01-01T00:24:08.000Z</time>
      </trkpt>
      <trkpt lat="44.36877" lon="3.82527">
        <ele>1341</ele>
        <time>1970-01-01T00:24:09.000Z</time>
      </trkpt>
      <trkpt lat="44.36869" lon="3.8253">
        <ele>1341</ele>
        <time>1970-01-01T00:24:10.000Z</time>
      </trkpt>
      <trkpt lat="44.36861" lon="3.82534">
        <ele>1341</ele>
        <time>1970-01-01T00:24:11.000Z</time>
      </trkpt>
      <trkpt lat="44.3686" lon="3.82534">
        <ele>1341</ele>
        <time>1970-01-01T00:24:12.000Z</time>
      </trkpt>
      <trkpt lat="44.36852" lon="3.82537">
        <ele>1342</ele>
        <time>1970-01-01T00:24:13.000Z</time>
      </trkpt>
      <trkpt lat="44.36843" lon="3.82541">
        <ele>1342</ele>
        <time>1970-01-01T00:24:14.000Z</time>
      </trkpt>
      <trkpt lat="44.36843" lon="3.82541">
        <ele>1342</ele>
        <time>1970-01-01T00:24:15.000Z</time>
      </trkpt>
      <trkpt lat="44.36834" lon="3.82544">
        <ele>1342</ele>
        <time>1970-01-01T00:24:16.000Z</time>
      </trkpt>
      <trkpt lat="44.36834" lon="3.82544">
        <ele>1342</ele>
        <time>1970-01-01T00:24:17.000Z</time>
      </trkpt>
      <trkpt lat="44.3683" lon="3.82546">
        <ele>1345</ele>
        <time>1970-01-01T00:24:18.000Z</time>
      </trkpt>
      <trkpt lat="44.36821" lon="3.82549">
        <ele>1345</ele>
        <time>1970-01-01T00:24:19.000Z</time>
      </trkpt>
      <trkpt lat="44.36821" lon="3.82549">
        <ele>1345</ele>
        <time>1970-01-01T00:24:20.000Z</time>
      </trkpt>
      <trkpt lat="44.36812" lon="3.82552">
        <ele>1345</ele>
        <time>1970-01-01T00:24:21.000Z</time>
      </trkpt>
      <trkpt lat="44.36812" lon="3.82552">
        <ele>1345</ele>
        <time>1970-01-01T00:24:22.000Z</time>
      </trkpt>
      <trkpt lat="44.36803" lon="3.82555">
        <ele>1345</ele>
        <time>1970-01-01T00:24:23.000Z</time>
      </trkpt>
      <trkpt lat="44.36803" lon="3.82555">
        <ele>1345</ele>
        <time>1970-01-01T00:24:24.000Z</time>
      </trkpt>
      <trkpt lat="44.36795" lon="3.82559">
        <ele>1345</ele>
        <time>1970-01-01T00:24:25.000Z</time>
      </trkpt>
      <trkpt lat="44.36787" lon="3.82564">
        <ele>1345</ele>
        <time>1970-01-01T00:24:26.000Z</time>
      </trkpt>
      <trkpt lat="44.36779" lon="3.8257">
        <ele>1345</ele>
        <time>1970-01-01T00:24:27.000Z</time>
      </trkpt>
      <trkpt lat="44.36779" lon="3.8257">
        <ele>1345</ele>
        <time>1970-01-01T00:24:28.000Z</time>
      </trkpt>
      <trkpt lat="44.36771" lon="3.82576">
        <ele>1345</ele>
        <time>1970-01-01T00:24:29.000Z</time>
      </trkpt>
      <trkpt lat="44.36771" lon="3.82576">
        <ele>1345</ele>
        <time>1970-01-01T00:24:30.000Z</time>
      </trkpt>
      <trkpt lat="44.36763" lon="3.82581">
        <ele>1345</ele>
        <time>1970-01-01T00:24:31.000Z</time>
      </trkpt>
      <trkpt lat="44.36755" lon="3.82587">
        <ele>1345</ele>
        <time>1970-01-01T00:24:32.000Z</time>
      </trkpt>
      <trkpt lat="44.36755" lon="3.82587">
        <ele>1345</ele>
        <time>1970-01-01T00:24:33.000Z</time>
      </trkpt>
      <trkpt lat="44.36747" lon="3.82593">
        <ele>1347</ele>
        <time>1970-01-01T00:24:34.000Z</time>
      </trkpt>
      <trkpt lat="44.36747" lon="3.82593">
        <ele>1347</ele>
        <time>1970-01-01T00:24:35.000Z</time>
      </trkpt>
      <trkpt lat="44.36739" lon="3.82598">
        <ele>1348</ele>
        <time>1970-01-01T00:24:36.000Z</time>
      </trkpt>
      <trkpt lat="44.36731" lon="3.82604">
        <ele>1348</ele>
        <time>1970-01-01T00:24:37.000Z</time>
      </trkpt>
      <trkpt lat="44.36731" lon="3.82604">
        <ele>1348</ele>
        <time>1970-01-01T00:24:38.000Z</time>
      </trkpt>
      <trkpt lat="44.36723" lon="3.8261">
        <ele>1349</ele>
        <time>1970-01-01T00:24:39.000Z</time>
      </trkpt>
      <trkpt lat="44.36723" lon="3.8261">
        <ele>1349</ele>
        <time>1970-01-01T00:24:40.000Z</time>
      </trkpt>
      <trkpt lat="44.3672" lon="3.82611">
        <ele>1349</ele>
        <time>1970-01-01T00:24:41.000Z</time>
      </trkpt>
      <trkpt lat="44.36712" lon="3.82617">
        <ele>1350</ele>
        <time>1970-01-01T00:24:42.000Z</time>
      </trkpt>
      <trkpt lat="44.36712" lon="3.82617">
        <ele>1350</ele>
        <time>1970-01-01T00:24:43.000Z</time>
      </trkpt>
      <trkpt lat="44.36704" lon="3.82622">
        <ele>1350</ele>
        <time>1970-01-01T00:24:44.000Z</time>
      </trkpt>
      <trkpt lat="44.36697" lon="3.82627">
        <ele>1350</ele>
        <time>1970-01-01T00:24:45.000Z</time>
      </trkpt>
      <trkpt lat="44.36688" lon="3.82629">
        <ele>1351</ele>
        <time>1970-01-01T00:24:46.000Z</time>
      </trkpt>
      <trkpt lat="44.36688" lon="3.82629">
        <ele>1351</ele>
        <time>1970-01-01T00:24:47.000Z</time>
      </trkpt>
      <trkpt lat="44.36679" lon="3.82632">
        <ele>1351</ele>
        <time>1970-01-01T00:24:48.000Z</time>
      </trkpt>
      <trkpt lat="44.36679" lon="3.82632">
        <ele>1351</ele>
        <time>1970-01-01T00:24:49.000Z</time>
      </trkpt>
      <trkpt lat="44.36675" lon="3.82633">
        <ele>1351</ele>
        <time>1970-01-01T00:24:50.000Z</time>
      </trkpt>
      <trkpt lat="44.36666" lon="3.82636">
        <ele>1353</ele>
        <time>1970-01-01T00:24:51.000Z</time>
      </trkpt>
      <trkpt lat="44.36666" lon="3.82636">
        <ele>1353</ele>
        <time>1970-01-01T00:24:52.000Z</time>
      </trkpt>
      <trkpt lat="44.36657" lon="3.82638">
        <ele>1353</ele>
        <time>1970-01-01T00:24:53.000Z</time>
      </trkpt>
      <trkpt lat="44.36657" lon="3.82638">
        <ele>1353</ele>
        <time>1970-01-01T00:24:54.000Z</time>
      </trkpt>
      <trkpt lat="44.36649" lon="3.82641">
        <ele>1353</ele>
        <time>1970-01-01T00:24:55.000Z</time>
      </trkpt>
      <trkpt lat="44.3664" lon="3.82643">
        <ele>1353</ele>
        <time>1970-01-01T00:24:56.000Z</time>
      </trkpt>
      <trkpt lat="44.36631" lon="3.82646">
        <ele>1353</ele>
        <time>1970-01-01T00:24:57.000Z</time>
      </trkpt>
      <trkpt lat="44.36631" lon="3.82646">
        <ele>1353</ele>
        <time>1970-01-01T00:24:58.000Z</time>
      </trkpt>
      <trkpt lat="44.36622" lon="3.82648">
        <ele>1353</ele>
        <time>1970-01-01T00:24:59.000Z</time>
      </trkpt>
      <trkpt lat="44.36622" lon="3.82648">
        <ele>1353</ele>
        <time>1970-01-01T00:25:00.000Z</time>
      </trkpt>
      <trkpt lat="44.36613" lon="3.82651">
        <ele>1353</ele>
        <time>1970-01-01T00:25:01.000Z</time>
      </trkpt>
      <trkpt lat="44.36613" lon="3.82651">
        <ele>1353</ele>
        <time>1970-01-01T00:25:02.000Z</time>
      </trkpt>
      <trkpt lat="44.36612" lon="3.82651">
        <ele>1353</ele>
        <time>1970-01-01T00:25:03.000Z</time>
      </trkpt>
      <trkpt lat="44.36604" lon="3.82654">
        <ele>1354</ele>
        <time>1970-01-01T00:25:04.000Z</time>
      </trkpt>
      <trkpt lat="44.36595" lon="3.82657">
        <ele>1354</ele>
        <time>1970-01-01T00:25:05.000Z</time>
      </trkpt>
      <trkpt lat="44.36595" lon="3.82657">
        <ele>1354</ele>
        <time>1970-01-01T00:25:06.000Z</time>
      </trkpt>
      <trkpt lat="44.36586" lon="3.82659">
        <ele>1355</ele>
        <time>1970-01-01T00:25:07.000Z</time>
      </trkpt>
      <trkpt lat="44.36586" lon="3.82659">
        <ele>1355</ele>
        <time>1970-01-01T00:25:08.000Z</time>
      </trkpt>
      <trkpt lat="44.36577" lon="3.82662">
        <ele>1354</ele>
        <time>1970-01-01T00:25:09.000Z</time>
      </trkpt>
      <trkpt lat="44.36577" lon="3.82662">
        <ele>1354</ele>
        <time>1970-01-01T00:25:10.000Z</time>
      </trkpt>
      <trkpt lat="44.36576" lon="3.82662">
        <ele>1354</ele>
        <time>1970-01-01T00:25:11.000Z</time>
      </trkpt>
      <trkpt lat="44.36568" lon="3.82668">
        <ele>1357</ele>
        <time>1970-01-01T00:25:12.000Z</time>
      </trkpt>
      <trkpt lat="44.36568" lon="3.82668">
        <ele>1357</ele>
        <time>1970-01-01T00:25:13.000Z</time>
      </trkpt>
      <trkpt lat="44.3656" lon="3.82673">
        <ele>1358</ele>
        <time>1970-01-01T00:25:14.000Z</time>
      </trkpt>
      <trkpt lat="44.36552" lon="3.82679">
        <ele>1358</ele>
        <time>1970-01-01T00:25:15.000Z</time>
      </trkpt>
      <trkpt lat="44.36552" lon="3.82679">
        <ele>1358</ele>
        <time>1970-01-01T00:25:16.000Z</time>
      </trkpt>
      <trkpt lat="44.36544" lon="3.82684">
        <ele>1358</ele>
        <time>1970-01-01T00:25:17.000Z</time>
      </trkpt>
      <trkpt lat="44.36536" lon="3.82689">
        <ele>1358</ele>
        <time>1970-01-01T00:25:18.000Z</time>
      </trkpt>
      <trkpt lat="44.36535" lon="3.82689">
        <ele>1358</ele>
        <time>1970-01-01T00:25:19.000Z</time>
      </trkpt>
      <trkpt lat="44.36527" lon="3.82695">
        <ele>1358</ele>
        <time>1970-01-01T00:25:20.000Z</time>
      </trkpt>
      <trkpt lat="44.36527" lon="3.82695">
        <ele>1358</ele>
        <time>1970-01-01T00:25:21.000Z</time>
      </trkpt>
      <trkpt lat="44.36519" lon="3.827">
        <ele>1358</ele>
        <time>1970-01-01T00:25:22.000Z</time>
      </trkpt>
      <trkpt lat="44.36511" lon="3.82706">
        <ele>1359</ele>
        <time>1970-01-01T00:25:23.000Z</time>
      </trkpt>
      <trkpt lat="44.36511" lon="3.82706">
        <ele>1359</ele>
        <time>1970-01-01T00:25:24.000Z</time>
      </trkpt>
      <trkpt lat="44.36503" lon="3.82711">
        <ele>1359</ele>
        <time>1970-01-01T00:25:25.000Z</time>
      </trkpt>
      <trkpt lat="44.36499" lon="3.82713">
        <ele>1357</ele>
        <time>1970-01-01T00:25:26.000Z</time>
      </trkpt>
      <trkpt lat="44.36491" lon="3.82718">
        <ele>1357</ele>
        <time>1970-01-01T00:25:27.000Z</time>
      </trkpt>
      <trkpt lat="44.36486" lon="3.82721">
        <ele>1357</ele>
        <time>1970-01-01T00:25:28.000Z</time>
      </trkpt>
      <trkpt lat="44.36479" lon="3.82729">
        <ele>1358</ele>
        <time>1970-01-01T00:25:29.000Z</time>
      </trkpt>
      <trkpt lat="44.36472" lon="3.82737">
        <ele>1358</ele>
        <time>1970-01-01T00:25:30.000Z</time>
      </trkpt>
      <trkpt lat="44.36472" lon="3.82737">
        <ele>1358</ele>
        <time>1970-01-01T00:25:31.000Z</time>
      </trkpt>
      <trkpt lat="44.36465" lon="3.82745">
        <ele>1358</ele>
        <time>1970-01-01T00:25:32.000Z</time>
      </trkpt>
      <trkpt lat="44.36458" lon="3.82753">
        <ele>1365</ele>
        <time>1970-01-01T00:25:33.000Z</time>
      </trkpt>
      <trkpt lat="44.36458" lon="3.82753">
        <ele>1365</ele>
        <time>1970-01-01T00:25:34.000Z</time>
      </trkpt>
      <trkpt lat="44.36451" lon="3.82761">
        <ele>1365</ele>
        <time>1970-01-01T00:25:35.000Z</time>
      </trkpt>
      <trkpt lat="44.36444" lon="3.82769">
        <ele>1365</ele>
        <time>1970-01-01T00:25:36.000Z</time>
      </trkpt>
      <trkpt lat="44.36438" lon="3.82777">
        <ele>1365</ele>
        <time>1970-01-01T00:25:37.000Z</time>
      </trkpt>
      <trkpt lat="44.3643" lon="3.82784">
        <ele>1365</ele>
        <time>1970-01-01T00:25:38.000Z</time>
      </trkpt>
      <trkpt lat="44.3643" lon="3.82784">
        <ele>1365</ele>
        <time>1970-01-01T00:25:39.000Z</time>
      </trkpt>
      <trkpt lat="44.36423" lon="3.82792">
        <ele>1366</ele>
        <time>1970-01-01T00:25:40.000Z</time>
      </trkpt>
      <trkpt lat="44.36417" lon="3.828">
        <ele>1367</ele>
        <time>1970-01-01T00:25:41.000Z</time>
      </trkpt>
      <trkpt lat="44.3641" lon="3.82808">
        <ele>1364</ele>
        <time>1970-01-01T00:25:42.000Z</time>
      </trkpt>
      <trkpt lat="44.36403" lon="3.82816">
        <ele>1364</ele>
        <time>1970-01-01T00:25:43.000Z</time>
      </trkpt>
      <trkpt lat="44.36403" lon="3.82816">
        <ele>1364</ele>
        <time>1970-01-01T00:25:44.000Z</time>
      </trkpt>
      <trkpt lat="44.36396" lon="3.82824">
        <ele>1364</ele>
        <time>1970-01-01T00:25:45.000Z</time>
      </trkpt>
      <trkpt lat="44.36389" lon="3.82832">
        <ele>1364</ele>
        <time>1970-01-01T00:25:46.000Z</time>
      </trkpt>
      <trkpt lat="44.36382" lon="3.8284">
        <ele>1369</ele>
        <time>1970-01-01T00:25:47.000Z</time>
      </trkpt>
      <trkpt lat="44.36382" lon="3.8284">
        <ele>1369</ele>
        <time>1970-01-01T00:25:48.000Z</time>
      </trkpt>
      <trkpt lat="44.36375" lon="3.82848">
        <ele>1369</ele>
        <time>1970-01-01T00:25:49.000Z</time>
      </trkpt>
      <trkpt lat="44.36368" lon="3.82856">
        <ele>1369</ele>
        <time>1970-01-01T00:25:50.000Z</time>
      </trkpt>
      <trkpt lat="44.36361" lon="3.82864">
        <ele>1369</ele>
        <time>1970-01-01T00:25:51.000Z</time>
      </trkpt>
      <trkpt lat="44.36361" lon="3.82864">
        <ele>1369</ele>
        <time>1970-01-01T00:25:52.000Z</time>
      </trkpt>
      <trkpt lat="44.36357" lon="3.82867">
        <ele>1369</ele>
        <time>1970-01-01T00:25:53.000Z</time>
      </trkpt>
      <trkpt lat="44.3635" lon="3.82873">
        <ele>1369</ele>
        <time>1970-01-01T00:25:54.000Z</time>
      </trkpt>
      <trkpt lat="44.36342" lon="3.82879">
        <ele>1369</ele>
        <time>1970-01-01T00:25:55.000Z</time>
      </trkpt>
      <trkpt lat="44.36342" lon="3.82879">
        <ele>1369</ele>
        <time>1970-01-01T00:25:56.000Z</time>
      </trkpt>
      <trkpt lat="44.36334" lon="3.82885">
        <ele>1370</ele>
        <time>1970-01-01T00:25:57.000Z</time>
      </trkpt>
      <trkpt lat="44.36334" lon="3.82885">
        <ele>1370</ele>
        <time>1970-01-01T00:25:58.000Z</time>
      </trkpt>
      <trkpt lat="44.36326" lon="3.82891">
        <ele>1365</ele>
        <time>1970-01-01T00:25:59.000Z</time>
      </trkpt>
      <trkpt lat="44.36326" lon="3.82891">
        <ele>1365</ele>
        <time>1970-01-01T00:26:00.000Z</time>
      </trkpt>
      <trkpt lat="44.36318" lon="3.82897">
        <ele>1365</ele>
        <time>1970-01-01T00:26:01.000Z</time>
      </trkpt>
      <trkpt lat="44.36318" lon="3.82897">
        <ele>1365</ele>
        <time>1970-01-01T00:26:02.000Z</time>
      </trkpt>
      <trkpt lat="44.3631" lon="3.82903">
        <ele>1364</ele>
        <time>1970-01-01T00:26:03.000Z</time>
      </trkpt>
      <trkpt lat="44.3631" lon="3.82903">
        <ele>1364</ele>
        <time>1970-01-01T00:26:04.000Z</time>
      </trkpt>
      <trkpt lat="44.36303" lon="3.82909">
        <ele>1364</ele>
        <time>1970-01-01T00:26:05.000Z</time>
      </trkpt>
      <trkpt lat="44.36295" lon="3.82914">
        <ele>1363</ele>
        <time>1970-01-01T00:26:06.000Z</time>
      </trkpt>
      <trkpt lat="44.36288" lon="3.82921">
        <ele>1367</ele>
        <time>1970-01-01T00:26:07.000Z</time>
      </trkpt>
      <trkpt lat="44.3628" lon="3.82927">
        <ele>1366</ele>
        <time>1970-01-01T00:26:08.000Z</time>
      </trkpt>
      <trkpt lat="44.3628" lon="3.82927">
        <ele>1366</ele>
        <time>1970-01-01T00:26:09.000Z</time>
      </trkpt>
      <trkpt lat="44.36272" lon="3.82933">
        <ele>1365</ele>
        <time>1970-01-01T00:26:10.000Z</time>
      </trkpt>
      <trkpt lat="44.36272" lon="3.82933">
        <ele>1365</ele>
        <time>1970-01-01T00:26:11.000Z</time>
      </trkpt>
      <trkpt lat="44.36264" lon="3.82939">
        <ele>1365</ele>
        <time>1970-01-01T00:26:12.000Z</time>
      </trkpt>
      <trkpt lat="44.36264" lon="3.82939">
        <ele>1365</ele>
        <time>1970-01-01T00:26:13.000Z</time>
      </trkpt>
      <trkpt lat="44.36259" lon="3.82944">
        <ele>1365</ele>
        <time>1970-01-01T00:26:14.000Z</time>
      </trkpt>
      <trkpt lat="44.36251" lon="3.82948">
        <ele>1365</ele>
        <time>1970-01-01T00:26:15.000Z</time>
      </trkpt>
      <trkpt lat="44.36243" lon="3.82955">
        <ele>1360</ele>
        <time>1970-01-01T00:26:16.000Z</time>
      </trkpt>
      <trkpt lat="44.36243" lon="3.82955">
        <ele>1360</ele>
        <time>1970-01-01T00:26:17.000Z</time>
      </trkpt>
      <trkpt lat="44.36235" lon="3.82961">
        <ele>1360</ele>
        <time>1970-01-01T00:26:18.000Z</time>
      </trkpt>
      <trkpt lat="44.36235" lon="3.82961">
        <ele>1360</ele>
        <time>1970-01-01T00:26:19.000Z</time>
      </trkpt>
      <trkpt lat="44.36227" lon="3.82968">
        <ele>1360</ele>
        <time>1970-01-01T00:26:20.000Z</time>
      </trkpt>
      <trkpt lat="44.36227" lon="3.82968">
        <ele>1360</ele>
        <time>1970-01-01T00:26:21.000Z</time>
      </trkpt>
      <trkpt lat="44.3622" lon="3.82974">
        <ele>1360</ele>
        <time>1970-01-01T00:26:22.000Z</time>
      </trkpt>
      <trkpt lat="44.36213" lon="3.82981">
        <ele>1360</ele>
        <time>1970-01-01T00:26:23.000Z</time>
      </trkpt>
      <trkpt lat="44.36212" lon="3.82981">
        <ele>1360</ele>
        <time>1970-01-01T00:26:24.000Z</time>
      </trkpt>
      <trkpt lat="44.36205" lon="3.82987">
        <ele>1360</ele>
        <time>1970-01-01T00:26:25.000Z</time>
      </trkpt>
      <trkpt lat="44.36197" lon="3.82994">
        <ele>1360</ele>
        <time>1970-01-01T00:26:26.000Z</time>
      </trkpt>
      <trkpt lat="44.36197" lon="3.82994">
        <ele>1360</ele>
        <time>1970-01-01T00:26:27.000Z</time>
      </trkpt>
      <trkpt lat="44.36189" lon="3.83">
        <ele>1359</ele>
        <time>1970-01-01T00:26:28.000Z</time>
      </trkpt>
      <trkpt lat="44.36189" lon="3.83">
        <ele>1359</ele>
        <time>1970-01-01T00:26:29.000Z</time>
      </trkpt>
      <trkpt lat="44.36181" lon="3.83007">
        <ele>1361</ele>
        <time>1970-01-01T00:26:30.000Z</time>
      </trkpt>
      <trkpt lat="44.36181" lon="3.83007">
        <ele>1361</ele>
        <time>1970-01-01T00:26:31.000Z</time>
      </trkpt>
      <trkpt lat="44.36174" lon="3.83013">
        <ele>1361</ele>
        <time>1970-01-01T00:26:32.000Z</time>
      </trkpt>
      <trkpt lat="44.36172" lon="3.83015">
        <ele>1361</ele>
        <time>1970-01-01T00:26:33.000Z</time>
      </trkpt>
      <trkpt lat="44.36164" lon="3.83021">
        <ele>1358</ele>
        <time>1970-01-01T00:26:34.000Z</time>
      </trkpt>
      <trkpt lat="44.36164" lon="3.83021">
        <ele>1358</ele>
        <time>1970-01-01T00:26:35.000Z</time>
      </trkpt>
      <trkpt lat="44.36161" lon="3.83023">
        <ele>1358</ele>
        <time>1970-01-01T00:26:36.000Z</time>
      </trkpt>
      <trkpt lat="44.36154" lon="3.8303">
        <ele>1357</ele>
        <time>1970-01-01T00:26:37.000Z</time>
      </trkpt>
      <trkpt lat="44.36153" lon="3.83031">
        <ele>1357</ele>
        <time>1970-01-01T00:26:38.000Z</time>
      </trkpt>
      <trkpt lat="44.36152" lon="3.83032">
        <ele>1357</ele>
        <time>1970-01-01T00:26:39.000Z</time>
      </trkpt>
      <trkpt lat="44.36146" lon="3.8304">
        <ele>1357</ele>
        <time>1970-01-01T00:26:40.000Z</time>
      </trkpt>
      <trkpt lat="44.36139" lon="3.83048">
        <ele>1357</ele>
        <time>1970-01-01T00:26:41.000Z</time>
      </trkpt>
      <trkpt lat="44.36139" lon="3.83049">
        <ele>1357</ele>
        <time>1970-01-01T00:26:42.000Z</time>
      </trkpt>
      <trkpt lat="44.36133" lon="3.83058">
        <ele>1357</ele>
        <time>1970-01-01T00:26:43.000Z</time>
      </trkpt>
      <trkpt lat="44.36126" lon="3.83066">
        <ele>1357</ele>
        <time>1970-01-01T00:26:44.000Z</time>
      </trkpt>
      <trkpt lat="44.3612" lon="3.83074">
        <ele>1357</ele>
        <time>1970-01-01T00:26:45.000Z</time>
      </trkpt>
      <trkpt lat="44.36113" lon="3.83083">
        <ele>1356</ele>
        <time>1970-01-01T00:26:46.000Z</time>
      </trkpt>
      <trkpt lat="44.36113" lon="3.83083">
        <ele>1356</ele>
        <time>1970-01-01T00:26:47.000Z</time>
      </trkpt>
      <trkpt lat="44.36107" lon="3.83091">
        <ele>1358</ele>
        <time>1970-01-01T00:26:48.000Z</time>
      </trkpt>
      <trkpt lat="44.36101" lon="3.831">
        <ele>1358</ele>
        <time>1970-01-01T00:26:49.000Z</time>
      </trkpt>
      <trkpt lat="44.36094" lon="3.83108">
        <ele>1359</ele>
        <time>1970-01-01T00:26:50.000Z</time>
      </trkpt>
      <trkpt lat="44.36094" lon="3.83109">
        <ele>1359</ele>
        <time>1970-01-01T00:26:51.000Z</time>
      </trkpt>
      <trkpt lat="44.36088" lon="3.83118">
        <ele>1359</ele>
        <time>1970-01-01T00:26:52.000Z</time>
      </trkpt>
      <trkpt lat="44.36085" lon="3.83123">
        <ele>1359</ele>
        <time>1970-01-01T00:26:53.000Z</time>
      </trkpt>
      <trkpt lat="44.36078" lon="3.83131">
        <ele>1352</ele>
        <time>1970-01-01T00:26:54.000Z</time>
      </trkpt>
      <trkpt lat="44.36078" lon="3.83131">
        <ele>1352</ele>
        <time>1970-01-01T00:26:55.000Z</time>
      </trkpt>
      <trkpt lat="44.36071" lon="3.83139">
        <ele>1352</ele>
        <time>1970-01-01T00:26:56.000Z</time>
      </trkpt>
      <trkpt lat="44.36064" lon="3.83147">
        <ele>1352</ele>
        <time>1970-01-01T00:26:57.000Z</time>
      </trkpt>
      <trkpt lat="44.36057" lon="3.83155">
        <ele>1352</ele>
        <time>1970-01-01T00:26:58.000Z</time>
      </trkpt>
      <trkpt lat="44.36057" lon="3.83155">
        <ele>1352</ele>
        <time>1970-01-01T00:26:59.000Z</time>
      </trkpt>
      <trkpt lat="44.3605" lon="3.83163">
        <ele>1351</ele>
        <time>1970-01-01T00:27:00.000Z</time>
      </trkpt>
      <trkpt lat="44.36043" lon="3.83171">
        <ele>1353</ele>
        <time>1970-01-01T00:27:01.000Z</time>
      </trkpt>
      <trkpt lat="44.36036" lon="3.83179">
        <ele>1352</ele>
        <time>1970-01-01T00:27:02.000Z</time>
      </trkpt>
      <trkpt lat="44.36036" lon="3.83179">
        <ele>1352</ele>
        <time>1970-01-01T00:27:03.000Z</time>
      </trkpt>
      <trkpt lat="44.36029" lon="3.83187">
        <ele>1352</ele>
        <time>1970-01-01T00:27:04.000Z</time>
      </trkpt>
      <trkpt lat="44.36023" lon="3.83193">
        <ele>1351</ele>
        <time>1970-01-01T00:27:05.000Z</time>
      </trkpt>
      <trkpt lat="44.36016" lon="3.83201">
        <ele>1351</ele>
        <time>1970-01-01T00:27:06.000Z</time>
      </trkpt>
      <trkpt lat="44.3601" lon="3.83209">
        <ele>1351</ele>
        <time>1970-01-01T00:27:07.000Z</time>
      </trkpt>
      <trkpt lat="44.36003" lon="3.83217">
        <ele>1351</ele>
        <time>1970-01-01T00:27:08.000Z</time>
      </trkpt>
      <trkpt lat="44.35996" lon="3.83225">
        <ele>1344</ele>
        <time>1970-01-01T00:27:09.000Z</time>
      </trkpt>
      <trkpt lat="44.35996" lon="3.83225">
        <ele>1344</ele>
        <time>1970-01-01T00:27:10.000Z</time>
      </trkpt>
      <trkpt lat="44.35989" lon="3.83233">
        <ele>1345</ele>
        <time>1970-01-01T00:27:11.000Z</time>
      </trkpt>
      <trkpt lat="44.35982" lon="3.83241">
        <ele>1345</ele>
        <time>1970-01-01T00:27:12.000Z</time>
      </trkpt>
      <trkpt lat="44.35975" lon="3.83249">
        <ele>1344</ele>
        <time>1970-01-01T00:27:13.000Z</time>
      </trkpt>
      <trkpt lat="44.35975" lon="3.83249">
        <ele>1344</ele>
        <time>1970-01-01T00:27:14.000Z</time>
      </trkpt>
      <trkpt lat="44.35968" lon="3.83257">
        <ele>1348</ele>
        <time>1970-01-01T00:27:15.000Z</time>
      </trkpt>
      <trkpt lat="44.35961" lon="3.83265">
        <ele>1348</ele>
        <time>1970-01-01T00:27:16.000Z</time>
      </trkpt>
      <trkpt lat="44.35954" lon="3.83273">
        <ele>1348</ele>
        <time>1970-01-01T00:27:17.000Z</time>
      </trkpt>
      <trkpt lat="44.35954" lon="3.83273">
        <ele>1348</ele>
        <time>1970-01-01T00:27:18.000Z</time>
      </trkpt>
      <trkpt lat="44.35947" lon="3.83281">
        <ele>1348</ele>
        <time>1970-01-01T00:27:19.000Z</time>
      </trkpt>
      <trkpt lat="44.35941" lon="3.83289">
        <ele>1348</ele>
        <time>1970-01-01T00:27:20.000Z</time>
      </trkpt>
      <trkpt lat="44.35934" lon="3.83297">
        <ele>1348</ele>
        <time>1970-01-01T00:27:21.000Z</time>
      </trkpt>
      <trkpt lat="44.35927" lon="3.83305">
        <ele>1349</ele>
        <time>1970-01-01T00:27:22.000Z</time>
      </trkpt>
      <trkpt lat="44.35927" lon="3.83305">
        <ele>1349</ele>
        <time>1970-01-01T00:27:23.000Z</time>
      </trkpt>
      <trkpt lat="44.3592" lon="3.83313">
        <ele>1349</ele>
        <time>1970-01-01T00:27:24.000Z</time>
      </trkpt>
      <trkpt lat="44.35913" lon="3.83321">
        <ele>1347</ele>
        <time>1970-01-01T00:27:25.000Z</time>
      </trkpt>
      <trkpt lat="44.35908" lon="3.83327">
        <ele>1348</ele>
        <time>1970-01-01T00:27:26.000Z</time>
      </trkpt>
      <trkpt lat="44.35901" lon="3.83334">
        <ele>1349</ele>
        <time>1970-01-01T00:27:27.000Z</time>
      </trkpt>
      <trkpt lat="44.35896" lon="3.8334">
        <ele>1348</ele>
        <time>1970-01-01T00:27:28.000Z</time>
      </trkpt>
      <trkpt lat="44.35889" lon="3.83348">
        <ele>1348</ele>
        <time>1970-01-01T00:27:29.000Z</time>
      </trkpt>
      <trkpt lat="44.35881" lon="3.83355">
        <ele>1347</ele>
        <time>1970-01-01T00:27:30.000Z</time>
      </trkpt>
      <trkpt lat="44.35881" lon="3.83355">
        <ele>1347</ele>
        <time>1970-01-01T00:27:31.000Z</time>
      </trkpt>
      <trkpt lat="44.35875" lon="3.83363">
        <ele>1346</ele>
        <time>1970-01-01T00:27:32.000Z</time>
      </trkpt>
      <trkpt lat="44.35868" lon="3.8337">
        <ele>1346</ele>
        <time>1970-01-01T00:27:33.000Z</time>
      </trkpt>
      <trkpt lat="44.35867" lon="3.83371">
        <ele>1346</ele>
        <time>1970-01-01T00:27:34.000Z</time>
      </trkpt>
      <trkpt lat="44.3586" lon="3.83379">
        <ele>1345</ele>
        <time>1970-01-01T00:27:35.000Z</time>
      </trkpt>
      <trkpt lat="44.35853" lon="3.83386">
        <ele>1344</ele>
        <time>1970-01-01T00:27:36.000Z</time>
      </trkpt>
      <trkpt lat="44.35846" lon="3.83394">
        <ele>1343</ele>
        <time>1970-01-01T00:27:37.000Z</time>
      </trkpt>
      <trkpt lat="44.35841" lon="3.83399">
        <ele>1342</ele>
        <time>1970-01-01T00:27:38.000Z</time>
      </trkpt>
      <trkpt lat="44.35834" lon="3.83405">
        <ele>1341</ele>
        <time>1970-01-01T00:27:39.000Z</time>
      </trkpt>
      <trkpt lat="44.35831" lon="3.83407">
        <ele>1338</ele>
        <time>1970-01-01T00:27:40.000Z</time>
      </trkpt>
      <trkpt lat="44.35824" lon="3.83415">
        <ele>1338</ele>
        <time>1970-01-01T00:27:41.000Z</time>
      </trkpt>
      <trkpt lat="44.35824" lon="3.83416">
        <ele>1338</ele>
        <time>1970-01-01T00:27:42.000Z</time>
      </trkpt>
      <trkpt lat="44.35817" lon="3.83424">
        <ele>1335</ele>
        <time>1970-01-01T00:27:43.000Z</time>
      </trkpt>
      <trkpt lat="44.35816" lon="3.83425">
        <ele>1334</ele>
        <time>1970-01-01T00:27:44.000Z</time>
      </trkpt>
      <trkpt lat="44.35809" lon="3.83432">
        <ele>1333</ele>
        <time>1970-01-01T00:27:45.000Z</time>
      </trkpt>
      <trkpt lat="44.35802" lon="3.83439">
        <ele>1333</ele>
        <time>1970-01-01T00:27:46.000Z</time>
      </trkpt>
      <trkpt lat="44.35794" lon="3.83446">
        <ele>1332</ele>
        <time>1970-01-01T00:27:47.000Z</time>
      </trkpt>
      <trkpt lat="44.35794" lon="3.83446">
        <ele>1332</ele>
        <time>1970-01-01T00:27:48.000Z</time>
      </trkpt>
      <trkpt lat="44.35787" lon="3.83453">
        <ele>1331</ele>
        <time>1970-01-01T00:27:49.000Z</time>
      </trkpt>
      <trkpt lat="44.3578" lon="3.8346">
        <ele>1330</ele>
        <time>1970-01-01T00:27:50.000Z</time>
      </trkpt>
      <trkpt lat="44.35773" lon="3.83467">
        <ele>1330</ele>
        <time>1970-01-01T00:27:51.000Z</time>
      </trkpt>
      <trkpt lat="44.35772" lon="3.83468">
        <ele>1330</ele>
        <time>1970-01-01T00:27:52.000Z</time>
      </trkpt>
      <trkpt lat="44.35767" lon="3.83473">
        <ele>1329</ele>
        <time>1970-01-01T00:27:53.000Z</time>
      </trkpt>
      <trkpt lat="44.35759" lon="3.8348">
        <ele>1327</ele>
        <time>1970-01-01T00:27:54.000Z</time>
      </trkpt>
      <trkpt lat="44.35759" lon="3.8348">
        <ele>1327</ele>
        <time>1970-01-01T00:27:55.000Z</time>
      </trkpt>
      <trkpt lat="44.35751" lon="3.83487">
        <ele>1326</ele>
        <time>1970-01-01T00:27:56.000Z</time>
      </trkpt>
      <trkpt lat="44.35751" lon="3.83487">
        <ele>1326</ele>
        <time>1970-01-01T00:27:57.000Z</time>
      </trkpt>
      <trkpt lat="44.35744" lon="3.83494">
        <ele>1322</ele>
        <time>1970-01-01T00:27:58.000Z</time>
      </trkpt>
      <trkpt lat="44.35736" lon="3.83501">
        <ele>1319</ele>
        <time>1970-01-01T00:27:59.000Z</time>
      </trkpt>
      <trkpt lat="44.35736" lon="3.83501">
        <ele>1319</ele>
        <time>1970-01-01T00:28:00.000Z</time>
      </trkpt>
      <trkpt lat="44.35729" lon="3.83507">
        <ele>1318</ele>
        <time>1970-01-01T00:28:01.000Z</time>
      </trkpt>
      <trkpt lat="44.35722" lon="3.83514">
        <ele>1317</ele>
        <time>1970-01-01T00:28:02.000Z</time>
      </trkpt>
      <trkpt lat="44.35719" lon="3.83516">
        <ele>1317</ele>
        <time>1970-01-01T00:28:03.000Z</time>
      </trkpt>
      <trkpt lat="44.35712" lon="3.83523">
        <ele>1316</ele>
        <time>1970-01-01T00:28:04.000Z</time>
      </trkpt>
      <trkpt lat="44.35704" lon="3.8353">
        <ele>1316</ele>
        <time>1970-01-01T00:28:05.000Z</time>
      </trkpt>
      <trkpt lat="44.35704" lon="3.8353">
        <ele>1316</ele>
        <time>1970-01-01T00:28:06.000Z</time>
      </trkpt>
      <trkpt lat="44.35697" lon="3.83537">
        <ele>1315</ele>
        <time>1970-01-01T00:28:07.000Z</time>
      </trkpt>
      <trkpt lat="44.3569" lon="3.83544">
        <ele>1314</ele>
        <time>1970-01-01T00:28:08.000Z</time>
      </trkpt>
      <trkpt lat="44.35682" lon="3.83551">
        <ele>1314</ele>
        <time>1970-01-01T00:28:09.000Z</time>
      </trkpt>
      <trkpt lat="44.35682" lon="3.83551">
        <ele>1314</ele>
        <time>1970-01-01T00:28:10.000Z</time>
      </trkpt>
      <trkpt lat="44.35675" lon="3.83558">
        <ele>1313</ele>
        <time>1970-01-01T00:28:11.000Z</time>
      </trkpt>
      <trkpt lat="44.35667" lon="3.83565">
        <ele>1312</ele>
        <time>1970-01-01T00:28:12.000Z</time>
      </trkpt>
      <trkpt lat="44.35667" lon="3.83565">
        <ele>1312</ele>
        <time>1970-01-01T00:28:13.000Z</time>
      </trkpt>
      <trkpt lat="44.35663" lon="3.83569">
        <ele>1308</ele>
        <time>1970-01-01T00:28:14.000Z</time>
      </trkpt>
      <trkpt lat="44.35656" lon="3.83576">
        <ele>1308</ele>
        <time>1970-01-01T00:28:15.000Z</time>
      </trkpt>
      <trkpt lat="44.35648" lon="3.83583">
        <ele>1308</ele>
        <time>1970-01-01T00:28:16.000Z</time>
      </trkpt>
      <trkpt lat="44.35648" lon="3.83583">
        <ele>1308</ele>
        <time>1970-01-01T00:28:17.000Z</time>
      </trkpt>
      <trkpt lat="44.35641" lon="3.8359">
        <ele>1305</ele>
        <time>1970-01-01T00:28:18.000Z</time>
      </trkpt>
      <trkpt lat="44.35633" lon="3.83597">
        <ele>1304</ele>
        <time>1970-01-01T00:28:19.000Z</time>
      </trkpt>
      <trkpt lat="44.35633" lon="3.83597">
        <ele>1304</ele>
        <time>1970-01-01T00:28:20.000Z</time>
      </trkpt>
      <trkpt lat="44.35626" lon="3.83604">
        <ele>1304</ele>
        <time>1970-01-01T00:28:21.000Z</time>
      </trkpt>
      <trkpt lat="44.35618" lon="3.83611">
        <ele>1303</ele>
        <time>1970-01-01T00:28:22.000Z</time>
      </trkpt>
      <trkpt lat="44.35618" lon="3.83611">
        <ele>1303</ele>
        <time>1970-01-01T00:28:23.000Z</time>
      </trkpt>
      <trkpt lat="44.35611" lon="3.83618">
        <ele>1303</ele>
        <time>1970-01-01T00:28:24.000Z</time>
      </trkpt>
      <trkpt lat="44.35603" lon="3.83625">
        <ele>1303</ele>
        <time>1970-01-01T00:28:25.000Z</time>
      </trkpt>
      <trkpt lat="44.35603" lon="3.83625">
        <ele>1303</ele>
        <time>1970-01-01T00:28:26.000Z</time>
      </trkpt>
      <trkpt lat="44.35596" lon="3.83632">
        <ele>1302</ele>
        <time>1970-01-01T00:28:27.000Z</time>
      </trkpt>
      <trkpt lat="44.35588" lon="3.83639">
        <ele>1302</ele>
        <time>1970-01-01T00:28:28.000Z</time>
      </trkpt>
      <trkpt lat="44.35588" lon="3.83639">
        <ele>1302</ele>
        <time>1970-01-01T00:28:29.000Z</time>
      </trkpt>
      <trkpt lat="44.35581" lon="3.83646">
        <ele>1297</ele>
        <time>1970-01-01T00:28:30.000Z</time>
      </trkpt>
      <trkpt lat="44.35579" lon="3.83648">
        <ele>1297</ele>
        <time>1970-01-01T00:28:31.000Z</time>
      </trkpt>
      <trkpt lat="44.35572" lon="3.83655">
        <ele>1297</ele>
        <time>1970-01-01T00:28:32.000Z</time>
      </trkpt>
      <trkpt lat="44.35565" lon="3.83662">
        <ele>1297</ele>
        <time>1970-01-01T00:28:33.000Z</time>
      </trkpt>
      <trkpt lat="44.35558" lon="3.83669">
        <ele>1294</ele>
        <time>1970-01-01T00:28:34.000Z</time>
      </trkpt>
      <trkpt lat="44.35551" lon="3.83676">
        <ele>1293</ele>
        <time>1970-01-01T00:28:35.000Z</time>
      </trkpt>
      <trkpt lat="44.35548" lon="3.83678">
        <ele>1293</ele>
        <time>1970-01-01T00:28:36.000Z</time>
      </trkpt>
      <trkpt lat="44.35541" lon="3.83685">
        <ele>1292</ele>
        <time>1970-01-01T00:28:37.000Z</time>
      </trkpt>
      <trkpt lat="44.35534" lon="3.83693">
        <ele>1291</ele>
        <time>1970-01-01T00:28:38.000Z</time>
      </trkpt>
      <trkpt lat="44.35534" lon="3.83693">
        <ele>1291</ele>
        <time>1970-01-01T00:28:39.000Z</time>
      </trkpt>
      <trkpt lat="44.35526" lon="3.837">
        <ele>1291</ele>
        <time>1970-01-01T00:28:40.000Z</time>
      </trkpt>
      <trkpt lat="44.35526" lon="3.837">
        <ele>1291</ele>
        <time>1970-01-01T00:28:41.000Z</time>
      </trkpt>
      <trkpt lat="44.35519" lon="3.83707">
        <ele>1290</ele>
        <time>1970-01-01T00:28:42.000Z</time>
      </trkpt>
      <trkpt lat="44.35511" lon="3.83714">
        <ele>1290</ele>
        <time>1970-01-01T00:28:43.000Z</time>
      </trkpt>
      <trkpt lat="44.35511" lon="3.83714">
        <ele>1290</ele>
        <time>1970-01-01T00:28:44.000Z</time>
      </trkpt>
      <trkpt lat="44.35504" lon="3.83722">
        <ele>1289</ele>
        <time>1970-01-01T00:28:45.000Z</time>
      </trkpt>
      <trkpt lat="44.35499" lon="3.83726">
        <ele>1282</ele>
        <time>1970-01-01T00:28:46.000Z</time>
      </trkpt>
      <trkpt lat="44.35491" lon="3.83731">
        <ele>1282</ele>
        <time>1970-01-01T00:28:47.000Z</time>
      </trkpt>
      <trkpt lat="44.35488" lon="3.83733">
        <ele>1282</ele>
        <time>1970-01-01T00:28:48.000Z</time>
      </trkpt>
      <trkpt lat="44.35479" lon="3.83735">
        <ele>1281</ele>
        <time>1970-01-01T00:28:49.000Z</time>
      </trkpt>
      <trkpt lat="44.35479" lon="3.83735">
        <ele>1281</ele>
        <time>1970-01-01T00:28:50.000Z</time>
      </trkpt>
      <trkpt lat="44.3547" lon="3.83738">
        <ele>1280</ele>
        <time>1970-01-01T00:28:51.000Z</time>
      </trkpt>
      <trkpt lat="44.3547" lon="3.83738">
        <ele>1280</ele>
        <time>1970-01-01T00:28:52.000Z</time>
      </trkpt>
      <trkpt lat="44.35462" lon="3.83741">
        <ele>1279</ele>
        <time>1970-01-01T00:28:53.000Z</time>
      </trkpt>
      <trkpt lat="44.35453" lon="3.83744">
        <ele>1278</ele>
        <time>1970-01-01T00:28:54.000Z</time>
      </trkpt>
      <trkpt lat="44.35453" lon="3.83744">
        <ele>1278</ele>
        <time>1970-01-01T00:28:55.000Z</time>
      </trkpt>
      <trkpt lat="44.35452" lon="3.83744">
        <ele>1278</ele>
        <time>1970-01-01T00:28:56.000Z</time>
      </trkpt>
      <trkpt lat="44.35443" lon="3.83747">
        <ele>1277</ele>
        <time>1970-01-01T00:28:57.000Z</time>
      </trkpt>
      <trkpt lat="44.35443" lon="3.83747">
        <ele>1277</ele>
        <time>1970-01-01T00:28:58.000Z</time>
      </trkpt>
      <trkpt lat="44.35435" lon="3.83749">
        <ele>1275</ele>
        <time>1970-01-01T00:28:59.000Z</time>
      </trkpt>
      <trkpt lat="44.35426" lon="3.83751">
        <ele>1272</ele>
        <time>1970-01-01T00:29:00.000Z</time>
      </trkpt>
      <trkpt lat="44.35426" lon="3.83751">
        <ele>1272</ele>
        <time>1970-01-01T00:29:01.000Z</time>
      </trkpt>
      <trkpt lat="44.35418" lon="3.83754">
        <ele>1271</ele>
        <time>1970-01-01T00:29:02.000Z</time>
      </trkpt>
      <trkpt lat="44.35409" lon="3.83752">
        <ele>1269</ele>
        <time>1970-01-01T00:29:03.000Z</time>
      </trkpt>
      <trkpt lat="44.35408" lon="3.83752">
        <ele>1269</ele>
        <time>1970-01-01T00:29:04.000Z</time>
      </trkpt>
      <trkpt lat="44.354" lon="3.83751">
        <ele>1268</ele>
        <time>1970-01-01T00:29:05.000Z</time>
      </trkpt>
      <trkpt lat="44.35391" lon="3.83752">
        <ele>1267</ele>
        <time>1970-01-01T00:29:06.000Z</time>
      </trkpt>
      <trkpt lat="44.35391" lon="3.83752">
        <ele>1267</ele>
        <time>1970-01-01T00:29:07.000Z</time>
      </trkpt>
      <trkpt lat="44.35386" lon="3.83752">
        <ele>1266</ele>
        <time>1970-01-01T00:29:08.000Z</time>
      </trkpt>
      <trkpt lat="44.35377" lon="3.8375">
        <ele>1265</ele>
        <time>1970-01-01T00:29:09.000Z</time>
      </trkpt>
      <trkpt lat="44.35376" lon="3.8375">
        <ele>1265</ele>
        <time>1970-01-01T00:29:10.000Z</time>
      </trkpt>
      <trkpt lat="44.35368" lon="3.83749">
        <ele>1265</ele>
        <time>1970-01-01T00:29:11.000Z</time>
      </trkpt>
      <trkpt lat="44.35366" lon="3.83749">
        <ele>1265</ele>
        <time>1970-01-01T00:29:12.000Z</time>
      </trkpt>
      <trkpt lat="44.35357" lon="3.83748">
        <ele>1264</ele>
        <time>1970-01-01T00:29:13.000Z</time>
      </trkpt>
      <trkpt lat="44.35357" lon="3.83748">
        <ele>1264</ele>
        <time>1970-01-01T00:29:14.000Z</time>
      </trkpt>
      <trkpt lat="44.35349" lon="3.83748">
        <ele>1264</ele>
        <time>1970-01-01T00:29:15.000Z</time>
      </trkpt>
      <trkpt lat="44.35346" lon="3.83747">
        <ele>1263</ele>
        <time>1970-01-01T00:29:16.000Z</time>
      </trkpt>
      <trkpt lat="44.35337" lon="3.83747">
        <ele>1263</ele>
        <time>1970-01-01T00:29:17.000Z</time>
      </trkpt>
      <trkpt lat="44.35328" lon="3.83746">
        <ele>1260</ele>
        <time>1970-01-01T00:29:18.000Z</time>
      </trkpt>
      <trkpt lat="44.35328" lon="3.83746">
        <ele>1260</ele>
        <time>1970-01-01T00:29:19.000Z</time>
      </trkpt>
      <trkpt lat="44.35321" lon="3.83745">
        <ele>1259</ele>
        <time>1970-01-01T00:29:20.000Z</time>
      </trkpt>
      <trkpt lat="44.35312" lon="3.83745">
        <ele>1258</ele>
        <time>1970-01-01T00:29:21.000Z</time>
      </trkpt>
      <trkpt lat="44.35312" lon="3.83745">
        <ele>1258</ele>
        <time>1970-01-01T00:29:22.000Z</time>
      </trkpt>
      <trkpt lat="44.35306" lon="3.83745">
        <ele>1257</ele>
        <time>1970-01-01T00:29:23.000Z</time>
      </trkpt>
      <trkpt lat="44.35298" lon="3.83749">
        <ele>1256</ele>
        <time>1970-01-01T00:29:24.000Z</time>
      </trkpt>
      <trkpt lat="44.35297" lon="3.83749">
        <ele>1256</ele>
        <time>1970-01-01T00:29:25.000Z</time>
      </trkpt>
      <trkpt lat="44.35289" lon="3.83753">
        <ele>1256</ele>
        <time>1970-01-01T00:29:26.000Z</time>
      </trkpt>
      <trkpt lat="44.35281" lon="3.83758">
        <ele>1255</ele>
        <time>1970-01-01T00:29:27.000Z</time>
      </trkpt>
      <trkpt lat="44.35273" lon="3.83762">
        <ele>1255</ele>
        <time>1970-01-01T00:29:28.000Z</time>
      </trkpt>
      <trkpt lat="44.35272" lon="3.83762">
        <ele>1255</ele>
        <time>1970-01-01T00:29:29.000Z</time>
      </trkpt>
      <trkpt lat="44.35265" lon="3.83766">
        <ele>1254</ele>
        <time>1970-01-01T00:29:30.000Z</time>
      </trkpt>
      <trkpt lat="44.35257" lon="3.8377">
        <ele>1254</ele>
        <time>1970-01-01T00:29:31.000Z</time>
      </trkpt>
      <trkpt lat="44.35256" lon="3.8377">
        <ele>1254</ele>
        <time>1970-01-01T00:29:32.000Z</time>
      </trkpt>
      <trkpt lat="44.35255" lon="3.8377">
        <ele>1254</ele>
        <time>1970-01-01T00:29:33.000Z</time>
      </trkpt>
      <trkpt lat="44.35258" lon="3.83782">
        <ele>1255</ele>
        <time>1970-01-01T00:29:34.000Z</time>
      </trkpt>
      <trkpt lat="44.35258" lon="3.83782">
        <ele>1255</ele>
        <time>1970-01-01T00:29:35.000Z</time>
      </trkpt>
      <trkpt lat="44.35261" lon="3.83793">
        <ele>1255</ele>
        <time>1970-01-01T00:29:36.000Z</time>
      </trkpt>
      <trkpt lat="44.35264" lon="3.83805">
        <ele>1255</ele>
        <time>1970-01-01T00:29:37.000Z</time>
      </trkpt>
      <trkpt lat="44.35264" lon="3.83805">
        <ele>1255</ele>
        <time>1970-01-01T00:29:38.000Z</time>
      </trkpt>
      <trkpt lat="44.35267" lon="3.83817">
        <ele>1255</ele>
        <time>1970-01-01T00:29:39.000Z</time>
      </trkpt>
      <trkpt lat="44.35267" lon="3.83817">
        <ele>1255</ele>
        <time>1970-01-01T00:29:40.000Z</time>
      </trkpt>
      <trkpt lat="44.3527" lon="3.83829">
        <ele>1255</ele>
        <time>1970-01-01T00:29:41.000Z</time>
      </trkpt>
      <trkpt lat="44.3527" lon="3.83829">
        <ele>1255</ele>
        <time>1970-01-01T00:29:42.000Z</time>
      </trkpt>
      <trkpt lat="44.35273" lon="3.83841">
        <ele>1256</ele>
        <time>1970-01-01T00:29:43.000Z</time>
      </trkpt>
      <trkpt lat="44.35273" lon="3.83841">
        <ele>1256</ele>
        <time>1970-01-01T00:29:44.000Z</time>
      </trkpt>
      <trkpt lat="44.35275" lon="3.83847">
        <ele>1256</ele>
        <time>1970-01-01T00:29:45.000Z</time>
      </trkpt>
      <trkpt lat="44.35278" lon="3.83859">
        <ele>1257</ele>
        <time>1970-01-01T00:29:46.000Z</time>
      </trkpt>
      <trkpt lat="44.35278" lon="3.83859">
        <ele>1257</ele>
        <time>1970-01-01T00:29:47.000Z</time>
      </trkpt>
      <trkpt lat="44.3528" lon="3.83871">
        <ele>1257</ele>
        <time>1970-01-01T00:29:48.000Z</time>
      </trkpt>
      <trkpt lat="44.3528" lon="3.83872">
        <ele>1257</ele>
        <time>1970-01-01T00:29:49.000Z</time>
      </trkpt>
      <trkpt lat="44.35281" lon="3.83878">
        <ele>1258</ele>
        <time>1970-01-01T00:29:50.000Z</time>
      </trkpt>
      <trkpt lat="44.35286" lon="3.83889">
        <ele>1258</ele>
        <time>1970-01-01T00:29:51.000Z</time>
      </trkpt>
      <trkpt lat="44.35286" lon="3.83889">
        <ele>1258</ele>
        <time>1970-01-01T00:29:52.000Z</time>
      </trkpt>
      <trkpt lat="44.3529" lon="3.839">
        <ele>1258</ele>
        <time>1970-01-01T00:29:53.000Z</time>
      </trkpt>
      <trkpt lat="44.35295" lon="3.83911">
        <ele>1258</ele>
        <time>1970-01-01T00:29:54.000Z</time>
      </trkpt>
      <trkpt lat="44.35295" lon="3.83911">
        <ele>1258</ele>
        <time>1970-01-01T00:29:55.000Z</time>
      </trkpt>
      <trkpt lat="44.35297" lon="3.83915">
        <ele>1258</ele>
        <time>1970-01-01T00:29:56.000Z</time>
      </trkpt>
      <trkpt lat="44.35301" lon="3.83926">
        <ele>1261</ele>
        <time>1970-01-01T00:29:57.000Z</time>
      </trkpt>
      <trkpt lat="44.35305" lon="3.83937">
        <ele>1261</ele>
        <time>1970-01-01T00:29:58.000Z</time>
      </trkpt>
      <trkpt lat="44.3531" lon="3.83948">
        <ele>1261</ele>
        <time>1970-01-01T00:29:59.000Z</time>
      </trkpt>
      <trkpt lat="44.3531" lon="3.83948">
        <ele>1261</ele>
        <time>1970-01-01T00:30:00.000Z</time>
      </trkpt>
      <trkpt lat="44.35314" lon="3.83959">
        <ele>1261</ele>
        <time>1970-01-01T00:30:01.000Z</time>
      </trkpt>
      <trkpt lat="44.35318" lon="3.8397">
        <ele>1262</ele>
        <time>1970-01-01T00:30:02.000Z</time>
      </trkpt>
      <trkpt lat="44.35322" lon="3.83981">
        <ele>1262</ele>
        <time>1970-01-01T00:30:03.000Z</time>
      </trkpt>
      <trkpt lat="44.35326" lon="3.83992">
        <ele>1263</ele>
        <time>1970-01-01T00:30:04.000Z</time>
      </trkpt>
      <trkpt lat="44.35331" lon="3.84003">
        <ele>1264</ele>
        <time>1970-01-01T00:30:05.000Z</time>
      </trkpt>
      <trkpt lat="44.35331" lon="3.84003">
        <ele>1264</ele>
        <time>1970-01-01T00:30:06.000Z</time>
      </trkpt>
      <trkpt lat="44.35335" lon="3.84014">
        <ele>1266</ele>
        <time>1970-01-01T00:30:07.000Z</time>
      </trkpt>
      <trkpt lat="44.35339" lon="3.84025">
        <ele>1267</ele>
        <time>1970-01-01T00:30:08.000Z</time>
      </trkpt>
      <trkpt lat="44.35344" lon="3.84036">
        <ele>1268</ele>
        <time>1970-01-01T00:30:09.000Z</time>
      </trkpt>
      <trkpt lat="44.35344" lon="3.84036">
        <ele>1268</ele>
        <time>1970-01-01T00:30:10.000Z</time>
      </trkpt>
      <trkpt lat="44.35347" lon="3.84045">
        <ele>1269</ele>
        <time>1970-01-01T00:30:11.000Z</time>
      </trkpt>
      <trkpt lat="44.35342" lon="3.84055">
        <ele>1269</ele>
        <time>1970-01-01T00:30:12.000Z</time>
      </trkpt>
      <trkpt lat="44.35336" lon="3.84065">
        <ele>1269</ele>
        <time>1970-01-01T00:30:13.000Z</time>
      </trkpt>
      <trkpt lat="44.35336" lon="3.84065">
        <ele>1269</ele>
        <time>1970-01-01T00:30:14.000Z</time>
      </trkpt>
      <trkpt lat="44.3533" lon="3.84075">
        <ele>1268</ele>
        <time>1970-01-01T00:30:15.000Z</time>
      </trkpt>
      <trkpt lat="44.3533" lon="3.84075">
        <ele>1268</ele>
        <time>1970-01-01T00:30:16.000Z</time>
      </trkpt>
      <trkpt lat="44.35325" lon="3.84085">
        <ele>1269</ele>
        <time>1970-01-01T00:30:17.000Z</time>
      </trkpt>
      <trkpt lat="44.35321" lon="3.84092">
        <ele>1269</ele>
        <time>1970-01-01T00:30:18.000Z</time>
      </trkpt>
      <trkpt lat="44.35316" lon="3.84103">
        <ele>1268</ele>
        <time>1970-01-01T00:30:19.000Z</time>
      </trkpt>
      <trkpt lat="44.35316" lon="3.84103">
        <ele>1268</ele>
        <time>1970-01-01T00:30:20.000Z</time>
      </trkpt>
      <trkpt lat="44.35311" lon="3.84113">
        <ele>1268</ele>
        <time>1970-01-01T00:30:21.000Z</time>
      </trkpt>
      <trkpt lat="44.35308" lon="3.8412">
        <ele>1268</ele>
        <time>1970-01-01T00:30:22.000Z</time>
      </trkpt>
      <trkpt lat="44.35303" lon="3.8413">
        <ele>1268</ele>
        <time>1970-01-01T00:30:23.000Z</time>
      </trkpt>
      <trkpt lat="44.35298" lon="3.84141">
        <ele>1268</ele>
        <time>1970-01-01T00:30:24.000Z</time>
      </trkpt>
      <trkpt lat="44.35298" lon="3.84141">
        <ele>1268</ele>
        <time>1970-01-01T00:30:25.000Z</time>
      </trkpt>
      <trkpt lat="44.35293" lon="3.84151">
        <ele>1268</ele>
        <time>1970-01-01T00:30:26.000Z</time>
      </trkpt>
      <trkpt lat="44.35289" lon="3.84159">
        <ele>1268</ele>
        <time>1970-01-01T00:30:27.000Z</time>
      </trkpt>
      <trkpt lat="44.35284" lon="3.84169">
        <ele>1273</ele>
        <time>1970-01-01T00:30:28.000Z</time>
      </trkpt>
      <trkpt lat="44.35279" lon="3.8418">
        <ele>1273</ele>
        <time>1970-01-01T00:30:29.000Z</time>
      </trkpt>
      <trkpt lat="44.35279" lon="3.8418">
        <ele>1273</ele>
        <time>1970-01-01T00:30:30.000Z</time>
      </trkpt>
      <trkpt lat="44.35274" lon="3.8419">
        <ele>1273</ele>
        <time>1970-01-01T00:30:31.000Z</time>
      </trkpt>
      <trkpt lat="44.3527" lon="3.84201">
        <ele>1274</ele>
        <time>1970-01-01T00:30:32.000Z</time>
      </trkpt>
      <trkpt lat="44.35266" lon="3.84207">
        <ele>1274</ele>
        <time>1970-01-01T00:30:33.000Z</time>
      </trkpt>
      <trkpt lat="44.35262" lon="3.84218">
        <ele>1275</ele>
        <time>1970-01-01T00:30:34.000Z</time>
      </trkpt>
      <trkpt lat="44.35258" lon="3.84229">
        <ele>1275</ele>
        <time>1970-01-01T00:30:35.000Z</time>
      </trkpt>
      <trkpt lat="44.35256" lon="3.84235">
        <ele>1275</ele>
        <time>1970-01-01T00:30:36.000Z</time>
      </trkpt>
      <trkpt lat="44.35253" lon="3.84246">
        <ele>1276</ele>
        <time>1970-01-01T00:30:37.000Z</time>
      </trkpt>
      <trkpt lat="44.35252" lon="3.84248">
        <ele>1276</ele>
        <time>1970-01-01T00:30:38.000Z</time>
      </trkpt>
      <trkpt lat="44.35248" lon="3.84259">
        <ele>1275</ele>
        <time>1970-01-01T00:30:39.000Z</time>
      </trkpt>
      <trkpt lat="44.35245" lon="3.84271">
        <ele>1275</ele>
        <time>1970-01-01T00:30:40.000Z</time>
      </trkpt>
      <trkpt lat="44.35245" lon="3.84271">
        <ele>1275</ele>
        <time>1970-01-01T00:30:41.000Z</time>
      </trkpt>
      <trkpt lat="44.35244" lon="3.84275">
        <ele>1275</ele>
        <time>1970-01-01T00:30:42.000Z</time>
      </trkpt>
      <trkpt lat="44.3524" lon="3.84286">
        <ele>1275</ele>
        <time>1970-01-01T00:30:43.000Z</time>
      </trkpt>
      <trkpt lat="44.3524" lon="3.84287">
        <ele>1275</ele>
        <time>1970-01-01T00:30:44.000Z</time>
      </trkpt>
      <trkpt lat="44.35236" lon="3.84298">
        <ele>1275</ele>
        <time>1970-01-01T00:30:45.000Z</time>
      </trkpt>
      <trkpt lat="44.35232" lon="3.84309">
        <ele>1276</ele>
        <time>1970-01-01T00:30:46.000Z</time>
      </trkpt>
      <trkpt lat="44.35228" lon="3.8432">
        <ele>1276</ele>
        <time>1970-01-01T00:30:47.000Z</time>
      </trkpt>
      <trkpt lat="44.35227" lon="3.84323">
        <ele>1276</ele>
        <time>1970-01-01T00:30:48.000Z</time>
      </trkpt>
      <trkpt lat="44.35225" lon="3.84335">
        <ele>1280</ele>
        <time>1970-01-01T00:30:49.000Z</time>
      </trkpt>
      <trkpt lat="44.35225" lon="3.84336">
        <ele>1280</ele>
        <time>1970-01-01T00:30:50.000Z</time>
      </trkpt>
      <trkpt lat="44.35225" lon="3.84341">
        <ele>1280</ele>
        <time>1970-01-01T00:30:51.000Z</time>
      </trkpt>
      <trkpt lat="44.35228" lon="3.84352">
        <ele>1280</ele>
        <time>1970-01-01T00:30:52.000Z</time>
      </trkpt>
      <trkpt lat="44.35231" lon="3.84364">
        <ele>1280</ele>
        <time>1970-01-01T00:30:53.000Z</time>
      </trkpt>
      <trkpt lat="44.35231" lon="3.84364">
        <ele>1280</ele>
        <time>1970-01-01T00:30:54.000Z</time>
      </trkpt>
      <trkpt lat="44.35232" lon="3.84365">
        <ele>1280</ele>
        <time>1970-01-01T00:30:55.000Z</time>
      </trkpt>
      <trkpt lat="44.35235" lon="3.84377">
        <ele>1280</ele>
        <time>1970-01-01T00:30:56.000Z</time>
      </trkpt>
      <trkpt lat="44.35235" lon="3.84377">
        <ele>1280</ele>
        <time>1970-01-01T00:30:57.000Z</time>
      </trkpt>
      <trkpt lat="44.35239" lon="3.84388">
        <ele>1281</ele>
        <time>1970-01-01T00:30:58.000Z</time>
      </trkpt>
      <trkpt lat="44.35239" lon="3.84388">
        <ele>1281</ele>
        <time>1970-01-01T00:30:59.000Z</time>
      </trkpt>
      <trkpt lat="44.35244" lon="3.84399">
        <ele>1281</ele>
        <time>1970-01-01T00:31:00.000Z</time>
      </trkpt>
      <trkpt lat="44.35244" lon="3.84399">
        <ele>1281</ele>
        <time>1970-01-01T00:31:01.000Z</time>
      </trkpt>
      <trkpt lat="44.35248" lon="3.84408">
        <ele>1283</ele>
        <time>1970-01-01T00:31:02.000Z</time>
      </trkpt>
      <trkpt lat="44.35255" lon="3.84411">
        <ele>1284</ele>
        <time>1970-01-01T00:31:03.000Z</time>
      </trkpt>
      <trkpt lat="44.35263" lon="3.84416">
        <ele>1284</ele>
        <time>1970-01-01T00:31:04.000Z</time>
      </trkpt>
      <trkpt lat="44.35264" lon="3.84416">
        <ele>1284</ele>
        <time>1970-01-01T00:31:05.000Z</time>
      </trkpt>
      <trkpt lat="44.35271" lon="3.84419">
        <ele>1284</ele>
        <time>1970-01-01T00:31:06.000Z</time>
      </trkpt>
      <trkpt lat="44.35279" lon="3.84423">
        <ele>1284</ele>
        <time>1970-01-01T00:31:07.000Z</time>
      </trkpt>
      <trkpt lat="44.3528" lon="3.84423">
        <ele>1284</ele>
        <time>1970-01-01T00:31:08.000Z</time>
      </trkpt>
      <trkpt lat="44.35288" lon="3.84427">
        <ele>1284</ele>
        <time>1970-01-01T00:31:09.000Z</time>
      </trkpt>
      <trkpt lat="44.35289" lon="3.84427">
        <ele>1284</ele>
        <time>1970-01-01T00:31:10.000Z</time>
      </trkpt>
      <trkpt lat="44.35297" lon="3.84431">
        <ele>1284</ele>
        <time>1970-01-01T00:31:11.000Z</time>
      </trkpt>
      <trkpt lat="44.35305" lon="3.84435">
        <ele>1284</ele>
        <time>1970-01-01T00:31:12.000Z</time>
      </trkpt>
      <trkpt lat="44.35313" lon="3.84438">
        <ele>1284</ele>
        <time>1970-01-01T00:31:13.000Z</time>
      </trkpt>
      <trkpt lat="44.35321" lon="3.84442">
        <ele>1283</ele>
        <time>1970-01-01T00:31:14.000Z</time>
      </trkpt>
      <trkpt lat="44.35329" lon="3.84446">
        <ele>1283</ele>
        <time>1970-01-01T00:31:15.000Z</time>
      </trkpt>
      <trkpt lat="44.3533" lon="3.84446">
        <ele>1283</ele>
        <time>1970-01-01T00:31:16.000Z</time>
      </trkpt>
      <trkpt lat="44.35338" lon="3.8445">
        <ele>1283</ele>
        <time>1970-01-01T00:31:17.000Z</time>
      </trkpt>
      <trkpt lat="44.35346" lon="3.84454">
        <ele>1283</ele>
        <time>1970-01-01T00:31:18.000Z</time>
      </trkpt>
      <trkpt lat="44.35347" lon="3.84454">
        <ele>1283</ele>
        <time>1970-01-01T00:31:19.000Z</time>
      </trkpt>
      <trkpt lat="44.35355" lon="3.84458">
        <ele>1283</ele>
        <time>1970-01-01T00:31:20.000Z</time>
      </trkpt>
      <trkpt lat="44.35363" lon="3.84463">
        <ele>1283</ele>
        <time>1970-01-01T00:31:21.000Z</time>
      </trkpt>
      <trkpt lat="44.35364" lon="3.84463">
        <ele>1283</ele>
        <time>1970-01-01T00:31:22.000Z</time>
      </trkpt>
      <trkpt lat="44.35371" lon="3.84466">
        <ele>1283</ele>
        <time>1970-01-01T00:31:23.000Z</time>
      </trkpt>
      <trkpt lat="44.35379" lon="3.84468">
        <ele>1283</ele>
        <time>1970-01-01T00:31:24.000Z</time>
      </trkpt>
      <trkpt lat="44.35388" lon="3.8447">
        <ele>1283</ele>
        <time>1970-01-01T00:31:25.000Z</time>
      </trkpt>
      <trkpt lat="44.35388" lon="3.8447">
        <ele>1283</ele>
        <time>1970-01-01T00:31:26.000Z</time>
      </trkpt>
      <trkpt lat="44.35397" lon="3.84472">
        <ele>1283</ele>
        <time>1970-01-01T00:31:27.000Z</time>
      </trkpt>
      <trkpt lat="44.35406" lon="3.84474">
        <ele>1283</ele>
        <time>1970-01-01T00:31:28.000Z</time>
      </trkpt>
      <trkpt lat="44.35406" lon="3.84474">
        <ele>1283</ele>
        <time>1970-01-01T00:31:29.000Z</time>
      </trkpt>
      <trkpt lat="44.35415" lon="3.84475">
        <ele>1282</ele>
        <time>1970-01-01T00:31:30.000Z</time>
      </trkpt>
      <trkpt lat="44.35424" lon="3.84477">
        <ele>1285</ele>
        <time>1970-01-01T00:31:31.000Z</time>
      </trkpt>
      <trkpt lat="44.35424" lon="3.84477">
        <ele>1285</ele>
        <time>1970-01-01T00:31:32.000Z</time>
      </trkpt>
      <trkpt lat="44.35432" lon="3.84479">
        <ele>1285</ele>
        <time>1970-01-01T00:31:33.000Z</time>
      </trkpt>
      <trkpt lat="44.35441" lon="3.84481">
        <ele>1285</ele>
        <time>1970-01-01T00:31:34.000Z</time>
      </trkpt>
      <trkpt lat="44.35443" lon="3.84481">
        <ele>1286</ele>
        <time>1970-01-01T00:31:35.000Z</time>
      </trkpt>
      <trkpt lat="44.35452" lon="3.84483">
        <ele>1286</ele>
        <time>1970-01-01T00:31:36.000Z</time>
      </trkpt>
      <trkpt lat="44.35461" lon="3.84484">
        <ele>1287</ele>
        <time>1970-01-01T00:31:37.000Z</time>
      </trkpt>
      <trkpt lat="44.35461" lon="3.84484">
        <ele>1287</ele>
        <time>1970-01-01T00:31:38.000Z</time>
      </trkpt>
      <trkpt lat="44.35464" lon="3.84496">
        <ele>1287</ele>
        <time>1970-01-01T00:31:39.000Z</time>
      </trkpt>
      <trkpt lat="44.35464" lon="3.84496">
        <ele>1287</ele>
        <time>1970-01-01T00:31:40.000Z</time>
      </trkpt>
      <trkpt lat="44.35467" lon="3.84508">
        <ele>1285</ele>
        <time>1970-01-01T00:31:41.000Z</time>
      </trkpt>
      <trkpt lat="44.35467" lon="3.84508">
        <ele>1285</ele>
        <time>1970-01-01T00:31:42.000Z</time>
      </trkpt>
      <trkpt lat="44.3547" lon="3.8452">
        <ele>1285</ele>
        <time>1970-01-01T00:31:43.000Z</time>
      </trkpt>
      <trkpt lat="44.3547" lon="3.8452">
        <ele>1285</ele>
        <time>1970-01-01T00:31:44.000Z</time>
      </trkpt>
      <trkpt lat="44.35473" lon="3.84531">
        <ele>1285</ele>
        <time>1970-01-01T00:31:45.000Z</time>
      </trkpt>
      <trkpt lat="44.35476" lon="3.84543">
        <ele>1285</ele>
        <time>1970-01-01T00:31:46.000Z</time>
      </trkpt>
      <trkpt lat="44.35476" lon="3.84543">
        <ele>1285</ele>
        <time>1970-01-01T00:31:47.000Z</time>
      </trkpt>
      <trkpt lat="44.35479" lon="3.84555">
        <ele>1285</ele>
        <time>1970-01-01T00:31:48.000Z</time>
      </trkpt>
      <trkpt lat="44.35479" lon="3.84555">
        <ele>1285</ele>
        <time>1970-01-01T00:31:49.000Z</time>
      </trkpt>
      <trkpt lat="44.35483" lon="3.84566">
        <ele>1285</ele>
        <time>1970-01-01T00:31:50.000Z</time>
      </trkpt>
      <trkpt lat="44.35483" lon="3.84567">
        <ele>1285</ele>
        <time>1970-01-01T00:31:51.000Z</time>
      </trkpt>
      <trkpt lat="44.35485" lon="3.84574">
        <ele>1286</ele>
        <time>1970-01-01T00:31:52.000Z</time>
      </trkpt>
      <trkpt lat="44.35487" lon="3.84586">
        <ele>1284</ele>
        <time>1970-01-01T00:31:53.000Z</time>
      </trkpt>
      <trkpt lat="44.3549" lon="3.84598">
        <ele>1283</ele>
        <time>1970-01-01T00:31:54.000Z</time>
      </trkpt>
      <trkpt lat="44.3549" lon="3.84598">
        <ele>1283</ele>
        <time>1970-01-01T00:31:55.000Z</time>
      </trkpt>
      <trkpt lat="44.35493" lon="3.84609">
        <ele>1282</ele>
        <time>1970-01-01T00:31:56.000Z</time>
      </trkpt>
      <trkpt lat="44.35496" lon="3.84621">
        <ele>1280</ele>
        <time>1970-01-01T00:31:57.000Z</time>
      </trkpt>
      <trkpt lat="44.35496" lon="3.84621">
        <ele>1280</ele>
        <time>1970-01-01T00:31:58.000Z</time>
      </trkpt>
      <trkpt lat="44.35499" lon="3.84633">
        <ele>1279</ele>
        <time>1970-01-01T00:31:59.000Z</time>
      </trkpt>
      <trkpt lat="44.35499" lon="3.84633">
        <ele>1279</ele>
        <time>1970-01-01T00:32:00.000Z</time>
      </trkpt>
      <trkpt lat="44.35502" lon="3.84645">
        <ele>1286</ele>
        <time>1970-01-01T00:32:01.000Z</time>
      </trkpt>
      <trkpt lat="44.35502" lon="3.84645">
        <ele>1286</ele>
        <time>1970-01-01T00:32:02.000Z</time>
      </trkpt>
      <trkpt lat="44.35503" lon="3.84651">
        <ele>1285</ele>
        <time>1970-01-01T00:32:03.000Z</time>
      </trkpt>
      <trkpt lat="44.35505" lon="3.84663">
        <ele>1282</ele>
        <time>1970-01-01T00:32:04.000Z</time>
      </trkpt>
      <trkpt lat="44.35507" lon="3.84675">
        <ele>1281</ele>
        <time>1970-01-01T00:32:05.000Z</time>
      </trkpt>
      <trkpt lat="44.35507" lon="3.84676">
        <ele>1281</ele>
        <time>1970-01-01T00:32:06.000Z</time>
      </trkpt>
      <trkpt lat="44.35508" lon="3.84678">
        <ele>1281</ele>
        <time>1970-01-01T00:32:07.000Z</time>
      </trkpt>
      <trkpt lat="44.35511" lon="3.84689">
        <ele>1281</ele>
        <time>1970-01-01T00:32:08.000Z</time>
      </trkpt>
      <trkpt lat="44.35514" lon="3.84701">
        <ele>1280</ele>
        <time>1970-01-01T00:32:09.000Z</time>
      </trkpt>
      <trkpt lat="44.35514" lon="3.84701">
        <ele>1280</ele>
        <time>1970-01-01T00:32:10.000Z</time>
      </trkpt>
      <trkpt lat="44.35517" lon="3.84713">
        <ele>1280</ele>
        <time>1970-01-01T00:32:11.000Z</time>
      </trkpt>
      <trkpt lat="44.35517" lon="3.84713">
        <ele>1280</ele>
        <time>1970-01-01T00:32:12.000Z</time>
      </trkpt>
      <trkpt lat="44.35519" lon="3.84719">
        <ele>1279</ele>
        <time>1970-01-01T00:32:13.000Z</time>
      </trkpt>
      <trkpt lat="44.35521" lon="3.84731">
        <ele>1278</ele>
        <time>1970-01-01T00:32:14.000Z</time>
      </trkpt>
      <trkpt lat="44.35523" lon="3.84743">
        <ele>1277</ele>
        <time>1970-01-01T00:32:15.000Z</time>
      </trkpt>
      <trkpt lat="44.35523" lon="3.84744">
        <ele>1277</ele>
        <time>1970-01-01T00:32:16.000Z</time>
      </trkpt>
      <trkpt lat="44.35524" lon="3.84748">
        <ele>1277</ele>
        <time>1970-01-01T00:32:17.000Z</time>
      </trkpt>
      <trkpt lat="44.35528" lon="3.84759">
        <ele>1275</ele>
        <time>1970-01-01T00:32:18.000Z</time>
      </trkpt>
      <trkpt lat="44.35532" lon="3.8477">
        <ele>1276</ele>
        <time>1970-01-01T00:32:19.000Z</time>
      </trkpt>
      <trkpt lat="44.35537" lon="3.84781">
        <ele>1276</ele>
        <time>1970-01-01T00:32:20.000Z</time>
      </trkpt>
      <trkpt lat="44.35537" lon="3.84781">
        <ele>1276</ele>
        <time>1970-01-01T00:32:21.000Z</time>
      </trkpt>
      <trkpt lat="44.35541" lon="3.84792">
        <ele>1276</ele>
        <time>1970-01-01T00:32:22.000Z</time>
      </trkpt>
      <trkpt lat="44.35545" lon="3.84803">
        <ele>1277</ele>
        <time>1970-01-01T00:32:23.000Z</time>
      </trkpt>
      <trkpt lat="44.35548" lon="3.84808">
        <ele>1277</ele>
        <time>1970-01-01T00:32:24.000Z</time>
      </trkpt>
      <trkpt lat="44.3555" lon="3.8482">
        <ele>1277</ele>
        <time>1970-01-01T00:32:25.000Z</time>
      </trkpt>
      <trkpt lat="44.3555" lon="3.84824">
        <ele>1277</ele>
        <time>1970-01-01T00:32:26.000Z</time>
      </trkpt>
      <trkpt lat="44.35556" lon="3.84834">
        <ele>1278</ele>
        <time>1970-01-01T00:32:27.000Z</time>
      </trkpt>
      <trkpt lat="44.35556" lon="3.84834">
        <ele>1278</ele>
        <time>1970-01-01T00:32:28.000Z</time>
      </trkpt>
      <trkpt lat="44.35559" lon="3.84839">
        <ele>1278</ele>
        <time>1970-01-01T00:32:29.000Z</time>
      </trkpt>
      <trkpt lat="44.35562" lon="3.8485">
        <ele>1278</ele>
        <time>1970-01-01T00:32:30.000Z</time>
      </trkpt>
      <trkpt lat="44.35566" lon="3.84861">
        <ele>1278</ele>
        <time>1970-01-01T00:32:31.000Z</time>
      </trkpt>
      <trkpt lat="44.35566" lon="3.84862">
        <ele>1278</ele>
        <time>1970-01-01T00:32:32.000Z</time>
      </trkpt>
      <trkpt lat="44.35566" lon="3.84862">
        <ele>1278</ele>
        <time>1970-01-01T00:32:33.000Z</time>
      </trkpt>
      <trkpt lat="44.35566" lon="3.84874">
        <ele>1278</ele>
        <time>1970-01-01T00:32:34.000Z</time>
      </trkpt>
      <trkpt lat="44.35566" lon="3.84875">
        <ele>1278</ele>
        <time>1970-01-01T00:32:35.000Z</time>
      </trkpt>
      <trkpt lat="44.35571" lon="3.84886">
        <ele>1279</ele>
        <time>1970-01-01T00:32:36.000Z</time>
      </trkpt>
      <trkpt lat="44.35571" lon="3.84886">
        <ele>1279</ele>
        <time>1970-01-01T00:32:37.000Z</time>
      </trkpt>
      <trkpt lat="44.35571" lon="3.84887">
        <ele>1279</ele>
        <time>1970-01-01T00:32:38.000Z</time>
      </trkpt>
      <trkpt lat="44.35572" lon="3.84899">
        <ele>1279</ele>
        <time>1970-01-01T00:32:39.000Z</time>
      </trkpt>
      <trkpt lat="44.35573" lon="3.84912">
        <ele>1280</ele>
        <time>1970-01-01T00:32:40.000Z</time>
      </trkpt>
      <trkpt lat="44.35573" lon="3.84912">
        <ele>1280</ele>
        <time>1970-01-01T00:32:41.000Z</time>
      </trkpt>
      <trkpt lat="44.35573" lon="3.84917">
        <ele>1281</ele>
        <time>1970-01-01T00:32:42.000Z</time>
      </trkpt>
      <trkpt lat="44.35575" lon="3.84929">
        <ele>1281</ele>
        <time>1970-01-01T00:32:43.000Z</time>
      </trkpt>
      <trkpt lat="44.35578" lon="3.84941">
        <ele>1281</ele>
        <time>1970-01-01T00:32:44.000Z</time>
      </trkpt>
      <trkpt lat="44.35578" lon="3.84941">
        <ele>1281</ele>
        <time>1970-01-01T00:32:45.000Z</time>
      </trkpt>
      <trkpt lat="44.35578" lon="3.84943">
        <ele>1281</ele>
        <time>1970-01-01T00:32:46.000Z</time>
      </trkpt>
      <trkpt lat="44.35579" lon="3.84953">
        <ele>1281</ele>
        <time>1970-01-01T00:32:47.000Z</time>
      </trkpt>
      <trkpt lat="44.35579" lon="3.84966">
        <ele>1281</ele>
        <time>1970-01-01T00:32:48.000Z</time>
      </trkpt>
      <trkpt lat="44.35579" lon="3.84966">
        <ele>1281</ele>
        <time>1970-01-01T00:32:49.000Z</time>
      </trkpt>
      <trkpt lat="44.35579" lon="3.84968">
        <ele>1281</ele>
        <time>1970-01-01T00:32:50.000Z</time>
      </trkpt>
      <trkpt lat="44.35579" lon="3.8498">
        <ele>1281</ele>
        <time>1970-01-01T00:32:51.000Z</time>
      </trkpt>
      <trkpt lat="44.35578" lon="3.84993">
        <ele>1280</ele>
        <time>1970-01-01T00:32:52.000Z</time>
      </trkpt>
      <trkpt lat="44.35578" lon="3.84993">
        <ele>1280</ele>
        <time>1970-01-01T00:32:53.000Z</time>
      </trkpt>
      <trkpt lat="44.35578" lon="3.84994">
        <ele>1280</ele>
        <time>1970-01-01T00:32:54.000Z</time>
      </trkpt>
      <trkpt lat="44.35577" lon="3.85006">
        <ele>1281</ele>
        <time>1970-01-01T00:32:55.000Z</time>
      </trkpt>
      <trkpt lat="44.35577" lon="3.85019">
        <ele>1283</ele>
        <time>1970-01-01T00:32:56.000Z</time>
      </trkpt>
      <trkpt lat="44.35577" lon="3.85019">
        <ele>1283</ele>
        <time>1970-01-01T00:32:57.000Z</time>
      </trkpt>
      <trkpt lat="44.35577" lon="3.85027">
        <ele>1283</ele>
        <time>1970-01-01T00:32:58.000Z</time>
      </trkpt>
      <trkpt lat="44.35576" lon="3.85039">
        <ele>1284</ele>
        <time>1970-01-01T00:32:59.000Z</time>
      </trkpt>
      <trkpt lat="44.35576" lon="3.8504">
        <ele>1284</ele>
        <time>1970-01-01T00:33:00.000Z</time>
      </trkpt>
      <trkpt lat="44.35575" lon="3.85052">
        <ele>1285</ele>
        <time>1970-01-01T00:33:01.000Z</time>
      </trkpt>
      <trkpt lat="44.35574" lon="3.85064">
        <ele>1285</ele>
        <time>1970-01-01T00:33:02.000Z</time>
      </trkpt>
      <trkpt lat="44.35574" lon="3.85065">
        <ele>1285</ele>
        <time>1970-01-01T00:33:03.000Z</time>
      </trkpt>
      <trkpt lat="44.35574" lon="3.85077">
        <ele>1285</ele>
        <time>1970-01-01T00:33:04.000Z</time>
      </trkpt>
      <trkpt lat="44.35574" lon="3.85078">
        <ele>1285</ele>
        <time>1970-01-01T00:33:05.000Z</time>
      </trkpt>
      <trkpt lat="44.35565" lon="3.85081">
        <ele>1285</ele>
        <time>1970-01-01T00:33:06.000Z</time>
      </trkpt>
      <trkpt lat="44.35565" lon="3.85081">
        <ele>1285</ele>
        <time>1970-01-01T00:33:07.000Z</time>
      </trkpt>
      <trkpt lat="44.35556" lon="3.85083">
        <ele>1285</ele>
        <time>1970-01-01T00:33:08.000Z</time>
      </trkpt>
      <trkpt lat="44.35556" lon="3.85083">
        <ele>1285</ele>
        <time>1970-01-01T00:33:09.000Z</time>
      </trkpt>
      <trkpt lat="44.35547" lon="3.85085">
        <ele>1290</ele>
        <time>1970-01-01T00:33:10.000Z</time>
      </trkpt>
      <trkpt lat="44.35547" lon="3.85085">
        <ele>1290</ele>
        <time>1970-01-01T00:33:11.000Z</time>
      </trkpt>
      <trkpt lat="44.35538" lon="3.85088">
        <ele>1290</ele>
        <time>1970-01-01T00:33:12.000Z</time>
      </trkpt>
      <trkpt lat="44.35538" lon="3.85088">
        <ele>1290</ele>
        <time>1970-01-01T00:33:13.000Z</time>
      </trkpt>
      <trkpt lat="44.3553" lon="3.8509">
        <ele>1290</ele>
        <time>1970-01-01T00:33:14.000Z</time>
      </trkpt>
      <trkpt lat="44.35529" lon="3.8509">
        <ele>1290</ele>
        <time>1970-01-01T00:33:15.000Z</time>
      </trkpt>
      <trkpt lat="44.3552" lon="3.85092">
        <ele>1290</ele>
        <time>1970-01-01T00:33:16.000Z</time>
      </trkpt>
      <trkpt lat="44.35511" lon="3.85093">
        <ele>1290</ele>
        <time>1970-01-01T00:33:17.000Z</time>
      </trkpt>
      <trkpt lat="44.35511" lon="3.85093">
        <ele>1290</ele>
        <time>1970-01-01T00:33:18.000Z</time>
      </trkpt>
      <trkpt lat="44.35502" lon="3.85095">
        <ele>1290</ele>
        <time>1970-01-01T00:33:19.000Z</time>
      </trkpt>
      <trkpt lat="44.35502" lon="3.85095">
        <ele>1290</ele>
        <time>1970-01-01T00:33:20.000Z</time>
      </trkpt>
      <trkpt lat="44.35498" lon="3.85095">
        <ele>1291</ele>
        <time>1970-01-01T00:33:21.000Z</time>
      </trkpt>
      <trkpt lat="44.35489" lon="3.85096">
        <ele>1291</ele>
        <time>1970-01-01T00:33:22.000Z</time>
      </trkpt>
      <trkpt lat="44.35489" lon="3.85096">
        <ele>1291</ele>
        <time>1970-01-01T00:33:23.000Z</time>
      </trkpt>
      <trkpt lat="44.3548" lon="3.85097">
        <ele>1291</ele>
        <time>1970-01-01T00:33:24.000Z</time>
      </trkpt>
      <trkpt lat="44.35471" lon="3.85098">
        <ele>1291</ele>
        <time>1970-01-01T00:33:25.000Z</time>
      </trkpt>
      <trkpt lat="44.35471" lon="3.85098">
        <ele>1291</ele>
        <time>1970-01-01T00:33:26.000Z</time>
      </trkpt>
      <trkpt lat="44.3547" lon="3.85098">
        <ele>1291</ele>
        <time>1970-01-01T00:33:27.000Z</time>
      </trkpt>
      <trkpt lat="44.35461" lon="3.85099">
        <ele>1291</ele>
        <time>1970-01-01T00:33:28.000Z</time>
      </trkpt>
      <trkpt lat="44.35456" lon="3.851">
        <ele>1291</ele>
        <time>1970-01-01T00:33:29.000Z</time>
      </trkpt>
      <trkpt lat="44.35447" lon="3.851">
        <ele>1291</ele>
        <time>1970-01-01T00:33:30.000Z</time>
      </trkpt>
      <trkpt lat="44.35447" lon="3.851">
        <ele>1291</ele>
        <time>1970-01-01T00:33:31.000Z</time>
      </trkpt>
      <trkpt lat="44.35438" lon="3.85101">
        <ele>1292</ele>
        <time>1970-01-01T00:33:32.000Z</time>
      </trkpt>
      <trkpt lat="44.35429" lon="3.85102">
        <ele>1292</ele>
        <time>1970-01-01T00:33:33.000Z</time>
      </trkpt>
      <trkpt lat="44.35429" lon="3.85102">
        <ele>1292</ele>
        <time>1970-01-01T00:33:34.000Z</time>
      </trkpt>
      <trkpt lat="44.35427" lon="3.85102">
        <ele>1292</ele>
        <time>1970-01-01T00:33:35.000Z</time>
      </trkpt>
      <trkpt lat="44.35418" lon="3.85104">
        <ele>1292</ele>
        <time>1970-01-01T00:33:36.000Z</time>
      </trkpt>
      <trkpt lat="44.35418" lon="3.85104">
        <ele>1292</ele>
        <time>1970-01-01T00:33:37.000Z</time>
      </trkpt>
      <trkpt lat="44.35412" lon="3.85105">
        <ele>1291</ele>
        <time>1970-01-01T00:33:38.000Z</time>
      </trkpt>
      <trkpt lat="44.35403" lon="3.8511">
        <ele>1291</ele>
        <time>1970-01-01T00:33:39.000Z</time>
      </trkpt>
      <trkpt lat="44.35403" lon="3.8511">
        <ele>1291</ele>
        <time>1970-01-01T00:33:40.000Z</time>
      </trkpt>
      <trkpt lat="44.35395" lon="3.85115">
        <ele>1291</ele>
        <time>1970-01-01T00:33:41.000Z</time>
      </trkpt>
      <trkpt lat="44.35393" lon="3.85116">
        <ele>1291</ele>
        <time>1970-01-01T00:33:42.000Z</time>
      </trkpt>
      <trkpt lat="44.35385" lon="3.8512">
        <ele>1291</ele>
        <time>1970-01-01T00:33:43.000Z</time>
      </trkpt>
      <trkpt lat="44.35384" lon="3.8512">
        <ele>1291</ele>
        <time>1970-01-01T00:33:44.000Z</time>
      </trkpt>
      <trkpt lat="44.35376" lon="3.85125">
        <ele>1291</ele>
        <time>1970-01-01T00:33:45.000Z</time>
      </trkpt>
      <trkpt lat="44.35368" lon="3.85129">
        <ele>1290</ele>
        <time>1970-01-01T00:33:46.000Z</time>
      </trkpt>
      <trkpt lat="44.3536" lon="3.85134">
        <ele>1290</ele>
        <time>1970-01-01T00:33:47.000Z</time>
      </trkpt>
      <trkpt lat="44.35359" lon="3.85134">
        <ele>1290</ele>
        <time>1970-01-01T00:33:48.000Z</time>
      </trkpt>
      <trkpt lat="44.35358" lon="3.85134">
        <ele>1290</ele>
        <time>1970-01-01T00:33:49.000Z</time>
      </trkpt>
      <trkpt lat="44.3535" lon="3.85137">
        <ele>1290</ele>
        <time>1970-01-01T00:33:50.000Z</time>
      </trkpt>
      <trkpt lat="44.35346" lon="3.85138">
        <ele>1290</ele>
        <time>1970-01-01T00:33:51.000Z</time>
      </trkpt>
      <trkpt lat="44.35338" lon="3.85143">
        <ele>1290</ele>
        <time>1970-01-01T00:33:52.000Z</time>
      </trkpt>
      <trkpt lat="44.3533" lon="3.85148">
        <ele>1287</ele>
        <time>1970-01-01T00:33:53.000Z</time>
      </trkpt>
      <trkpt lat="44.35324" lon="3.85152">
        <ele>1287</ele>
        <time>1970-01-01T00:33:54.000Z</time>
      </trkpt>
      <trkpt lat="44.35316" lon="3.85156">
        <ele>1286</ele>
        <time>1970-01-01T00:33:55.000Z</time>
      </trkpt>
      <trkpt lat="44.35314" lon="3.85157">
        <ele>1286</ele>
        <time>1970-01-01T00:33:56.000Z</time>
      </trkpt>
      <trkpt lat="44.3531" lon="3.85168">
        <ele>1285</ele>
        <time>1970-01-01T00:33:57.000Z</time>
      </trkpt>
      <trkpt lat="44.35305" lon="3.85178">
        <ele>1284</ele>
        <time>1970-01-01T00:33:58.000Z</time>
      </trkpt>
      <trkpt lat="44.353" lon="3.85189">
        <ele>1284</ele>
        <time>1970-01-01T00:33:59.000Z</time>
      </trkpt>
      <trkpt lat="44.353" lon="3.85189">
        <ele>1284</ele>
        <time>1970-01-01T00:34:00.000Z</time>
      </trkpt>
      <trkpt lat="44.35295" lon="3.852">
        <ele>1283</ele>
        <time>1970-01-01T00:34:01.000Z</time>
      </trkpt>
      <trkpt lat="44.35295" lon="3.852">
        <ele>1283</ele>
        <time>1970-01-01T00:34:02.000Z</time>
      </trkpt>
      <trkpt lat="44.35291" lon="3.85211">
        <ele>1283</ele>
        <time>1970-01-01T00:34:03.000Z</time>
      </trkpt>
      <trkpt lat="44.35286" lon="3.85221">
        <ele>1283</ele>
        <time>1970-01-01T00:34:04.000Z</time>
      </trkpt>
      <trkpt lat="44.35281" lon="3.85232">
        <ele>1282</ele>
        <time>1970-01-01T00:34:05.000Z</time>
      </trkpt>
      <trkpt lat="44.35281" lon="3.85232">
        <ele>1282</ele>
        <time>1970-01-01T00:34:06.000Z</time>
      </trkpt>
      <trkpt lat="44.35277" lon="3.85243">
        <ele>1282</ele>
        <time>1970-01-01T00:34:07.000Z</time>
      </trkpt>
      <trkpt lat="44.35272" lon="3.85253">
        <ele>1281</ele>
        <time>1970-01-01T00:34:08.000Z</time>
      </trkpt>
      <trkpt lat="44.35272" lon="3.85254">
        <ele>1281</ele>
        <time>1970-01-01T00:34:09.000Z</time>
      </trkpt>
      <trkpt lat="44.35269" lon="3.85261">
        <ele>1281</ele>
        <time>1970-01-01T00:34:10.000Z</time>
      </trkpt>
      <trkpt lat="44.35264" lon="3.85271">
        <ele>1281</ele>
        <time>1970-01-01T00:34:11.000Z</time>
      </trkpt>
      <trkpt lat="44.35259" lon="3.8528">
        <ele>1281</ele>
        <time>1970-01-01T00:34:12.000Z</time>
      </trkpt>
      <trkpt lat="44.35254" lon="3.8529">
        <ele>1281</ele>
        <time>1970-01-01T00:34:13.000Z</time>
      </trkpt>
      <trkpt lat="44.35249" lon="3.85301">
        <ele>1274</ele>
        <time>1970-01-01T00:34:14.000Z</time>
      </trkpt>
      <trkpt lat="44.35249" lon="3.85301">
        <ele>1274</ele>
        <time>1970-01-01T00:34:15.000Z</time>
      </trkpt>
      <trkpt lat="44.35244" lon="3.85311">
        <ele>1274</ele>
        <time>1970-01-01T00:34:16.000Z</time>
      </trkpt>
      <trkpt lat="44.35238" lon="3.85321">
        <ele>1275</ele>
        <time>1970-01-01T00:34:17.000Z</time>
      </trkpt>
      <trkpt lat="44.35238" lon="3.85321">
        <ele>1275</ele>
        <time>1970-01-01T00:34:18.000Z</time>
      </trkpt>
      <trkpt lat="44.35233" lon="3.85331">
        <ele>1275</ele>
        <time>1970-01-01T00:34:19.000Z</time>
      </trkpt>
      <trkpt lat="44.35228" lon="3.85341">
        <ele>1276</ele>
        <time>1970-01-01T00:34:20.000Z</time>
      </trkpt>
      <trkpt lat="44.35223" lon="3.8535">
        <ele>1276</ele>
        <time>1970-01-01T00:34:21.000Z</time>
      </trkpt>
      <trkpt lat="44.35218" lon="3.8536">
        <ele>1276</ele>
        <time>1970-01-01T00:34:22.000Z</time>
      </trkpt>
      <trkpt lat="44.35213" lon="3.8537">
        <ele>1276</ele>
        <time>1970-01-01T00:34:23.000Z</time>
      </trkpt>
      <trkpt lat="44.35208" lon="3.8538">
        <ele>1276</ele>
        <time>1970-01-01T00:34:24.000Z</time>
      </trkpt>
      <trkpt lat="44.35203" lon="3.85391">
        <ele>1276</ele>
        <time>1970-01-01T00:34:25.000Z</time>
      </trkpt>
      <trkpt lat="44.35203" lon="3.85391">
        <ele>1276</ele>
        <time>1970-01-01T00:34:26.000Z</time>
      </trkpt>
      <trkpt lat="44.35201" lon="3.85395">
        <ele>1276</ele>
        <time>1970-01-01T00:34:27.000Z</time>
      </trkpt>
      <trkpt lat="44.35196" lon="3.85405">
        <ele>1275</ele>
        <time>1970-01-01T00:34:28.000Z</time>
      </trkpt>
      <trkpt lat="44.35191" lon="3.85416">
        <ele>1275</ele>
        <time>1970-01-01T00:34:29.000Z</time>
      </trkpt>
      <trkpt lat="44.35191" lon="3.85416">
        <ele>1275</ele>
        <time>1970-01-01T00:34:30.000Z</time>
      </trkpt>
      <trkpt lat="44.35185" lon="3.85426">
        <ele>1279</ele>
        <time>1970-01-01T00:34:31.000Z</time>
      </trkpt>
      <trkpt lat="44.35185" lon="3.85426">
        <ele>1279</ele>
        <time>1970-01-01T00:34:32.000Z</time>
      </trkpt>
      <trkpt lat="44.35183" lon="3.85432">
        <ele>1279</ele>
        <time>1970-01-01T00:34:33.000Z</time>
      </trkpt>
      <trkpt lat="44.35178" lon="3.85443">
        <ele>1280</ele>
        <time>1970-01-01T00:34:34.000Z</time>
      </trkpt>
      <trkpt lat="44.35178" lon="3.85443">
        <ele>1280</ele>
        <time>1970-01-01T00:34:35.000Z</time>
      </trkpt>
      <trkpt lat="44.35175" lon="3.85449">
        <ele>1281</ele>
        <time>1970-01-01T00:34:36.000Z</time>
      </trkpt>
      <trkpt lat="44.35169" lon="3.85459">
        <ele>1282</ele>
        <time>1970-01-01T00:34:37.000Z</time>
      </trkpt>
      <trkpt lat="44.35169" lon="3.85459">
        <ele>1282</ele>
        <time>1970-01-01T00:34:38.000Z</time>
      </trkpt>
      <trkpt lat="44.35163" lon="3.85468">
        <ele>1275</ele>
        <time>1970-01-01T00:34:39.000Z</time>
      </trkpt>
      <trkpt lat="44.35157" lon="3.85477">
        <ele>1276</ele>
        <time>1970-01-01T00:34:40.000Z</time>
      </trkpt>
      <trkpt lat="44.35151" lon="3.85487">
        <ele>1276</ele>
        <time>1970-01-01T00:34:41.000Z</time>
      </trkpt>
      <trkpt lat="44.35151" lon="3.85487">
        <ele>1276</ele>
        <time>1970-01-01T00:34:42.000Z</time>
      </trkpt>
      <trkpt lat="44.35145" lon="3.85496">
        <ele>1276</ele>
        <time>1970-01-01T00:34:43.000Z</time>
      </trkpt>
      <trkpt lat="44.35139" lon="3.85505">
        <ele>1278</ele>
        <time>1970-01-01T00:34:44.000Z</time>
      </trkpt>
      <trkpt lat="44.35133" lon="3.85515">
        <ele>1277</ele>
        <time>1970-01-01T00:34:45.000Z</time>
      </trkpt>
      <trkpt lat="44.35133" lon="3.85515">
        <ele>1277</ele>
        <time>1970-01-01T00:34:46.000Z</time>
      </trkpt>
      <trkpt lat="44.35127" lon="3.85524">
        <ele>1276</ele>
        <time>1970-01-01T00:34:47.000Z</time>
      </trkpt>
      <trkpt lat="44.35121" lon="3.85533">
        <ele>1276</ele>
        <time>1970-01-01T00:34:48.000Z</time>
      </trkpt>
      <trkpt lat="44.35125" lon="3.85544">
        <ele>1276</ele>
        <time>1970-01-01T00:34:49.000Z</time>
      </trkpt>
      <trkpt lat="44.35125" lon="3.85545">
        <ele>1276</ele>
        <time>1970-01-01T00:34:50.000Z</time>
      </trkpt>
      <trkpt lat="44.35128" lon="3.85556">
        <ele>1276</ele>
        <time>1970-01-01T00:34:51.000Z</time>
      </trkpt>
      <trkpt lat="44.35132" lon="3.85567">
        <ele>1276</ele>
        <time>1970-01-01T00:34:52.000Z</time>
      </trkpt>
      <trkpt lat="44.35132" lon="3.85568">
        <ele>1276</ele>
        <time>1970-01-01T00:34:53.000Z</time>
      </trkpt>
      <trkpt lat="44.35135" lon="3.85579">
        <ele>1277</ele>
        <time>1970-01-01T00:34:54.000Z</time>
      </trkpt>
      <trkpt lat="44.35139" lon="3.8559">
        <ele>1276</ele>
        <time>1970-01-01T00:34:55.000Z</time>
      </trkpt>
      <trkpt lat="44.35143" lon="3.85601">
        <ele>1276</ele>
        <time>1970-01-01T00:34:56.000Z</time>
      </trkpt>
      <trkpt lat="44.35143" lon="3.85602">
        <ele>1276</ele>
        <time>1970-01-01T00:34:57.000Z</time>
      </trkpt>
      <trkpt lat="44.35146" lon="3.8561">
        <ele>1276</ele>
        <time>1970-01-01T00:34:58.000Z</time>
      </trkpt>
      <trkpt lat="44.35148" lon="3.85622">
        <ele>1275</ele>
        <time>1970-01-01T00:34:59.000Z</time>
      </trkpt>
      <trkpt lat="44.35148" lon="3.85623">
        <ele>1275</ele>
        <time>1970-01-01T00:35:00.000Z</time>
      </trkpt>
      <trkpt lat="44.35151" lon="3.85635">
        <ele>1275</ele>
        <time>1970-01-01T00:35:01.000Z</time>
      </trkpt>
      <trkpt lat="44.35151" lon="3.85635">
        <ele>1275</ele>
        <time>1970-01-01T00:35:02.000Z</time>
      </trkpt>
      <trkpt lat="44.35153" lon="3.85647">
        <ele>1275</ele>
        <time>1970-01-01T00:35:03.000Z</time>
      </trkpt>
      <trkpt lat="44.35153" lon="3.85647">
        <ele>1275</ele>
        <time>1970-01-01T00:35:04.000Z</time>
      </trkpt>
      <trkpt lat="44.35157" lon="3.85658">
        <ele>1275</ele>
        <time>1970-01-01T00:35:05.000Z</time>
      </trkpt>
      <trkpt lat="44.35161" lon="3.85669">
        <ele>1275</ele>
        <time>1970-01-01T00:35:06.000Z</time>
      </trkpt>
      <trkpt lat="44.35161" lon="3.8567">
        <ele>1275</ele>
        <time>1970-01-01T00:35:07.000Z</time>
      </trkpt>
      <trkpt lat="44.35165" lon="3.85681">
        <ele>1274</ele>
        <time>1970-01-01T00:35:08.000Z</time>
      </trkpt>
      <trkpt lat="44.35169" lon="3.85692">
        <ele>1282</ele>
        <time>1970-01-01T00:35:09.000Z</time>
      </trkpt>
      <trkpt lat="44.35173" lon="3.85703">
        <ele>1283</ele>
        <time>1970-01-01T00:35:10.000Z</time>
      </trkpt>
      <trkpt lat="44.35175" lon="3.85715">
        <ele>1283</ele>
        <time>1970-01-01T00:35:11.000Z</time>
      </trkpt>
      <trkpt lat="44.35176" lon="3.85719">
        <ele>1283</ele>
        <time>1970-01-01T00:35:12.000Z</time>
      </trkpt>
      <trkpt lat="44.3518" lon="3.8573">
        <ele>1282</ele>
        <time>1970-01-01T00:35:13.000Z</time>
      </trkpt>
      <trkpt lat="44.35185" lon="3.85739">
        <ele>1282</ele>
        <time>1970-01-01T00:35:14.000Z</time>
      </trkpt>
      <trkpt lat="44.35188" lon="3.85751">
        <ele>1282</ele>
        <time>1970-01-01T00:35:15.000Z</time>
      </trkpt>
      <trkpt lat="44.35188" lon="3.85751">
        <ele>1282</ele>
        <time>1970-01-01T00:35:16.000Z</time>
      </trkpt>
      <trkpt lat="44.35191" lon="3.85763">
        <ele>1283</ele>
        <time>1970-01-01T00:35:17.000Z</time>
      </trkpt>
      <trkpt lat="44.35191" lon="3.85763">
        <ele>1283</ele>
        <time>1970-01-01T00:35:18.000Z</time>
      </trkpt>
      <trkpt lat="44.35194" lon="3.85775">
        <ele>1284</ele>
        <time>1970-01-01T00:35:19.000Z</time>
      </trkpt>
      <trkpt lat="44.35194" lon="3.85775">
        <ele>1284</ele>
        <time>1970-01-01T00:35:20.000Z</time>
      </trkpt>
      <trkpt lat="44.35196" lon="3.85783">
        <ele>1285</ele>
        <time>1970-01-01T00:35:21.000Z</time>
      </trkpt>
      <trkpt lat="44.35199" lon="3.85795">
        <ele>1285</ele>
        <time>1970-01-01T00:35:22.000Z</time>
      </trkpt>
      <trkpt lat="44.35199" lon="3.85795">
        <ele>1285</ele>
        <time>1970-01-01T00:35:23.000Z</time>
      </trkpt>
      <trkpt lat="44.35202" lon="3.85806">
        <ele>1286</ele>
        <time>1970-01-01T00:35:24.000Z</time>
      </trkpt>
      <trkpt lat="44.35205" lon="3.85818">
        <ele>1286</ele>
        <time>1970-01-01T00:35:25.000Z</time>
      </trkpt>
      <trkpt lat="44.35205" lon="3.85818">
        <ele>1286</ele>
        <time>1970-01-01T00:35:26.000Z</time>
      </trkpt>
      <trkpt lat="44.35209" lon="3.85829">
        <ele>1286</ele>
        <time>1970-01-01T00:35:27.000Z</time>
      </trkpt>
      <trkpt lat="44.35209" lon="3.8583">
        <ele>1286</ele>
        <time>1970-01-01T00:35:28.000Z</time>
      </trkpt>
      <trkpt lat="44.35212" lon="3.85841">
        <ele>1288</ele>
        <time>1970-01-01T00:35:29.000Z</time>
      </trkpt>
      <trkpt lat="44.35216" lon="3.85852">
        <ele>1288</ele>
        <time>1970-01-01T00:35:30.000Z</time>
      </trkpt>
      <trkpt lat="44.35216" lon="3.85853">
        <ele>1288</ele>
        <time>1970-01-01T00:35:31.000Z</time>
      </trkpt>
      <trkpt lat="44.35219" lon="3.85865">
        <ele>1288</ele>
        <time>1970-01-01T00:35:32.000Z</time>
      </trkpt>
      <trkpt lat="44.35219" lon="3.85865">
        <ele>1288</ele>
        <time>1970-01-01T00:35:33.000Z</time>
      </trkpt>
      <trkpt lat="44.3522" lon="3.85867">
        <ele>1288</ele>
        <time>1970-01-01T00:35:34.000Z</time>
      </trkpt>
      <trkpt lat="44.35224" lon="3.85878">
        <ele>1288</ele>
        <time>1970-01-01T00:35:35.000Z</time>
      </trkpt>
      <trkpt lat="44.35227" lon="3.8589">
        <ele>1289</ele>
        <time>1970-01-01T00:35:36.000Z</time>
      </trkpt>
      <trkpt lat="44.35227" lon="3.8589">
        <ele>1289</ele>
        <time>1970-01-01T00:35:37.000Z</time>
      </trkpt>
      <trkpt lat="44.3523" lon="3.85902">
        <ele>1289</ele>
        <time>1970-01-01T00:35:38.000Z</time>
      </trkpt>
      <trkpt lat="44.3523" lon="3.85902">
        <ele>1289</ele>
        <time>1970-01-01T00:35:39.000Z</time>
      </trkpt>
      <trkpt lat="44.3523" lon="3.85904">
        <ele>1289</ele>
        <time>1970-01-01T00:35:40.000Z</time>
      </trkpt>
      <trkpt lat="44.35234" lon="3.85915">
        <ele>1290</ele>
        <time>1970-01-01T00:35:41.000Z</time>
      </trkpt>
      <trkpt lat="44.35238" lon="3.85926">
        <ele>1292</ele>
        <time>1970-01-01T00:35:42.000Z</time>
      </trkpt>
      <trkpt lat="44.35241" lon="3.85938">
        <ele>1292</ele>
        <time>1970-01-01T00:35:43.000Z</time>
      </trkpt>
      <trkpt lat="44.35241" lon="3.85938">
        <ele>1292</ele>
        <time>1970-01-01T00:35:44.000Z</time>
      </trkpt>
      <trkpt lat="44.35245" lon="3.85949">
        <ele>1292</ele>
        <time>1970-01-01T00:35:45.000Z</time>
      </trkpt>
      <trkpt lat="44.35246" lon="3.85951">
        <ele>1292</ele>
        <time>1970-01-01T00:35:46.000Z</time>
      </trkpt>
      <trkpt lat="44.35248" lon="3.85963">
        <ele>1292</ele>
        <time>1970-01-01T00:35:47.000Z</time>
      </trkpt>
      <trkpt lat="44.35249" lon="3.85971">
        <ele>1293</ele>
        <time>1970-01-01T00:35:48.000Z</time>
      </trkpt>
      <trkpt lat="44.35254" lon="3.85982">
        <ele>1298</ele>
        <time>1970-01-01T00:35:49.000Z</time>
      </trkpt>
      <trkpt lat="44.35254" lon="3.85982">
        <ele>1298</ele>
        <time>1970-01-01T00:35:50.000Z</time>
      </trkpt>
      <trkpt lat="44.35258" lon="3.85993">
        <ele>1297</ele>
        <time>1970-01-01T00:35:51.000Z</time>
      </trkpt>
      <trkpt lat="44.35263" lon="3.86004">
        <ele>1299</ele>
        <time>1970-01-01T00:35:52.000Z</time>
      </trkpt>
      <trkpt lat="44.35263" lon="3.86004">
        <ele>1299</ele>
        <time>1970-01-01T00:35:53.000Z</time>
      </trkpt>
      <trkpt lat="44.35267" lon="3.86014">
        <ele>1300</ele>
        <time>1970-01-01T00:35:54.000Z</time>
      </trkpt>
      <trkpt lat="44.35272" lon="3.86025">
        <ele>1302</ele>
        <time>1970-01-01T00:35:55.000Z</time>
      </trkpt>
      <trkpt lat="44.35272" lon="3.86025">
        <ele>1302</ele>
        <time>1970-01-01T00:35:56.000Z</time>
      </trkpt>
      <trkpt lat="44.35276" lon="3.86034">
        <ele>1302</ele>
        <time>1970-01-01T00:35:57.000Z</time>
      </trkpt>
      <trkpt lat="44.35279" lon="3.86045">
        <ele>1303</ele>
        <time>1970-01-01T00:35:58.000Z</time>
      </trkpt>
      <trkpt lat="44.35283" lon="3.86056">
        <ele>1303</ele>
        <time>1970-01-01T00:35:59.000Z</time>
      </trkpt>
      <trkpt lat="44.35283" lon="3.86057">
        <ele>1303</ele>
        <time>1970-01-01T00:36:00.000Z</time>
      </trkpt>
      <trkpt lat="44.35285" lon="3.86065">
        <ele>1303</ele>
        <time>1970-01-01T00:36:01.000Z</time>
      </trkpt>
      <trkpt lat="44.35289" lon="3.86076">
        <ele>1304</ele>
        <time>1970-01-01T00:36:02.000Z</time>
      </trkpt>
      <trkpt lat="44.35294" lon="3.86087">
        <ele>1304</ele>
        <time>1970-01-01T00:36:03.000Z</time>
      </trkpt>
      <trkpt lat="44.35294" lon="3.86087">
        <ele>1304</ele>
        <time>1970-01-01T00:36:04.000Z</time>
      </trkpt>
      <trkpt lat="44.35298" lon="3.86098">
        <ele>1304</ele>
        <time>1970-01-01T00:36:05.000Z</time>
      </trkpt>
      <trkpt lat="44.35299" lon="3.86098">
        <ele>1304</ele>
        <time>1970-01-01T00:36:06.000Z</time>
      </trkpt>
      <trkpt lat="44.35305" lon="3.86108">
        <ele>1305</ele>
        <time>1970-01-01T00:36:07.000Z</time>
      </trkpt>
      <trkpt lat="44.35305" lon="3.86108">
        <ele>1305</ele>
        <time>1970-01-01T00:36:08.000Z</time>
      </trkpt>
      <trkpt lat="44.35311" lon="3.86117">
        <ele>1305</ele>
        <time>1970-01-01T00:36:09.000Z</time>
      </trkpt>
      <trkpt lat="44.35316" lon="3.86126">
        <ele>1305</ele>
        <time>1970-01-01T00:36:10.000Z</time>
      </trkpt>
      <trkpt lat="44.35322" lon="3.86135">
        <ele>1305</ele>
        <time>1970-01-01T00:36:11.000Z</time>
      </trkpt>
      <trkpt lat="44.35323" lon="3.86136">
        <ele>1305</ele>
        <time>1970-01-01T00:36:12.000Z</time>
      </trkpt>
      <trkpt lat="44.35324" lon="3.86138">
        <ele>1305</ele>
        <time>1970-01-01T00:36:13.000Z</time>
      </trkpt>
      <trkpt lat="44.35329" lon="3.86148">
        <ele>1305</ele>
        <time>1970-01-01T00:36:14.000Z</time>
      </trkpt>
      <trkpt lat="44.35335" lon="3.86158">
        <ele>1309</ele>
        <time>1970-01-01T00:36:15.000Z</time>
      </trkpt>
      <trkpt lat="44.35335" lon="3.86158">
        <ele>1309</ele>
        <time>1970-01-01T00:36:16.000Z</time>
      </trkpt>
      <trkpt lat="44.35341" lon="3.86168">
        <ele>1308</ele>
        <time>1970-01-01T00:36:17.000Z</time>
      </trkpt>
      <trkpt lat="44.35341" lon="3.86168">
        <ele>1308</ele>
        <time>1970-01-01T00:36:18.000Z</time>
      </trkpt>
      <trkpt lat="44.35346" lon="3.86177">
        <ele>1309</ele>
        <time>1970-01-01T00:36:19.000Z</time>
      </trkpt>
      <trkpt lat="44.35352" lon="3.86186">
        <ele>1310</ele>
        <time>1970-01-01T00:36:20.000Z</time>
      </trkpt>
      <trkpt lat="44.35357" lon="3.86192">
        <ele>1311</ele>
        <time>1970-01-01T00:36:21.000Z</time>
      </trkpt>
      <trkpt lat="44.35363" lon="3.86201">
        <ele>1311</ele>
        <time>1970-01-01T00:36:22.000Z</time>
      </trkpt>
      <trkpt lat="44.35366" lon="3.86204">
        <ele>1311</ele>
        <time>1970-01-01T00:36:23.000Z</time>
      </trkpt>
      <trkpt lat="44.35369" lon="3.86213">
        <ele>1311</ele>
        <time>1970-01-01T00:36:24.000Z</time>
      </trkpt>
      <trkpt lat="44.35376" lon="3.86221">
        <ele>1312</ele>
        <time>1970-01-01T00:36:25.000Z</time>
      </trkpt>
      <trkpt lat="44.35382" lon="3.86229">
        <ele>1312</ele>
        <time>1970-01-01T00:36:26.000Z</time>
      </trkpt>
      <trkpt lat="44.35389" lon="3.86237">
        <ele>1312</ele>
        <time>1970-01-01T00:36:27.000Z</time>
      </trkpt>
      <trkpt lat="44.35396" lon="3.86245">
        <ele>1312</ele>
        <time>1970-01-01T00:36:28.000Z</time>
      </trkpt>
      <trkpt lat="44.35401" lon="3.8625">
        <ele>1312</ele>
        <time>1970-01-01T00:36:29.000Z</time>
      </trkpt>
      <trkpt lat="44.35408" lon="3.86257">
        <ele>1313</ele>
        <time>1970-01-01T00:36:30.000Z</time>
      </trkpt>
      <trkpt lat="44.35415" lon="3.86265">
        <ele>1313</ele>
        <time>1970-01-01T00:36:31.000Z</time>
      </trkpt>
      <trkpt lat="44.35423" lon="3.86272">
        <ele>1314</ele>
        <time>1970-01-01T00:36:32.000Z</time>
      </trkpt>
      <trkpt lat="44.35423" lon="3.86272">
        <ele>1314</ele>
        <time>1970-01-01T00:36:33.000Z</time>
      </trkpt>
      <trkpt lat="44.3543" lon="3.86279">
        <ele>1315</ele>
        <time>1970-01-01T00:36:34.000Z</time>
      </trkpt>
      <trkpt lat="44.35433" lon="3.86282">
        <ele>1315</ele>
        <time>1970-01-01T00:36:35.000Z</time>
      </trkpt>
      <trkpt lat="44.35439" lon="3.86291">
        <ele>1316</ele>
        <time>1970-01-01T00:36:36.000Z</time>
      </trkpt>
      <trkpt lat="44.35445" lon="3.86301">
        <ele>1316</ele>
        <time>1970-01-01T00:36:37.000Z</time>
      </trkpt>
      <trkpt lat="44.35445" lon="3.86301">
        <ele>1316</ele>
        <time>1970-01-01T00:36:38.000Z</time>
      </trkpt>
      <trkpt lat="44.35451" lon="3.8631">
        <ele>1316</ele>
        <time>1970-01-01T00:36:39.000Z</time>
      </trkpt>
      <trkpt lat="44.35457" lon="3.8632">
        <ele>1316</ele>
        <time>1970-01-01T00:36:40.000Z</time>
      </trkpt>
      <trkpt lat="44.35457" lon="3.8632">
        <ele>1316</ele>
        <time>1970-01-01T00:36:41.000Z</time>
      </trkpt>
      <trkpt lat="44.35463" lon="3.86329">
        <ele>1316</ele>
        <time>1970-01-01T00:36:42.000Z</time>
      </trkpt>
      <trkpt lat="44.35469" lon="3.86339">
        <ele>1316</ele>
        <time>1970-01-01T00:36:43.000Z</time>
      </trkpt>
      <trkpt lat="44.35469" lon="3.86339">
        <ele>1316</ele>
        <time>1970-01-01T00:36:44.000Z</time>
      </trkpt>
      <trkpt lat="44.35474" lon="3.86348">
        <ele>1316</ele>
        <time>1970-01-01T00:36:45.000Z</time>
      </trkpt>
      <trkpt lat="44.3548" lon="3.86357">
        <ele>1316</ele>
        <time>1970-01-01T00:36:46.000Z</time>
      </trkpt>
      <trkpt lat="44.35486" lon="3.86367">
        <ele>1316</ele>
        <time>1970-01-01T00:36:47.000Z</time>
      </trkpt>
      <trkpt lat="44.35486" lon="3.86367">
        <ele>1316</ele>
        <time>1970-01-01T00:36:48.000Z</time>
      </trkpt>
      <trkpt lat="44.3549" lon="3.86374">
        <ele>1316</ele>
        <time>1970-01-01T00:36:49.000Z</time>
      </trkpt>
      <trkpt lat="44.35497" lon="3.86382">
        <ele>1316</ele>
        <time>1970-01-01T00:36:50.000Z</time>
      </trkpt>
      <trkpt lat="44.35504" lon="3.8639">
        <ele>1317</ele>
        <time>1970-01-01T00:36:51.000Z</time>
      </trkpt>
      <trkpt lat="44.35504" lon="3.8639">
        <ele>1317</ele>
        <time>1970-01-01T00:36:52.000Z</time>
      </trkpt>
      <trkpt lat="44.35511" lon="3.86399">
        <ele>1317</ele>
        <time>1970-01-01T00:36:53.000Z</time>
      </trkpt>
      <trkpt lat="44.35511" lon="3.86399">
        <ele>1317</ele>
        <time>1970-01-01T00:36:54.000Z</time>
      </trkpt>
      <trkpt lat="44.35518" lon="3.86407">
        <ele>1317</ele>
        <time>1970-01-01T00:36:55.000Z</time>
      </trkpt>
      <trkpt lat="44.35524" lon="3.86415">
        <ele>1317</ele>
        <time>1970-01-01T00:36:56.000Z</time>
      </trkpt>
      <trkpt lat="44.3553" lon="3.86424">
        <ele>1317</ele>
        <time>1970-01-01T00:36:57.000Z</time>
      </trkpt>
      <trkpt lat="44.35531" lon="3.86424">
        <ele>1317</ele>
        <time>1970-01-01T00:36:58.000Z</time>
      </trkpt>
      <trkpt lat="44.35537" lon="3.86432">
        <ele>1317</ele>
        <time>1970-01-01T00:36:59.000Z</time>
      </trkpt>
      <trkpt lat="44.35541" lon="3.86437">
        <ele>1317</ele>
        <time>1970-01-01T00:37:00.000Z</time>
      </trkpt>
      <trkpt lat="44.35542" lon="3.86449">
        <ele>1317</ele>
        <time>1970-01-01T00:37:01.000Z</time>
      </trkpt>
      <trkpt lat="44.35543" lon="3.86461">
        <ele>1318</ele>
        <time>1970-01-01T00:37:02.000Z</time>
      </trkpt>
      <trkpt lat="44.35545" lon="3.86473">
        <ele>1318</ele>
        <time>1970-01-01T00:37:03.000Z</time>
      </trkpt>
      <trkpt lat="44.35545" lon="3.86474">
        <ele>1318</ele>
        <time>1970-01-01T00:37:04.000Z</time>
      </trkpt>
      <trkpt lat="44.35546" lon="3.86486">
        <ele>1318</ele>
        <time>1970-01-01T00:37:05.000Z</time>
      </trkpt>
      <trkpt lat="44.35546" lon="3.86491">
        <ele>1318</ele>
        <time>1970-01-01T00:37:06.000Z</time>
      </trkpt>
      <trkpt lat="44.35546" lon="3.86504">
        <ele>1321</ele>
        <time>1970-01-01T00:37:07.000Z</time>
      </trkpt>
      <trkpt lat="44.35546" lon="3.86504">
        <ele>1321</ele>
        <time>1970-01-01T00:37:08.000Z</time>
      </trkpt>
      <trkpt lat="44.35547" lon="3.86516">
        <ele>1321</ele>
        <time>1970-01-01T00:37:09.000Z</time>
      </trkpt>
      <trkpt lat="44.35547" lon="3.86529">
        <ele>1322</ele>
        <time>1970-01-01T00:37:10.000Z</time>
      </trkpt>
      <trkpt lat="44.35547" lon="3.86529">
        <ele>1322</ele>
        <time>1970-01-01T00:37:11.000Z</time>
      </trkpt>
      <trkpt lat="44.35547" lon="3.86541">
        <ele>1322</ele>
        <time>1970-01-01T00:37:12.000Z</time>
      </trkpt>
      <trkpt lat="44.35548" lon="3.86553">
        <ele>1323</ele>
        <time>1970-01-01T00:37:13.000Z</time>
      </trkpt>
      <trkpt lat="44.35548" lon="3.86554">
        <ele>1323</ele>
        <time>1970-01-01T00:37:14.000Z</time>
      </trkpt>
      <trkpt lat="44.35548" lon="3.86566">
        <ele>1324</ele>
        <time>1970-01-01T00:37:15.000Z</time>
      </trkpt>
      <trkpt lat="44.35548" lon="3.86579">
        <ele>1324</ele>
        <time>1970-01-01T00:37:16.000Z</time>
      </trkpt>
      <trkpt lat="44.35548" lon="3.86579">
        <ele>1324</ele>
        <time>1970-01-01T00:37:17.000Z</time>
      </trkpt>
      <trkpt lat="44.35548" lon="3.86591">
        <ele>1331</ele>
        <time>1970-01-01T00:37:18.000Z</time>
      </trkpt>
      <trkpt lat="44.35549" lon="3.86603">
        <ele>1332</ele>
        <time>1970-01-01T00:37:19.000Z</time>
      </trkpt>
      <trkpt lat="44.35549" lon="3.86604">
        <ele>1332</ele>
        <time>1970-01-01T00:37:20.000Z</time>
      </trkpt>
      <trkpt lat="44.35549" lon="3.86616">
        <ele>1333</ele>
        <time>1970-01-01T00:37:21.000Z</time>
      </trkpt>
      <trkpt lat="44.3555" lon="3.86629">
        <ele>1334</ele>
        <time>1970-01-01T00:37:22.000Z</time>
      </trkpt>
      <trkpt lat="44.3555" lon="3.86629">
        <ele>1335</ele>
        <time>1970-01-01T00:37:23.000Z</time>
      </trkpt>
      <trkpt lat="44.3555" lon="3.8664">
        <ele>1336</ele>
        <time>1970-01-01T00:37:24.000Z</time>
      </trkpt>
      <trkpt lat="44.35558" lon="3.86636">
        <ele>1336</ele>
        <time>1970-01-01T00:37:25.000Z</time>
      </trkpt>
      <trkpt lat="44.35566" lon="3.86631">
        <ele>1336</ele>
        <time>1970-01-01T00:37:26.000Z</time>
      </trkpt>
      <trkpt lat="44.35567" lon="3.86631">
        <ele>1336</ele>
        <time>1970-01-01T00:37:27.000Z</time>
      </trkpt>
      <trkpt lat="44.35575" lon="3.86626">
        <ele>1335</ele>
        <time>1970-01-01T00:37:28.000Z</time>
      </trkpt>
      <trkpt lat="44.35583" lon="3.86622">
        <ele>1335</ele>
        <time>1970-01-01T00:37:29.000Z</time>
      </trkpt>
      <trkpt lat="44.35592" lon="3.86617">
        <ele>1339</ele>
        <time>1970-01-01T00:37:30.000Z</time>
      </trkpt>
      <trkpt lat="44.35592" lon="3.86617">
        <ele>1339</ele>
        <time>1970-01-01T00:37:31.000Z</time>
      </trkpt>
      <trkpt lat="44.356" lon="3.86613">
        <ele>1339</ele>
        <time>1970-01-01T00:37:32.000Z</time>
      </trkpt>
      <trkpt lat="44.35603" lon="3.86611">
        <ele>1339</ele>
        <time>1970-01-01T00:37:33.000Z</time>
      </trkpt>
      <trkpt lat="44.35611" lon="3.86606">
        <ele>1339</ele>
        <time>1970-01-01T00:37:34.000Z</time>
      </trkpt>
      <trkpt lat="44.35619" lon="3.866">
        <ele>1339</ele>
        <time>1970-01-01T00:37:35.000Z</time>
      </trkpt>
      <trkpt lat="44.35619" lon="3.866">
        <ele>1339</ele>
        <time>1970-01-01T00:37:36.000Z</time>
      </trkpt>
      <trkpt lat="44.35627" lon="3.86595">
        <ele>1339</ele>
        <time>1970-01-01T00:37:37.000Z</time>
      </trkpt>
      <trkpt lat="44.3563" lon="3.86593">
        <ele>1340</ele>
        <time>1970-01-01T00:37:38.000Z</time>
      </trkpt>
      <trkpt lat="44.35638" lon="3.86587">
        <ele>1339</ele>
        <time>1970-01-01T00:37:39.000Z</time>
      </trkpt>
      <trkpt lat="44.35638" lon="3.86587">
        <ele>1339</ele>
        <time>1970-01-01T00:37:40.000Z</time>
      </trkpt>
      <trkpt lat="44.35646" lon="3.86581">
        <ele>1332</ele>
        <time>1970-01-01T00:37:41.000Z</time>
      </trkpt>
      <trkpt lat="44.35646" lon="3.86581">
        <ele>1332</ele>
        <time>1970-01-01T00:37:42.000Z</time>
      </trkpt>
      <trkpt lat="44.35654" lon="3.86576">
        <ele>1333</ele>
        <time>1970-01-01T00:37:43.000Z</time>
      </trkpt>
      <trkpt lat="44.3566" lon="3.86572">
        <ele>1333</ele>
        <time>1970-01-01T00:37:44.000Z</time>
      </trkpt>
      <trkpt lat="44.35669" lon="3.86569">
        <ele>1334</ele>
        <time>1970-01-01T00:37:45.000Z</time>
      </trkpt>
      <trkpt lat="44.35669" lon="3.86569">
        <ele>1334</ele>
        <time>1970-01-01T00:37:46.000Z</time>
      </trkpt>
      <trkpt lat="44.35677" lon="3.86567">
        <ele>1333</ele>
        <time>1970-01-01T00:37:47.000Z</time>
      </trkpt>
      <trkpt lat="44.35686" lon="3.86564">
        <ele>1333</ele>
        <time>1970-01-01T00:37:48.000Z</time>
      </trkpt>
      <trkpt lat="44.35686" lon="3.86564">
        <ele>1333</ele>
        <time>1970-01-01T00:37:49.000Z</time>
      </trkpt>
      <trkpt lat="44.35695" lon="3.86562">
        <ele>1332</ele>
        <time>1970-01-01T00:37:50.000Z</time>
      </trkpt>
      <trkpt lat="44.35704" lon="3.86559">
        <ele>1332</ele>
        <time>1970-01-01T00:37:51.000Z</time>
      </trkpt>
      <trkpt lat="44.35704" lon="3.86559">
        <ele>1332</ele>
        <time>1970-01-01T00:37:52.000Z</time>
      </trkpt>
      <trkpt lat="44.35712" lon="3.86557">
        <ele>1332</ele>
        <time>1970-01-01T00:37:53.000Z</time>
      </trkpt>
      <trkpt lat="44.35721" lon="3.86554">
        <ele>1332</ele>
        <time>1970-01-01T00:37:54.000Z</time>
      </trkpt>
      <trkpt lat="44.35721" lon="3.86554">
        <ele>1332</ele>
        <time>1970-01-01T00:37:55.000Z</time>
      </trkpt>
      <trkpt lat="44.3573" lon="3.86552">
        <ele>1332</ele>
        <time>1970-01-01T00:37:56.000Z</time>
      </trkpt>
      <trkpt lat="44.3573" lon="3.86552">
        <ele>1332</ele>
        <time>1970-01-01T00:37:57.000Z</time>
      </trkpt>
      <trkpt lat="44.35739" lon="3.86549">
        <ele>1332</ele>
        <time>1970-01-01T00:37:58.000Z</time>
      </trkpt>
      <trkpt lat="44.35739" lon="3.86549">
        <ele>1332</ele>
        <time>1970-01-01T00:37:59.000Z</time>
      </trkpt>
      <trkpt lat="44.35742" lon="3.86548">
        <ele>1332</ele>
        <time>1970-01-01T00:38:00.000Z</time>
      </trkpt>
      <trkpt lat="44.35751" lon="3.86544">
        <ele>1332</ele>
        <time>1970-01-01T00:38:01.000Z</time>
      </trkpt>
      <trkpt lat="44.35751" lon="3.86544">
        <ele>1332</ele>
        <time>1970-01-01T00:38:02.000Z</time>
      </trkpt>
      <trkpt lat="44.35759" lon="3.8654">
        <ele>1332</ele>
        <time>1970-01-01T00:38:03.000Z</time>
      </trkpt>
      <trkpt lat="44.35767" lon="3.86535">
        <ele>1331</ele>
        <time>1970-01-01T00:38:04.000Z</time>
      </trkpt>
      <trkpt lat="44.35775" lon="3.86531">
        <ele>1331</ele>
        <time>1970-01-01T00:38:05.000Z</time>
      </trkpt>
      <trkpt lat="44.35776" lon="3.86531">
        <ele>1331</ele>
        <time>1970-01-01T00:38:06.000Z</time>
      </trkpt>
      <trkpt lat="44.35784" lon="3.86527">
        <ele>1331</ele>
        <time>1970-01-01T00:38:07.000Z</time>
      </trkpt>
      <trkpt lat="44.35784" lon="3.86527">
        <ele>1331</ele>
        <time>1970-01-01T00:38:08.000Z</time>
      </trkpt>
      <trkpt lat="44.35793" lon="3.86523">
        <ele>1331</ele>
        <time>1970-01-01T00:38:09.000Z</time>
      </trkpt>
      <trkpt lat="44.35793" lon="3.86523">
        <ele>1331</ele>
        <time>1970-01-01T00:38:10.000Z</time>
      </trkpt>
      <trkpt lat="44.35801" lon="3.86519">
        <ele>1331</ele>
        <time>1970-01-01T00:38:11.000Z</time>
      </trkpt>
      <trkpt lat="44.3581" lon="3.86516">
        <ele>1331</ele>
        <time>1970-01-01T00:38:12.000Z</time>
      </trkpt>
      <trkpt lat="44.3581" lon="3.86516">
        <ele>1331</ele>
        <time>1970-01-01T00:38:13.000Z</time>
      </trkpt>
      <trkpt lat="44.35818" lon="3.86512">
        <ele>1330</ele>
        <time>1970-01-01T00:38:14.000Z</time>
      </trkpt>
      <trkpt lat="44.35826" lon="3.86508">
        <ele>1329</ele>
        <time>1970-01-01T00:38:15.000Z</time>
      </trkpt>
      <trkpt lat="44.35827" lon="3.86508">
        <ele>1329</ele>
        <time>1970-01-01T00:38:16.000Z</time>
      </trkpt>
      <trkpt lat="44.35836" lon="3.86505">
        <ele>1329</ele>
        <time>1970-01-01T00:38:17.000Z</time>
      </trkpt>
      <trkpt lat="44.35836" lon="3.86505">
        <ele>1329</ele>
        <time>1970-01-01T00:38:18.000Z</time>
      </trkpt>
      <trkpt lat="44.35844" lon="3.86501">
        <ele>1330</ele>
        <time>1970-01-01T00:38:19.000Z</time>
      </trkpt>
      <trkpt lat="44.35852" lon="3.86497">
        <ele>1327</ele>
        <time>1970-01-01T00:38:20.000Z</time>
      </trkpt>
      <trkpt lat="44.35853" lon="3.86497">
        <ele>1327</ele>
        <time>1970-01-01T00:38:21.000Z</time>
      </trkpt>
      <trkpt lat="44.35859" lon="3.86488">
        <ele>1327</ele>
        <time>1970-01-01T00:38:22.000Z</time>
      </trkpt>
      <trkpt lat="44.35865" lon="3.86479">
        <ele>1327</ele>
        <time>1970-01-01T00:38:23.000Z</time>
      </trkpt>
      <trkpt lat="44.35872" lon="3.8647">
        <ele>1326</ele>
        <time>1970-01-01T00:38:24.000Z</time>
      </trkpt>
      <trkpt lat="44.35872" lon="3.8647">
        <ele>1326</ele>
        <time>1970-01-01T00:38:25.000Z</time>
      </trkpt>
      <trkpt lat="44.35878" lon="3.86461">
        <ele>1326</ele>
        <time>1970-01-01T00:38:26.000Z</time>
      </trkpt>
      <trkpt lat="44.35884" lon="3.86452">
        <ele>1326</ele>
        <time>1970-01-01T00:38:27.000Z</time>
      </trkpt>
      <trkpt lat="44.3589" lon="3.86443">
        <ele>1326</ele>
        <time>1970-01-01T00:38:28.000Z</time>
      </trkpt>
      <trkpt lat="44.35896" lon="3.86434">
        <ele>1325</ele>
        <time>1970-01-01T00:38:29.000Z</time>
      </trkpt>
      <trkpt lat="44.35899" lon="3.86429">
        <ele>1325</ele>
        <time>1970-01-01T00:38:30.000Z</time>
      </trkpt>
      <trkpt lat="44.35907" lon="3.86433">
        <ele>1325</ele>
        <time>1970-01-01T00:38:31.000Z</time>
      </trkpt>
      <trkpt lat="44.35908" lon="3.86433">
        <ele>1325</ele>
        <time>1970-01-01T00:38:32.000Z</time>
      </trkpt>
      <trkpt lat="44.35917" lon="3.86436">
        <ele>1326</ele>
        <time>1970-01-01T00:38:33.000Z</time>
      </trkpt>
      <trkpt lat="44.35917" lon="3.86436">
        <ele>1326</ele>
        <time>1970-01-01T00:38:34.000Z</time>
      </trkpt>
      <trkpt lat="44.35925" lon="3.8644">
        <ele>1326</ele>
        <time>1970-01-01T00:38:35.000Z</time>
      </trkpt>
      <trkpt lat="44.35934" lon="3.86443">
        <ele>1327</ele>
        <time>1970-01-01T00:38:36.000Z</time>
      </trkpt>
      <trkpt lat="44.35934" lon="3.86443">
        <ele>1327</ele>
        <time>1970-01-01T00:38:37.000Z</time>
      </trkpt>
      <trkpt lat="44.35942" lon="3.86447">
        <ele>1327</ele>
        <time>1970-01-01T00:38:38.000Z</time>
      </trkpt>
      <trkpt lat="44.35951" lon="3.8645">
        <ele>1327</ele>
        <time>1970-01-01T00:38:39.000Z</time>
      </trkpt>
      <trkpt lat="44.35951" lon="3.8645">
        <ele>1327</ele>
        <time>1970-01-01T00:38:40.000Z</time>
      </trkpt>
      <trkpt lat="44.35959" lon="3.86454">
        <ele>1327</ele>
        <time>1970-01-01T00:38:41.000Z</time>
      </trkpt>
      <trkpt lat="44.3596" lon="3.86454">
        <ele>1327</ele>
        <time>1970-01-01T00:38:42.000Z</time>
      </trkpt>
      <trkpt lat="44.35967" lon="3.86457">
        <ele>1328</ele>
        <time>1970-01-01T00:38:43.000Z</time>
      </trkpt>
      <trkpt lat="44.35976" lon="3.8646">
        <ele>1328</ele>
        <time>1970-01-01T00:38:44.000Z</time>
      </trkpt>
      <trkpt lat="44.35976" lon="3.8646">
        <ele>1328</ele>
        <time>1970-01-01T00:38:45.000Z</time>
      </trkpt>
      <trkpt lat="44.35984" lon="3.86463">
        <ele>1328</ele>
        <time>1970-01-01T00:38:46.000Z</time>
      </trkpt>
      <trkpt lat="44.35992" lon="3.86467">
        <ele>1328</ele>
        <time>1970-01-01T00:38:47.000Z</time>
      </trkpt>
      <trkpt lat="44.35993" lon="3.86467">
        <ele>1328</ele>
        <time>1970-01-01T00:38:48.000Z</time>
      </trkpt>
      <trkpt lat="44.36002" lon="3.8647">
        <ele>1329</ele>
        <time>1970-01-01T00:38:49.000Z</time>
      </trkpt>
      <trkpt lat="44.36002" lon="3.8647">
        <ele>1329</ele>
        <time>1970-01-01T00:38:50.000Z</time>
      </trkpt>
      <trkpt lat="44.3601" lon="3.86474">
        <ele>1329</ele>
        <time>1970-01-01T00:38:51.000Z</time>
      </trkpt>
      <trkpt lat="44.36019" lon="3.86477">
        <ele>1329</ele>
        <time>1970-01-01T00:38:52.000Z</time>
      </trkpt>
      <trkpt lat="44.36019" lon="3.86477">
        <ele>1329</ele>
        <time>1970-01-01T00:38:53.000Z</time>
      </trkpt>
      <trkpt lat="44.36028" lon="3.86481">
        <ele>1329</ele>
        <time>1970-01-01T00:38:54.000Z</time>
      </trkpt>
      <trkpt lat="44.36028" lon="3.86481">
        <ele>1329</ele>
        <time>1970-01-01T00:38:55.000Z</time>
      </trkpt>
      <trkpt lat="44.36036" lon="3.86484">
        <ele>1329</ele>
        <time>1970-01-01T00:38:56.000Z</time>
      </trkpt>
      <trkpt lat="44.36044" lon="3.86488">
        <ele>1329</ele>
        <time>1970-01-01T00:38:57.000Z</time>
      </trkpt>
      <trkpt lat="44.36045" lon="3.86488">
        <ele>1329</ele>
        <time>1970-01-01T00:38:58.000Z</time>
      </trkpt>
      <trkpt lat="44.36053" lon="3.86491">
        <ele>1329</ele>
        <time>1970-01-01T00:38:59.000Z</time>
      </trkpt>
      <trkpt lat="44.36062" lon="3.86494">
        <ele>1330</ele>
        <time>1970-01-01T00:39:00.000Z</time>
      </trkpt>
      <trkpt lat="44.36062" lon="3.86494">
        <ele>1330</ele>
        <time>1970-01-01T00:39:01.000Z</time>
      </trkpt>
      <trkpt lat="44.36066" lon="3.86496">
        <ele>1330</ele>
        <time>1970-01-01T00:39:02.000Z</time>
      </trkpt>
      <trkpt lat="44.36074" lon="3.865">
        <ele>1330</ele>
        <time>1970-01-01T00:39:03.000Z</time>
      </trkpt>
      <trkpt lat="44.36075" lon="3.865">
        <ele>1334</ele>
        <time>1970-01-01T00:39:04.000Z</time>
      </trkpt>
      <trkpt lat="44.36081" lon="3.86502">
        <ele>1332</ele>
        <time>1970-01-01T00:39:05.000Z</time>
      </trkpt>
      <trkpt lat="44.3609" lon="3.86503">
        <ele>1334</ele>
        <time>1970-01-01T00:39:06.000Z</time>
      </trkpt>
      <trkpt lat="44.3609" lon="3.86503">
        <ele>1334</ele>
        <time>1970-01-01T00:39:07.000Z</time>
      </trkpt>
      <trkpt lat="44.36099" lon="3.86503">
        <ele>1336</ele>
        <time>1970-01-01T00:39:08.000Z</time>
      </trkpt>
      <trkpt lat="44.36108" lon="3.86504">
        <ele>1337</ele>
        <time>1970-01-01T00:39:09.000Z</time>
      </trkpt>
      <trkpt lat="44.36108" lon="3.86504">
        <ele>1337</ele>
        <time>1970-01-01T00:39:10.000Z</time>
      </trkpt>
      <trkpt lat="44.36117" lon="3.86505">
        <ele>1338</ele>
        <time>1970-01-01T00:39:11.000Z</time>
      </trkpt>
      <trkpt lat="44.36117" lon="3.86505">
        <ele>1338</ele>
        <time>1970-01-01T00:39:12.000Z</time>
      </trkpt>
      <trkpt lat="44.36126" lon="3.86506">
        <ele>1338</ele>
        <time>1970-01-01T00:39:13.000Z</time>
      </trkpt>
      <trkpt lat="44.36135" lon="3.86507">
        <ele>1338</ele>
        <time>1970-01-01T00:39:14.000Z</time>
      </trkpt>
      <trkpt lat="44.36135" lon="3.86507">
        <ele>1338</ele>
        <time>1970-01-01T00:39:15.000Z</time>
      </trkpt>
      <trkpt lat="44.36143" lon="3.86507">
        <ele>1337</ele>
        <time>1970-01-01T00:39:16.000Z</time>
      </trkpt>
      <trkpt lat="44.36152" lon="3.86508">
        <ele>1337</ele>
        <time>1970-01-01T00:39:17.000Z</time>
      </trkpt>
      <trkpt lat="44.36153" lon="3.86508">
        <ele>1336</ele>
        <time>1970-01-01T00:39:18.000Z</time>
      </trkpt>
      <trkpt lat="44.36161" lon="3.86509">
        <ele>1336</ele>
        <time>1970-01-01T00:39:19.000Z</time>
      </trkpt>
      <trkpt lat="44.3617" lon="3.8651">
        <ele>1334</ele>
        <time>1970-01-01T00:39:20.000Z</time>
      </trkpt>
      <trkpt lat="44.36171" lon="3.8651">
        <ele>1334</ele>
        <time>1970-01-01T00:39:21.000Z</time>
      </trkpt>
      <trkpt lat="44.36176" lon="3.8651">
        <ele>1335</ele>
        <time>1970-01-01T00:39:22.000Z</time>
      </trkpt>
      <trkpt lat="44.36184" lon="3.86515">
        <ele>1335</ele>
        <time>1970-01-01T00:39:23.000Z</time>
      </trkpt>
      <trkpt lat="44.36192" lon="3.8652">
        <ele>1336</ele>
        <time>1970-01-01T00:39:24.000Z</time>
      </trkpt>
      <trkpt lat="44.36193" lon="3.8652">
        <ele>1336</ele>
        <time>1970-01-01T00:39:25.000Z</time>
      </trkpt>
      <trkpt lat="44.36201" lon="3.86524">
        <ele>1336</ele>
        <time>1970-01-01T00:39:26.000Z</time>
      </trkpt>
      <trkpt lat="44.36209" lon="3.86529">
        <ele>1336</ele>
        <time>1970-01-01T00:39:27.000Z</time>
      </trkpt>
      <trkpt lat="44.36217" lon="3.86533">
        <ele>1336</ele>
        <time>1970-01-01T00:39:28.000Z</time>
      </trkpt>
      <trkpt lat="44.36218" lon="3.86533">
        <ele>1336</ele>
        <time>1970-01-01T00:39:29.000Z</time>
      </trkpt>
      <trkpt lat="44.36226" lon="3.86538">
        <ele>1336</ele>
        <time>1970-01-01T00:39:30.000Z</time>
      </trkpt>
      <trkpt lat="44.36234" lon="3.86543">
        <ele>1336</ele>
        <time>1970-01-01T00:39:31.000Z</time>
      </trkpt>
      <trkpt lat="44.36235" lon="3.86543">
        <ele>1336</ele>
        <time>1970-01-01T00:39:32.000Z</time>
      </trkpt>
      <trkpt lat="44.36243" lon="3.86547">
        <ele>1336</ele>
        <time>1970-01-01T00:39:33.000Z</time>
      </trkpt>
      <trkpt lat="44.36251" lon="3.86552">
        <ele>1335</ele>
        <time>1970-01-01T00:39:34.000Z</time>
      </trkpt>
      <trkpt lat="44.36259" lon="3.86556">
        <ele>1335</ele>
        <time>1970-01-01T00:39:35.000Z</time>
      </trkpt>
      <trkpt lat="44.36267" lon="3.86561">
        <ele>1335</ele>
        <time>1970-01-01T00:39:36.000Z</time>
      </trkpt>
      <trkpt lat="44.36275" lon="3.86567">
        <ele>1335</ele>
        <time>1970-01-01T00:39:37.000Z</time>
      </trkpt>
      <trkpt lat="44.36276" lon="3.86567">
        <ele>1335</ele>
        <time>1970-01-01T00:39:38.000Z</time>
      </trkpt>
      <trkpt lat="44.36284" lon="3.86572">
        <ele>1335</ele>
        <time>1970-01-01T00:39:39.000Z</time>
      </trkpt>
      <trkpt lat="44.36292" lon="3.86577">
        <ele>1336</ele>
        <time>1970-01-01T00:39:40.000Z</time>
      </trkpt>
      <trkpt lat="44.363" lon="3.86582">
        <ele>1336</ele>
        <time>1970-01-01T00:39:41.000Z</time>
      </trkpt>
      <trkpt lat="44.36308" lon="3.86588">
        <ele>1342</ele>
        <time>1970-01-01T00:39:42.000Z</time>
      </trkpt>
      <trkpt lat="44.36308" lon="3.86588">
        <ele>1342</ele>
        <time>1970-01-01T00:39:43.000Z</time>
      </trkpt>
      <trkpt lat="44.3631" lon="3.86588">
        <ele>1342</ele>
        <time>1970-01-01T00:39:44.000Z</time>
      </trkpt>
      <trkpt lat="44.36318" lon="3.86593">
        <ele>1342</ele>
        <time>1970-01-01T00:39:45.000Z</time>
      </trkpt>
      <trkpt lat="44.36326" lon="3.86598">
        <ele>1341</ele>
        <time>1970-01-01T00:39:46.000Z</time>
      </trkpt>
      <trkpt lat="44.36334" lon="3.86603">
        <ele>1342</ele>
        <time>1970-01-01T00:39:47.000Z</time>
      </trkpt>
      <trkpt lat="44.36335" lon="3.86603">
        <ele>1342</ele>
        <time>1970-01-01T00:39:48.000Z</time>
      </trkpt>
      <trkpt lat="44.36343" lon="3.86608">
        <ele>1343</ele>
        <time>1970-01-01T00:39:49.000Z</time>
      </trkpt>
      <trkpt lat="44.36351" lon="3.86613">
        <ele>1344</ele>
        <time>1970-01-01T00:39:50.000Z</time>
      </trkpt>
      <trkpt lat="44.36359" lon="3.86618">
        <ele>1345</ele>
        <time>1970-01-01T00:39:51.000Z</time>
      </trkpt>
      <trkpt lat="44.36367" lon="3.86623">
        <ele>1346</ele>
        <time>1970-01-01T00:39:52.000Z</time>
      </trkpt>
      <trkpt lat="44.36375" lon="3.86628">
        <ele>1346</ele>
        <time>1970-01-01T00:39:53.000Z</time>
      </trkpt>
      <trkpt lat="44.36376" lon="3.86628">
        <ele>1346</ele>
        <time>1970-01-01T00:39:54.000Z</time>
      </trkpt>
      <trkpt lat="44.36384" lon="3.86633">
        <ele>1347</ele>
        <time>1970-01-01T00:39:55.000Z</time>
      </trkpt>
      <trkpt lat="44.36392" lon="3.86638">
        <ele>1347</ele>
        <time>1970-01-01T00:39:56.000Z</time>
      </trkpt>
      <trkpt lat="44.364" lon="3.86643">
        <ele>1348</ele>
        <time>1970-01-01T00:39:57.000Z</time>
      </trkpt>
      <trkpt lat="44.36401" lon="3.86643">
        <ele>1348</ele>
        <time>1970-01-01T00:39:58.000Z</time>
      </trkpt>
      <trkpt lat="44.36409" lon="3.86648">
        <ele>1348</ele>
        <time>1970-01-01T00:39:59.000Z</time>
      </trkpt>
      <trkpt lat="44.36417" lon="3.86653">
        <ele>1349</ele>
        <time>1970-01-01T00:40:00.000Z</time>
      </trkpt>
      <trkpt lat="44.36425" lon="3.86658">
        <ele>1350</ele>
        <time>1970-01-01T00:40:01.000Z</time>
      </trkpt>
      <trkpt lat="44.36433" lon="3.86662">
        <ele>1349</ele>
        <time>1970-01-01T00:40:02.000Z</time>
      </trkpt>
      <trkpt lat="44.36434" lon="3.86662">
        <ele>1349</ele>
        <time>1970-01-01T00:40:03.000Z</time>
      </trkpt>
      <trkpt lat="44.36436" lon="3.86664">
        <ele>1349</ele>
        <time>1970-01-01T00:40:04.000Z</time>
      </trkpt>
      <trkpt lat="44.36445" lon="3.86664">
        <ele>1349</ele>
        <time>1970-01-01T00:40:05.000Z</time>
      </trkpt>
      <trkpt lat="44.36454" lon="3.86664">
        <ele>1349</ele>
        <time>1970-01-01T00:40:06.000Z</time>
      </trkpt>
      <trkpt lat="44.36454" lon="3.86664">
        <ele>1349</ele>
        <time>1970-01-01T00:40:07.000Z</time>
      </trkpt>
      <trkpt lat="44.36463" lon="3.86664">
        <ele>1349</ele>
        <time>1970-01-01T00:40:08.000Z</time>
      </trkpt>
      <trkpt lat="44.36463" lon="3.86664">
        <ele>1349</ele>
        <time>1970-01-01T00:40:09.000Z</time>
      </trkpt>
      <trkpt lat="44.36472" lon="3.86664">
        <ele>1349</ele>
        <time>1970-01-01T00:40:10.000Z</time>
      </trkpt>
      <trkpt lat="44.36481" lon="3.86665">
        <ele>1349</ele>
        <time>1970-01-01T00:40:11.000Z</time>
      </trkpt>
      <trkpt lat="44.36481" lon="3.86665">
        <ele>1349</ele>
        <time>1970-01-01T00:40:12.000Z</time>
      </trkpt>
      <trkpt lat="44.3649" lon="3.86665">
        <ele>1349</ele>
        <time>1970-01-01T00:40:13.000Z</time>
      </trkpt>
      <trkpt lat="44.36499" lon="3.86665">
        <ele>1350</ele>
        <time>1970-01-01T00:40:14.000Z</time>
      </trkpt>
      <trkpt lat="44.36499" lon="3.86665">
        <ele>1350</ele>
        <time>1970-01-01T00:40:15.000Z</time>
      </trkpt>
      <trkpt lat="44.36508" lon="3.86665">
        <ele>1350</ele>
        <time>1970-01-01T00:40:16.000Z</time>
      </trkpt>
      <trkpt lat="44.36508" lon="3.86665">
        <ele>1350</ele>
        <time>1970-01-01T00:40:17.000Z</time>
      </trkpt>
      <trkpt lat="44.36517" lon="3.86665">
        <ele>1351</ele>
        <time>1970-01-01T00:40:18.000Z</time>
      </trkpt>
      <trkpt lat="44.36526" lon="3.86665">
        <ele>1351</ele>
        <time>1970-01-01T00:40:19.000Z</time>
      </trkpt>
      <trkpt lat="44.36526" lon="3.86665">
        <ele>1351</ele>
        <time>1970-01-01T00:40:20.000Z</time>
      </trkpt>
      <trkpt lat="44.36535" lon="3.86666">
        <ele>1351</ele>
        <time>1970-01-01T00:40:21.000Z</time>
      </trkpt>
      <trkpt lat="44.36544" lon="3.86666">
        <ele>1352</ele>
        <time>1970-01-01T00:40:22.000Z</time>
      </trkpt>
      <trkpt lat="44.36544" lon="3.86666">
        <ele>1352</ele>
        <time>1970-01-01T00:40:23.000Z</time>
      </trkpt>
      <trkpt lat="44.36549" lon="3.86666">
        <ele>1352</ele>
        <time>1970-01-01T00:40:24.000Z</time>
      </trkpt>
      <trkpt lat="44.36558" lon="3.86667">
        <ele>1358</ele>
        <time>1970-01-01T00:40:25.000Z</time>
      </trkpt>
      <trkpt lat="44.36559" lon="3.86667">
        <ele>1358</ele>
        <time>1970-01-01T00:40:26.000Z</time>
      </trkpt>
      <trkpt lat="44.36567" lon="3.86669">
        <ele>1357</ele>
        <time>1970-01-01T00:40:27.000Z</time>
      </trkpt>
      <trkpt lat="44.36576" lon="3.86671">
        <ele>1356</ele>
        <time>1970-01-01T00:40:28.000Z</time>
      </trkpt>
      <trkpt lat="44.36576" lon="3.86671">
        <ele>1356</ele>
        <time>1970-01-01T00:40:29.000Z</time>
      </trkpt>
      <trkpt lat="44.36585" lon="3.86672">
        <ele>1355</ele>
        <time>1970-01-01T00:40:30.000Z</time>
      </trkpt>
      <trkpt lat="44.36594" lon="3.86674">
        <ele>1357</ele>
        <time>1970-01-01T00:40:31.000Z</time>
      </trkpt>
      <trkpt lat="44.36594" lon="3.86674">
        <ele>1357</ele>
        <time>1970-01-01T00:40:32.000Z</time>
      </trkpt>
      <trkpt lat="44.36603" lon="3.86676">
        <ele>1359</ele>
        <time>1970-01-01T00:40:33.000Z</time>
      </trkpt>
      <trkpt lat="44.36603" lon="3.86676">
        <ele>1359</ele>
        <time>1970-01-01T00:40:34.000Z</time>
      </trkpt>
      <trkpt lat="44.36612" lon="3.86677">
        <ele>1360</ele>
        <time>1970-01-01T00:40:35.000Z</time>
      </trkpt>
      <trkpt lat="44.36621" lon="3.86679">
        <ele>1361</ele>
        <time>1970-01-01T00:40:36.000Z</time>
      </trkpt>
      <trkpt lat="44.36621" lon="3.86679">
        <ele>1361</ele>
        <time>1970-01-01T00:40:37.000Z</time>
      </trkpt>
      <trkpt lat="44.36629" lon="3.86681">
        <ele>1361</ele>
        <time>1970-01-01T00:40:38.000Z</time>
      </trkpt>
      <trkpt lat="44.36638" lon="3.86682">
        <ele>1361</ele>
        <time>1970-01-01T00:40:39.000Z</time>
      </trkpt>
      <trkpt lat="44.36639" lon="3.86682">
        <ele>1361</ele>
        <time>1970-01-01T00:40:40.000Z</time>
      </trkpt>
      <trkpt lat="44.36647" lon="3.86684">
        <ele>1361</ele>
        <time>1970-01-01T00:40:41.000Z</time>
      </trkpt>
      <trkpt lat="44.36656" lon="3.86686">
        <ele>1361</ele>
        <time>1970-01-01T00:40:42.000Z</time>
      </trkpt>
      <trkpt lat="44.36656" lon="3.86686">
        <ele>1361</ele>
        <time>1970-01-01T00:40:43.000Z</time>
      </trkpt>
      <trkpt lat="44.36665" lon="3.86687">
        <ele>1361</ele>
        <time>1970-01-01T00:40:44.000Z</time>
      </trkpt>
      <trkpt lat="44.36671" lon="3.86688">
        <ele>1364</ele>
        <time>1970-01-01T00:40:45.000Z</time>
      </trkpt>
      <trkpt lat="44.36679" lon="3.86692">
        <ele>1365</ele>
        <time>1970-01-01T00:40:46.000Z</time>
      </trkpt>
      <trkpt lat="44.36687" lon="3.86696">
        <ele>1366</ele>
        <time>1970-01-01T00:40:47.000Z</time>
      </trkpt>
      <trkpt lat="44.36695" lon="3.86701">
        <ele>1367</ele>
        <time>1970-01-01T00:40:48.000Z</time>
      </trkpt>
      <trkpt lat="44.36696" lon="3.86701">
        <ele>1367</ele>
        <time>1970-01-01T00:40:49.000Z</time>
      </trkpt>
      <trkpt lat="44.36704" lon="3.86705">
        <ele>1368</ele>
        <time>1970-01-01T00:40:50.000Z</time>
      </trkpt>
      <trkpt lat="44.36712" lon="3.86709">
        <ele>1369</ele>
        <time>1970-01-01T00:40:51.000Z</time>
      </trkpt>
      <trkpt lat="44.36713" lon="3.86709">
        <ele>1369</ele>
        <time>1970-01-01T00:40:52.000Z</time>
      </trkpt>
      <trkpt lat="44.36721" lon="3.86713">
        <ele>1369</ele>
        <time>1970-01-01T00:40:53.000Z</time>
      </trkpt>
      <trkpt lat="44.36729" lon="3.86717">
        <ele>1370</ele>
        <time>1970-01-01T00:40:54.000Z</time>
      </trkpt>
      <trkpt lat="44.3673" lon="3.86717">
        <ele>1370</ele>
        <time>1970-01-01T00:40:55.000Z</time>
      </trkpt>
      <trkpt lat="44.36738" lon="3.86721">
        <ele>1371</ele>
        <time>1970-01-01T00:40:56.000Z</time>
      </trkpt>
      <trkpt lat="44.36746" lon="3.86726">
        <ele>1372</ele>
        <time>1970-01-01T00:40:57.000Z</time>
      </trkpt>
      <trkpt lat="44.36747" lon="3.86726">
        <ele>1372</ele>
        <time>1970-01-01T00:40:58.000Z</time>
      </trkpt>
      <trkpt lat="44.36749" lon="3.86727">
        <ele>1372</ele>
        <time>1970-01-01T00:40:59.000Z</time>
      </trkpt>
      <trkpt lat="44.36758" lon="3.86728">
        <ele>1376</ele>
        <time>1970-01-01T00:41:00.000Z</time>
      </trkpt>
      <trkpt lat="44.36758" lon="3.86728">
        <ele>1376</ele>
        <time>1970-01-01T00:41:01.000Z</time>
      </trkpt>
      <trkpt lat="44.36767" lon="3.86728">
        <ele>1376</ele>
        <time>1970-01-01T00:41:02.000Z</time>
      </trkpt>
      <trkpt lat="44.36776" lon="3.86729">
        <ele>1376</ele>
        <time>1970-01-01T00:41:03.000Z</time>
      </trkpt>
      <trkpt lat="44.36776" lon="3.86729">
        <ele>1376</ele>
        <time>1970-01-01T00:41:04.000Z</time>
      </trkpt>
      <trkpt lat="44.36785" lon="3.8673">
        <ele>1376</ele>
        <time>1970-01-01T00:41:05.000Z</time>
      </trkpt>
      <trkpt lat="44.36785" lon="3.8673">
        <ele>1376</ele>
        <time>1970-01-01T00:41:06.000Z</time>
      </trkpt>
      <trkpt lat="44.36794" lon="3.86731">
        <ele>1377</ele>
        <time>1970-01-01T00:41:07.000Z</time>
      </trkpt>
      <trkpt lat="44.36803" lon="3.86732">
        <ele>1377</ele>
        <time>1970-01-01T00:41:08.000Z</time>
      </trkpt>
      <trkpt lat="44.36803" lon="3.86732">
        <ele>1377</ele>
        <time>1970-01-01T00:41:09.000Z</time>
      </trkpt>
      <trkpt lat="44.36812" lon="3.86733">
        <ele>1377</ele>
        <time>1970-01-01T00:41:10.000Z</time>
      </trkpt>
      <trkpt lat="44.36821" lon="3.86734">
        <ele>1378</ele>
        <time>1970-01-01T00:41:11.000Z</time>
      </trkpt>
      <trkpt lat="44.36821" lon="3.86734">
        <ele>1378</ele>
        <time>1970-01-01T00:41:12.000Z</time>
      </trkpt>
      <trkpt lat="44.3683" lon="3.86734">
        <ele>1378</ele>
        <time>1970-01-01T00:41:13.000Z</time>
      </trkpt>
      <trkpt lat="44.3683" lon="3.86734">
        <ele>1378</ele>
        <time>1970-01-01T00:41:14.000Z</time>
      </trkpt>
      <trkpt lat="44.36839" lon="3.86735">
        <ele>1381</ele>
        <time>1970-01-01T00:41:15.000Z</time>
      </trkpt>
      <trkpt lat="44.36848" lon="3.86736">
        <ele>1382</ele>
        <time>1970-01-01T00:41:16.000Z</time>
      </trkpt>
      <trkpt lat="44.36848" lon="3.86736">
        <ele>1382</ele>
        <time>1970-01-01T00:41:17.000Z</time>
      </trkpt>
      <trkpt lat="44.36857" lon="3.86736">
        <ele>1382</ele>
        <time>1970-01-01T00:41:18.000Z</time>
      </trkpt>
      <trkpt lat="44.36866" lon="3.86735">
        <ele>1383</ele>
        <time>1970-01-01T00:41:19.000Z</time>
      </trkpt>
      <trkpt lat="44.36866" lon="3.86735">
        <ele>1383</ele>
        <time>1970-01-01T00:41:20.000Z</time>
      </trkpt>
      <trkpt lat="44.36875" lon="3.86735">
        <ele>1383</ele>
        <time>1970-01-01T00:41:21.000Z</time>
      </trkpt>
      <trkpt lat="44.36875" lon="3.86735">
        <ele>1383</ele>
        <time>1970-01-01T00:41:22.000Z</time>
      </trkpt>
      <trkpt lat="44.36884" lon="3.86734">
        <ele>1384</ele>
        <time>1970-01-01T00:41:23.000Z</time>
      </trkpt>
      <trkpt lat="44.36893" lon="3.86734">
        <ele>1384</ele>
        <time>1970-01-01T00:41:24.000Z</time>
      </trkpt>
      <trkpt lat="44.36893" lon="3.86734">
        <ele>1384</ele>
        <time>1970-01-01T00:41:25.000Z</time>
      </trkpt>
      <trkpt lat="44.36901" lon="3.86733">
        <ele>1384</ele>
        <time>1970-01-01T00:41:26.000Z</time>
      </trkpt>
      <trkpt lat="44.3691" lon="3.86733">
        <ele>1384</ele>
        <time>1970-01-01T00:41:27.000Z</time>
      </trkpt>
      <trkpt lat="44.36911" lon="3.86733">
        <ele>1385</ele>
        <time>1970-01-01T00:41:28.000Z</time>
      </trkpt>
      <trkpt lat="44.36919" lon="3.86733">
        <ele>1388</ele>
        <time>1970-01-01T00:41:29.000Z</time>
      </trkpt>
      <trkpt lat="44.36921" lon="3.86732">
        <ele>1388</ele>
        <time>1970-01-01T00:41:30.000Z</time>
      </trkpt>
      <trkpt lat="44.3693" lon="3.86735">
        <ele>1388</ele>
        <time>1970-01-01T00:41:31.000Z</time>
      </trkpt>
      <trkpt lat="44.3693" lon="3.86735">
        <ele>1388</ele>
        <time>1970-01-01T00:41:32.000Z</time>
      </trkpt>
      <trkpt lat="44.36938" lon="3.86739">
        <ele>1389</ele>
        <time>1970-01-01T00:41:33.000Z</time>
      </trkpt>
      <trkpt lat="44.36947" lon="3.86742">
        <ele>1389</ele>
        <time>1970-01-01T00:41:34.000Z</time>
      </trkpt>
      <trkpt lat="44.36947" lon="3.86742">
        <ele>1389</ele>
        <time>1970-01-01T00:41:35.000Z</time>
      </trkpt>
      <trkpt lat="44.36956" lon="3.86745">
        <ele>1390</ele>
        <time>1970-01-01T00:41:36.000Z</time>
      </trkpt>
      <trkpt lat="44.36956" lon="3.86745">
        <ele>1390</ele>
        <time>1970-01-01T00:41:37.000Z</time>
      </trkpt>
      <trkpt lat="44.36965" lon="3.86748">
        <ele>1390</ele>
        <time>1970-01-01T00:41:38.000Z</time>
      </trkpt>
      <trkpt lat="44.36965" lon="3.86748">
        <ele>1390</ele>
        <time>1970-01-01T00:41:39.000Z</time>
      </trkpt>
      <trkpt lat="44.36973" lon="3.86751">
        <ele>1393</ele>
        <time>1970-01-01T00:41:40.000Z</time>
      </trkpt>
      <trkpt lat="44.36979" lon="3.86753">
        <ele>1393</ele>
        <time>1970-01-01T00:41:41.000Z</time>
      </trkpt>
      <trkpt lat="44.36988" lon="3.86751">
        <ele>1393</ele>
        <time>1970-01-01T00:41:42.000Z</time>
      </trkpt>
      <trkpt lat="44.36988" lon="3.86751">
        <ele>1393</ele>
        <time>1970-01-01T00:41:43.000Z</time>
      </trkpt>
      <trkpt lat="44.36997" lon="3.8675">
        <ele>1392</ele>
        <time>1970-01-01T00:41:44.000Z</time>
      </trkpt>
      <trkpt lat="44.37006" lon="3.86749">
        <ele>1393</ele>
        <time>1970-01-01T00:41:45.000Z</time>
      </trkpt>
      <trkpt lat="44.37006" lon="3.86749">
        <ele>1393</ele>
        <time>1970-01-01T00:41:46.000Z</time>
      </trkpt>
      <trkpt lat="44.37015" lon="3.86748">
        <ele>1395</ele>
        <time>1970-01-01T00:41:47.000Z</time>
      </trkpt>
      <trkpt lat="44.37015" lon="3.86748">
        <ele>1395</ele>
        <time>1970-01-01T00:41:48.000Z</time>
      </trkpt>
      <trkpt lat="44.37024" lon="3.86747">
        <ele>1396</ele>
        <time>1970-01-01T00:41:49.000Z</time>
      </trkpt>
      <trkpt lat="44.37033" lon="3.86746">
        <ele>1398</ele>
        <time>1970-01-01T00:41:50.000Z</time>
      </trkpt>
      <trkpt lat="44.37033" lon="3.86746">
        <ele>1398</ele>
        <time>1970-01-01T00:41:51.000Z</time>
      </trkpt>
      <trkpt lat="44.37042" lon="3.86745">
        <ele>1399</ele>
        <time>1970-01-01T00:41:52.000Z</time>
      </trkpt>
      <trkpt lat="44.37051" lon="3.86744">
        <ele>1399</ele>
        <time>1970-01-01T00:41:53.000Z</time>
      </trkpt>
      <trkpt lat="44.37051" lon="3.86744">
        <ele>1400</ele>
        <time>1970-01-01T00:41:54.000Z</time>
      </trkpt>
      <trkpt lat="44.3706" lon="3.86743">
        <ele>1401</ele>
        <time>1970-01-01T00:41:55.000Z</time>
      </trkpt>
      <trkpt lat="44.3706" lon="3.86743">
        <ele>1401</ele>
        <time>1970-01-01T00:41:56.000Z</time>
      </trkpt>
      <trkpt lat="44.37069" lon="3.86741">
        <ele>1402</ele>
        <time>1970-01-01T00:41:57.000Z</time>
      </trkpt>
      <trkpt lat="44.37078" lon="3.8674">
        <ele>1403</ele>
        <time>1970-01-01T00:41:58.000Z</time>
      </trkpt>
      <trkpt lat="44.37078" lon="3.8674">
        <ele>1403</ele>
        <time>1970-01-01T00:41:59.000Z</time>
      </trkpt>
      <trkpt lat="44.37078" lon="3.8674">
        <ele>1403</ele>
        <time>1970-01-01T00:42:00.000Z</time>
      </trkpt>
      <trkpt lat="44.37087" lon="3.86739">
        <ele>1405</ele>
        <time>1970-01-01T00:42:01.000Z</time>
      </trkpt>
      <trkpt lat="44.37096" lon="3.86738">
        <ele>1405</ele>
        <time>1970-01-01T00:42:02.000Z</time>
      </trkpt>
      <trkpt lat="44.37096" lon="3.86738">
        <ele>1405</ele>
        <time>1970-01-01T00:42:03.000Z</time>
      </trkpt>
      <trkpt lat="44.37099" lon="3.86737">
        <ele>1405</ele>
        <time>1970-01-01T00:42:04.000Z</time>
      </trkpt>
      <trkpt lat="44.37108" lon="3.86738">
        <ele>1406</ele>
        <time>1970-01-01T00:42:05.000Z</time>
      </trkpt>
      <trkpt lat="44.37117" lon="3.86738">
        <ele>1406</ele>
        <time>1970-01-01T00:42:06.000Z</time>
      </trkpt>
      <trkpt lat="44.37117" lon="3.86738">
        <ele>1406</ele>
        <time>1970-01-01T00:42:07.000Z</time>
      </trkpt>
      <trkpt lat="44.37126" lon="3.86738">
        <ele>1406</ele>
        <time>1970-01-01T00:42:08.000Z</time>
      </trkpt>
      <trkpt lat="44.37126" lon="3.86738">
        <ele>1406</ele>
        <time>1970-01-01T00:42:09.000Z</time>
      </trkpt>
      <trkpt lat="44.37135" lon="3.86738">
        <ele>1407</ele>
        <time>1970-01-01T00:42:10.000Z</time>
      </trkpt>
      <trkpt lat="44.37144" lon="3.86738">
        <ele>1408</ele>
        <time>1970-01-01T00:42:11.000Z</time>
      </trkpt>
      <trkpt lat="44.37144" lon="3.86738">
        <ele>1408</ele>
        <time>1970-01-01T00:42:12.000Z</time>
      </trkpt>
      <trkpt lat="44.37153" lon="3.86739">
        <ele>1409</ele>
        <time>1970-01-01T00:42:13.000Z</time>
      </trkpt>
      <trkpt lat="44.37162" lon="3.86739">
        <ele>1409</ele>
        <time>1970-01-01T00:42:14.000Z</time>
      </trkpt>
      <trkpt lat="44.37162" lon="3.86739">
        <ele>1409</ele>
        <time>1970-01-01T00:42:15.000Z</time>
      </trkpt>
      <trkpt lat="44.37171" lon="3.86739">
        <ele>1411</ele>
        <time>1970-01-01T00:42:16.000Z</time>
      </trkpt>
      <trkpt lat="44.37171" lon="3.86739">
        <ele>1411</ele>
        <time>1970-01-01T00:42:17.000Z</time>
      </trkpt>
      <trkpt lat="44.3718" lon="3.86739">
        <ele>1410</ele>
        <time>1970-01-01T00:42:18.000Z</time>
      </trkpt>
      <trkpt lat="44.37189" lon="3.86739">
        <ele>1410</ele>
        <time>1970-01-01T00:42:19.000Z</time>
      </trkpt>
      <trkpt lat="44.37189" lon="3.86739">
        <ele>1410</ele>
        <time>1970-01-01T00:42:20.000Z</time>
      </trkpt>
      <trkpt lat="44.37198" lon="3.86738">
        <ele>1409</ele>
        <time>1970-01-01T00:42:21.000Z</time>
      </trkpt>
      <trkpt lat="44.37207" lon="3.86738">
        <ele>1409</ele>
        <time>1970-01-01T00:42:22.000Z</time>
      </trkpt>
      <trkpt lat="44.37207" lon="3.86738">
        <ele>1409</ele>
        <time>1970-01-01T00:42:23.000Z</time>
      </trkpt>
      <trkpt lat="44.37216" lon="3.86738">
        <ele>1409</ele>
        <time>1970-01-01T00:42:24.000Z</time>
      </trkpt>
      <trkpt lat="44.37216" lon="3.86738">
        <ele>1409</ele>
        <time>1970-01-01T00:42:25.000Z</time>
      </trkpt>
      <trkpt lat="44.37225" lon="3.86738">
        <ele>1409</ele>
        <time>1970-01-01T00:42:26.000Z</time>
      </trkpt>
      <trkpt lat="44.37234" lon="3.86738">
        <ele>1410</ele>
        <time>1970-01-01T00:42:27.000Z</time>
      </trkpt>
      <trkpt lat="44.37234" lon="3.86738">
        <ele>1410</ele>
        <time>1970-01-01T00:42:28.000Z</time>
      </trkpt>
      <trkpt lat="44.37243" lon="3.86738">
        <ele>1410</ele>
        <time>1970-01-01T00:42:29.000Z</time>
      </trkpt>
      <trkpt lat="44.37252" lon="3.86737">
        <ele>1411</ele>
        <time>1970-01-01T00:42:30.000Z</time>
      </trkpt>
      <trkpt lat="44.37252" lon="3.86737">
        <ele>1411</ele>
        <time>1970-01-01T00:42:31.000Z</time>
      </trkpt>
      <trkpt lat="44.37261" lon="3.86737">
        <ele>1411</ele>
        <time>1970-01-01T00:42:32.000Z</time>
      </trkpt>
      <trkpt lat="44.3727" lon="3.86737">
        <ele>1411</ele>
        <time>1970-01-01T00:42:33.000Z</time>
      </trkpt>
      <trkpt lat="44.3727" lon="3.86737">
        <ele>1411</ele>
        <time>1970-01-01T00:42:34.000Z</time>
      </trkpt>
      <trkpt lat="44.37279" lon="3.86737">
        <ele>1411</ele>
        <time>1970-01-01T00:42:35.000Z</time>
      </trkpt>
      <trkpt lat="44.37279" lon="3.86737">
        <ele>1411</ele>
        <time>1970-01-01T00:42:36.000Z</time>
      </trkpt>
      <trkpt lat="44.37288" lon="3.86737">
        <ele>1411</ele>
        <time>1970-01-01T00:42:37.000Z</time>
      </trkpt>
      <trkpt lat="44.37297" lon="3.86737">
        <ele>1411</ele>
        <time>1970-01-01T00:42:38.000Z</time>
      </trkpt>
      <trkpt lat="44.37297" lon="3.86737">
        <ele>1411</ele>
        <time>1970-01-01T00:42:39.000Z</time>
      </trkpt>
      <trkpt lat="44.37306" lon="3.86737">
        <ele>1412</ele>
        <time>1970-01-01T00:42:40.000Z</time>
      </trkpt>
      <trkpt lat="44.37315" lon="3.86736">
        <ele>1412</ele>
        <time>1970-01-01T00:42:41.000Z</time>
      </trkpt>
      <trkpt lat="44.37315" lon="3.86736">
        <ele>1412</ele>
        <time>1970-01-01T00:42:42.000Z</time>
      </trkpt>
      <trkpt lat="44.37324" lon="3.86736">
        <ele>1412</ele>
        <time>1970-01-01T00:42:43.000Z</time>
      </trkpt>
      <trkpt lat="44.37324" lon="3.86736">
        <ele>1412</ele>
        <time>1970-01-01T00:42:44.000Z</time>
      </trkpt>
      <trkpt lat="44.37333" lon="3.86736">
        <ele>1413</ele>
        <time>1970-01-01T00:42:45.000Z</time>
      </trkpt>
      <trkpt lat="44.37334" lon="3.86736">
        <ele>1414</ele>
        <time>1970-01-01T00:42:46.000Z</time>
      </trkpt>
      <trkpt lat="44.37341" lon="3.86729">
        <ele>1415</ele>
        <time>1970-01-01T00:42:47.000Z</time>
      </trkpt>
      <trkpt lat="44.37349" lon="3.86722">
        <ele>1415</ele>
        <time>1970-01-01T00:42:48.000Z</time>
      </trkpt>
      <trkpt lat="44.37349" lon="3.86722">
        <ele>1415</ele>
        <time>1970-01-01T00:42:49.000Z</time>
      </trkpt>
      <trkpt lat="44.37356" lon="3.86716">
        <ele>1415</ele>
        <time>1970-01-01T00:42:50.000Z</time>
      </trkpt>
      <trkpt lat="44.37364" lon="3.86709">
        <ele>1415</ele>
        <time>1970-01-01T00:42:51.000Z</time>
      </trkpt>
      <trkpt lat="44.37364" lon="3.86709">
        <ele>1415</ele>
        <time>1970-01-01T00:42:52.000Z</time>
      </trkpt>
      <trkpt lat="44.37371" lon="3.86702">
        <ele>1415</ele>
        <time>1970-01-01T00:42:53.000Z</time>
      </trkpt>
      <trkpt lat="44.37379" lon="3.86695">
        <ele>1415</ele>
        <time>1970-01-01T00:42:54.000Z</time>
      </trkpt>
      <trkpt lat="44.37379" lon="3.86695">
        <ele>1415</ele>
        <time>1970-01-01T00:42:55.000Z</time>
      </trkpt>
      <trkpt lat="44.3738" lon="3.86695">
        <ele>1415</ele>
        <time>1970-01-01T00:42:56.000Z</time>
      </trkpt>
      <trkpt lat="44.37389" lon="3.86696">
        <ele>1415</ele>
        <time>1970-01-01T00:42:57.000Z</time>
      </trkpt>
      <trkpt lat="44.37389" lon="3.86696">
        <ele>1415</ele>
        <time>1970-01-01T00:42:58.000Z</time>
      </trkpt>
      <trkpt lat="44.37398" lon="3.86697">
        <ele>1416</ele>
        <time>1970-01-01T00:42:59.000Z</time>
      </trkpt>
      <trkpt lat="44.37398" lon="3.86697">
        <ele>1416</ele>
        <time>1970-01-01T00:43:00.000Z</time>
      </trkpt>
      <trkpt lat="44.37407" lon="3.86698">
        <ele>1416</ele>
        <time>1970-01-01T00:43:01.000Z</time>
      </trkpt>
      <trkpt lat="44.37416" lon="3.867">
        <ele>1416</ele>
        <time>1970-01-01T00:43:02.000Z</time>
      </trkpt>
      <trkpt lat="44.37416" lon="3.867">
        <ele>1416</ele>
        <time>1970-01-01T00:43:03.000Z</time>
      </trkpt>
      <trkpt lat="44.37424" lon="3.86701">
        <ele>1418</ele>
        <time>1970-01-01T00:43:04.000Z</time>
      </trkpt>
      <trkpt lat="44.37433" lon="3.86702">
        <ele>1418</ele>
        <time>1970-01-01T00:43:05.000Z</time>
      </trkpt>
      <trkpt lat="44.37434" lon="3.86702">
        <ele>1418</ele>
        <time>1970-01-01T00:43:06.000Z</time>
      </trkpt>
      <trkpt lat="44.37442" lon="3.86704">
        <ele>1419</ele>
        <time>1970-01-01T00:43:07.000Z</time>
      </trkpt>
      <trkpt lat="44.37451" lon="3.86705">
        <ele>1419</ele>
        <time>1970-01-01T00:43:08.000Z</time>
      </trkpt>
      <trkpt lat="44.37452" lon="3.86705">
        <ele>1419</ele>
        <time>1970-01-01T00:43:09.000Z</time>
      </trkpt>
      <trkpt lat="44.37454" lon="3.86705">
        <ele>1419</ele>
        <time>1970-01-01T00:43:10.000Z</time>
      </trkpt>
      <trkpt lat="44.37463" lon="3.86707">
        <ele>1419</ele>
        <time>1970-01-01T00:43:11.000Z</time>
      </trkpt>
      <trkpt lat="44.37463" lon="3.86707">
        <ele>1419</ele>
        <time>1970-01-01T00:43:12.000Z</time>
      </trkpt>
      <trkpt lat="44.37471" lon="3.8671">
        <ele>1419</ele>
        <time>1970-01-01T00:43:13.000Z</time>
      </trkpt>
      <trkpt lat="44.3748" lon="3.86712">
        <ele>1419</ele>
        <time>1970-01-01T00:43:14.000Z</time>
      </trkpt>
      <trkpt lat="44.3748" lon="3.86712">
        <ele>1419</ele>
        <time>1970-01-01T00:43:15.000Z</time>
      </trkpt>
      <trkpt lat="44.37489" lon="3.86714">
        <ele>1420</ele>
        <time>1970-01-01T00:43:16.000Z</time>
      </trkpt>
      <trkpt lat="44.37498" lon="3.86716">
        <ele>1420</ele>
        <time>1970-01-01T00:43:17.000Z</time>
      </trkpt>
      <trkpt lat="44.37498" lon="3.86716">
        <ele>1420</ele>
        <time>1970-01-01T00:43:18.000Z</time>
      </trkpt>
      <trkpt lat="44.37507" lon="3.86718">
        <ele>1421</ele>
        <time>1970-01-01T00:43:19.000Z</time>
      </trkpt>
      <trkpt lat="44.37516" lon="3.8672">
        <ele>1421</ele>
        <time>1970-01-01T00:43:20.000Z</time>
      </trkpt>
      <trkpt lat="44.37516" lon="3.8672">
        <ele>1421</ele>
        <time>1970-01-01T00:43:21.000Z</time>
      </trkpt>
      <trkpt lat="44.37524" lon="3.86723">
        <ele>1421</ele>
        <time>1970-01-01T00:43:22.000Z</time>
      </trkpt>
      <trkpt lat="44.37533" lon="3.86725">
        <ele>1421</ele>
        <time>1970-01-01T00:43:23.000Z</time>
      </trkpt>
      <trkpt lat="44.37533" lon="3.86725">
        <ele>1421</ele>
        <time>1970-01-01T00:43:24.000Z</time>
      </trkpt>
      <trkpt lat="44.37541" lon="3.86729">
        <ele>1421</ele>
        <time>1970-01-01T00:43:25.000Z</time>
      </trkpt>
      <trkpt lat="44.37549" lon="3.86733">
        <ele>1421</ele>
        <time>1970-01-01T00:43:26.000Z</time>
      </trkpt>
      <trkpt lat="44.3755" lon="3.86733">
        <ele>1421</ele>
        <time>1970-01-01T00:43:27.000Z</time>
      </trkpt>
      <trkpt lat="44.37558" lon="3.86737">
        <ele>1421</ele>
        <time>1970-01-01T00:43:28.000Z</time>
      </trkpt>
      <trkpt lat="44.37566" lon="3.86741">
        <ele>1421</ele>
        <time>1970-01-01T00:43:29.000Z</time>
      </trkpt>
      <trkpt lat="44.37567" lon="3.86741">
        <ele>1421</ele>
        <time>1970-01-01T00:43:30.000Z</time>
      </trkpt>
      <trkpt lat="44.37575" lon="3.86745">
        <ele>1422</ele>
        <time>1970-01-01T00:43:31.000Z</time>
      </trkpt>
      <trkpt lat="44.37584" lon="3.86749">
        <ele>1423</ele>
        <time>1970-01-01T00:43:32.000Z</time>
      </trkpt>
      <trkpt lat="44.37584" lon="3.86749">
        <ele>1423</ele>
        <time>1970-01-01T00:43:33.000Z</time>
      </trkpt>
      <trkpt lat="44.37592" lon="3.86753">
        <ele>1424</ele>
        <time>1970-01-01T00:43:34.000Z</time>
      </trkpt>
      <trkpt lat="44.376" lon="3.86757">
        <ele>1424</ele>
        <time>1970-01-01T00:43:35.000Z</time>
      </trkpt>
      <trkpt lat="44.37601" lon="3.86757">
        <ele>1424</ele>
        <time>1970-01-01T00:43:36.000Z</time>
      </trkpt>
      <trkpt lat="44.37609" lon="3.86761">
        <ele>1424</ele>
        <time>1970-01-01T00:43:37.000Z</time>
      </trkpt>
      <trkpt lat="44.37617" lon="3.86765">
        <ele>1424</ele>
        <time>1970-01-01T00:43:38.000Z</time>
      </trkpt>
      <trkpt lat="44.37618" lon="3.86765">
        <ele>1424</ele>
        <time>1970-01-01T00:43:39.000Z</time>
      </trkpt>
      <trkpt lat="44.37626" lon="3.86769">
        <ele>1424</ele>
        <time>1970-01-01T00:43:40.000Z</time>
      </trkpt>
      <trkpt lat="44.37634" lon="3.86773">
        <ele>1424</ele>
        <time>1970-01-01T00:43:41.000Z</time>
      </trkpt>
      <trkpt lat="44.37635" lon="3.86773">
        <ele>1424</ele>
        <time>1970-01-01T00:43:42.000Z</time>
      </trkpt>
      <trkpt lat="44.37643" lon="3.86777">
        <ele>1424</ele>
        <time>1970-01-01T00:43:43.000Z</time>
      </trkpt>
      <trkpt lat="44.37651" lon="3.86782">
        <ele>1424</ele>
        <time>1970-01-01T00:43:44.000Z</time>
      </trkpt>
      <trkpt lat="44.37652" lon="3.86782">
        <ele>1424</ele>
        <time>1970-01-01T00:43:45.000Z</time>
      </trkpt>
      <trkpt lat="44.37653" lon="3.86782">
        <ele>1424</ele>
        <time>1970-01-01T00:43:46.000Z</time>
      </trkpt>
      <trkpt lat="44.37657" lon="3.86793">
        <ele>1424</ele>
        <time>1970-01-01T00:43:47.000Z</time>
      </trkpt>
      <trkpt lat="44.37661" lon="3.86804">
        <ele>1424</ele>
        <time>1970-01-01T00:43:48.000Z</time>
      </trkpt>
      <trkpt lat="44.37665" lon="3.86815">
        <ele>1424</ele>
        <time>1970-01-01T00:43:49.000Z</time>
      </trkpt>
      <trkpt lat="44.37665" lon="3.86816">
        <ele>1424</ele>
        <time>1970-01-01T00:43:50.000Z</time>
      </trkpt>
      <trkpt lat="44.37669" lon="3.86827">
        <ele>1423</ele>
        <time>1970-01-01T00:43:51.000Z</time>
      </trkpt>
      <trkpt lat="44.37673" lon="3.86838">
        <ele>1424</ele>
        <time>1970-01-01T00:43:52.000Z</time>
      </trkpt>
      <trkpt lat="44.37675" lon="3.86842">
        <ele>1424</ele>
        <time>1970-01-01T00:43:53.000Z</time>
      </trkpt>
      <trkpt lat="44.37677" lon="3.86854">
        <ele>1424</ele>
        <time>1970-01-01T00:43:54.000Z</time>
      </trkpt>
      <trkpt lat="44.37679" lon="3.86866">
        <ele>1424</ele>
        <time>1970-01-01T00:43:55.000Z</time>
      </trkpt>
      <trkpt lat="44.37679" lon="3.86867">
        <ele>1424</ele>
        <time>1970-01-01T00:43:56.000Z</time>
      </trkpt>
      <trkpt lat="44.3768" lon="3.86879">
        <ele>1424</ele>
        <time>1970-01-01T00:43:57.000Z</time>
      </trkpt>
      <trkpt lat="44.37682" lon="3.86891">
        <ele>1424</ele>
        <time>1970-01-01T00:43:58.000Z</time>
      </trkpt>
      <trkpt lat="44.37683" lon="3.86897">
        <ele>1425</ele>
        <time>1970-01-01T00:43:59.000Z</time>
      </trkpt>
      <trkpt lat="44.37691" lon="3.86903">
        <ele>1424</ele>
        <time>1970-01-01T00:44:00.000Z</time>
      </trkpt>
      <trkpt lat="44.37691" lon="3.86903">
        <ele>1424</ele>
        <time>1970-01-01T00:44:01.000Z</time>
      </trkpt>
      <trkpt lat="44.37698" lon="3.8691">
        <ele>1424</ele>
        <time>1970-01-01T00:44:02.000Z</time>
      </trkpt>
      <trkpt lat="44.37706" lon="3.86917">
        <ele>1427</ele>
        <time>1970-01-01T00:44:03.000Z</time>
      </trkpt>
      <trkpt lat="44.37706" lon="3.86917">
        <ele>1427</ele>
        <time>1970-01-01T00:44:04.000Z</time>
      </trkpt>
      <trkpt lat="44.37714" lon="3.86923">
        <ele>1426</ele>
        <time>1970-01-01T00:44:05.000Z</time>
      </trkpt>
      <trkpt lat="44.37714" lon="3.86923">
        <ele>1426</ele>
        <time>1970-01-01T00:44:06.000Z</time>
      </trkpt>
      <trkpt lat="44.37721" lon="3.8693">
        <ele>1426</ele>
        <time>1970-01-01T00:44:07.000Z</time>
      </trkpt>
      <trkpt lat="44.37726" lon="3.86934">
        <ele>1426</ele>
        <time>1970-01-01T00:44:08.000Z</time>
      </trkpt>
      <trkpt lat="44.37733" lon="3.8694">
        <ele>1426</ele>
        <time>1970-01-01T00:44:09.000Z</time>
      </trkpt>
      <trkpt lat="44.37741" lon="3.86947">
        <ele>1426</ele>
        <time>1970-01-01T00:44:10.000Z</time>
      </trkpt>
      <trkpt lat="44.37741" lon="3.86947">
        <ele>1426</ele>
        <time>1970-01-01T00:44:11.000Z</time>
      </trkpt>
      <trkpt lat="44.37749" lon="3.86953">
        <ele>1427</ele>
        <time>1970-01-01T00:44:12.000Z</time>
      </trkpt>
      <trkpt lat="44.37749" lon="3.86953">
        <ele>1427</ele>
        <time>1970-01-01T00:44:13.000Z</time>
      </trkpt>
      <trkpt lat="44.37757" lon="3.86959">
        <ele>1425</ele>
        <time>1970-01-01T00:44:14.000Z</time>
      </trkpt>
      <trkpt lat="44.37757" lon="3.86959">
        <ele>1425</ele>
        <time>1970-01-01T00:44:15.000Z</time>
      </trkpt>
      <trkpt lat="44.37765" lon="3.86966">
        <ele>1425</ele>
        <time>1970-01-01T00:44:16.000Z</time>
      </trkpt>
      <trkpt lat="44.37765" lon="3.86966">
        <ele>1425</ele>
        <time>1970-01-01T00:44:17.000Z</time>
      </trkpt>
      <trkpt lat="44.37772" lon="3.86972">
        <ele>1425</ele>
        <time>1970-01-01T00:44:18.000Z</time>
      </trkpt>
      <trkpt lat="44.3778" lon="3.86978">
        <ele>1426</ele>
        <time>1970-01-01T00:44:19.000Z</time>
      </trkpt>
      <trkpt lat="44.3778" lon="3.86978">
        <ele>1426</ele>
        <time>1970-01-01T00:44:20.000Z</time>
      </trkpt>
      <trkpt lat="44.3778" lon="3.86978">
        <ele>1426</ele>
        <time>1970-01-01T00:44:21.000Z</time>
      </trkpt>
      <trkpt lat="44.37788" lon="3.86984">
        <ele>1426</ele>
        <time>1970-01-01T00:44:22.000Z</time>
      </trkpt>
      <trkpt lat="44.37788" lon="3.86984">
        <ele>1426</ele>
        <time>1970-01-01T00:44:23.000Z</time>
      </trkpt>
      <trkpt lat="44.37796" lon="3.8699">
        <ele>1426</ele>
        <time>1970-01-01T00:44:24.000Z</time>
      </trkpt>
      <trkpt lat="44.37796" lon="3.8699">
        <ele>1426</ele>
        <time>1970-01-01T00:44:25.000Z</time>
      </trkpt>
      <trkpt lat="44.37804" lon="3.86996">
        <ele>1426</ele>
        <time>1970-01-01T00:44:26.000Z</time>
      </trkpt>
      <trkpt lat="44.37804" lon="3.86996">
        <ele>1426</ele>
        <time>1970-01-01T00:44:27.000Z</time>
      </trkpt>
      <trkpt lat="44.37812" lon="3.87002">
        <ele>1431</ele>
        <time>1970-01-01T00:44:28.000Z</time>
      </trkpt>
      <trkpt lat="44.37812" lon="3.87002">
        <ele>1431</ele>
        <time>1970-01-01T00:44:29.000Z</time>
      </trkpt>
      <trkpt lat="44.3782" lon="3.87008">
        <ele>1431</ele>
        <time>1970-01-01T00:44:30.000Z</time>
      </trkpt>
      <trkpt lat="44.3782" lon="3.87008">
        <ele>1431</ele>
        <time>1970-01-01T00:44:31.000Z</time>
      </trkpt>
      <trkpt lat="44.37828" lon="3.87014">
        <ele>1431</ele>
        <time>1970-01-01T00:44:32.000Z</time>
      </trkpt>
      <trkpt lat="44.37828" lon="3.87014">
        <ele>1431</ele>
        <time>1970-01-01T00:44:33.000Z</time>
      </trkpt>
      <trkpt lat="44.37835" lon="3.8702">
        <ele>1431</ele>
        <time>1970-01-01T00:44:34.000Z</time>
      </trkpt>
      <trkpt lat="44.37843" lon="3.87026">
        <ele>1432</ele>
        <time>1970-01-01T00:44:35.000Z</time>
      </trkpt>
      <trkpt lat="44.37843" lon="3.87026">
        <ele>1432</ele>
        <time>1970-01-01T00:44:36.000Z</time>
      </trkpt>
      <trkpt lat="44.37851" lon="3.87032">
        <ele>1433</ele>
        <time>1970-01-01T00:44:37.000Z</time>
      </trkpt>
      <trkpt lat="44.37851" lon="3.87032">
        <ele>1433</ele>
        <time>1970-01-01T00:44:38.000Z</time>
      </trkpt>
      <trkpt lat="44.37852" lon="3.87033">
        <ele>1433</ele>
        <time>1970-01-01T00:44:39.000Z</time>
      </trkpt>
      <trkpt lat="44.37861" lon="3.87033">
        <ele>1433</ele>
        <time>1970-01-01T00:44:40.000Z</time>
      </trkpt>
      <trkpt lat="44.3787" lon="3.87033">
        <ele>1433</ele>
        <time>1970-01-01T00:44:41.000Z</time>
      </trkpt>
      <trkpt lat="44.3787" lon="3.87033">
        <ele>1433</ele>
        <time>1970-01-01T00:44:42.000Z</time>
      </trkpt>
      <trkpt lat="44.37879" lon="3.87033">
        <ele>1433</ele>
        <time>1970-01-01T00:44:43.000Z</time>
      </trkpt>
      <trkpt lat="44.37879" lon="3.87033">
        <ele>1433</ele>
        <time>1970-01-01T00:44:44.000Z</time>
      </trkpt>
      <trkpt lat="44.37888" lon="3.87034">
        <ele>1433</ele>
        <time>1970-01-01T00:44:45.000Z</time>
      </trkpt>
      <trkpt lat="44.37897" lon="3.87034">
        <ele>1433</ele>
        <time>1970-01-01T00:44:46.000Z</time>
      </trkpt>
      <trkpt lat="44.37897" lon="3.87034">
        <ele>1433</ele>
        <time>1970-01-01T00:44:47.000Z</time>
      </trkpt>
      <trkpt lat="44.37906" lon="3.87034">
        <ele>1433</ele>
        <time>1970-01-01T00:44:48.000Z</time>
      </trkpt>
      <trkpt lat="44.37915" lon="3.87035">
        <ele>1433</ele>
        <time>1970-01-01T00:44:49.000Z</time>
      </trkpt>
      <trkpt lat="44.37915" lon="3.87035">
        <ele>1433</ele>
        <time>1970-01-01T00:44:50.000Z</time>
      </trkpt>
      <trkpt lat="44.37923" lon="3.87035">
        <ele>1433</ele>
        <time>1970-01-01T00:44:51.000Z</time>
      </trkpt>
      <trkpt lat="44.37932" lon="3.87035">
        <ele>1433</ele>
        <time>1970-01-01T00:44:52.000Z</time>
      </trkpt>
      <trkpt lat="44.37933" lon="3.87035">
        <ele>1433</ele>
        <time>1970-01-01T00:44:53.000Z</time>
      </trkpt>
      <trkpt lat="44.37942" lon="3.87035">
        <ele>1433</ele>
        <time>1970-01-01T00:44:54.000Z</time>
      </trkpt>
      <trkpt lat="44.37942" lon="3.87035">
        <ele>1433</ele>
        <time>1970-01-01T00:44:55.000Z</time>
      </trkpt>
      <trkpt lat="44.37951" lon="3.87036">
        <ele>1434</ele>
        <time>1970-01-01T00:44:56.000Z</time>
      </trkpt>
      <trkpt lat="44.3796" lon="3.87036">
        <ele>1434</ele>
        <time>1970-01-01T00:44:57.000Z</time>
      </trkpt>
      <trkpt lat="44.3796" lon="3.87036">
        <ele>1434</ele>
        <time>1970-01-01T00:44:58.000Z</time>
      </trkpt>
      <trkpt lat="44.37968" lon="3.87036">
        <ele>1434</ele>
        <time>1970-01-01T00:44:59.000Z</time>
      </trkpt>
      <trkpt lat="44.37977" lon="3.87036">
        <ele>1434</ele>
        <time>1970-01-01T00:45:00.000Z</time>
      </trkpt>
      <trkpt lat="44.37978" lon="3.87036">
        <ele>1434</ele>
        <time>1970-01-01T00:45:01.000Z</time>
      </trkpt>
      <trkpt lat="44.37986" lon="3.87037">
        <ele>1434</ele>
        <time>1970-01-01T00:45:02.000Z</time>
      </trkpt>
      <trkpt lat="44.37995" lon="3.87037">
        <ele>1434</ele>
        <time>1970-01-01T00:45:03.000Z</time>
      </trkpt>
      <trkpt lat="44.37996" lon="3.87037">
        <ele>1434</ele>
        <time>1970-01-01T00:45:04.000Z</time>
      </trkpt>
      <trkpt lat="44.38004" lon="3.87037">
        <ele>1435</ele>
        <time>1970-01-01T00:45:05.000Z</time>
      </trkpt>
      <trkpt lat="44.38013" lon="3.87037">
        <ele>1435</ele>
        <time>1970-01-01T00:45:06.000Z</time>
      </trkpt>
      <trkpt lat="44.38013" lon="3.87037">
        <ele>1435</ele>
        <time>1970-01-01T00:45:07.000Z</time>
      </trkpt>
      <trkpt lat="44.38022" lon="3.87038">
        <ele>1435</ele>
        <time>1970-01-01T00:45:08.000Z</time>
      </trkpt>
      <trkpt lat="44.38031" lon="3.87038">
        <ele>1435</ele>
        <time>1970-01-01T00:45:09.000Z</time>
      </trkpt>
      <trkpt lat="44.38031" lon="3.87038">
        <ele>1435</ele>
        <time>1970-01-01T00:45:10.000Z</time>
      </trkpt>
      <trkpt lat="44.3804" lon="3.87038">
        <ele>1436</ele>
        <time>1970-01-01T00:45:11.000Z</time>
      </trkpt>
      <trkpt lat="44.38041" lon="3.87038">
        <ele>1436</ele>
        <time>1970-01-01T00:45:12.000Z</time>
      </trkpt>
      <trkpt lat="44.38048" lon="3.87038">
        <ele>1436</ele>
        <time>1970-01-01T00:45:13.000Z</time>
      </trkpt>
      <trkpt lat="44.38057" lon="3.87039">
        <ele>1436</ele>
        <time>1970-01-01T00:45:14.000Z</time>
      </trkpt>
      <trkpt lat="44.38066" lon="3.87039">
        <ele>1436</ele>
        <time>1970-01-01T00:45:15.000Z</time>
      </trkpt>
      <trkpt lat="44.38066" lon="3.87039">
        <ele>1436</ele>
        <time>1970-01-01T00:45:16.000Z</time>
      </trkpt>
      <trkpt lat="44.38075" lon="3.87039">
        <ele>1436</ele>
        <time>1970-01-01T00:45:17.000Z</time>
      </trkpt>
      <trkpt lat="44.38084" lon="3.8704">
        <ele>1435</ele>
        <time>1970-01-01T00:45:18.000Z</time>
      </trkpt>
      <trkpt lat="44.38084" lon="3.8704">
        <ele>1435</ele>
        <time>1970-01-01T00:45:19.000Z</time>
      </trkpt>
      <trkpt lat="44.38093" lon="3.8704">
        <ele>1435</ele>
        <time>1970-01-01T00:45:20.000Z</time>
      </trkpt>
      <trkpt lat="44.38093" lon="3.8704">
        <ele>1435</ele>
        <time>1970-01-01T00:45:21.000Z</time>
      </trkpt>
      <trkpt lat="44.38102" lon="3.8704">
        <ele>1435</ele>
        <time>1970-01-01T00:45:22.000Z</time>
      </trkpt>
      <trkpt lat="44.38108" lon="3.87041">
        <ele>1435</ele>
        <time>1970-01-01T00:45:23.000Z</time>
      </trkpt>
      <trkpt lat="44.38114" lon="3.8705">
        <ele>1435</ele>
        <time>1970-01-01T00:45:24.000Z</time>
      </trkpt>
      <trkpt lat="44.3812" lon="3.8706">
        <ele>1436</ele>
        <time>1970-01-01T00:45:25.000Z</time>
      </trkpt>
      <trkpt lat="44.3812" lon="3.8706">
        <ele>1436</ele>
        <time>1970-01-01T00:45:26.000Z</time>
      </trkpt>
      <trkpt lat="44.38125" lon="3.87069">
        <ele>1436</ele>
        <time>1970-01-01T00:45:27.000Z</time>
      </trkpt>
      <trkpt lat="44.38131" lon="3.87079">
        <ele>1436</ele>
        <time>1970-01-01T00:45:28.000Z</time>
      </trkpt>
      <trkpt lat="44.38131" lon="3.87079">
        <ele>1436</ele>
        <time>1970-01-01T00:45:29.000Z</time>
      </trkpt>
      <trkpt lat="44.38137" lon="3.87088">
        <ele>1441</ele>
        <time>1970-01-01T00:45:30.000Z</time>
      </trkpt>
      <trkpt lat="44.38138" lon="3.87089">
        <ele>1441</ele>
        <time>1970-01-01T00:45:31.000Z</time>
      </trkpt>
      <trkpt lat="44.38146" lon="3.87093">
        <ele>1441</ele>
        <time>1970-01-01T00:45:32.000Z</time>
      </trkpt>
      <trkpt lat="44.38154" lon="3.87097">
        <ele>1440</ele>
        <time>1970-01-01T00:45:33.000Z</time>
      </trkpt>
      <trkpt lat="44.38155" lon="3.87097">
        <ele>1440</ele>
        <time>1970-01-01T00:45:34.000Z</time>
      </trkpt>
      <trkpt lat="44.38163" lon="3.87101">
        <ele>1440</ele>
        <time>1970-01-01T00:45:35.000Z</time>
      </trkpt>
      <trkpt lat="44.38171" lon="3.87105">
        <ele>1438</ele>
        <time>1970-01-01T00:45:36.000Z</time>
      </trkpt>
      <trkpt lat="44.38172" lon="3.87105">
        <ele>1438</ele>
        <time>1970-01-01T00:45:37.000Z</time>
      </trkpt>
      <trkpt lat="44.38181" lon="3.87109">
        <ele>1438</ele>
        <time>1970-01-01T00:45:38.000Z</time>
      </trkpt>
      <trkpt lat="44.38181" lon="3.87109">
        <ele>1438</ele>
        <time>1970-01-01T00:45:39.000Z</time>
      </trkpt>
      <trkpt lat="44.38187" lon="3.87112">
        <ele>1438</ele>
        <time>1970-01-01T00:45:40.000Z</time>
      </trkpt>
      <trkpt lat="44.38196" lon="3.87112">
        <ele>1438</ele>
        <time>1970-01-01T00:45:41.000Z</time>
      </trkpt>
      <trkpt lat="44.38196" lon="3.87112">
        <ele>1438</ele>
        <time>1970-01-01T00:45:42.000Z</time>
      </trkpt>
      <trkpt lat="44.38205" lon="3.87111">
        <ele>1438</ele>
        <time>1970-01-01T00:45:43.000Z</time>
      </trkpt>
      <trkpt lat="44.38214" lon="3.87111">
        <ele>1437</ele>
        <time>1970-01-01T00:45:44.000Z</time>
      </trkpt>
      <trkpt lat="44.38214" lon="3.87111">
        <ele>1437</ele>
        <time>1970-01-01T00:45:45.000Z</time>
      </trkpt>
      <trkpt lat="44.38223" lon="3.8711">
        <ele>1437</ele>
        <time>1970-01-01T00:45:46.000Z</time>
      </trkpt>
      <trkpt lat="44.38232" lon="3.8711">
        <ele>1436</ele>
        <time>1970-01-01T00:45:47.000Z</time>
      </trkpt>
      <trkpt lat="44.38232" lon="3.8711">
        <ele>1436</ele>
        <time>1970-01-01T00:45:48.000Z</time>
      </trkpt>
      <trkpt lat="44.38241" lon="3.87109">
        <ele>1436</ele>
        <time>1970-01-01T00:45:49.000Z</time>
      </trkpt>
      <trkpt lat="44.3825" lon="3.87109">
        <ele>1436</ele>
        <time>1970-01-01T00:45:50.000Z</time>
      </trkpt>
      <trkpt lat="44.3825" lon="3.87109">
        <ele>1436</ele>
        <time>1970-01-01T00:45:51.000Z</time>
      </trkpt>
      <trkpt lat="44.38259" lon="3.87108">
        <ele>1432</ele>
        <time>1970-01-01T00:45:52.000Z</time>
      </trkpt>
      <trkpt lat="44.38259" lon="3.87108">
        <ele>1432</ele>
        <time>1970-01-01T00:45:53.000Z</time>
      </trkpt>
      <trkpt lat="44.38268" lon="3.87108">
        <ele>1432</ele>
        <time>1970-01-01T00:45:54.000Z</time>
      </trkpt>
      <trkpt lat="44.38277" lon="3.87108">
        <ele>1432</ele>
        <time>1970-01-01T00:45:55.000Z</time>
      </trkpt>
      <trkpt lat="44.38277" lon="3.87108">
        <ele>1432</ele>
        <time>1970-01-01T00:45:56.000Z</time>
      </trkpt>
      <trkpt lat="44.38285" lon="3.87107">
        <ele>1432</ele>
        <time>1970-01-01T00:45:57.000Z</time>
      </trkpt>
      <trkpt lat="44.38293" lon="3.87109">
        <ele>1432</ele>
        <time>1970-01-01T00:45:58.000Z</time>
      </trkpt>
      <trkpt lat="44.38302" lon="3.87112">
        <ele>1432</ele>
        <time>1970-01-01T00:45:59.000Z</time>
      </trkpt>
      <trkpt lat="44.38302" lon="3.87112">
        <ele>1432</ele>
        <time>1970-01-01T00:46:00.000Z</time>
      </trkpt>
      <trkpt lat="44.38311" lon="3.87114">
        <ele>1432</ele>
        <time>1970-01-01T00:46:01.000Z</time>
      </trkpt>
      <trkpt lat="44.38311" lon="3.87114">
        <ele>1432</ele>
        <time>1970-01-01T00:46:02.000Z</time>
      </trkpt>
      <trkpt lat="44.3832" lon="3.87116">
        <ele>1431</ele>
        <time>1970-01-01T00:46:03.000Z</time>
      </trkpt>
      <trkpt lat="44.3832" lon="3.87116">
        <ele>1431</ele>
        <time>1970-01-01T00:46:04.000Z</time>
      </trkpt>
      <trkpt lat="44.38329" lon="3.87118">
        <ele>1431</ele>
        <time>1970-01-01T00:46:05.000Z</time>
      </trkpt>
      <trkpt lat="44.38338" lon="3.8712">
        <ele>1429</ele>
        <time>1970-01-01T00:46:06.000Z</time>
      </trkpt>
      <trkpt lat="44.38338" lon="3.8712">
        <ele>1429</ele>
        <time>1970-01-01T00:46:07.000Z</time>
      </trkpt>
      <trkpt lat="44.38346" lon="3.87123">
        <ele>1429</ele>
        <time>1970-01-01T00:46:08.000Z</time>
      </trkpt>
      <trkpt lat="44.38355" lon="3.87125">
        <ele>1429</ele>
        <time>1970-01-01T00:46:09.000Z</time>
      </trkpt>
      <trkpt lat="44.38364" lon="3.87127">
        <ele>1429</ele>
        <time>1970-01-01T00:46:10.000Z</time>
      </trkpt>
      <trkpt lat="44.38364" lon="3.87127">
        <ele>1429</ele>
        <time>1970-01-01T00:46:11.000Z</time>
      </trkpt>
      <trkpt lat="44.38373" lon="3.87129">
        <ele>1429</ele>
        <time>1970-01-01T00:46:12.000Z</time>
      </trkpt>
      <trkpt lat="44.38373" lon="3.87129">
        <ele>1429</ele>
        <time>1970-01-01T00:46:13.000Z</time>
      </trkpt>
      <trkpt lat="44.38382" lon="3.87132">
        <ele>1429</ele>
        <time>1970-01-01T00:46:14.000Z</time>
      </trkpt>
      <trkpt lat="44.38382" lon="3.87132">
        <ele>1429</ele>
        <time>1970-01-01T00:46:15.000Z</time>
      </trkpt>
      <trkpt lat="44.38391" lon="3.87134">
        <ele>1429</ele>
        <time>1970-01-01T00:46:16.000Z</time>
      </trkpt>
      <trkpt lat="44.38391" lon="3.87134">
        <ele>1429</ele>
        <time>1970-01-01T00:46:17.000Z</time>
      </trkpt>
      <trkpt lat="44.384" lon="3.87136">
        <ele>1429</ele>
        <time>1970-01-01T00:46:18.000Z</time>
      </trkpt>
      <trkpt lat="44.38408" lon="3.87138">
        <ele>1429</ele>
        <time>1970-01-01T00:46:19.000Z</time>
      </trkpt>
      <trkpt lat="44.38417" lon="3.8714">
        <ele>1428</ele>
        <time>1970-01-01T00:46:20.000Z</time>
      </trkpt>
      <trkpt lat="44.38417" lon="3.8714">
        <ele>1428</ele>
        <time>1970-01-01T00:46:21.000Z</time>
      </trkpt>
      <trkpt lat="44.38426" lon="3.87143">
        <ele>1428</ele>
        <time>1970-01-01T00:46:22.000Z</time>
      </trkpt>
      <trkpt lat="44.38426" lon="3.87143">
        <ele>1428</ele>
        <time>1970-01-01T00:46:23.000Z</time>
      </trkpt>
      <trkpt lat="44.38435" lon="3.87145">
        <ele>1428</ele>
        <time>1970-01-01T00:46:24.000Z</time>
      </trkpt>
      <trkpt lat="44.38435" lon="3.87145">
        <ele>1428</ele>
        <time>1970-01-01T00:46:25.000Z</time>
      </trkpt>
      <trkpt lat="44.38444" lon="3.87147">
        <ele>1428</ele>
        <time>1970-01-01T00:46:26.000Z</time>
      </trkpt>
      <trkpt lat="44.38444" lon="3.87147">
        <ele>1428</ele>
        <time>1970-01-01T00:46:27.000Z</time>
      </trkpt>
      <trkpt lat="44.38453" lon="3.87149">
        <ele>1428</ele>
        <time>1970-01-01T00:46:28.000Z</time>
      </trkpt>
      <trkpt lat="44.38461" lon="3.87151">
        <ele>1428</ele>
        <time>1970-01-01T00:46:29.000Z</time>
      </trkpt>
      <trkpt lat="44.3847" lon="3.87154">
        <ele>1428</ele>
        <time>1970-01-01T00:46:30.000Z</time>
      </trkpt>
      <trkpt lat="44.3847" lon="3.87154">
        <ele>1428</ele>
        <time>1970-01-01T00:46:31.000Z</time>
      </trkpt>
      <trkpt lat="44.38479" lon="3.87156">
        <ele>1428</ele>
        <time>1970-01-01T00:46:32.000Z</time>
      </trkpt>
      <trkpt lat="44.3848" lon="3.87156">
        <ele>1428</ele>
        <time>1970-01-01T00:46:33.000Z</time>
      </trkpt>
      <trkpt lat="44.38489" lon="3.87157">
        <ele>1428</ele>
        <time>1970-01-01T00:46:34.000Z</time>
      </trkpt>
      <trkpt lat="44.38489" lon="3.87157">
        <ele>1428</ele>
        <time>1970-01-01T00:46:35.000Z</time>
      </trkpt>
      <trkpt lat="44.38498" lon="3.87157">
        <ele>1428</ele>
        <time>1970-01-01T00:46:36.000Z</time>
      </trkpt>
      <trkpt lat="44.38507" lon="3.87158">
        <ele>1428</ele>
        <time>1970-01-01T00:46:37.000Z</time>
      </trkpt>
      <trkpt lat="44.38507" lon="3.87158">
        <ele>1428</ele>
        <time>1970-01-01T00:46:38.000Z</time>
      </trkpt>
      <trkpt lat="44.38515" lon="3.87158">
        <ele>1429</ele>
        <time>1970-01-01T00:46:39.000Z</time>
      </trkpt>
      <trkpt lat="44.38524" lon="3.87159">
        <ele>1429</ele>
        <time>1970-01-01T00:46:40.000Z</time>
      </trkpt>
      <trkpt lat="44.38525" lon="3.87159">
        <ele>1429</ele>
        <time>1970-01-01T00:46:41.000Z</time>
      </trkpt>
      <trkpt lat="44.38533" lon="3.8716">
        <ele>1429</ele>
        <time>1970-01-01T00:46:42.000Z</time>
      </trkpt>
      <trkpt lat="44.38542" lon="3.8716">
        <ele>1429</ele>
        <time>1970-01-01T00:46:43.000Z</time>
      </trkpt>
      <trkpt lat="44.38543" lon="3.8716">
        <ele>1429</ele>
        <time>1970-01-01T00:46:44.000Z</time>
      </trkpt>
      <trkpt lat="44.38552" lon="3.87161">
        <ele>1430</ele>
        <time>1970-01-01T00:46:45.000Z</time>
      </trkpt>
      <trkpt lat="44.38552" lon="3.87161">
        <ele>1430</ele>
        <time>1970-01-01T00:46:46.000Z</time>
      </trkpt>
      <trkpt lat="44.3856" lon="3.87161">
        <ele>1430</ele>
        <time>1970-01-01T00:46:47.000Z</time>
      </trkpt>
      <trkpt lat="44.38569" lon="3.87162">
        <ele>1430</ele>
        <time>1970-01-01T00:46:48.000Z</time>
      </trkpt>
      <trkpt lat="44.3857" lon="3.87162">
        <ele>1430</ele>
        <time>1970-01-01T00:46:49.000Z</time>
      </trkpt>
      <trkpt lat="44.38578" lon="3.87163">
        <ele>1430</ele>
        <time>1970-01-01T00:46:50.000Z</time>
      </trkpt>
      <trkpt lat="44.38587" lon="3.87163">
        <ele>1431</ele>
        <time>1970-01-01T00:46:51.000Z</time>
      </trkpt>
      <trkpt lat="44.38588" lon="3.87163">
        <ele>1431</ele>
        <time>1970-01-01T00:46:52.000Z</time>
      </trkpt>
      <trkpt lat="44.38596" lon="3.87164">
        <ele>1432</ele>
        <time>1970-01-01T00:46:53.000Z</time>
      </trkpt>
      <trkpt lat="44.38597" lon="3.87164">
        <ele>1432</ele>
        <time>1970-01-01T00:46:54.000Z</time>
      </trkpt>
      <trkpt lat="44.38605" lon="3.87165">
        <ele>1433</ele>
        <time>1970-01-01T00:46:55.000Z</time>
      </trkpt>
      <trkpt lat="44.38614" lon="3.87165">
        <ele>1434</ele>
        <time>1970-01-01T00:46:56.000Z</time>
      </trkpt>
      <trkpt lat="44.38615" lon="3.87165">
        <ele>1434</ele>
        <time>1970-01-01T00:46:57.000Z</time>
      </trkpt>
      <trkpt lat="44.38623" lon="3.87166">
        <ele>1434</ele>
        <time>1970-01-01T00:46:58.000Z</time>
      </trkpt>
      <trkpt lat="44.38632" lon="3.87167">
        <ele>1433</ele>
        <time>1970-01-01T00:46:59.000Z</time>
      </trkpt>
      <trkpt lat="44.38633" lon="3.87167">
        <ele>1433</ele>
        <time>1970-01-01T00:47:00.000Z</time>
      </trkpt>
      <trkpt lat="44.38639" lon="3.87167">
        <ele>1433</ele>
        <time>1970-01-01T00:47:01.000Z</time>
      </trkpt>
      <trkpt lat="44.38639" lon="3.8718">
        <ele>1433</ele>
        <time>1970-01-01T00:47:02.000Z</time>
      </trkpt>
      <trkpt lat="44.38639" lon="3.8718">
        <ele>1433</ele>
        <time>1970-01-01T00:47:03.000Z</time>
      </trkpt>
      <trkpt lat="44.3864" lon="3.87192">
        <ele>1433</ele>
        <time>1970-01-01T00:47:04.000Z</time>
      </trkpt>
      <trkpt lat="44.38641" lon="3.87204">
        <ele>1432</ele>
        <time>1970-01-01T00:47:05.000Z</time>
      </trkpt>
      <trkpt lat="44.38641" lon="3.87205">
        <ele>1432</ele>
        <time>1970-01-01T00:47:06.000Z</time>
      </trkpt>
      <trkpt lat="44.38641" lon="3.87206">
        <ele>1432</ele>
        <time>1970-01-01T00:47:07.000Z</time>
      </trkpt>
      <trkpt lat="44.38638" lon="3.87218">
        <ele>1432</ele>
        <time>1970-01-01T00:47:08.000Z</time>
      </trkpt>
      <trkpt lat="44.38638" lon="3.87218">
        <ele>1432</ele>
        <time>1970-01-01T00:47:09.000Z</time>
      </trkpt>
      <trkpt lat="44.38636" lon="3.8723">
        <ele>1431</ele>
        <time>1970-01-01T00:47:10.000Z</time>
      </trkpt>
      <trkpt lat="44.38633" lon="3.87242">
        <ele>1431</ele>
        <time>1970-01-01T00:47:11.000Z</time>
      </trkpt>
      <trkpt lat="44.38633" lon="3.87242">
        <ele>1431</ele>
        <time>1970-01-01T00:47:12.000Z</time>
      </trkpt>
      <trkpt lat="44.3863" lon="3.87254">
        <ele>1429</ele>
        <time>1970-01-01T00:47:13.000Z</time>
      </trkpt>
      <trkpt lat="44.3863" lon="3.87254">
        <ele>1429</ele>
        <time>1970-01-01T00:47:14.000Z</time>
      </trkpt>
      <trkpt lat="44.38628" lon="3.87266">
        <ele>1429</ele>
        <time>1970-01-01T00:47:15.000Z</time>
      </trkpt>
      <trkpt lat="44.38625" lon="3.87278">
        <ele>1429</ele>
        <time>1970-01-01T00:47:16.000Z</time>
      </trkpt>
      <trkpt lat="44.38625" lon="3.87278">
        <ele>1429</ele>
        <time>1970-01-01T00:47:17.000Z</time>
      </trkpt>
      <trkpt lat="44.38622" lon="3.8729">
        <ele>1429</ele>
        <time>1970-01-01T00:47:18.000Z</time>
      </trkpt>
      <trkpt lat="44.38622" lon="3.8729">
        <ele>1429</ele>
        <time>1970-01-01T00:47:19.000Z</time>
      </trkpt>
      <trkpt lat="44.3862" lon="3.87302">
        <ele>1428</ele>
        <time>1970-01-01T00:47:20.000Z</time>
      </trkpt>
      <trkpt lat="44.38617" lon="3.87314">
        <ele>1428</ele>
        <time>1970-01-01T00:47:21.000Z</time>
      </trkpt>
      <trkpt lat="44.38617" lon="3.87314">
        <ele>1428</ele>
        <time>1970-01-01T00:47:22.000Z</time>
      </trkpt>
      <trkpt lat="44.38614" lon="3.87326">
        <ele>1428</ele>
        <time>1970-01-01T00:47:23.000Z</time>
      </trkpt>
      <trkpt lat="44.38614" lon="3.87326">
        <ele>1428</ele>
        <time>1970-01-01T00:47:24.000Z</time>
      </trkpt>
      <trkpt lat="44.38612" lon="3.87338">
        <ele>1428</ele>
        <time>1970-01-01T00:47:25.000Z</time>
      </trkpt>
      <trkpt lat="44.38609" lon="3.8735">
        <ele>1428</ele>
        <time>1970-01-01T00:47:26.000Z</time>
      </trkpt>
      <trkpt lat="44.38609" lon="3.8735">
        <ele>1428</ele>
        <time>1970-01-01T00:47:27.000Z</time>
      </trkpt>
      <trkpt lat="44.38607" lon="3.87362">
        <ele>1428</ele>
        <time>1970-01-01T00:47:28.000Z</time>
      </trkpt>
      <trkpt lat="44.38604" lon="3.87374">
        <ele>1429</ele>
        <time>1970-01-01T00:47:29.000Z</time>
      </trkpt>
      <trkpt lat="44.38604" lon="3.87374">
        <ele>1429</ele>
        <time>1970-01-01T00:47:30.000Z</time>
      </trkpt>
      <trkpt lat="44.38602" lon="3.87382">
        <ele>1429</ele>
        <time>1970-01-01T00:47:31.000Z</time>
      </trkpt>
      <trkpt lat="44.38601" lon="3.87394">
        <ele>1429</ele>
        <time>1970-01-01T00:47:32.000Z</time>
      </trkpt>
      <trkpt lat="44.38601" lon="3.87407">
        <ele>1429</ele>
        <time>1970-01-01T00:47:33.000Z</time>
      </trkpt>
      <trkpt lat="44.38601" lon="3.87407">
        <ele>1429</ele>
        <time>1970-01-01T00:47:34.000Z</time>
      </trkpt>
      <trkpt lat="44.386" lon="3.87419">
        <ele>1430</ele>
        <time>1970-01-01T00:47:35.000Z</time>
      </trkpt>
      <trkpt lat="44.38599" lon="3.87431">
        <ele>1431</ele>
        <time>1970-01-01T00:47:36.000Z</time>
      </trkpt>
      <trkpt lat="44.38599" lon="3.87432">
        <ele>1431</ele>
        <time>1970-01-01T00:47:37.000Z</time>
      </trkpt>
      <trkpt lat="44.38599" lon="3.87444">
        <ele>1431</ele>
        <time>1970-01-01T00:47:38.000Z</time>
      </trkpt>
      <trkpt lat="44.38598" lon="3.87456">
        <ele>1432</ele>
        <time>1970-01-01T00:47:39.000Z</time>
      </trkpt>
      <trkpt lat="44.38598" lon="3.87457">
        <ele>1432</ele>
        <time>1970-01-01T00:47:40.000Z</time>
      </trkpt>
      <trkpt lat="44.38597" lon="3.87469">
        <ele>1432</ele>
        <time>1970-01-01T00:47:41.000Z</time>
      </trkpt>
      <trkpt lat="44.38597" lon="3.87482">
        <ele>1432</ele>
        <time>1970-01-01T00:47:42.000Z</time>
      </trkpt>
      <trkpt lat="44.38597" lon="3.87482">
        <ele>1432</ele>
        <time>1970-01-01T00:47:43.000Z</time>
      </trkpt>
      <trkpt lat="44.38597" lon="3.87482">
        <ele>1432</ele>
        <time>1970-01-01T00:47:44.000Z</time>
      </trkpt>
      <trkpt lat="44.3859" lon="3.8749">
        <ele>1432</ele>
        <time>1970-01-01T00:47:45.000Z</time>
      </trkpt>
      <trkpt lat="44.3859" lon="3.8749">
        <ele>1432</ele>
        <time>1970-01-01T00:47:46.000Z</time>
      </trkpt>
      <trkpt lat="44.38583" lon="3.87498">
        <ele>1430</ele>
        <time>1970-01-01T00:47:47.000Z</time>
      </trkpt>
      <trkpt lat="44.38577" lon="3.87506">
        <ele>1429</ele>
        <time>1970-01-01T00:47:48.000Z</time>
      </trkpt>
    </trkseg>
  </trk>
</gpx>